<?xml version="1.0" encoding="UTF-8" standalone="no" ?>
<gpx xmlns="http://www.topografix.com/GPX/1/1" xmlns:xsi="http://www.w3.org/2001/XMLSchema-instance" xsi:schemaLocation="http://www.topografix.com/GPX/1/1 http://www.topografix.com/GPX/1/1/gpx.xsd" version="1.1" creator="VisuGPX - https://www.visugpx.com">
  <metadata>
    <name>La tazenat 2009</name>
    <desc><![CDATA[100KM sans la boucle de marcillat]]></desc>
  </metadata>
  <wpt lat="45.98413" lon="3.09396">
    <ele>392</ele>
    <name><![CDATA[Lap 0]]></name>
    <desc><![CDATA[2009-05-08 05:42:16]]></desc>
  </wpt>
  <trk>
    <name><![CDATA[08_05_2009 07_42_16_history]]></name>
    <desc><![CDATA[376:08 - 82.5km]]></desc>
    <trkseg>
      <trkpt lat="45.98413" lon="3.09396">
        <ele>394.2779541</ele>
        <time>2009-05-08T05:42:16Z</time>
      </trkpt>
      <trkpt lat="45.98415" lon="3.09395">
        <ele>393.7972412</ele>
        <time>2009-05-08T05:42:17Z</time>
      </trkpt>
      <trkpt lat="45.98425" lon="3.09391">
        <ele>394.2779541</ele>
        <time>2009-05-08T05:42:22Z</time>
      </trkpt>
      <trkpt lat="45.98438" lon="3.09375">
        <ele>394.2779541</ele>
        <time>2009-05-08T05:42:28Z</time>
      </trkpt>
      <trkpt lat="45.9844" lon="3.09367">
        <ele>394.2779541</ele>
        <time>2009-05-08T05:42:30Z</time>
      </trkpt>
      <trkpt lat="45.98448" lon="3.09366">
        <ele>394.2779541</ele>
        <time>2009-05-08T05:42:34Z</time>
      </trkpt>
      <trkpt lat="45.9845" lon="3.09373">
        <ele>394.2779541</ele>
        <time>2009-05-08T05:42:36Z</time>
      </trkpt>
      <trkpt lat="45.98451" lon="3.09399">
        <ele>393.3165283</ele>
        <time>2009-05-08T05:42:42Z</time>
      </trkpt>
      <trkpt lat="45.98451" lon="3.09402">
        <ele>393.7972412</ele>
        <time>2009-05-08T05:42:46Z</time>
      </trkpt>
      <trkpt lat="45.9845" lon="3.09404">
        <ele>393.7972412</ele>
        <time>2009-05-08T05:42:53Z</time>
      </trkpt>
      <trkpt lat="45.98455" lon="3.09413">
        <ele>393.3165283</ele>
        <time>2009-05-08T05:42:59Z</time>
      </trkpt>
      <trkpt lat="45.98462" lon="3.09421">
        <ele>392.8359375</ele>
        <time>2009-05-08T05:43:04Z</time>
      </trkpt>
      <trkpt lat="45.98474" lon="3.09425">
        <ele>392.8359375</ele>
        <time>2009-05-08T05:43:08Z</time>
      </trkpt>
      <trkpt lat="45.98484" lon="3.09429">
        <ele>392.8359375</ele>
        <time>2009-05-08T05:43:11Z</time>
      </trkpt>
      <trkpt lat="45.98507" lon="3.09433">
        <ele>392.8359375</ele>
        <time>2009-05-08T05:43:18Z</time>
      </trkpt>
      <trkpt lat="45.9853" lon="3.09439">
        <ele>391.8745117</ele>
        <time>2009-05-08T05:43:24Z</time>
      </trkpt>
      <trkpt lat="45.98562" lon="3.09447">
        <ele>391.3937988</ele>
        <time>2009-05-08T05:43:32Z</time>
      </trkpt>
      <trkpt lat="45.98574" lon="3.0945">
        <ele>391.3937988</ele>
        <time>2009-05-08T05:43:35Z</time>
      </trkpt>
      <trkpt lat="45.98586" lon="3.09455">
        <ele>391.3937988</ele>
        <time>2009-05-08T05:43:38Z</time>
      </trkpt>
      <trkpt lat="45.98603" lon="3.09458">
        <ele>390.913208</ele>
        <time>2009-05-08T05:43:42Z</time>
      </trkpt>
      <trkpt lat="45.98635" lon="3.09466">
        <ele>390.913208</ele>
        <time>2009-05-08T05:43:49Z</time>
      </trkpt>
      <trkpt lat="45.98674" lon="3.09472">
        <ele>390.4326172</ele>
        <time>2009-05-08T05:43:57Z</time>
      </trkpt>
      <trkpt lat="45.98712" lon="3.09476">
        <ele>389.4711914</ele>
        <time>2009-05-08T05:44:05Z</time>
      </trkpt>
      <trkpt lat="45.98756" lon="3.09481">
        <ele>389.4711914</ele>
        <time>2009-05-08T05:44:14Z</time>
      </trkpt>
      <trkpt lat="45.9881" lon="3.09488">
        <ele>388.9906006</ele>
        <time>2009-05-08T05:44:25Z</time>
      </trkpt>
      <trkpt lat="45.9885" lon="3.09492">
        <ele>388.0292969</ele>
        <time>2009-05-08T05:44:33Z</time>
      </trkpt>
      <trkpt lat="45.98884" lon="3.09488">
        <ele>388.0292969</ele>
        <time>2009-05-08T05:44:39Z</time>
      </trkpt>
      <trkpt lat="45.9892" lon="3.09472">
        <ele>386.5874023</ele>
        <time>2009-05-08T05:44:46Z</time>
      </trkpt>
      <trkpt lat="45.9896" lon="3.09454">
        <ele>385.6259766</ele>
        <time>2009-05-08T05:44:53Z</time>
      </trkpt>
      <trkpt lat="45.98966" lon="3.09451">
        <ele>385.1453857</ele>
        <time>2009-05-08T05:44:54Z</time>
      </trkpt>
      <trkpt lat="45.98986" lon="3.09441">
        <ele>383.7032471</ele>
        <time>2009-05-08T05:44:57Z</time>
      </trkpt>
      <trkpt lat="45.99" lon="3.09432">
        <ele>382.2613525</ele>
        <time>2009-05-08T05:44:59Z</time>
      </trkpt>
      <trkpt lat="45.99015" lon="3.09426">
        <ele>380.819458</ele>
        <time>2009-05-08T05:45:01Z</time>
      </trkpt>
      <trkpt lat="45.99023" lon="3.09423">
        <ele>380.3387451</ele>
        <time>2009-05-08T05:45:02Z</time>
      </trkpt>
      <trkpt lat="45.99032" lon="3.09421">
        <ele>379.3774414</ele>
        <time>2009-05-08T05:45:03Z</time>
      </trkpt>
      <trkpt lat="45.99041" lon="3.0942">
        <ele>379.3774414</ele>
        <time>2009-05-08T05:45:04Z</time>
      </trkpt>
      <trkpt lat="45.99092" lon="3.09428">
        <ele>376.9742432</ele>
        <time>2009-05-08T05:45:10Z</time>
      </trkpt>
      <trkpt lat="45.99106" lon="3.09433">
        <ele>376.9742432</ele>
        <time>2009-05-08T05:45:12Z</time>
      </trkpt>
      <trkpt lat="45.99126" lon="3.09439">
        <ele>376.0128174</ele>
        <time>2009-05-08T05:45:15Z</time>
      </trkpt>
      <trkpt lat="45.99176" lon="3.09439">
        <ele>378.4161377</ele>
        <time>2009-05-08T05:45:23Z</time>
      </trkpt>
      <trkpt lat="45.99186" lon="3.0944">
        <ele>378.8968506</ele>
        <time>2009-05-08T05:45:25Z</time>
      </trkpt>
      <trkpt lat="45.99205" lon="3.0944">
        <ele>380.3387451</ele>
        <time>2009-05-08T05:45:29Z</time>
      </trkpt>
      <trkpt lat="45.99222" lon="3.09439">
        <ele>381.3000488</ele>
        <time>2009-05-08T05:45:33Z</time>
      </trkpt>
      <trkpt lat="45.99239" lon="3.0944">
        <ele>382.2613525</ele>
        <time>2009-05-08T05:45:37Z</time>
      </trkpt>
      <trkpt lat="45.99264" lon="3.09441">
        <ele>383.2226563</ele>
        <time>2009-05-08T05:45:43Z</time>
      </trkpt>
      <trkpt lat="45.99306" lon="3.09443">
        <ele>382.7420654</ele>
        <time>2009-05-08T05:45:52Z</time>
      </trkpt>
      <trkpt lat="45.99322" lon="3.09446">
        <ele>382.7420654</ele>
        <time>2009-05-08T05:45:55Z</time>
      </trkpt>
      <trkpt lat="45.99341" lon="3.09463">
        <ele>383.2226563</ele>
        <time>2009-05-08T05:46:00Z</time>
      </trkpt>
      <trkpt lat="45.99355" lon="3.09475">
        <ele>385.6259766</ele>
        <time>2009-05-08T05:46:04Z</time>
      </trkpt>
      <trkpt lat="45.9938" lon="3.09493">
        <ele>386.5874023</ele>
        <time>2009-05-08T05:46:11Z</time>
      </trkpt>
      <trkpt lat="45.994" lon="3.09505">
        <ele>387.0679932</ele>
        <time>2009-05-08T05:46:16Z</time>
      </trkpt>
      <trkpt lat="45.99412" lon="3.09514">
        <ele>388.0292969</ele>
        <time>2009-05-08T05:46:19Z</time>
      </trkpt>
      <trkpt lat="45.99416" lon="3.09516">
        <ele>387.548584</ele>
        <time>2009-05-08T05:46:20Z</time>
      </trkpt>
      <trkpt lat="45.99455" lon="3.09543">
        <ele>389.4711914</ele>
        <time>2009-05-08T05:46:30Z</time>
      </trkpt>
      <trkpt lat="45.99458" lon="3.09546">
        <ele>389.4711914</ele>
        <time>2009-05-08T05:46:31Z</time>
      </trkpt>
      <trkpt lat="45.99488" lon="3.09563">
        <ele>392.3553467</ele>
        <time>2009-05-08T05:46:39Z</time>
      </trkpt>
      <trkpt lat="45.99516" lon="3.09591">
        <ele>395.2391357</ele>
        <time>2009-05-08T05:46:48Z</time>
      </trkpt>
      <trkpt lat="45.9955" lon="3.09633">
        <ele>396.2005615</ele>
        <time>2009-05-08T05:46:59Z</time>
      </trkpt>
      <trkpt lat="45.99581" lon="3.09674">
        <ele>397.1617432</ele>
        <time>2009-05-08T05:47:09Z</time>
      </trkpt>
      <trkpt lat="45.99602" lon="3.09704">
        <ele>397.6424561</ele>
        <time>2009-05-08T05:47:16Z</time>
      </trkpt>
      <trkpt lat="45.99621" lon="3.09731">
        <ele>397.6424561</ele>
        <time>2009-05-08T05:47:22Z</time>
      </trkpt>
      <trkpt lat="45.99654" lon="3.09782">
        <ele>396.2005615</ele>
        <time>2009-05-08T05:47:32Z</time>
      </trkpt>
      <trkpt lat="45.99674" lon="3.09814">
        <ele>394.7585449</ele>
        <time>2009-05-08T05:47:37Z</time>
      </trkpt>
      <trkpt lat="45.99695" lon="3.09847">
        <ele>393.7972412</ele>
        <time>2009-05-08T05:47:42Z</time>
      </trkpt>
      <trkpt lat="45.99705" lon="3.09859">
        <ele>392.8359375</ele>
        <time>2009-05-08T05:47:44Z</time>
      </trkpt>
      <trkpt lat="45.99715" lon="3.09874">
        <ele>391.3937988</ele>
        <time>2009-05-08T05:47:46Z</time>
      </trkpt>
      <trkpt lat="45.99729" lon="3.099">
        <ele>389.9519043</ele>
        <time>2009-05-08T05:47:49Z</time>
      </trkpt>
      <trkpt lat="45.99742" lon="3.09928">
        <ele>386.5874023</ele>
        <time>2009-05-08T05:47:52Z</time>
      </trkpt>
      <trkpt lat="45.9976" lon="3.09965">
        <ele>382.7420654</ele>
        <time>2009-05-08T05:47:56Z</time>
      </trkpt>
      <trkpt lat="45.99769" lon="3.10005">
        <ele>378.8968506</ele>
        <time>2009-05-08T05:48:00Z</time>
      </trkpt>
      <trkpt lat="45.99771" lon="3.10027">
        <ele>377.454834</ele>
        <time>2009-05-08T05:48:02Z</time>
      </trkpt>
      <trkpt lat="45.99787" lon="3.10059">
        <ele>375.0515137</ele>
        <time>2009-05-08T05:48:06Z</time>
      </trkpt>
      <trkpt lat="45.99835" lon="3.10091">
        <ele>372.6481934</ele>
        <time>2009-05-08T05:48:13Z</time>
      </trkpt>
      <trkpt lat="45.99861" lon="3.10111">
        <ele>372.1674805</ele>
        <time>2009-05-08T05:48:17Z</time>
      </trkpt>
      <trkpt lat="45.99898" lon="3.10138">
        <ele>371.6868896</ele>
        <time>2009-05-08T05:48:23Z</time>
      </trkpt>
      <trkpt lat="45.99903" lon="3.10142">
        <ele>371.2062988</ele>
        <time>2009-05-08T05:48:24Z</time>
      </trkpt>
      <trkpt lat="45.99925" lon="3.10136">
        <ele>371.2062988</ele>
        <time>2009-05-08T05:48:28Z</time>
      </trkpt>
      <trkpt lat="45.99941" lon="3.10131">
        <ele>370.7255859</ele>
        <time>2009-05-08T05:48:31Z</time>
      </trkpt>
      <trkpt lat="45.99946" lon="3.10132">
        <ele>370.7255859</ele>
        <time>2009-05-08T05:48:32Z</time>
      </trkpt>
      <trkpt lat="45.9999" lon="3.10146">
        <ele>370.244873</ele>
        <time>2009-05-08T05:48:40Z</time>
      </trkpt>
      <trkpt lat="46.00029" lon="3.10155">
        <ele>370.7255859</ele>
        <time>2009-05-08T05:48:47Z</time>
      </trkpt>
      <trkpt lat="46.00068" lon="3.10167">
        <ele>370.244873</ele>
        <time>2009-05-08T05:48:54Z</time>
      </trkpt>
      <trkpt lat="46.00114" lon="3.10181">
        <ele>370.244873</ele>
        <time>2009-05-08T05:49:02Z</time>
      </trkpt>
      <trkpt lat="46.00148" lon="3.10191">
        <ele>370.244873</ele>
        <time>2009-05-08T05:49:08Z</time>
      </trkpt>
      <trkpt lat="46.00185" lon="3.10202">
        <ele>369.7642822</ele>
        <time>2009-05-08T05:49:15Z</time>
      </trkpt>
      <trkpt lat="46.00188" lon="3.10203">
        <ele>369.7642822</ele>
        <time>2009-05-08T05:49:16Z</time>
      </trkpt>
      <trkpt lat="46.00193" lon="3.10221">
        <ele>369.2836914</ele>
        <time>2009-05-08T05:49:20Z</time>
      </trkpt>
      <trkpt lat="46.00189" lon="3.10242">
        <ele>367.3609619</ele>
        <time>2009-05-08T05:49:23Z</time>
      </trkpt>
      <trkpt lat="46.00182" lon="3.10269">
        <ele>365.9189453</ele>
        <time>2009-05-08T05:49:26Z</time>
      </trkpt>
      <trkpt lat="46.0018" lon="3.10279">
        <ele>364.9576416</ele>
        <time>2009-05-08T05:49:27Z</time>
      </trkpt>
      <trkpt lat="46.00167" lon="3.10321">
        <ele>362.5543213</ele>
        <time>2009-05-08T05:49:32Z</time>
      </trkpt>
      <trkpt lat="46.00163" lon="3.10333">
        <ele>363.0350342</ele>
        <time>2009-05-08T05:49:35Z</time>
      </trkpt>
      <trkpt lat="46.00164" lon="3.10334">
        <ele>362.5543213</ele>
        <time>2009-05-08T05:49:36Z</time>
      </trkpt>
      <trkpt lat="46.00168" lon="3.10343">
        <ele>363.0350342</ele>
        <time>2009-05-08T05:49:42Z</time>
      </trkpt>
      <trkpt lat="46.00175" lon="3.10355">
        <ele>361.1124268</ele>
        <time>2009-05-08T05:49:47Z</time>
      </trkpt>
      <trkpt lat="46.00177" lon="3.10359">
        <ele>361.1124268</ele>
        <time>2009-05-08T05:49:48Z</time>
      </trkpt>
      <trkpt lat="46.00192" lon="3.10366">
        <ele>361.5931396</ele>
        <time>2009-05-08T05:49:53Z</time>
      </trkpt>
      <trkpt lat="46.00198" lon="3.10371">
        <ele>362.0737305</ele>
        <time>2009-05-08T05:49:55Z</time>
      </trkpt>
      <trkpt lat="46.00205" lon="3.10396">
        <ele>363.5157471</ele>
        <time>2009-05-08T05:50:01Z</time>
      </trkpt>
      <trkpt lat="46.00211" lon="3.10432">
        <ele>365.4383545</ele>
        <time>2009-05-08T05:50:08Z</time>
      </trkpt>
      <trkpt lat="46.00216" lon="3.10464">
        <ele>366.880249</ele>
        <time>2009-05-08T05:50:14Z</time>
      </trkpt>
      <trkpt lat="46.00223" lon="3.10499">
        <ele>368.3222656</ele>
        <time>2009-05-08T05:50:21Z</time>
      </trkpt>
      <trkpt lat="46.00226" lon="3.10512">
        <ele>368.3222656</ele>
        <time>2009-05-08T05:50:24Z</time>
      </trkpt>
      <trkpt lat="46.00231" lon="3.1053">
        <ele>368.8029785</ele>
        <time>2009-05-08T05:50:27Z</time>
      </trkpt>
      <trkpt lat="46.00237" lon="3.10564">
        <ele>370.244873</ele>
        <time>2009-05-08T05:50:33Z</time>
      </trkpt>
      <trkpt lat="46.0024" lon="3.10606">
        <ele>371.6868896</ele>
        <time>2009-05-08T05:50:41Z</time>
      </trkpt>
      <trkpt lat="46.00243" lon="3.10638">
        <ele>372.6481934</ele>
        <time>2009-05-08T05:50:47Z</time>
      </trkpt>
      <trkpt lat="46.00252" lon="3.10657">
        <ele>372.6481934</ele>
        <time>2009-05-08T05:50:51Z</time>
      </trkpt>
      <trkpt lat="46.00278" lon="3.10703">
        <ele>373.1289063</ele>
        <time>2009-05-08T05:51:00Z</time>
      </trkpt>
      <trkpt lat="46.00298" lon="3.10743">
        <ele>373.1289063</ele>
        <time>2009-05-08T05:51:07Z</time>
      </trkpt>
      <trkpt lat="46.00314" lon="3.10776">
        <ele>374.0900879</ele>
        <time>2009-05-08T05:51:13Z</time>
      </trkpt>
      <trkpt lat="46.00322" lon="3.10793">
        <ele>374.0900879</ele>
        <time>2009-05-08T05:51:16Z</time>
      </trkpt>
      <trkpt lat="46.00336" lon="3.10797">
        <ele>374.0900879</ele>
        <time>2009-05-08T05:51:20Z</time>
      </trkpt>
      <trkpt lat="46.00342" lon="3.10789">
        <ele>374.5708008</ele>
        <time>2009-05-08T05:51:22Z</time>
      </trkpt>
      <trkpt lat="46.00381" lon="3.10743">
        <ele>376.0128174</ele>
        <time>2009-05-08T05:51:33Z</time>
      </trkpt>
      <trkpt lat="46.00416" lon="3.10702">
        <ele>377.9354248</ele>
        <time>2009-05-08T05:51:43Z</time>
      </trkpt>
      <trkpt lat="46.00453" lon="3.10661">
        <ele>379.8580322</ele>
        <time>2009-05-08T05:51:54Z</time>
      </trkpt>
      <trkpt lat="46.00486" lon="3.10626">
        <ele>382.2613525</ele>
        <time>2009-05-08T05:52:04Z</time>
      </trkpt>
      <trkpt lat="46.00493" lon="3.10619">
        <ele>382.7420654</ele>
        <time>2009-05-08T05:52:06Z</time>
      </trkpt>
      <trkpt lat="46.00518" lon="3.1059">
        <ele>384.184082</ele>
        <time>2009-05-08T05:52:14Z</time>
      </trkpt>
      <trkpt lat="46.00541" lon="3.10566">
        <ele>384.6647949</ele>
        <time>2009-05-08T05:52:21Z</time>
      </trkpt>
      <trkpt lat="46.00566" lon="3.10539">
        <ele>387.548584</ele>
        <time>2009-05-08T05:52:29Z</time>
      </trkpt>
      <trkpt lat="46.00589" lon="3.10523">
        <ele>389.4711914</ele>
        <time>2009-05-08T05:52:36Z</time>
      </trkpt>
      <trkpt lat="46.00602" lon="3.10528">
        <ele>388.9906006</ele>
        <time>2009-05-08T05:52:40Z</time>
      </trkpt>
      <trkpt lat="46.00633" lon="3.10559">
        <ele>389.4711914</ele>
        <time>2009-05-08T05:52:49Z</time>
      </trkpt>
      <trkpt lat="46.00661" lon="3.10582">
        <ele>389.4711914</ele>
        <time>2009-05-08T05:52:56Z</time>
      </trkpt>
      <trkpt lat="46.00693" lon="3.10611">
        <ele>389.9519043</ele>
        <time>2009-05-08T05:53:04Z</time>
      </trkpt>
      <trkpt lat="46.00723" lon="3.10636">
        <ele>389.9519043</ele>
        <time>2009-05-08T05:53:11Z</time>
      </trkpt>
      <trkpt lat="46.00749" lon="3.1066">
        <ele>389.4711914</ele>
        <time>2009-05-08T05:53:17Z</time>
      </trkpt>
      <trkpt lat="46.00772" lon="3.10678">
        <ele>388.9906006</ele>
        <time>2009-05-08T05:53:22Z</time>
      </trkpt>
      <trkpt lat="46.00807" lon="3.10708">
        <ele>388.9906006</ele>
        <time>2009-05-08T05:53:30Z</time>
      </trkpt>
      <trkpt lat="46.00849" lon="3.10742">
        <ele>390.913208</ele>
        <time>2009-05-08T05:53:40Z</time>
      </trkpt>
      <trkpt lat="46.00895" lon="3.10781">
        <ele>391.8745117</ele>
        <time>2009-05-08T05:53:51Z</time>
      </trkpt>
      <trkpt lat="46.00924" lon="3.10806">
        <ele>392.8359375</ele>
        <time>2009-05-08T05:53:58Z</time>
      </trkpt>
      <trkpt lat="46.00976" lon="3.10849">
        <ele>392.8359375</ele>
        <time>2009-05-08T05:54:10Z</time>
      </trkpt>
      <trkpt lat="46.01025" lon="3.1089">
        <ele>393.7972412</ele>
        <time>2009-05-08T05:54:21Z</time>
      </trkpt>
      <trkpt lat="46.01065" lon="3.10924">
        <ele>393.7972412</ele>
        <time>2009-05-08T05:54:30Z</time>
      </trkpt>
      <trkpt lat="46.0111" lon="3.1096">
        <ele>395.2391357</ele>
        <time>2009-05-08T05:54:40Z</time>
      </trkpt>
      <trkpt lat="46.01156" lon="3.10999">
        <ele>396.2005615</ele>
        <time>2009-05-08T05:54:51Z</time>
      </trkpt>
      <trkpt lat="46.01201" lon="3.11037">
        <ele>398.1231689</ele>
        <time>2009-05-08T05:55:02Z</time>
      </trkpt>
      <trkpt lat="46.01249" lon="3.11078">
        <ele>400.0458984</ele>
        <time>2009-05-08T05:55:14Z</time>
      </trkpt>
      <trkpt lat="46.01285" lon="3.11108">
        <ele>400.5264893</ele>
        <time>2009-05-08T05:55:23Z</time>
      </trkpt>
      <trkpt lat="46.01316" lon="3.11136">
        <ele>402.9296875</ele>
        <time>2009-05-08T05:55:31Z</time>
      </trkpt>
      <trkpt lat="46.01319" lon="3.1114">
        <ele>402.9296875</ele>
        <time>2009-05-08T05:55:32Z</time>
      </trkpt>
      <trkpt lat="46.01356" lon="3.11179">
        <ele>405.3330078</ele>
        <time>2009-05-08T05:55:42Z</time>
      </trkpt>
      <trkpt lat="46.01382" lon="3.11211">
        <ele>407.2556152</ele>
        <time>2009-05-08T05:55:50Z</time>
      </trkpt>
      <trkpt lat="46.01419" lon="3.11249">
        <ele>408.217041</ele>
        <time>2009-05-08T05:56:00Z</time>
      </trkpt>
      <trkpt lat="46.0146" lon="3.11292">
        <ele>409.6590576</ele>
        <time>2009-05-08T05:56:11Z</time>
      </trkpt>
      <trkpt lat="46.01499" lon="3.11331">
        <ele>411.1009521</ele>
        <time>2009-05-08T05:56:21Z</time>
      </trkpt>
      <trkpt lat="46.01545" lon="3.11381">
        <ele>411.581665</ele>
        <time>2009-05-08T05:56:33Z</time>
      </trkpt>
      <trkpt lat="46.01584" lon="3.11422">
        <ele>412.5428467</ele>
        <time>2009-05-08T05:56:43Z</time>
      </trkpt>
      <trkpt lat="46.0162" lon="3.11459">
        <ele>413.5042725</ele>
        <time>2009-05-08T05:56:52Z</time>
      </trkpt>
      <trkpt lat="46.01673" lon="3.11515">
        <ele>413.9848633</ele>
        <time>2009-05-08T05:57:06Z</time>
      </trkpt>
      <trkpt lat="46.01707" lon="3.11552">
        <ele>415.9074707</ele>
        <time>2009-05-08T05:57:15Z</time>
      </trkpt>
      <trkpt lat="46.01755" lon="3.11602">
        <ele>416.3881836</ele>
        <time>2009-05-08T05:57:28Z</time>
      </trkpt>
      <trkpt lat="46.01801" lon="3.11652">
        <ele>417.3496094</ele>
        <time>2009-05-08T05:57:40Z</time>
      </trkpt>
      <trkpt lat="46.01812" lon="3.11665">
        <ele>417.8302002</ele>
        <time>2009-05-08T05:57:43Z</time>
      </trkpt>
      <trkpt lat="46.01824" lon="3.11676">
        <ele>416.3881836</ele>
        <time>2009-05-08T05:57:46Z</time>
      </trkpt>
      <trkpt lat="46.01851" lon="3.11693">
        <ele>414.946167</ele>
        <time>2009-05-08T05:57:52Z</time>
      </trkpt>
      <trkpt lat="46.01863" lon="3.11692">
        <ele>415.9074707</ele>
        <time>2009-05-08T05:57:56Z</time>
      </trkpt>
      <trkpt lat="46.01873" lon="3.11675">
        <ele>417.3496094</ele>
        <time>2009-05-08T05:58:00Z</time>
      </trkpt>
      <trkpt lat="46.01889" lon="3.11634">
        <ele>419.2722168</ele>
        <time>2009-05-08T05:58:08Z</time>
      </trkpt>
      <trkpt lat="46.01898" lon="3.11594">
        <ele>421.1948242</ele>
        <time>2009-05-08T05:58:15Z</time>
      </trkpt>
      <trkpt lat="46.019" lon="3.11557">
        <ele>422.6367188</ele>
        <time>2009-05-08T05:58:21Z</time>
      </trkpt>
      <trkpt lat="46.01903" lon="3.11512">
        <ele>423.5980225</ele>
        <time>2009-05-08T05:58:28Z</time>
      </trkpt>
      <trkpt lat="46.01913" lon="3.11496">
        <ele>423.5980225</ele>
        <time>2009-05-08T05:58:32Z</time>
      </trkpt>
      <trkpt lat="46.01925" lon="3.11504">
        <ele>424.0787354</ele>
        <time>2009-05-08T05:58:35Z</time>
      </trkpt>
      <trkpt lat="46.01936" lon="3.11513">
        <ele>424.5594482</ele>
        <time>2009-05-08T05:58:38Z</time>
      </trkpt>
      <trkpt lat="46.01969" lon="3.11539">
        <ele>425.520752</ele>
        <time>2009-05-08T05:58:46Z</time>
      </trkpt>
      <trkpt lat="46.02008" lon="3.11569">
        <ele>428.4046631</ele>
        <time>2009-05-08T05:58:56Z</time>
      </trkpt>
      <trkpt lat="46.02028" lon="3.11584">
        <ele>428.885376</ele>
        <time>2009-05-08T05:59:01Z</time>
      </trkpt>
      <trkpt lat="46.02045" lon="3.11581">
        <ele>428.885376</ele>
        <time>2009-05-08T05:59:05Z</time>
      </trkpt>
      <trkpt lat="46.02048" lon="3.11577">
        <ele>428.885376</ele>
        <time>2009-05-08T05:59:06Z</time>
      </trkpt>
      <trkpt lat="46.02081" lon="3.11541">
        <ele>429.3659668</ele>
        <time>2009-05-08T05:59:15Z</time>
      </trkpt>
      <trkpt lat="46.02125" lon="3.11492">
        <ele>429.8465576</ele>
        <time>2009-05-08T05:59:27Z</time>
      </trkpt>
      <trkpt lat="46.02159" lon="3.11455">
        <ele>430.3272705</ele>
        <time>2009-05-08T05:59:36Z</time>
      </trkpt>
      <trkpt lat="46.02194" lon="3.11417">
        <ele>431.2885742</ele>
        <time>2009-05-08T05:59:45Z</time>
      </trkpt>
      <trkpt lat="46.02228" lon="3.11381">
        <ele>432.7307129</ele>
        <time>2009-05-08T05:59:54Z</time>
      </trkpt>
      <trkpt lat="46.0226" lon="3.11346">
        <ele>433.6918945</ele>
        <time>2009-05-08T06:00:02Z</time>
      </trkpt>
      <trkpt lat="46.02297" lon="3.11308">
        <ele>434.1726074</ele>
        <time>2009-05-08T06:00:11Z</time>
      </trkpt>
      <trkpt lat="46.02339" lon="3.11264">
        <ele>434.6533203</ele>
        <time>2009-05-08T06:00:21Z</time>
      </trkpt>
      <trkpt lat="46.02372" lon="3.11237">
        <ele>434.1726074</ele>
        <time>2009-05-08T06:00:28Z</time>
      </trkpt>
      <trkpt lat="46.02414" lon="3.11205">
        <ele>434.6533203</ele>
        <time>2009-05-08T06:00:37Z</time>
      </trkpt>
      <trkpt lat="46.02456" lon="3.11172">
        <ele>433.2113037</ele>
        <time>2009-05-08T06:00:46Z</time>
      </trkpt>
      <trkpt lat="46.02466" lon="3.11164">
        <ele>432.7307129</ele>
        <time>2009-05-08T06:00:48Z</time>
      </trkpt>
      <trkpt lat="46.02479" lon="3.11149">
        <ele>433.2113037</ele>
        <time>2009-05-08T06:00:51Z</time>
      </trkpt>
      <trkpt lat="46.02495" lon="3.11121">
        <ele>433.6918945</ele>
        <time>2009-05-08T06:00:56Z</time>
      </trkpt>
      <trkpt lat="46.02511" lon="3.11069">
        <ele>435.614502</ele>
        <time>2009-05-08T06:01:04Z</time>
      </trkpt>
      <trkpt lat="46.02527" lon="3.11043">
        <ele>435.614502</ele>
        <time>2009-05-08T06:01:09Z</time>
      </trkpt>
      <trkpt lat="46.02553" lon="3.11011">
        <ele>436.0952148</ele>
        <time>2009-05-08T06:01:16Z</time>
      </trkpt>
      <trkpt lat="46.02572" lon="3.10973">
        <ele>437.0565186</ele>
        <time>2009-05-08T06:01:23Z</time>
      </trkpt>
      <trkpt lat="46.02581" lon="3.10945">
        <ele>438.0178223</ele>
        <time>2009-05-08T06:01:28Z</time>
      </trkpt>
      <trkpt lat="46.02589" lon="3.10893">
        <ele>438.979126</ele>
        <time>2009-05-08T06:01:36Z</time>
      </trkpt>
      <trkpt lat="46.02598" lon="3.10842">
        <ele>439.9404297</ele>
        <time>2009-05-08T06:01:44Z</time>
      </trkpt>
      <trkpt lat="46.02608" lon="3.10794">
        <ele>440.4212646</ele>
        <time>2009-05-08T06:01:52Z</time>
      </trkpt>
      <trkpt lat="46.02622" lon="3.10749">
        <ele>441.3824463</ele>
        <time>2009-05-08T06:02:01Z</time>
      </trkpt>
      <trkpt lat="46.02637" lon="3.10718">
        <ele>442.3438721</ele>
        <time>2009-05-08T06:02:08Z</time>
      </trkpt>
      <trkpt lat="46.02654" lon="3.10703">
        <ele>443.7857666</ele>
        <time>2009-05-08T06:02:14Z</time>
      </trkpt>
      <trkpt lat="46.02674" lon="3.10685">
        <ele>444.7470703</ele>
        <time>2009-05-08T06:02:21Z</time>
      </trkpt>
      <trkpt lat="46.02684" lon="3.10659">
        <ele>445.2276611</ele>
        <time>2009-05-08T06:02:28Z</time>
      </trkpt>
      <trkpt lat="46.02692" lon="3.10629">
        <ele>447.6309814</ele>
        <time>2009-05-08T06:02:35Z</time>
      </trkpt>
      <trkpt lat="46.02701" lon="3.10584">
        <ele>450.0344238</ele>
        <time>2009-05-08T06:02:44Z</time>
      </trkpt>
      <trkpt lat="46.02702" lon="3.10564">
        <ele>450.9956055</ele>
        <time>2009-05-08T06:02:48Z</time>
      </trkpt>
      <trkpt lat="46.02709" lon="3.10557">
        <ele>452.4376221</ele>
        <time>2009-05-08T06:02:52Z</time>
      </trkpt>
      <trkpt lat="46.0272" lon="3.10566">
        <ele>453.3989258</ele>
        <time>2009-05-08T06:02:56Z</time>
      </trkpt>
      <trkpt lat="46.02728" lon="3.10558">
        <ele>453.8796387</ele>
        <time>2009-05-08T06:02:59Z</time>
      </trkpt>
      <trkpt lat="46.02753" lon="3.1053">
        <ele>455.3215332</ele>
        <time>2009-05-08T06:03:08Z</time>
      </trkpt>
      <trkpt lat="46.02772" lon="3.10507">
        <ele>456.282959</ele>
        <time>2009-05-08T06:03:15Z</time>
      </trkpt>
      <trkpt lat="46.02782" lon="3.10481">
        <ele>457.2442627</ele>
        <time>2009-05-08T06:03:21Z</time>
      </trkpt>
      <trkpt lat="46.0279" lon="3.1044">
        <ele>457.2442627</ele>
        <time>2009-05-08T06:03:28Z</time>
      </trkpt>
      <trkpt lat="46.02803" lon="3.10394">
        <ele>457.2442627</ele>
        <time>2009-05-08T06:03:35Z</time>
      </trkpt>
      <trkpt lat="46.02821" lon="3.10356">
        <ele>457.7249756</ele>
        <time>2009-05-08T06:03:42Z</time>
      </trkpt>
      <trkpt lat="46.02835" lon="3.1033">
        <ele>459.1668701</ele>
        <time>2009-05-08T06:03:47Z</time>
      </trkpt>
      <trkpt lat="46.02843" lon="3.10307">
        <ele>459.647583</ele>
        <time>2009-05-08T06:03:51Z</time>
      </trkpt>
      <trkpt lat="46.02849" lon="3.10274">
        <ele>460.1281738</ele>
        <time>2009-05-08T06:03:56Z</time>
      </trkpt>
      <trkpt lat="46.02869" lon="3.10204">
        <ele>460.6087646</ele>
        <time>2009-05-08T06:04:07Z</time>
      </trkpt>
      <trkpt lat="46.02885" lon="3.10158">
        <ele>459.647583</ele>
        <time>2009-05-08T06:04:14Z</time>
      </trkpt>
      <trkpt lat="46.02901" lon="3.10147">
        <ele>460.1281738</ele>
        <time>2009-05-08T06:04:18Z</time>
      </trkpt>
      <trkpt lat="46.02919" lon="3.10156">
        <ele>460.1281738</ele>
        <time>2009-05-08T06:04:22Z</time>
      </trkpt>
      <trkpt lat="46.02948" lon="3.10177">
        <ele>460.1281738</ele>
        <time>2009-05-08T06:04:29Z</time>
      </trkpt>
      <trkpt lat="46.02962" lon="3.10184">
        <ele>460.6087646</ele>
        <time>2009-05-08T06:04:32Z</time>
      </trkpt>
      <trkpt lat="46.03005" lon="3.10196">
        <ele>462.5313721</ele>
        <time>2009-05-08T06:04:42Z</time>
      </trkpt>
      <trkpt lat="46.03026" lon="3.10199">
        <ele>462.5313721</ele>
        <time>2009-05-08T06:04:47Z</time>
      </trkpt>
      <trkpt lat="46.03044" lon="3.10191">
        <ele>463.9733887</ele>
        <time>2009-05-08T06:04:52Z</time>
      </trkpt>
      <trkpt lat="46.03055" lon="3.10181">
        <ele>464.4541016</ele>
        <time>2009-05-08T06:04:55Z</time>
      </trkpt>
      <trkpt lat="46.03085" lon="3.10172">
        <ele>464.9348145</ele>
        <time>2009-05-08T06:05:02Z</time>
      </trkpt>
      <trkpt lat="46.03102" lon="3.10171">
        <ele>464.9348145</ele>
        <time>2009-05-08T06:05:06Z</time>
      </trkpt>
      <trkpt lat="46.03132" lon="3.10175">
        <ele>464.4541016</ele>
        <time>2009-05-08T06:05:13Z</time>
      </trkpt>
      <trkpt lat="46.03165" lon="3.10174">
        <ele>464.4541016</ele>
        <time>2009-05-08T06:05:20Z</time>
      </trkpt>
      <trkpt lat="46.03203" lon="3.10173">
        <ele>464.4541016</ele>
        <time>2009-05-08T06:05:28Z</time>
      </trkpt>
      <trkpt lat="46.03232" lon="3.10168">
        <ele>464.4541016</ele>
        <time>2009-05-08T06:05:34Z</time>
      </trkpt>
      <trkpt lat="46.03255" lon="3.10165">
        <ele>464.4541016</ele>
        <time>2009-05-08T06:05:39Z</time>
      </trkpt>
      <trkpt lat="46.03287" lon="3.10154">
        <ele>464.9348145</ele>
        <time>2009-05-08T06:05:46Z</time>
      </trkpt>
      <trkpt lat="46.03292" lon="3.10152">
        <ele>464.4541016</ele>
        <time>2009-05-08T06:05:47Z</time>
      </trkpt>
      <trkpt lat="46.03327" lon="3.10117">
        <ele>464.9348145</ele>
        <time>2009-05-08T06:05:56Z</time>
      </trkpt>
      <trkpt lat="46.03352" lon="3.10093">
        <ele>466.376709</ele>
        <time>2009-05-08T06:06:03Z</time>
      </trkpt>
      <trkpt lat="46.03375" lon="3.10091">
        <ele>466.8574219</ele>
        <time>2009-05-08T06:06:09Z</time>
      </trkpt>
      <trkpt lat="46.03412" lon="3.10089">
        <ele>465.8961182</ele>
        <time>2009-05-08T06:06:17Z</time>
      </trkpt>
      <trkpt lat="46.0346" lon="3.10087">
        <ele>466.8574219</ele>
        <time>2009-05-08T06:06:27Z</time>
      </trkpt>
      <trkpt lat="46.03492" lon="3.10085">
        <ele>468.2993164</ele>
        <time>2009-05-08T06:06:35Z</time>
      </trkpt>
      <trkpt lat="46.03509" lon="3.10086">
        <ele>469.2607422</ele>
        <time>2009-05-08T06:06:40Z</time>
      </trkpt>
      <trkpt lat="46.03525" lon="3.10092">
        <ele>469.2607422</ele>
        <time>2009-05-08T06:06:44Z</time>
      </trkpt>
      <trkpt lat="46.03547" lon="3.10106">
        <ele>469.2607422</ele>
        <time>2009-05-08T06:06:50Z</time>
      </trkpt>
      <trkpt lat="46.03561" lon="3.10127">
        <ele>469.741333</ele>
        <time>2009-05-08T06:06:55Z</time>
      </trkpt>
      <trkpt lat="46.03571" lon="3.10151">
        <ele>470.7026367</ele>
        <time>2009-05-08T06:07:00Z</time>
      </trkpt>
      <trkpt lat="46.0358" lon="3.10177">
        <ele>471.1833496</ele>
        <time>2009-05-08T06:07:06Z</time>
      </trkpt>
      <trkpt lat="46.03582" lon="3.10184">
        <ele>471.1833496</ele>
        <time>2009-05-08T06:07:10Z</time>
      </trkpt>
      <trkpt lat="46.0358" lon="3.10183">
        <ele>471.1833496</ele>
        <time>2009-05-08T06:07:19Z</time>
      </trkpt>
      <trkpt lat="46.03581" lon="3.1019">
        <ele>471.6639404</ele>
        <time>2009-05-08T06:07:28Z</time>
      </trkpt>
      <trkpt lat="46.03587" lon="3.10204">
        <ele>471.6639404</ele>
        <time>2009-05-08T06:07:33Z</time>
      </trkpt>
      <trkpt lat="46.03594" lon="3.10222">
        <ele>473.1060791</ele>
        <time>2009-05-08T06:07:40Z</time>
      </trkpt>
      <trkpt lat="46.03602" lon="3.10235">
        <ele>473.5866699</ele>
        <time>2009-05-08T06:07:44Z</time>
      </trkpt>
      <trkpt lat="46.03619" lon="3.10252">
        <ele>474.5479736</ele>
        <time>2009-05-08T06:07:50Z</time>
      </trkpt>
      <trkpt lat="46.03625" lon="3.10257">
        <ele>474.5479736</ele>
        <time>2009-05-08T06:07:52Z</time>
      </trkpt>
      <trkpt lat="46.03633" lon="3.10252">
        <ele>475.0286865</ele>
        <time>2009-05-08T06:07:57Z</time>
      </trkpt>
      <trkpt lat="46.03638" lon="3.10235">
        <ele>476.4705811</ele>
        <time>2009-05-08T06:08:02Z</time>
      </trkpt>
      <trkpt lat="46.0364" lon="3.10218">
        <ele>476.4705811</ele>
        <time>2009-05-08T06:08:06Z</time>
      </trkpt>
      <trkpt lat="46.0364" lon="3.10214">
        <ele>476.9512939</ele>
        <time>2009-05-08T06:08:07Z</time>
      </trkpt>
      <trkpt lat="46.0364" lon="3.10205">
        <ele>478.3931885</ele>
        <time>2009-05-08T06:08:10Z</time>
      </trkpt>
      <trkpt lat="46.03636" lon="3.10183">
        <ele>479.3544922</ele>
        <time>2009-05-08T06:08:16Z</time>
      </trkpt>
      <trkpt lat="46.03636" lon="3.10163">
        <ele>480.315918</ele>
        <time>2009-05-08T06:08:21Z</time>
      </trkpt>
      <trkpt lat="46.03641" lon="3.10154">
        <ele>481.7578125</ele>
        <time>2009-05-08T06:08:25Z</time>
      </trkpt>
      <trkpt lat="46.0365" lon="3.10146">
        <ele>484.1611328</ele>
        <time>2009-05-08T06:08:30Z</time>
      </trkpt>
      <trkpt lat="46.03662" lon="3.10139">
        <ele>486.0837402</ele>
        <time>2009-05-08T06:08:37Z</time>
      </trkpt>
      <trkpt lat="46.03674" lon="3.10133">
        <ele>487.5256348</ele>
        <time>2009-05-08T06:08:43Z</time>
      </trkpt>
      <trkpt lat="46.03679" lon="3.10129">
        <ele>488.9677734</ele>
        <time>2009-05-08T06:08:46Z</time>
      </trkpt>
      <trkpt lat="46.03695" lon="3.1012">
        <ele>490.40979</ele>
        <time>2009-05-08T06:08:54Z</time>
      </trkpt>
      <trkpt lat="46.03706" lon="3.10105">
        <ele>491.8516846</ele>
        <time>2009-05-08T06:09:02Z</time>
      </trkpt>
      <trkpt lat="46.03714" lon="3.10089">
        <ele>492.3323975</ele>
        <time>2009-05-08T06:09:08Z</time>
      </trkpt>
      <trkpt lat="46.03722" lon="3.10081">
        <ele>493.774292</ele>
        <time>2009-05-08T06:09:12Z</time>
      </trkpt>
      <trkpt lat="46.03721" lon="3.10061">
        <ele>493.774292</ele>
        <time>2009-05-08T06:09:18Z</time>
      </trkpt>
      <trkpt lat="46.03724" lon="3.10043">
        <ele>494.2550049</ele>
        <time>2009-05-08T06:09:23Z</time>
      </trkpt>
      <trkpt lat="46.03724" lon="3.10028">
        <ele>494.7355957</ele>
        <time>2009-05-08T06:09:27Z</time>
      </trkpt>
      <trkpt lat="46.03722" lon="3.10002">
        <ele>494.7355957</ele>
        <time>2009-05-08T06:09:33Z</time>
      </trkpt>
      <trkpt lat="46.03725" lon="3.09979">
        <ele>494.7355957</ele>
        <time>2009-05-08T06:09:38Z</time>
      </trkpt>
      <trkpt lat="46.0373" lon="3.09955">
        <ele>496.1777344</ele>
        <time>2009-05-08T06:09:44Z</time>
      </trkpt>
      <trkpt lat="46.03732" lon="3.09938">
        <ele>497.6196289</ele>
        <time>2009-05-08T06:09:48Z</time>
      </trkpt>
      <trkpt lat="46.03731" lon="3.09921">
        <ele>497.6196289</ele>
        <time>2009-05-08T06:09:53Z</time>
      </trkpt>
      <trkpt lat="46.03728" lon="3.09912">
        <ele>496.6583252</ele>
        <time>2009-05-08T06:09:55Z</time>
      </trkpt>
      <trkpt lat="46.03722" lon="3.09883">
        <ele>496.1777344</ele>
        <time>2009-05-08T06:10:00Z</time>
      </trkpt>
      <trkpt lat="46.03722" lon="3.09856">
        <ele>496.6583252</ele>
        <time>2009-05-08T06:10:04Z</time>
      </trkpt>
      <trkpt lat="46.03728" lon="3.0983">
        <ele>496.6583252</ele>
        <time>2009-05-08T06:10:09Z</time>
      </trkpt>
      <trkpt lat="46.03733" lon="3.09813">
        <ele>496.1777344</ele>
        <time>2009-05-08T06:10:13Z</time>
      </trkpt>
      <trkpt lat="46.03736" lon="3.09801">
        <ele>494.7355957</ele>
        <time>2009-05-08T06:10:15Z</time>
      </trkpt>
      <trkpt lat="46.03746" lon="3.09794">
        <ele>495.6968994</ele>
        <time>2009-05-08T06:10:18Z</time>
      </trkpt>
      <trkpt lat="46.03748" lon="3.09794">
        <ele>495.6968994</ele>
        <time>2009-05-08T06:10:19Z</time>
      </trkpt>
      <trkpt lat="46.03757" lon="3.09798">
        <ele>497.6196289</ele>
        <time>2009-05-08T06:10:22Z</time>
      </trkpt>
      <trkpt lat="46.03762" lon="3.09799">
        <ele>498.1003418</ele>
        <time>2009-05-08T06:10:24Z</time>
      </trkpt>
      <trkpt lat="46.0377" lon="3.09805">
        <ele>500.0229492</ele>
        <time>2009-05-08T06:10:28Z</time>
      </trkpt>
      <trkpt lat="46.03772" lon="3.09806">
        <ele>500.50354</ele>
        <time>2009-05-08T06:10:29Z</time>
      </trkpt>
      <trkpt lat="46.0378" lon="3.09799">
        <ele>500.50354</ele>
        <time>2009-05-08T06:10:34Z</time>
      </trkpt>
      <trkpt lat="46.03785" lon="3.09793">
        <ele>500.9841309</ele>
        <time>2009-05-08T06:10:36Z</time>
      </trkpt>
      <trkpt lat="46.03805" lon="3.09785">
        <ele>499.5422363</ele>
        <time>2009-05-08T06:10:42Z</time>
      </trkpt>
      <trkpt lat="46.03818" lon="3.09791">
        <ele>496.1777344</ele>
        <time>2009-05-08T06:10:46Z</time>
      </trkpt>
      <trkpt lat="46.03832" lon="3.09795">
        <ele>495.2161865</ele>
        <time>2009-05-08T06:10:50Z</time>
      </trkpt>
      <trkpt lat="46.03834" lon="3.09795">
        <ele>494.7355957</ele>
        <time>2009-05-08T06:10:51Z</time>
      </trkpt>
      <trkpt lat="46.03845" lon="3.09803">
        <ele>494.7355957</ele>
        <time>2009-05-08T06:10:56Z</time>
      </trkpt>
      <trkpt lat="46.03848" lon="3.09812">
        <ele>495.2161865</ele>
        <time>2009-05-08T06:11:00Z</time>
      </trkpt>
      <trkpt lat="46.03853" lon="3.09814">
        <ele>493.774292</ele>
        <time>2009-05-08T06:11:04Z</time>
      </trkpt>
      <trkpt lat="46.03857" lon="3.09807">
        <ele>491.8516846</ele>
        <time>2009-05-08T06:11:09Z</time>
      </trkpt>
      <trkpt lat="46.03859" lon="3.09803">
        <ele>490.40979</ele>
        <time>2009-05-08T06:11:12Z</time>
      </trkpt>
      <trkpt lat="46.03871" lon="3.09786">
        <ele>484.6418457</ele>
        <time>2009-05-08T06:11:18Z</time>
      </trkpt>
      <trkpt lat="46.03885" lon="3.0977">
        <ele>482.2385254</ele>
        <time>2009-05-08T06:11:23Z</time>
      </trkpt>
      <trkpt lat="46.03891" lon="3.09768">
        <ele>481.2772217</ele>
        <time>2009-05-08T06:11:25Z</time>
      </trkpt>
      <trkpt lat="46.03902" lon="3.09754">
        <ele>476.4705811</ele>
        <time>2009-05-08T06:11:30Z</time>
      </trkpt>
      <trkpt lat="46.039" lon="3.09734">
        <ele>473.5866699</ele>
        <time>2009-05-08T06:11:35Z</time>
      </trkpt>
      <trkpt lat="46.039" lon="3.09732">
        <ele>473.5866699</ele>
        <time>2009-05-08T06:11:36Z</time>
      </trkpt>
      <trkpt lat="46.03907" lon="3.09725">
        <ele>471.1833496</ele>
        <time>2009-05-08T06:11:40Z</time>
      </trkpt>
      <trkpt lat="46.03914" lon="3.09727">
        <ele>469.2607422</ele>
        <time>2009-05-08T06:11:44Z</time>
      </trkpt>
      <trkpt lat="46.03921" lon="3.09742">
        <ele>466.8574219</ele>
        <time>2009-05-08T06:11:49Z</time>
      </trkpt>
      <trkpt lat="46.03921" lon="3.09746">
        <ele>466.376709</ele>
        <time>2009-05-08T06:11:51Z</time>
      </trkpt>
      <trkpt lat="46.03927" lon="3.09754">
        <ele>462.5313721</ele>
        <time>2009-05-08T06:11:55Z</time>
      </trkpt>
      <trkpt lat="46.0393" lon="3.09756">
        <ele>461.0894775</ele>
        <time>2009-05-08T06:11:57Z</time>
      </trkpt>
      <trkpt lat="46.03937" lon="3.0975">
        <ele>457.7249756</ele>
        <time>2009-05-08T06:12:01Z</time>
      </trkpt>
      <trkpt lat="46.03938" lon="3.09746">
        <ele>457.7249756</ele>
        <time>2009-05-08T06:12:02Z</time>
      </trkpt>
      <trkpt lat="46.03938" lon="3.09729">
        <ele>456.282959</ele>
        <time>2009-05-08T06:12:04Z</time>
      </trkpt>
      <trkpt lat="46.03934" lon="3.09704">
        <ele>451.9570313</ele>
        <time>2009-05-08T06:12:08Z</time>
      </trkpt>
      <trkpt lat="46.03934" lon="3.09692">
        <ele>450.9956055</ele>
        <time>2009-05-08T06:12:10Z</time>
      </trkpt>
      <trkpt lat="46.03932" lon="3.09674">
        <ele>449.5537109</ele>
        <time>2009-05-08T06:12:13Z</time>
      </trkpt>
      <trkpt lat="46.0393" lon="3.0966">
        <ele>448.1118164</ele>
        <time>2009-05-08T06:12:15Z</time>
      </trkpt>
      <trkpt lat="46.03913" lon="3.09632">
        <ele>443.7857666</ele>
        <time>2009-05-08T06:12:20Z</time>
      </trkpt>
      <trkpt lat="46.03889" lon="3.09618">
        <ele>441.3824463</ele>
        <time>2009-05-08T06:12:24Z</time>
      </trkpt>
      <trkpt lat="46.03854" lon="3.09613">
        <ele>437.5371094</ele>
        <time>2009-05-08T06:12:29Z</time>
      </trkpt>
      <trkpt lat="46.03847" lon="3.0961">
        <ele>437.0565186</ele>
        <time>2009-05-08T06:12:32Z</time>
      </trkpt>
      <trkpt lat="46.03833" lon="3.09607">
        <ele>436.5759277</ele>
        <time>2009-05-08T06:12:37Z</time>
      </trkpt>
      <trkpt lat="46.038" lon="3.09606">
        <ele>434.6533203</ele>
        <time>2009-05-08T06:12:43Z</time>
      </trkpt>
      <trkpt lat="46.03793" lon="3.09604">
        <ele>434.1726074</ele>
        <time>2009-05-08T06:12:44Z</time>
      </trkpt>
      <trkpt lat="46.0378" lon="3.09598">
        <ele>433.2113037</ele>
        <time>2009-05-08T06:12:46Z</time>
      </trkpt>
      <trkpt lat="46.03762" lon="3.09581">
        <ele>431.2885742</ele>
        <time>2009-05-08T06:12:49Z</time>
      </trkpt>
      <trkpt lat="46.0375" lon="3.09549">
        <ele>429.8465576</ele>
        <time>2009-05-08T06:12:53Z</time>
      </trkpt>
      <trkpt lat="46.03752" lon="3.09524">
        <ele>430.3272705</ele>
        <time>2009-05-08T06:12:56Z</time>
      </trkpt>
      <trkpt lat="46.03756" lon="3.09488">
        <ele>429.8465576</ele>
        <time>2009-05-08T06:13:02Z</time>
      </trkpt>
      <trkpt lat="46.03753" lon="3.0947">
        <ele>430.3272705</ele>
        <time>2009-05-08T06:13:06Z</time>
      </trkpt>
      <trkpt lat="46.0375" lon="3.09436">
        <ele>430.8079834</ele>
        <time>2009-05-08T06:13:14Z</time>
      </trkpt>
      <trkpt lat="46.03747" lon="3.09409">
        <ele>432.25</ele>
        <time>2009-05-08T06:13:20Z</time>
      </trkpt>
      <trkpt lat="46.03741" lon="3.09386">
        <ele>431.769165</ele>
        <time>2009-05-08T06:13:25Z</time>
      </trkpt>
      <trkpt lat="46.03738" lon="3.09364">
        <ele>431.769165</ele>
        <time>2009-05-08T06:13:29Z</time>
      </trkpt>
      <trkpt lat="46.03735" lon="3.09343">
        <ele>431.769165</ele>
        <time>2009-05-08T06:13:33Z</time>
      </trkpt>
      <trkpt lat="46.03734" lon="3.09336">
        <ele>432.25</ele>
        <time>2009-05-08T06:13:35Z</time>
      </trkpt>
      <trkpt lat="46.03734" lon="3.09312">
        <ele>432.7307129</ele>
        <time>2009-05-08T06:13:41Z</time>
      </trkpt>
      <trkpt lat="46.03735" lon="3.09307">
        <ele>432.7307129</ele>
        <time>2009-05-08T06:13:42Z</time>
      </trkpt>
      <trkpt lat="46.03739" lon="3.09287">
        <ele>434.1726074</ele>
        <time>2009-05-08T06:13:47Z</time>
      </trkpt>
      <trkpt lat="46.03739" lon="3.09279">
        <ele>435.1339111</ele>
        <time>2009-05-08T06:13:50Z</time>
      </trkpt>
      <trkpt lat="46.03733" lon="3.09258">
        <ele>434.1726074</ele>
        <time>2009-05-08T06:13:55Z</time>
      </trkpt>
      <trkpt lat="46.03733" lon="3.09254">
        <ele>434.6533203</ele>
        <time>2009-05-08T06:13:56Z</time>
      </trkpt>
      <trkpt lat="46.03733" lon="3.09228">
        <ele>437.0565186</ele>
        <time>2009-05-08T06:14:02Z</time>
      </trkpt>
      <trkpt lat="46.03737" lon="3.09215">
        <ele>437.5371094</ele>
        <time>2009-05-08T06:14:05Z</time>
      </trkpt>
      <trkpt lat="46.03742" lon="3.09207">
        <ele>438.4985352</ele>
        <time>2009-05-08T06:14:07Z</time>
      </trkpt>
      <trkpt lat="46.0375" lon="3.09189">
        <ele>438.979126</ele>
        <time>2009-05-08T06:14:12Z</time>
      </trkpt>
      <trkpt lat="46.03753" lon="3.09173">
        <ele>439.9404297</ele>
        <time>2009-05-08T06:14:16Z</time>
      </trkpt>
      <trkpt lat="46.0376" lon="3.09144">
        <ele>439.9404297</ele>
        <time>2009-05-08T06:14:22Z</time>
      </trkpt>
      <trkpt lat="46.03771" lon="3.09121">
        <ele>440.4212646</ele>
        <time>2009-05-08T06:14:27Z</time>
      </trkpt>
      <trkpt lat="46.03785" lon="3.09104">
        <ele>440.4212646</ele>
        <time>2009-05-08T06:14:32Z</time>
      </trkpt>
      <trkpt lat="46.03803" lon="3.09092">
        <ele>440.4212646</ele>
        <time>2009-05-08T06:14:37Z</time>
      </trkpt>
      <trkpt lat="46.03811" lon="3.09086">
        <ele>440.9018555</ele>
        <time>2009-05-08T06:14:40Z</time>
      </trkpt>
      <trkpt lat="46.03828" lon="3.09078">
        <ele>440.9018555</ele>
        <time>2009-05-08T06:14:46Z</time>
      </trkpt>
      <trkpt lat="46.03849" lon="3.09066">
        <ele>442.3438721</ele>
        <time>2009-05-08T06:14:52Z</time>
      </trkpt>
      <trkpt lat="46.03864" lon="3.09056">
        <ele>443.3050537</ele>
        <time>2009-05-08T06:14:57Z</time>
      </trkpt>
      <trkpt lat="46.03873" lon="3.09051">
        <ele>442.8244629</ele>
        <time>2009-05-08T06:15:01Z</time>
      </trkpt>
      <trkpt lat="46.03887" lon="3.09048">
        <ele>444.2664795</ele>
        <time>2009-05-08T06:15:06Z</time>
      </trkpt>
      <trkpt lat="46.03889" lon="3.09048">
        <ele>444.7470703</ele>
        <time>2009-05-08T06:15:07Z</time>
      </trkpt>
      <trkpt lat="46.03894" lon="3.09057">
        <ele>445.2276611</ele>
        <time>2009-05-08T06:15:11Z</time>
      </trkpt>
      <trkpt lat="46.03896" lon="3.09065">
        <ele>447.6309814</ele>
        <time>2009-05-08T06:15:18Z</time>
      </trkpt>
      <trkpt lat="46.03895" lon="3.09067">
        <ele>448.1118164</ele>
        <time>2009-05-08T06:15:23Z</time>
      </trkpt>
      <trkpt lat="46.03892" lon="3.09071">
        <ele>449.5537109</ele>
        <time>2009-05-08T06:15:31Z</time>
      </trkpt>
      <trkpt lat="46.03893" lon="3.09077">
        <ele>450.9956055</ele>
        <time>2009-05-08T06:15:37Z</time>
      </trkpt>
      <trkpt lat="46.03896" lon="3.09081">
        <ele>451.9570313</ele>
        <time>2009-05-08T06:15:42Z</time>
      </trkpt>
      <trkpt lat="46.03899" lon="3.09082">
        <ele>454.3602295</ele>
        <time>2009-05-08T06:15:50Z</time>
      </trkpt>
      <trkpt lat="46.03906" lon="3.09085">
        <ele>454.8408203</ele>
        <time>2009-05-08T06:15:58Z</time>
      </trkpt>
      <trkpt lat="46.0391" lon="3.09087">
        <ele>456.282959</ele>
        <time>2009-05-08T06:16:03Z</time>
      </trkpt>
      <trkpt lat="46.03916" lon="3.09088">
        <ele>457.2442627</ele>
        <time>2009-05-08T06:16:10Z</time>
      </trkpt>
      <trkpt lat="46.03924" lon="3.09089">
        <ele>457.2442627</ele>
        <time>2009-05-08T06:16:17Z</time>
      </trkpt>
      <trkpt lat="46.03932" lon="3.0909">
        <ele>458.2055664</ele>
        <time>2009-05-08T06:16:23Z</time>
      </trkpt>
      <trkpt lat="46.03942" lon="3.09077">
        <ele>458.2055664</ele>
        <time>2009-05-08T06:16:29Z</time>
      </trkpt>
      <trkpt lat="46.03946" lon="3.09073">
        <ele>458.2055664</ele>
        <time>2009-05-08T06:16:31Z</time>
      </trkpt>
      <trkpt lat="46.03958" lon="3.0906">
        <ele>458.2055664</ele>
        <time>2009-05-08T06:16:37Z</time>
      </trkpt>
      <trkpt lat="46.03968" lon="3.0905">
        <ele>457.2442627</ele>
        <time>2009-05-08T06:16:42Z</time>
      </trkpt>
      <trkpt lat="46.03983" lon="3.09043">
        <ele>457.2442627</ele>
        <time>2009-05-08T06:16:47Z</time>
      </trkpt>
      <trkpt lat="46.03986" lon="3.09043">
        <ele>457.7249756</ele>
        <time>2009-05-08T06:16:48Z</time>
      </trkpt>
      <trkpt lat="46.03998" lon="3.0903">
        <ele>456.282959</ele>
        <time>2009-05-08T06:16:53Z</time>
      </trkpt>
      <trkpt lat="46.04001" lon="3.09027">
        <ele>456.7635498</ele>
        <time>2009-05-08T06:16:54Z</time>
      </trkpt>
      <trkpt lat="46.04012" lon="3.09021">
        <ele>456.7635498</ele>
        <time>2009-05-08T06:16:58Z</time>
      </trkpt>
      <trkpt lat="46.04033" lon="3.09017">
        <ele>456.7635498</ele>
        <time>2009-05-08T06:17:04Z</time>
      </trkpt>
      <trkpt lat="46.04042" lon="3.09019">
        <ele>457.2442627</ele>
        <time>2009-05-08T06:17:08Z</time>
      </trkpt>
      <trkpt lat="46.04055" lon="3.0901">
        <ele>455.3215332</ele>
        <time>2009-05-08T06:17:12Z</time>
      </trkpt>
      <trkpt lat="46.04076" lon="3.09003">
        <ele>455.3215332</ele>
        <time>2009-05-08T06:17:17Z</time>
      </trkpt>
      <trkpt lat="46.04096" lon="3.08993">
        <ele>455.8022461</ele>
        <time>2009-05-08T06:17:23Z</time>
      </trkpt>
      <trkpt lat="46.04115" lon="3.08989">
        <ele>456.282959</ele>
        <time>2009-05-08T06:17:27Z</time>
      </trkpt>
      <trkpt lat="46.04129" lon="3.08986">
        <ele>457.2442627</ele>
        <time>2009-05-08T06:17:32Z</time>
      </trkpt>
      <trkpt lat="46.04142" lon="3.08984">
        <ele>458.6861572</ele>
        <time>2009-05-08T06:17:38Z</time>
      </trkpt>
      <trkpt lat="46.04152" lon="3.08978">
        <ele>458.2055664</ele>
        <time>2009-05-08T06:17:42Z</time>
      </trkpt>
      <trkpt lat="46.04168" lon="3.08988">
        <ele>459.1668701</ele>
        <time>2009-05-08T06:17:48Z</time>
      </trkpt>
      <trkpt lat="46.04177" lon="3.09004">
        <ele>459.647583</ele>
        <time>2009-05-08T06:17:53Z</time>
      </trkpt>
      <trkpt lat="46.04192" lon="3.09025">
        <ele>461.5701904</ele>
        <time>2009-05-08T06:18:00Z</time>
      </trkpt>
      <trkpt lat="46.04203" lon="3.0904">
        <ele>462.5313721</ele>
        <time>2009-05-08T06:18:05Z</time>
      </trkpt>
      <trkpt lat="46.0421" lon="3.09057">
        <ele>463.9733887</ele>
        <time>2009-05-08T06:18:11Z</time>
      </trkpt>
      <trkpt lat="46.0422" lon="3.09078">
        <ele>463.012085</ele>
        <time>2009-05-08T06:18:17Z</time>
      </trkpt>
      <trkpt lat="46.04231" lon="3.09096">
        <ele>463.9733887</ele>
        <time>2009-05-08T06:18:22Z</time>
      </trkpt>
      <trkpt lat="46.04246" lon="3.09119">
        <ele>463.9733887</ele>
        <time>2009-05-08T06:18:28Z</time>
      </trkpt>
      <trkpt lat="46.04254" lon="3.09135">
        <ele>465.4155273</ele>
        <time>2009-05-08T06:18:32Z</time>
      </trkpt>
      <trkpt lat="46.04266" lon="3.09151">
        <ele>465.4155273</ele>
        <time>2009-05-08T06:18:37Z</time>
      </trkpt>
      <trkpt lat="46.0428" lon="3.09171">
        <ele>465.8961182</ele>
        <time>2009-05-08T06:18:42Z</time>
      </trkpt>
      <trkpt lat="46.04287" lon="3.09181">
        <ele>465.4155273</ele>
        <time>2009-05-08T06:18:44Z</time>
      </trkpt>
      <trkpt lat="46.04302" lon="3.09203">
        <ele>465.4155273</ele>
        <time>2009-05-08T06:18:48Z</time>
      </trkpt>
      <trkpt lat="46.04328" lon="3.09221">
        <ele>464.4541016</ele>
        <time>2009-05-08T06:18:55Z</time>
      </trkpt>
      <trkpt lat="46.04331" lon="3.09221">
        <ele>464.4541016</ele>
        <time>2009-05-08T06:18:56Z</time>
      </trkpt>
      <trkpt lat="46.04337" lon="3.092">
        <ele>463.9733887</ele>
        <time>2009-05-08T06:19:00Z</time>
      </trkpt>
      <trkpt lat="46.04336" lon="3.09172">
        <ele>463.012085</ele>
        <time>2009-05-08T06:19:04Z</time>
      </trkpt>
      <trkpt lat="46.04339" lon="3.09133">
        <ele>463.4927979</ele>
        <time>2009-05-08T06:19:10Z</time>
      </trkpt>
      <trkpt lat="46.04343" lon="3.09114">
        <ele>464.4541016</ele>
        <time>2009-05-08T06:19:14Z</time>
      </trkpt>
      <trkpt lat="46.04347" lon="3.09095">
        <ele>466.8574219</ele>
        <time>2009-05-08T06:19:19Z</time>
      </trkpt>
      <trkpt lat="46.04351" lon="3.09083">
        <ele>467.3381348</ele>
        <time>2009-05-08T06:19:23Z</time>
      </trkpt>
      <trkpt lat="46.04352" lon="3.09076">
        <ele>468.2993164</ele>
        <time>2009-05-08T06:19:25Z</time>
      </trkpt>
      <trkpt lat="46.04354" lon="3.09065">
        <ele>469.2607422</ele>
        <time>2009-05-08T06:19:28Z</time>
      </trkpt>
      <trkpt lat="46.04356" lon="3.09051">
        <ele>471.1833496</ele>
        <time>2009-05-08T06:19:32Z</time>
      </trkpt>
      <trkpt lat="46.04356" lon="3.09048">
        <ele>471.1833496</ele>
        <time>2009-05-08T06:19:33Z</time>
      </trkpt>
      <trkpt lat="46.04359" lon="3.09031">
        <ele>472.1446533</ele>
        <time>2009-05-08T06:19:38Z</time>
      </trkpt>
      <trkpt lat="46.04362" lon="3.09002">
        <ele>473.5866699</ele>
        <time>2009-05-08T06:19:46Z</time>
      </trkpt>
      <trkpt lat="46.0436" lon="3.08984">
        <ele>475.0286865</ele>
        <time>2009-05-08T06:19:52Z</time>
      </trkpt>
      <trkpt lat="46.04353" lon="3.08972">
        <ele>476.4705811</ele>
        <time>2009-05-08T06:19:57Z</time>
      </trkpt>
      <trkpt lat="46.04344" lon="3.0895">
        <ele>478.8739014</ele>
        <time>2009-05-08T06:20:05Z</time>
      </trkpt>
      <trkpt lat="46.04343" lon="3.08941">
        <ele>480.7966309</ele>
        <time>2009-05-08T06:20:08Z</time>
      </trkpt>
      <trkpt lat="46.04345" lon="3.08927">
        <ele>482.2385254</ele>
        <time>2009-05-08T06:20:13Z</time>
      </trkpt>
      <trkpt lat="46.04349" lon="3.08896">
        <ele>485.1224365</ele>
        <time>2009-05-08T06:20:23Z</time>
      </trkpt>
      <trkpt lat="46.04353" lon="3.08865">
        <ele>485.6030273</ele>
        <time>2009-05-08T06:20:32Z</time>
      </trkpt>
      <trkpt lat="46.04358" lon="3.08827">
        <ele>487.5256348</ele>
        <time>2009-05-08T06:20:42Z</time>
      </trkpt>
      <trkpt lat="46.0436" lon="3.08792">
        <ele>487.5256348</ele>
        <time>2009-05-08T06:20:50Z</time>
      </trkpt>
      <trkpt lat="46.04362" lon="3.08746">
        <ele>486.5644531</ele>
        <time>2009-05-08T06:20:59Z</time>
      </trkpt>
      <trkpt lat="46.04364" lon="3.08728">
        <ele>486.5644531</ele>
        <time>2009-05-08T06:21:02Z</time>
      </trkpt>
      <trkpt lat="46.04364" lon="3.08721">
        <ele>486.0837402</ele>
        <time>2009-05-08T06:21:03Z</time>
      </trkpt>
      <trkpt lat="46.04366" lon="3.08708">
        <ele>486.5644531</ele>
        <time>2009-05-08T06:21:05Z</time>
      </trkpt>
      <trkpt lat="46.04372" lon="3.08677">
        <ele>485.6030273</ele>
        <time>2009-05-08T06:21:10Z</time>
      </trkpt>
      <trkpt lat="46.04382" lon="3.0864">
        <ele>485.6030273</ele>
        <time>2009-05-08T06:21:16Z</time>
      </trkpt>
      <trkpt lat="46.04385" lon="3.0862">
        <ele>485.1224365</ele>
        <time>2009-05-08T06:21:19Z</time>
      </trkpt>
      <trkpt lat="46.04386" lon="3.08605">
        <ele>485.1224365</ele>
        <time>2009-05-08T06:21:21Z</time>
      </trkpt>
      <trkpt lat="46.04383" lon="3.08574">
        <ele>484.1611328</ele>
        <time>2009-05-08T06:21:25Z</time>
      </trkpt>
      <trkpt lat="46.04394" lon="3.08547">
        <ele>483.1998291</ele>
        <time>2009-05-08T06:21:29Z</time>
      </trkpt>
      <trkpt lat="46.04413" lon="3.08512">
        <ele>480.7966309</ele>
        <time>2009-05-08T06:21:34Z</time>
      </trkpt>
      <trkpt lat="46.04411" lon="3.08504">
        <ele>480.7966309</ele>
        <time>2009-05-08T06:21:35Z</time>
      </trkpt>
      <trkpt lat="46.04413" lon="3.08481">
        <ele>481.2772217</ele>
        <time>2009-05-08T06:21:40Z</time>
      </trkpt>
      <trkpt lat="46.04433" lon="3.08475">
        <ele>483.6804199</ele>
        <time>2009-05-08T06:21:47Z</time>
      </trkpt>
      <trkpt lat="46.04446" lon="3.08468">
        <ele>485.6030273</ele>
        <time>2009-05-08T06:21:53Z</time>
      </trkpt>
      <trkpt lat="46.04455" lon="3.08463">
        <ele>487.0450439</ele>
        <time>2009-05-08T06:21:57Z</time>
      </trkpt>
      <trkpt lat="46.04457" lon="3.08462">
        <ele>487.0450439</ele>
        <time>2009-05-08T06:21:58Z</time>
      </trkpt>
      <trkpt lat="46.04462" lon="3.0846">
        <ele>488.0064697</ele>
        <time>2009-05-08T06:22:00Z</time>
      </trkpt>
      <trkpt lat="46.0447" lon="3.08456">
        <ele>489.4483643</ele>
        <time>2009-05-08T06:22:04Z</time>
      </trkpt>
      <trkpt lat="46.0448" lon="3.08454">
        <ele>490.8903809</ele>
        <time>2009-05-08T06:22:08Z</time>
      </trkpt>
      <trkpt lat="46.04491" lon="3.0845">
        <ele>493.2935791</ele>
        <time>2009-05-08T06:22:13Z</time>
      </trkpt>
      <trkpt lat="46.04496" lon="3.08449">
        <ele>494.7355957</ele>
        <time>2009-05-08T06:22:15Z</time>
      </trkpt>
      <trkpt lat="46.0451" lon="3.08448">
        <ele>497.138916</ele>
        <time>2009-05-08T06:22:21Z</time>
      </trkpt>
      <trkpt lat="46.04512" lon="3.08448">
        <ele>497.138916</ele>
        <time>2009-05-08T06:22:22Z</time>
      </trkpt>
      <trkpt lat="46.04529" lon="3.08447">
        <ele>498.1003418</ele>
        <time>2009-05-08T06:22:29Z</time>
      </trkpt>
      <trkpt lat="46.04549" lon="3.08447">
        <ele>499.5422363</ele>
        <time>2009-05-08T06:22:37Z</time>
      </trkpt>
      <trkpt lat="46.04578" lon="3.08448">
        <ele>500.0229492</ele>
        <time>2009-05-08T06:22:47Z</time>
      </trkpt>
      <trkpt lat="46.04606" lon="3.08453">
        <ele>501.4648438</ele>
        <time>2009-05-08T06:22:56Z</time>
      </trkpt>
      <trkpt lat="46.04618" lon="3.08455">
        <ele>501.9455566</ele>
        <time>2009-05-08T06:23:02Z</time>
      </trkpt>
      <trkpt lat="46.04632" lon="3.08467">
        <ele>500.50354</ele>
        <time>2009-05-08T06:23:07Z</time>
      </trkpt>
      <trkpt lat="46.04647" lon="3.08482">
        <ele>501.4648438</ele>
        <time>2009-05-08T06:23:12Z</time>
      </trkpt>
      <trkpt lat="46.04664" lon="3.08496">
        <ele>501.9455566</ele>
        <time>2009-05-08T06:23:18Z</time>
      </trkpt>
      <trkpt lat="46.0468" lon="3.08506">
        <ele>502.4261475</ele>
        <time>2009-05-08T06:23:23Z</time>
      </trkpt>
      <trkpt lat="46.04693" lon="3.08514">
        <ele>502.9067383</ele>
        <time>2009-05-08T06:23:28Z</time>
      </trkpt>
      <trkpt lat="46.04706" lon="3.08519">
        <ele>503.8681641</ele>
        <time>2009-05-08T06:23:33Z</time>
      </trkpt>
      <trkpt lat="46.04713" lon="3.08525">
        <ele>504.8294678</ele>
        <time>2009-05-08T06:23:37Z</time>
      </trkpt>
      <trkpt lat="46.04712" lon="3.08532">
        <ele>506.7520752</ele>
        <time>2009-05-08T06:23:40Z</time>
      </trkpt>
      <trkpt lat="46.04705" lon="3.08538">
        <ele>507.713501</ele>
        <time>2009-05-08T06:23:44Z</time>
      </trkpt>
      <trkpt lat="46.04695" lon="3.08536">
        <ele>508.1940918</ele>
        <time>2009-05-08T06:23:49Z</time>
      </trkpt>
      <trkpt lat="46.04682" lon="3.08537">
        <ele>509.6361084</ele>
        <time>2009-05-08T06:23:55Z</time>
      </trkpt>
      <trkpt lat="46.04665" lon="3.08546">
        <ele>510.1166992</ele>
        <time>2009-05-08T06:24:02Z</time>
      </trkpt>
      <trkpt lat="46.04653" lon="3.08561">
        <ele>512.5200195</ele>
        <time>2009-05-08T06:24:09Z</time>
      </trkpt>
      <trkpt lat="46.04641" lon="3.08567">
        <ele>513.4814453</ele>
        <time>2009-05-08T06:24:14Z</time>
      </trkpt>
      <trkpt lat="46.04623" lon="3.08575">
        <ele>514.442627</ele>
        <time>2009-05-08T06:24:21Z</time>
      </trkpt>
      <trkpt lat="46.04613" lon="3.0859">
        <ele>514.442627</ele>
        <time>2009-05-08T06:24:26Z</time>
      </trkpt>
      <trkpt lat="46.04604" lon="3.08624">
        <ele>515.4040527</ele>
        <time>2009-05-08T06:24:34Z</time>
      </trkpt>
      <trkpt lat="46.04599" lon="3.08666">
        <ele>515.8846436</ele>
        <time>2009-05-08T06:24:43Z</time>
      </trkpt>
      <trkpt lat="46.04594" lon="3.08703">
        <ele>513.9620361</ele>
        <time>2009-05-08T06:24:49Z</time>
      </trkpt>
      <trkpt lat="46.04592" lon="3.08725">
        <ele>513.0007324</ele>
        <time>2009-05-08T06:24:52Z</time>
      </trkpt>
      <trkpt lat="46.04589" lon="3.08747">
        <ele>513.4814453</ele>
        <time>2009-05-08T06:24:55Z</time>
      </trkpt>
      <trkpt lat="46.04579" lon="3.08767">
        <ele>513.9620361</ele>
        <time>2009-05-08T06:25:00Z</time>
      </trkpt>
      <trkpt lat="46.04571" lon="3.08773">
        <ele>513.4814453</ele>
        <time>2009-05-08T06:25:03Z</time>
      </trkpt>
      <trkpt lat="46.04568" lon="3.08776">
        <ele>513.4814453</ele>
        <time>2009-05-08T06:25:04Z</time>
      </trkpt>
      <trkpt lat="46.04561" lon="3.08791">
        <ele>513.0007324</ele>
        <time>2009-05-08T06:25:07Z</time>
      </trkpt>
      <trkpt lat="46.04563" lon="3.08808">
        <ele>513.0007324</ele>
        <time>2009-05-08T06:25:10Z</time>
      </trkpt>
      <trkpt lat="46.04576" lon="3.08831">
        <ele>513.9620361</ele>
        <time>2009-05-08T06:25:16Z</time>
      </trkpt>
      <trkpt lat="46.04588" lon="3.0883">
        <ele>515.8846436</ele>
        <time>2009-05-08T06:25:21Z</time>
      </trkpt>
      <trkpt lat="46.04599" lon="3.08824">
        <ele>517.807251</ele>
        <time>2009-05-08T06:25:27Z</time>
      </trkpt>
      <trkpt lat="46.04603" lon="3.08822">
        <ele>519.2492676</ele>
        <time>2009-05-08T06:25:29Z</time>
      </trkpt>
      <trkpt lat="46.04615" lon="3.08814">
        <ele>521.1719971</ele>
        <time>2009-05-08T06:25:35Z</time>
      </trkpt>
      <trkpt lat="46.04622" lon="3.0881">
        <ele>523.0946045</ele>
        <time>2009-05-08T06:25:39Z</time>
      </trkpt>
      <trkpt lat="46.0463" lon="3.08808">
        <ele>524.0557861</ele>
        <time>2009-05-08T06:25:43Z</time>
      </trkpt>
      <trkpt lat="46.04635" lon="3.08809">
        <ele>524.0557861</ele>
        <time>2009-05-08T06:25:46Z</time>
      </trkpt>
      <trkpt lat="46.04647" lon="3.08813">
        <ele>524.536499</ele>
        <time>2009-05-08T06:25:52Z</time>
      </trkpt>
      <trkpt lat="46.04666" lon="3.08819">
        <ele>525.4978027</ele>
        <time>2009-05-08T06:26:00Z</time>
      </trkpt>
      <trkpt lat="46.04695" lon="3.08827">
        <ele>525.9783936</ele>
        <time>2009-05-08T06:26:11Z</time>
      </trkpt>
      <trkpt lat="46.04717" lon="3.08834">
        <ele>527.901001</ele>
        <time>2009-05-08T06:26:20Z</time>
      </trkpt>
      <trkpt lat="46.04735" lon="3.0884">
        <ele>530.3044434</ele>
        <time>2009-05-08T06:26:28Z</time>
      </trkpt>
      <trkpt lat="46.04751" lon="3.08852">
        <ele>531.7463379</ele>
        <time>2009-05-08T06:26:36Z</time>
      </trkpt>
      <trkpt lat="46.04777" lon="3.08871">
        <ele>534.1496582</ele>
        <time>2009-05-08T06:26:47Z</time>
      </trkpt>
      <trkpt lat="46.04796" lon="3.0889">
        <ele>535.1109619</ele>
        <time>2009-05-08T06:26:56Z</time>
      </trkpt>
      <trkpt lat="46.04809" lon="3.08904">
        <ele>536.5531006</ele>
        <time>2009-05-08T06:27:03Z</time>
      </trkpt>
      <trkpt lat="46.04829" lon="3.08916">
        <ele>538.475708</ele>
        <time>2009-05-08T06:27:10Z</time>
      </trkpt>
      <trkpt lat="46.04852" lon="3.0892">
        <ele>539.4368896</ele>
        <time>2009-05-08T06:27:18Z</time>
      </trkpt>
      <trkpt lat="46.04867" lon="3.08919">
        <ele>540.3983154</ele>
        <time>2009-05-08T06:27:23Z</time>
      </trkpt>
      <trkpt lat="46.04892" lon="3.08924">
        <ele>541.84021</ele>
        <time>2009-05-08T06:27:31Z</time>
      </trkpt>
      <trkpt lat="46.04919" lon="3.08928">
        <ele>544.7242432</ele>
        <time>2009-05-08T06:27:40Z</time>
      </trkpt>
      <trkpt lat="46.04947" lon="3.08939">
        <ele>545.6855469</ele>
        <time>2009-05-08T06:27:49Z</time>
      </trkpt>
      <trkpt lat="46.04982" lon="3.08959">
        <ele>546.1662598</ele>
        <time>2009-05-08T06:28:00Z</time>
      </trkpt>
      <trkpt lat="46.05007" lon="3.08972">
        <ele>547.6081543</ele>
        <time>2009-05-08T06:28:08Z</time>
      </trkpt>
      <trkpt lat="46.05026" lon="3.08982">
        <ele>549.0500488</ele>
        <time>2009-05-08T06:28:14Z</time>
      </trkpt>
      <trkpt lat="46.05049" lon="3.08993">
        <ele>550.0114746</ele>
        <time>2009-05-08T06:28:22Z</time>
      </trkpt>
      <trkpt lat="46.05071" lon="3.09005">
        <ele>552.4145508</ele>
        <time>2009-05-08T06:28:30Z</time>
      </trkpt>
      <trkpt lat="46.05093" lon="3.0902">
        <ele>554.8178711</ele>
        <time>2009-05-08T06:28:38Z</time>
      </trkpt>
      <trkpt lat="46.05111" lon="3.0903">
        <ele>556.7407227</ele>
        <time>2009-05-08T06:28:44Z</time>
      </trkpt>
      <trkpt lat="46.05146" lon="3.09048">
        <ele>558.1828613</ele>
        <time>2009-05-08T06:28:55Z</time>
      </trkpt>
      <trkpt lat="46.05172" lon="3.09057">
        <ele>559.6247559</ele>
        <time>2009-05-08T06:29:03Z</time>
      </trkpt>
      <trkpt lat="46.05194" lon="3.0906">
        <ele>558.6633301</ele>
        <time>2009-05-08T06:29:08Z</time>
      </trkpt>
      <trkpt lat="46.05229" lon="3.09058">
        <ele>556.7407227</ele>
        <time>2009-05-08T06:29:14Z</time>
      </trkpt>
      <trkpt lat="46.05248" lon="3.0905">
        <ele>555.7792969</ele>
        <time>2009-05-08T06:29:17Z</time>
      </trkpt>
      <trkpt lat="46.05283" lon="3.09032">
        <ele>553.3759766</ele>
        <time>2009-05-08T06:29:22Z</time>
      </trkpt>
      <trkpt lat="46.05292" lon="3.09014">
        <ele>552.8952637</ele>
        <time>2009-05-08T06:29:26Z</time>
      </trkpt>
      <trkpt lat="46.05294" lon="3.09002">
        <ele>553.3759766</ele>
        <time>2009-05-08T06:29:28Z</time>
      </trkpt>
      <trkpt lat="46.05308" lon="3.08974">
        <ele>552.4145508</ele>
        <time>2009-05-08T06:29:33Z</time>
      </trkpt>
      <trkpt lat="46.05321" lon="3.08955">
        <ele>551.4533691</ele>
        <time>2009-05-08T06:29:37Z</time>
      </trkpt>
      <trkpt lat="46.05332" lon="3.08966">
        <ele>551.4533691</ele>
        <time>2009-05-08T06:29:41Z</time>
      </trkpt>
      <trkpt lat="46.05341" lon="3.08981">
        <ele>550.4921875</ele>
        <time>2009-05-08T06:29:44Z</time>
      </trkpt>
      <trkpt lat="46.05345" lon="3.08986">
        <ele>550.4921875</ele>
        <time>2009-05-08T06:29:45Z</time>
      </trkpt>
      <trkpt lat="46.05356" lon="3.09004">
        <ele>549.0500488</ele>
        <time>2009-05-08T06:29:48Z</time>
      </trkpt>
      <trkpt lat="46.05367" lon="3.09034">
        <ele>545.6855469</ele>
        <time>2009-05-08T06:29:52Z</time>
      </trkpt>
      <trkpt lat="46.0537" lon="3.09069">
        <ele>544.7242432</ele>
        <time>2009-05-08T06:29:56Z</time>
      </trkpt>
      <trkpt lat="46.05364" lon="3.09093">
        <ele>544.7242432</ele>
        <time>2009-05-08T06:29:59Z</time>
      </trkpt>
      <trkpt lat="46.05354" lon="3.091">
        <ele>544.2436523</ele>
        <time>2009-05-08T06:30:01Z</time>
      </trkpt>
      <trkpt lat="46.05339" lon="3.09099">
        <ele>543.2821045</ele>
        <time>2009-05-08T06:30:06Z</time>
      </trkpt>
      <trkpt lat="46.05326" lon="3.091">
        <ele>542.3209229</ele>
        <time>2009-05-08T06:30:09Z</time>
      </trkpt>
      <trkpt lat="46.05298" lon="3.09102">
        <ele>540.8789063</ele>
        <time>2009-05-08T06:30:14Z</time>
      </trkpt>
      <trkpt lat="46.05283" lon="3.09122">
        <ele>538.9562988</ele>
        <time>2009-05-08T06:30:18Z</time>
      </trkpt>
      <trkpt lat="46.05262" lon="3.09158">
        <ele>537.9949951</ele>
        <time>2009-05-08T06:30:23Z</time>
      </trkpt>
      <trkpt lat="46.05258" lon="3.09165">
        <ele>537.5142822</ele>
        <time>2009-05-08T06:30:24Z</time>
      </trkpt>
      <trkpt lat="46.05235" lon="3.09189">
        <ele>536.0723877</ele>
        <time>2009-05-08T06:30:28Z</time>
      </trkpt>
      <trkpt lat="46.05221" lon="3.09197">
        <ele>535.1109619</ele>
        <time>2009-05-08T06:30:30Z</time>
      </trkpt>
      <trkpt lat="46.05201" lon="3.09207">
        <ele>534.6303711</ele>
        <time>2009-05-08T06:30:33Z</time>
      </trkpt>
      <trkpt lat="46.05173" lon="3.09214">
        <ele>532.2270508</ele>
        <time>2009-05-08T06:30:37Z</time>
      </trkpt>
      <trkpt lat="46.05154" lon="3.09222">
        <ele>532.7077637</ele>
        <time>2009-05-08T06:30:41Z</time>
      </trkpt>
      <trkpt lat="46.05147" lon="3.09225">
        <ele>533.6689453</ele>
        <time>2009-05-08T06:30:43Z</time>
      </trkpt>
      <trkpt lat="46.05132" lon="3.0923">
        <ele>534.6303711</ele>
        <time>2009-05-08T06:30:48Z</time>
      </trkpt>
      <trkpt lat="46.05113" lon="3.09239">
        <ele>536.0723877</ele>
        <time>2009-05-08T06:30:54Z</time>
      </trkpt>
      <trkpt lat="46.05105" lon="3.09243">
        <ele>537.0336914</ele>
        <time>2009-05-08T06:30:57Z</time>
      </trkpt>
      <trkpt lat="46.05097" lon="3.09245">
        <ele>537.9949951</ele>
        <time>2009-05-08T06:31:00Z</time>
      </trkpt>
      <trkpt lat="46.05087" lon="3.09248">
        <ele>539.4368896</ele>
        <time>2009-05-08T06:31:04Z</time>
      </trkpt>
      <trkpt lat="46.05076" lon="3.0925">
        <ele>539.9176025</ele>
        <time>2009-05-08T06:31:08Z</time>
      </trkpt>
      <trkpt lat="46.05067" lon="3.0925">
        <ele>540.8789063</ele>
        <time>2009-05-08T06:31:11Z</time>
      </trkpt>
      <trkpt lat="46.05059" lon="3.09249">
        <ele>540.8789063</ele>
        <time>2009-05-08T06:31:13Z</time>
      </trkpt>
      <trkpt lat="46.05045" lon="3.0925">
        <ele>540.8789063</ele>
        <time>2009-05-08T06:31:17Z</time>
      </trkpt>
      <trkpt lat="46.05023" lon="3.09255">
        <ele>542.3209229</ele>
        <time>2009-05-08T06:31:24Z</time>
      </trkpt>
      <trkpt lat="46.05007" lon="3.09258">
        <ele>543.2821045</ele>
        <time>2009-05-08T06:31:29Z</time>
      </trkpt>
      <trkpt lat="46.04987" lon="3.09261">
        <ele>543.7628174</ele>
        <time>2009-05-08T06:31:35Z</time>
      </trkpt>
      <trkpt lat="46.04967" lon="3.09276">
        <ele>546.1662598</ele>
        <time>2009-05-08T06:31:42Z</time>
      </trkpt>
      <trkpt lat="46.04953" lon="3.09291">
        <ele>545.6855469</ele>
        <time>2009-05-08T06:31:47Z</time>
      </trkpt>
      <trkpt lat="46.04934" lon="3.09314">
        <ele>543.2821045</ele>
        <time>2009-05-08T06:31:52Z</time>
      </trkpt>
      <trkpt lat="46.04929" lon="3.09319">
        <ele>543.2821045</ele>
        <time>2009-05-08T06:31:53Z</time>
      </trkpt>
      <trkpt lat="46.04922" lon="3.0933">
        <ele>541.3594971</ele>
        <time>2009-05-08T06:31:55Z</time>
      </trkpt>
      <trkpt lat="46.04903" lon="3.0937">
        <ele>539.9176025</ele>
        <time>2009-05-08T06:32:01Z</time>
      </trkpt>
      <trkpt lat="46.04898" lon="3.09385">
        <ele>538.475708</ele>
        <time>2009-05-08T06:32:03Z</time>
      </trkpt>
      <trkpt lat="46.0488" lon="3.09409">
        <ele>537.5142822</ele>
        <time>2009-05-08T06:32:07Z</time>
      </trkpt>
      <trkpt lat="46.04864" lon="3.09441">
        <ele>534.6303711</ele>
        <time>2009-05-08T06:32:11Z</time>
      </trkpt>
      <trkpt lat="46.04862" lon="3.09451">
        <ele>532.7077637</ele>
        <time>2009-05-08T06:32:12Z</time>
      </trkpt>
      <trkpt lat="46.0486" lon="3.0948">
        <ele>530.7851563</ele>
        <time>2009-05-08T06:32:15Z</time>
      </trkpt>
      <trkpt lat="46.04856" lon="3.09496">
        <ele>527.901001</ele>
        <time>2009-05-08T06:32:18Z</time>
      </trkpt>
      <trkpt lat="46.04845" lon="3.09497">
        <ele>526.4591064</ele>
        <time>2009-05-08T06:32:20Z</time>
      </trkpt>
      <trkpt lat="46.04806" lon="3.09498">
        <ele>522.6138916</ele>
        <time>2009-05-08T06:32:25Z</time>
      </trkpt>
      <trkpt lat="46.04785" lon="3.095">
        <ele>520.6912842</ele>
        <time>2009-05-08T06:32:27Z</time>
      </trkpt>
      <trkpt lat="46.04775" lon="3.09499">
        <ele>520.6912842</ele>
        <time>2009-05-08T06:32:28Z</time>
      </trkpt>
      <trkpt lat="46.04765" lon="3.09499">
        <ele>518.7685547</ele>
        <time>2009-05-08T06:32:29Z</time>
      </trkpt>
      <trkpt lat="46.04729" lon="3.0951">
        <ele>514.442627</ele>
        <time>2009-05-08T06:32:33Z</time>
      </trkpt>
      <trkpt lat="46.04708" lon="3.09514">
        <ele>510.59729</ele>
        <time>2009-05-08T06:32:36Z</time>
      </trkpt>
      <trkpt lat="46.04694" lon="3.09518">
        <ele>507.713501</ele>
        <time>2009-05-08T06:32:39Z</time>
      </trkpt>
      <trkpt lat="46.04691" lon="3.0954">
        <ele>504.8294678</ele>
        <time>2009-05-08T06:32:42Z</time>
      </trkpt>
      <trkpt lat="46.04697" lon="3.09561">
        <ele>504.348877</ele>
        <time>2009-05-08T06:32:44Z</time>
      </trkpt>
      <trkpt lat="46.04701" lon="3.09571">
        <ele>503.3874512</ele>
        <time>2009-05-08T06:32:45Z</time>
      </trkpt>
      <trkpt lat="46.04726" lon="3.09624">
        <ele>500.0229492</ele>
        <time>2009-05-08T06:32:50Z</time>
      </trkpt>
      <trkpt lat="46.04767" lon="3.09677">
        <ele>496.1777344</ele>
        <time>2009-05-08T06:32:56Z</time>
      </trkpt>
      <trkpt lat="46.04794" lon="3.09721">
        <ele>493.774292</ele>
        <time>2009-05-08T06:33:00Z</time>
      </trkpt>
      <trkpt lat="46.04808" lon="3.09758">
        <ele>488.9677734</ele>
        <time>2009-05-08T06:33:03Z</time>
      </trkpt>
      <trkpt lat="46.04814" lon="3.09784">
        <ele>485.6030273</ele>
        <time>2009-05-08T06:33:06Z</time>
      </trkpt>
      <trkpt lat="46.04815" lon="3.09788">
        <ele>485.1224365</ele>
        <time>2009-05-08T06:33:08Z</time>
      </trkpt>
      <trkpt lat="46.04819" lon="3.0979">
        <ele>485.1224365</ele>
        <time>2009-05-08T06:33:12Z</time>
      </trkpt>
      <trkpt lat="46.04824" lon="3.09793">
        <ele>485.6030273</ele>
        <time>2009-05-08T06:33:15Z</time>
      </trkpt>
      <trkpt lat="46.04833" lon="3.09793">
        <ele>486.0837402</ele>
        <time>2009-05-08T06:33:18Z</time>
      </trkpt>
      <trkpt lat="46.04848" lon="3.09796">
        <ele>487.0450439</ele>
        <time>2009-05-08T06:33:23Z</time>
      </trkpt>
      <trkpt lat="46.04859" lon="3.09798">
        <ele>487.0450439</ele>
        <time>2009-05-08T06:33:26Z</time>
      </trkpt>
      <trkpt lat="46.04862" lon="3.098">
        <ele>487.5256348</ele>
        <time>2009-05-08T06:33:27Z</time>
      </trkpt>
      <trkpt lat="46.04878" lon="3.09808">
        <ele>487.5256348</ele>
        <time>2009-05-08T06:33:31Z</time>
      </trkpt>
      <trkpt lat="46.04902" lon="3.09819">
        <ele>488.4871826</ele>
        <time>2009-05-08T06:33:37Z</time>
      </trkpt>
      <trkpt lat="46.04923" lon="3.09817">
        <ele>489.9290771</ele>
        <time>2009-05-08T06:33:43Z</time>
      </trkpt>
      <trkpt lat="46.04945" lon="3.0981">
        <ele>491.3709717</ele>
        <time>2009-05-08T06:33:50Z</time>
      </trkpt>
      <trkpt lat="46.04962" lon="3.09806">
        <ele>492.8129883</ele>
        <time>2009-05-08T06:33:56Z</time>
      </trkpt>
      <trkpt lat="46.04978" lon="3.09801">
        <ele>493.2935791</ele>
        <time>2009-05-08T06:34:01Z</time>
      </trkpt>
      <trkpt lat="46.05005" lon="3.0979">
        <ele>493.774292</ele>
        <time>2009-05-08T06:34:08Z</time>
      </trkpt>
      <trkpt lat="46.05024" lon="3.09788">
        <ele>494.7355957</ele>
        <time>2009-05-08T06:34:13Z</time>
      </trkpt>
      <trkpt lat="46.05044" lon="3.09799">
        <ele>495.2161865</ele>
        <time>2009-05-08T06:34:19Z</time>
      </trkpt>
      <trkpt lat="46.05058" lon="3.09811">
        <ele>496.1777344</ele>
        <time>2009-05-08T06:34:24Z</time>
      </trkpt>
      <trkpt lat="46.05073" lon="3.09826">
        <ele>496.1777344</ele>
        <time>2009-05-08T06:34:28Z</time>
      </trkpt>
      <trkpt lat="46.05087" lon="3.09847">
        <ele>495.6968994</ele>
        <time>2009-05-08T06:34:33Z</time>
      </trkpt>
      <trkpt lat="46.05099" lon="3.09862">
        <ele>496.1777344</ele>
        <time>2009-05-08T06:34:36Z</time>
      </trkpt>
      <trkpt lat="46.05121" lon="3.09872">
        <ele>497.6196289</ele>
        <time>2009-05-08T06:34:41Z</time>
      </trkpt>
      <trkpt lat="46.05124" lon="3.09873">
        <ele>497.6196289</ele>
        <time>2009-05-08T06:34:42Z</time>
      </trkpt>
      <trkpt lat="46.05139" lon="3.09879">
        <ele>498.5809326</ele>
        <time>2009-05-08T06:34:47Z</time>
      </trkpt>
      <trkpt lat="46.05161" lon="3.09885">
        <ele>498.5809326</ele>
        <time>2009-05-08T06:34:53Z</time>
      </trkpt>
      <trkpt lat="46.05182" lon="3.09887">
        <ele>499.5422363</ele>
        <time>2009-05-08T06:34:59Z</time>
      </trkpt>
      <trkpt lat="46.05194" lon="3.09877">
        <ele>500.0229492</ele>
        <time>2009-05-08T06:35:03Z</time>
      </trkpt>
      <trkpt lat="46.05211" lon="3.09856">
        <ele>500.9841309</ele>
        <time>2009-05-08T06:35:10Z</time>
      </trkpt>
      <trkpt lat="46.05225" lon="3.09843">
        <ele>502.4261475</ele>
        <time>2009-05-08T06:35:16Z</time>
      </trkpt>
      <trkpt lat="46.05237" lon="3.09836">
        <ele>502.9067383</ele>
        <time>2009-05-08T06:35:20Z</time>
      </trkpt>
      <trkpt lat="46.05261" lon="3.09829">
        <ele>503.3874512</ele>
        <time>2009-05-08T06:35:28Z</time>
      </trkpt>
      <trkpt lat="46.0528" lon="3.09825">
        <ele>503.8681641</ele>
        <time>2009-05-08T06:35:34Z</time>
      </trkpt>
      <trkpt lat="46.05299" lon="3.09822">
        <ele>504.8294678</ele>
        <time>2009-05-08T06:35:40Z</time>
      </trkpt>
      <trkpt lat="46.05308" lon="3.09818">
        <ele>506.2714844</ele>
        <time>2009-05-08T06:35:44Z</time>
      </trkpt>
      <trkpt lat="46.05326" lon="3.09816">
        <ele>507.2327881</ele>
        <time>2009-05-08T06:35:49Z</time>
      </trkpt>
      <trkpt lat="46.05345" lon="3.09819">
        <ele>508.6746826</ele>
        <time>2009-05-08T06:35:55Z</time>
      </trkpt>
      <trkpt lat="46.05359" lon="3.09816">
        <ele>510.1166992</ele>
        <time>2009-05-08T06:36:00Z</time>
      </trkpt>
      <trkpt lat="46.05373" lon="3.09811">
        <ele>510.59729</ele>
        <time>2009-05-08T06:36:05Z</time>
      </trkpt>
      <trkpt lat="46.05388" lon="3.09806">
        <ele>513.0007324</ele>
        <time>2009-05-08T06:36:11Z</time>
      </trkpt>
      <trkpt lat="46.05399" lon="3.09799">
        <ele>514.9233398</ele>
        <time>2009-05-08T06:36:16Z</time>
      </trkpt>
      <trkpt lat="46.05412" lon="3.09792">
        <ele>515.8846436</ele>
        <time>2009-05-08T06:36:21Z</time>
      </trkpt>
      <trkpt lat="46.05426" lon="3.09787">
        <ele>517.3266602</ele>
        <time>2009-05-08T06:36:27Z</time>
      </trkpt>
      <trkpt lat="46.0544" lon="3.09788">
        <ele>518.2878418</ele>
        <time>2009-05-08T06:36:33Z</time>
      </trkpt>
      <trkpt lat="46.05456" lon="3.09797">
        <ele>520.2105713</ele>
        <time>2009-05-08T06:36:40Z</time>
      </trkpt>
      <trkpt lat="46.05461" lon="3.09803">
        <ele>520.2105713</ele>
        <time>2009-05-08T06:36:42Z</time>
      </trkpt>
      <trkpt lat="46.05473" lon="3.09827">
        <ele>520.2105713</ele>
        <time>2009-05-08T06:36:49Z</time>
      </trkpt>
      <trkpt lat="46.05485" lon="3.09847">
        <ele>521.1719971</ele>
        <time>2009-05-08T06:36:55Z</time>
      </trkpt>
      <trkpt lat="46.05494" lon="3.09855">
        <ele>521.6525879</ele>
        <time>2009-05-08T06:37:00Z</time>
      </trkpt>
      <trkpt lat="46.05504" lon="3.09868">
        <ele>523.5751953</ele>
        <time>2009-05-08T06:37:06Z</time>
      </trkpt>
      <trkpt lat="46.05514" lon="3.09884">
        <ele>524.536499</ele>
        <time>2009-05-08T06:37:12Z</time>
      </trkpt>
      <trkpt lat="46.05523" lon="3.09895">
        <ele>525.4978027</ele>
        <time>2009-05-08T06:37:18Z</time>
      </trkpt>
      <trkpt lat="46.05535" lon="3.09907">
        <ele>527.4204102</ele>
        <time>2009-05-08T06:37:24Z</time>
      </trkpt>
      <trkpt lat="46.05538" lon="3.0991">
        <ele>528.3818359</ele>
        <time>2009-05-08T06:37:26Z</time>
      </trkpt>
      <trkpt lat="46.05552" lon="3.09922">
        <ele>531.2657471</ele>
        <time>2009-05-08T06:37:33Z</time>
      </trkpt>
      <trkpt lat="46.0556" lon="3.09932">
        <ele>532.7077637</ele>
        <time>2009-05-08T06:37:39Z</time>
      </trkpt>
      <trkpt lat="46.05565" lon="3.09937">
        <ele>534.6303711</ele>
        <time>2009-05-08T06:37:46Z</time>
      </trkpt>
      <trkpt lat="46.05576" lon="3.09934">
        <ele>535.1109619</ele>
        <time>2009-05-08T06:37:52Z</time>
      </trkpt>
      <trkpt lat="46.05587" lon="3.09926">
        <ele>535.5915527</ele>
        <time>2009-05-08T06:37:59Z</time>
      </trkpt>
      <trkpt lat="46.05599" lon="3.09918">
        <ele>537.0336914</ele>
        <time>2009-05-08T06:38:05Z</time>
      </trkpt>
      <trkpt lat="46.05608" lon="3.09911">
        <ele>538.475708</ele>
        <time>2009-05-08T06:38:11Z</time>
      </trkpt>
      <trkpt lat="46.05619" lon="3.09903">
        <ele>539.9176025</ele>
        <time>2009-05-08T06:38:17Z</time>
      </trkpt>
      <trkpt lat="46.05629" lon="3.09894">
        <ele>540.8789063</ele>
        <time>2009-05-08T06:38:23Z</time>
      </trkpt>
      <trkpt lat="46.05637" lon="3.09883">
        <ele>543.2821045</ele>
        <time>2009-05-08T06:38:29Z</time>
      </trkpt>
      <trkpt lat="46.05641" lon="3.0988">
        <ele>543.7628174</ele>
        <time>2009-05-08T06:38:31Z</time>
      </trkpt>
      <trkpt lat="46.05649" lon="3.09875">
        <ele>546.1662598</ele>
        <time>2009-05-08T06:38:36Z</time>
      </trkpt>
      <trkpt lat="46.05653" lon="3.09868">
        <ele>547.6081543</ele>
        <time>2009-05-08T06:38:40Z</time>
      </trkpt>
      <trkpt lat="46.05662" lon="3.09855">
        <ele>548.5693359</ele>
        <time>2009-05-08T06:38:46Z</time>
      </trkpt>
      <trkpt lat="46.05672" lon="3.09847">
        <ele>548.5693359</ele>
        <time>2009-05-08T06:38:52Z</time>
      </trkpt>
      <trkpt lat="46.05677" lon="3.09845">
        <ele>549.0500488</ele>
        <time>2009-05-08T06:38:54Z</time>
      </trkpt>
      <trkpt lat="46.05691" lon="3.09838">
        <ele>550.4921875</ele>
        <time>2009-05-08T06:39:00Z</time>
      </trkpt>
      <trkpt lat="46.05719" lon="3.09832">
        <ele>551.4533691</ele>
        <time>2009-05-08T06:39:08Z</time>
      </trkpt>
      <trkpt lat="46.05732" lon="3.09842">
        <ele>551.934082</ele>
        <time>2009-05-08T06:39:13Z</time>
      </trkpt>
      <trkpt lat="46.05742" lon="3.09856">
        <ele>553.3759766</ele>
        <time>2009-05-08T06:39:18Z</time>
      </trkpt>
      <trkpt lat="46.05752" lon="3.09873">
        <ele>554.3374023</ele>
        <time>2009-05-08T06:39:24Z</time>
      </trkpt>
      <trkpt lat="46.05763" lon="3.09884">
        <ele>555.298584</ele>
        <time>2009-05-08T06:39:29Z</time>
      </trkpt>
      <trkpt lat="46.05775" lon="3.09897">
        <ele>556.7407227</ele>
        <time>2009-05-08T06:39:36Z</time>
      </trkpt>
      <trkpt lat="46.05776" lon="3.09899">
        <ele>557.2214355</ele>
        <time>2009-05-08T06:39:37Z</time>
      </trkpt>
      <trkpt lat="46.05782" lon="3.09906">
        <ele>558.1828613</ele>
        <time>2009-05-08T06:39:41Z</time>
      </trkpt>
      <trkpt lat="46.05795" lon="3.09914">
        <ele>561.0666504</ele>
        <time>2009-05-08T06:39:48Z</time>
      </trkpt>
      <trkpt lat="46.05806" lon="3.09925">
        <ele>561.5473633</ele>
        <time>2009-05-08T06:39:53Z</time>
      </trkpt>
      <trkpt lat="46.05815" lon="3.09934">
        <ele>562.9892578</ele>
        <time>2009-05-08T06:39:58Z</time>
      </trkpt>
      <trkpt lat="46.05821" lon="3.09945">
        <ele>563.4699707</ele>
        <time>2009-05-08T06:40:02Z</time>
      </trkpt>
      <trkpt lat="46.05831" lon="3.09962">
        <ele>564.4311523</ele>
        <time>2009-05-08T06:40:09Z</time>
      </trkpt>
      <trkpt lat="46.05836" lon="3.09987">
        <ele>563.4699707</ele>
        <time>2009-05-08T06:40:14Z</time>
      </trkpt>
      <trkpt lat="46.05844" lon="3.10023">
        <ele>563.4699707</ele>
        <time>2009-05-08T06:40:20Z</time>
      </trkpt>
      <trkpt lat="46.05857" lon="3.10058">
        <ele>563.9504395</ele>
        <time>2009-05-08T06:40:26Z</time>
      </trkpt>
      <trkpt lat="46.05865" lon="3.10083">
        <ele>564.9118652</ele>
        <time>2009-05-08T06:40:31Z</time>
      </trkpt>
      <trkpt lat="46.05868" lon="3.10103">
        <ele>565.3925781</ele>
        <time>2009-05-08T06:40:35Z</time>
      </trkpt>
      <trkpt lat="46.05872" lon="3.1013">
        <ele>566.8344727</ele>
        <time>2009-05-08T06:40:40Z</time>
      </trkpt>
      <trkpt lat="46.05874" lon="3.10157">
        <ele>568.2763672</ele>
        <time>2009-05-08T06:40:46Z</time>
      </trkpt>
      <trkpt lat="46.05885" lon="3.10185">
        <ele>568.7570801</ele>
        <time>2009-05-08T06:40:52Z</time>
      </trkpt>
      <trkpt lat="46.05893" lon="3.10181">
        <ele>568.7570801</ele>
        <time>2009-05-08T06:40:56Z</time>
      </trkpt>
      <trkpt lat="46.05901" lon="3.10165">
        <ele>568.7570801</ele>
        <time>2009-05-08T06:41:00Z</time>
      </trkpt>
      <trkpt lat="46.05917" lon="3.10125">
        <ele>569.237793</ele>
        <time>2009-05-08T06:41:08Z</time>
      </trkpt>
      <trkpt lat="46.05941" lon="3.10077">
        <ele>570.6796875</ele>
        <time>2009-05-08T06:41:18Z</time>
      </trkpt>
      <trkpt lat="46.05959" lon="3.10039">
        <ele>573.083252</ele>
        <time>2009-05-08T06:41:26Z</time>
      </trkpt>
      <trkpt lat="46.05976" lon="3.10001">
        <ele>575.0058594</ele>
        <time>2009-05-08T06:41:34Z</time>
      </trkpt>
      <trkpt lat="46.05999" lon="3.09952">
        <ele>575.0058594</ele>
        <time>2009-05-08T06:41:44Z</time>
      </trkpt>
      <trkpt lat="46.06012" lon="3.09922">
        <ele>575.0058594</ele>
        <time>2009-05-08T06:41:50Z</time>
      </trkpt>
      <trkpt lat="46.06021" lon="3.09886">
        <ele>574.5251465</ele>
        <time>2009-05-08T06:41:56Z</time>
      </trkpt>
      <trkpt lat="46.06028" lon="3.09865">
        <ele>574.5251465</ele>
        <time>2009-05-08T06:42:00Z</time>
      </trkpt>
      <trkpt lat="46.06032" lon="3.09856">
        <ele>574.5251465</ele>
        <time>2009-05-08T06:42:02Z</time>
      </trkpt>
      <trkpt lat="46.0604" lon="3.09838">
        <ele>574.0444336</ele>
        <time>2009-05-08T06:42:06Z</time>
      </trkpt>
      <trkpt lat="46.06059" lon="3.09819">
        <ele>573.5639648</ele>
        <time>2009-05-08T06:42:11Z</time>
      </trkpt>
      <trkpt lat="46.06063" lon="3.09817">
        <ele>574.0444336</ele>
        <time>2009-05-08T06:42:12Z</time>
      </trkpt>
      <trkpt lat="46.06102" lon="3.09806">
        <ele>572.6025391</ele>
        <time>2009-05-08T06:42:21Z</time>
      </trkpt>
      <trkpt lat="46.06135" lon="3.09796">
        <ele>568.2763672</ele>
        <time>2009-05-08T06:42:26Z</time>
      </trkpt>
      <trkpt lat="46.06176" lon="3.09785">
        <ele>563.9504395</ele>
        <time>2009-05-08T06:42:31Z</time>
      </trkpt>
      <trkpt lat="46.06195" lon="3.0978">
        <ele>562.9892578</ele>
        <time>2009-05-08T06:42:33Z</time>
      </trkpt>
      <trkpt lat="46.06226" lon="3.09773">
        <ele>560.5859375</ele>
        <time>2009-05-08T06:42:36Z</time>
      </trkpt>
      <trkpt lat="46.06247" lon="3.09768">
        <ele>558.6633301</ele>
        <time>2009-05-08T06:42:38Z</time>
      </trkpt>
      <trkpt lat="46.06288" lon="3.09757">
        <ele>555.7792969</ele>
        <time>2009-05-08T06:42:42Z</time>
      </trkpt>
      <trkpt lat="46.06337" lon="3.09746">
        <ele>551.934082</ele>
        <time>2009-05-08T06:42:47Z</time>
      </trkpt>
      <trkpt lat="46.06374" lon="3.09735">
        <ele>550.0114746</ele>
        <time>2009-05-08T06:42:51Z</time>
      </trkpt>
      <trkpt lat="46.06403" lon="3.09726">
        <ele>550.4921875</ele>
        <time>2009-05-08T06:42:55Z</time>
      </trkpt>
      <trkpt lat="46.06412" lon="3.09721">
        <ele>551.934082</ele>
        <time>2009-05-08T06:42:58Z</time>
      </trkpt>
      <trkpt lat="46.06422" lon="3.09718">
        <ele>554.3374023</ele>
        <time>2009-05-08T06:43:03Z</time>
      </trkpt>
      <trkpt lat="46.06434" lon="3.0972">
        <ele>555.7792969</ele>
        <time>2009-05-08T06:43:09Z</time>
      </trkpt>
      <trkpt lat="46.06442" lon="3.09724">
        <ele>556.7407227</ele>
        <time>2009-05-08T06:43:13Z</time>
      </trkpt>
      <trkpt lat="46.0645" lon="3.09729">
        <ele>559.144043</ele>
        <time>2009-05-08T06:43:17Z</time>
      </trkpt>
      <trkpt lat="46.06452" lon="3.09731">
        <ele>559.144043</ele>
        <time>2009-05-08T06:43:18Z</time>
      </trkpt>
      <trkpt lat="46.06461" lon="3.09738">
        <ele>560.1052246</ele>
        <time>2009-05-08T06:43:23Z</time>
      </trkpt>
      <trkpt lat="46.06466" lon="3.09744">
        <ele>560.1052246</ele>
        <time>2009-05-08T06:43:26Z</time>
      </trkpt>
      <trkpt lat="46.06469" lon="3.09748">
        <ele>561.5473633</ele>
        <time>2009-05-08T06:43:28Z</time>
      </trkpt>
      <trkpt lat="46.0648" lon="3.0976">
        <ele>562.5085449</ele>
        <time>2009-05-08T06:43:34Z</time>
      </trkpt>
      <trkpt lat="46.06494" lon="3.09772">
        <ele>563.9504395</ele>
        <time>2009-05-08T06:43:41Z</time>
      </trkpt>
      <trkpt lat="46.06514" lon="3.09792">
        <ele>564.4311523</ele>
        <time>2009-05-08T06:43:49Z</time>
      </trkpt>
      <trkpt lat="46.06532" lon="3.09809">
        <ele>564.9118652</ele>
        <time>2009-05-08T06:43:55Z</time>
      </trkpt>
      <trkpt lat="46.06565" lon="3.09843">
        <ele>565.3925781</ele>
        <time>2009-05-08T06:44:06Z</time>
      </trkpt>
      <trkpt lat="46.06593" lon="3.09864">
        <ele>567.7956543</ele>
        <time>2009-05-08T06:44:16Z</time>
      </trkpt>
      <trkpt lat="46.0661" lon="3.09873">
        <ele>569.7185059</ele>
        <time>2009-05-08T06:44:24Z</time>
      </trkpt>
      <trkpt lat="46.06624" lon="3.09882">
        <ele>571.6408691</ele>
        <time>2009-05-08T06:44:31Z</time>
      </trkpt>
      <trkpt lat="46.06645" lon="3.09895">
        <ele>574.5251465</ele>
        <time>2009-05-08T06:44:41Z</time>
      </trkpt>
      <trkpt lat="46.06665" lon="3.09907">
        <ele>575.967041</ele>
        <time>2009-05-08T06:44:49Z</time>
      </trkpt>
      <trkpt lat="46.0669" lon="3.09917">
        <ele>576.9284668</ele>
        <time>2009-05-08T06:44:58Z</time>
      </trkpt>
      <trkpt lat="46.06716" lon="3.09919">
        <ele>577.8896484</ele>
        <time>2009-05-08T06:45:06Z</time>
      </trkpt>
      <trkpt lat="46.06732" lon="3.09923">
        <ele>577.4091797</ele>
        <time>2009-05-08T06:45:11Z</time>
      </trkpt>
      <trkpt lat="46.06761" lon="3.09926">
        <ele>576.9284668</ele>
        <time>2009-05-08T06:45:18Z</time>
      </trkpt>
      <trkpt lat="46.06772" lon="3.09927">
        <ele>576.9284668</ele>
        <time>2009-05-08T06:45:21Z</time>
      </trkpt>
      <trkpt lat="46.0679" lon="3.09927">
        <ele>577.8896484</ele>
        <time>2009-05-08T06:45:26Z</time>
      </trkpt>
      <trkpt lat="46.06801" lon="3.09926">
        <ele>578.8510742</ele>
        <time>2009-05-08T06:45:30Z</time>
      </trkpt>
      <trkpt lat="46.06811" lon="3.09927">
        <ele>580.2929688</ele>
        <time>2009-05-08T06:45:35Z</time>
      </trkpt>
      <trkpt lat="46.06819" lon="3.09933">
        <ele>582.2155762</ele>
        <time>2009-05-08T06:45:40Z</time>
      </trkpt>
      <trkpt lat="46.06827" lon="3.09944">
        <ele>583.6574707</ele>
        <time>2009-05-08T06:45:46Z</time>
      </trkpt>
      <trkpt lat="46.06836" lon="3.09954">
        <ele>584.6188965</ele>
        <time>2009-05-08T06:45:52Z</time>
      </trkpt>
      <trkpt lat="46.06846" lon="3.09966">
        <ele>587.0219727</ele>
        <time>2009-05-08T06:45:59Z</time>
      </trkpt>
      <trkpt lat="46.06853" lon="3.09974">
        <ele>587.9833984</ele>
        <time>2009-05-08T06:46:04Z</time>
      </trkpt>
      <trkpt lat="46.06862" lon="3.09985">
        <ele>589.4255371</ele>
        <time>2009-05-08T06:46:10Z</time>
      </trkpt>
      <trkpt lat="46.06875" lon="3.09997">
        <ele>591.8288574</ele>
        <time>2009-05-08T06:46:18Z</time>
      </trkpt>
      <trkpt lat="46.06886" lon="3.10011">
        <ele>593.270752</ele>
        <time>2009-05-08T06:46:26Z</time>
      </trkpt>
      <trkpt lat="46.06902" lon="3.1003">
        <ele>596.1547852</ele>
        <time>2009-05-08T06:46:36Z</time>
      </trkpt>
      <trkpt lat="46.06909" lon="3.10049">
        <ele>597.1159668</ele>
        <time>2009-05-08T06:46:43Z</time>
      </trkpt>
      <trkpt lat="46.06919" lon="3.10069">
        <ele>598.5578613</ele>
        <time>2009-05-08T06:46:51Z</time>
      </trkpt>
      <trkpt lat="46.06929" lon="3.10091">
        <ele>600</ele>
        <time>2009-05-08T06:46:59Z</time>
      </trkpt>
      <trkpt lat="46.06943" lon="3.10107">
        <ele>600.9611816</ele>
        <time>2009-05-08T06:47:05Z</time>
      </trkpt>
      <trkpt lat="46.06955" lon="3.10121">
        <ele>600.9611816</ele>
        <time>2009-05-08T06:47:11Z</time>
      </trkpt>
      <trkpt lat="46.06965" lon="3.10131">
        <ele>600.4807129</ele>
        <time>2009-05-08T06:47:17Z</time>
      </trkpt>
      <trkpt lat="46.06964" lon="3.10129">
        <ele>600.4807129</ele>
        <time>2009-05-08T06:47:22Z</time>
      </trkpt>
      <trkpt lat="46.06965" lon="3.10126">
        <ele>600.9611816</ele>
        <time>2009-05-08T06:51:20Z</time>
      </trkpt>
      <trkpt lat="46.06965" lon="3.10126">
        <ele>601.4418945</ele>
        <time>2009-05-08T06:51:26Z</time>
      </trkpt>
      <trkpt lat="46.06965" lon="3.10126">
        <ele>600.9611816</ele>
        <time>2009-05-08T06:51:27Z</time>
      </trkpt>
      <trkpt lat="46.06966" lon="3.10127">
        <ele>600.9611816</ele>
        <time>2009-05-08T06:52:19Z</time>
      </trkpt>
      <trkpt lat="46.06967" lon="3.10127">
        <ele>600.9611816</ele>
        <time>2009-05-08T06:52:23Z</time>
      </trkpt>
      <trkpt lat="46.06968" lon="3.1013">
        <ele>601.4418945</ele>
        <time>2009-05-08T06:52:35Z</time>
      </trkpt>
      <trkpt lat="46.06969" lon="3.1013">
        <ele>601.4418945</ele>
        <time>2009-05-08T06:52:43Z</time>
      </trkpt>
      <trkpt lat="46.06977" lon="3.1012">
        <ele>600.9611816</ele>
        <time>2009-05-08T06:52:49Z</time>
      </trkpt>
      <trkpt lat="46.06989" lon="3.10107">
        <ele>600</ele>
        <time>2009-05-08T06:52:55Z</time>
      </trkpt>
      <trkpt lat="46.07002" lon="3.10093">
        <ele>599.0385742</ele>
        <time>2009-05-08T06:53:00Z</time>
      </trkpt>
      <trkpt lat="46.07027" lon="3.10065">
        <ele>596.635498</ele>
        <time>2009-05-08T06:53:06Z</time>
      </trkpt>
      <trkpt lat="46.07037" lon="3.10052">
        <ele>596.1547852</ele>
        <time>2009-05-08T06:53:08Z</time>
      </trkpt>
      <trkpt lat="46.0706" lon="3.10004">
        <ele>593.270752</ele>
        <time>2009-05-08T06:53:14Z</time>
      </trkpt>
      <trkpt lat="46.07078" lon="3.0995">
        <ele>590.8674316</ele>
        <time>2009-05-08T06:53:20Z</time>
      </trkpt>
      <trkpt lat="46.071" lon="3.09914">
        <ele>586.060791</ele>
        <time>2009-05-08T06:53:25Z</time>
      </trkpt>
      <trkpt lat="46.07107" lon="3.09884">
        <ele>581.2543945</ele>
        <time>2009-05-08T06:53:29Z</time>
      </trkpt>
      <trkpt lat="46.07106" lon="3.09875">
        <ele>580.7736816</ele>
        <time>2009-05-08T06:53:30Z</time>
      </trkpt>
      <trkpt lat="46.07102" lon="3.09854">
        <ele>577.8896484</ele>
        <time>2009-05-08T06:53:32Z</time>
      </trkpt>
      <trkpt lat="46.07101" lon="3.09824">
        <ele>575.0058594</ele>
        <time>2009-05-08T06:53:35Z</time>
      </trkpt>
      <trkpt lat="46.07101" lon="3.09812">
        <ele>574.0444336</ele>
        <time>2009-05-08T06:53:36Z</time>
      </trkpt>
      <trkpt lat="46.07097" lon="3.09759">
        <ele>569.7185059</ele>
        <time>2009-05-08T06:53:40Z</time>
      </trkpt>
      <trkpt lat="46.07096" lon="3.09747">
        <ele>569.7185059</ele>
        <time>2009-05-08T06:53:41Z</time>
      </trkpt>
      <trkpt lat="46.07087" lon="3.09706">
        <ele>568.2763672</ele>
        <time>2009-05-08T06:53:45Z</time>
      </trkpt>
      <trkpt lat="46.07083" lon="3.09697">
        <ele>568.2763672</ele>
        <time>2009-05-08T06:53:46Z</time>
      </trkpt>
      <trkpt lat="46.07052" lon="3.0965">
        <ele>567.3151855</ele>
        <time>2009-05-08T06:53:53Z</time>
      </trkpt>
      <trkpt lat="46.07043" lon="3.09639">
        <ele>567.3151855</ele>
        <time>2009-05-08T06:53:55Z</time>
      </trkpt>
      <trkpt lat="46.07023" lon="3.09607">
        <ele>566.3537598</ele>
        <time>2009-05-08T06:54:01Z</time>
      </trkpt>
      <trkpt lat="46.07017" lon="3.09597">
        <ele>566.3537598</ele>
        <time>2009-05-08T06:54:03Z</time>
      </trkpt>
      <trkpt lat="46.07009" lon="3.0958">
        <ele>565.873291</ele>
        <time>2009-05-08T06:54:06Z</time>
      </trkpt>
      <trkpt lat="46.07006" lon="3.09575">
        <ele>565.873291</ele>
        <time>2009-05-08T06:54:07Z</time>
      </trkpt>
      <trkpt lat="46.06993" lon="3.0955">
        <ele>564.9118652</ele>
        <time>2009-05-08T06:54:11Z</time>
      </trkpt>
      <trkpt lat="46.06972" lon="3.09504">
        <ele>562.5085449</ele>
        <time>2009-05-08T06:54:17Z</time>
      </trkpt>
      <trkpt lat="46.06959" lon="3.09466">
        <ele>560.1052246</ele>
        <time>2009-05-08T06:54:21Z</time>
      </trkpt>
      <trkpt lat="46.06954" lon="3.09457">
        <ele>558.6633301</ele>
        <time>2009-05-08T06:54:22Z</time>
      </trkpt>
      <trkpt lat="46.06939" lon="3.09421">
        <ele>558.1828613</ele>
        <time>2009-05-08T06:54:26Z</time>
      </trkpt>
      <trkpt lat="46.06928" lon="3.09373">
        <ele>554.8178711</ele>
        <time>2009-05-08T06:54:31Z</time>
      </trkpt>
      <trkpt lat="46.0692" lon="3.0934">
        <ele>551.934082</ele>
        <time>2009-05-08T06:54:34Z</time>
      </trkpt>
      <trkpt lat="46.06917" lon="3.09321">
        <ele>550.9726563</ele>
        <time>2009-05-08T06:54:36Z</time>
      </trkpt>
      <trkpt lat="46.06918" lon="3.09292">
        <ele>550.0114746</ele>
        <time>2009-05-08T06:54:39Z</time>
      </trkpt>
      <trkpt lat="46.06922" lon="3.09256">
        <ele>550.0114746</ele>
        <time>2009-05-08T06:54:44Z</time>
      </trkpt>
      <trkpt lat="46.06921" lon="3.09245">
        <ele>549.5307617</ele>
        <time>2009-05-08T06:54:48Z</time>
      </trkpt>
      <trkpt lat="46.06921" lon="3.09243">
        <ele>549.5307617</ele>
        <time>2009-05-08T06:54:49Z</time>
      </trkpt>
      <trkpt lat="46.0692" lon="3.0924">
        <ele>549.5307617</ele>
        <time>2009-05-08T06:54:55Z</time>
      </trkpt>
      <trkpt lat="46.06911" lon="3.09239">
        <ele>550.0114746</ele>
        <time>2009-05-08T06:55:25Z</time>
      </trkpt>
      <trkpt lat="46.06911" lon="3.09239">
        <ele>550.0114746</ele>
        <time>2009-05-08T06:55:32Z</time>
      </trkpt>
      <trkpt lat="46.06911" lon="3.09238">
        <ele>550.4921875</ele>
        <time>2009-05-08T06:55:39Z</time>
      </trkpt>
      <trkpt lat="46.06912" lon="3.09252">
        <ele>550.4921875</ele>
        <time>2009-05-08T06:55:45Z</time>
      </trkpt>
      <trkpt lat="46.06912" lon="3.09272">
        <ele>550.4921875</ele>
        <time>2009-05-08T06:55:49Z</time>
      </trkpt>
      <trkpt lat="46.06913" lon="3.09293">
        <ele>550.4921875</ele>
        <time>2009-05-08T06:55:52Z</time>
      </trkpt>
      <trkpt lat="46.06914" lon="3.09329">
        <ele>551.4533691</ele>
        <time>2009-05-08T06:55:58Z</time>
      </trkpt>
      <trkpt lat="46.06917" lon="3.09342">
        <ele>551.4533691</ele>
        <time>2009-05-08T06:56:01Z</time>
      </trkpt>
      <trkpt lat="46.06923" lon="3.09363">
        <ele>552.8952637</ele>
        <time>2009-05-08T06:56:07Z</time>
      </trkpt>
      <trkpt lat="46.06927" lon="3.09379">
        <ele>553.3759766</ele>
        <time>2009-05-08T06:56:11Z</time>
      </trkpt>
      <trkpt lat="46.0693" lon="3.09393">
        <ele>553.8566895</ele>
        <time>2009-05-08T06:56:15Z</time>
      </trkpt>
      <trkpt lat="46.06933" lon="3.09409">
        <ele>554.8178711</ele>
        <time>2009-05-08T06:56:20Z</time>
      </trkpt>
      <trkpt lat="46.06937" lon="3.09428">
        <ele>556.2600098</ele>
        <time>2009-05-08T06:56:26Z</time>
      </trkpt>
      <trkpt lat="46.06942" lon="3.09446">
        <ele>557.7021484</ele>
        <time>2009-05-08T06:56:32Z</time>
      </trkpt>
      <trkpt lat="46.06951" lon="3.09471">
        <ele>559.144043</ele>
        <time>2009-05-08T06:56:38Z</time>
      </trkpt>
      <trkpt lat="46.06958" lon="3.09493">
        <ele>560.5859375</ele>
        <time>2009-05-08T06:56:44Z</time>
      </trkpt>
      <trkpt lat="46.06962" lon="3.09502">
        <ele>561.5473633</ele>
        <time>2009-05-08T06:56:48Z</time>
      </trkpt>
      <trkpt lat="46.0697" lon="3.09519">
        <ele>562.9892578</ele>
        <time>2009-05-08T06:56:54Z</time>
      </trkpt>
      <trkpt lat="46.0698" lon="3.09539">
        <ele>563.9504395</ele>
        <time>2009-05-08T06:57:01Z</time>
      </trkpt>
      <trkpt lat="46.06991" lon="3.09564">
        <ele>564.9118652</ele>
        <time>2009-05-08T06:57:08Z</time>
      </trkpt>
      <trkpt lat="46.07" lon="3.09584">
        <ele>565.3925781</ele>
        <time>2009-05-08T06:57:14Z</time>
      </trkpt>
      <trkpt lat="46.07012" lon="3.09609">
        <ele>566.3537598</ele>
        <time>2009-05-08T06:57:21Z</time>
      </trkpt>
      <trkpt lat="46.07028" lon="3.09633">
        <ele>566.3537598</ele>
        <time>2009-05-08T06:57:27Z</time>
      </trkpt>
      <trkpt lat="46.0705" lon="3.09656">
        <ele>566.3537598</ele>
        <time>2009-05-08T06:57:33Z</time>
      </trkpt>
      <trkpt lat="46.07073" lon="3.0969">
        <ele>566.3537598</ele>
        <time>2009-05-08T06:57:40Z</time>
      </trkpt>
      <trkpt lat="46.07086" lon="3.09719">
        <ele>567.3151855</ele>
        <time>2009-05-08T06:57:46Z</time>
      </trkpt>
      <trkpt lat="46.07092" lon="3.09729">
        <ele>567.3151855</ele>
        <time>2009-05-08T06:57:49Z</time>
      </trkpt>
      <trkpt lat="46.07094" lon="3.09738">
        <ele>567.7956543</ele>
        <time>2009-05-08T06:57:52Z</time>
      </trkpt>
      <trkpt lat="46.07095" lon="3.09751">
        <ele>567.7956543</ele>
        <time>2009-05-08T06:57:57Z</time>
      </trkpt>
      <trkpt lat="46.07098" lon="3.09752">
        <ele>566.8344727</ele>
        <time>2009-05-08T06:58:03Z</time>
      </trkpt>
      <trkpt lat="46.07099" lon="3.09749">
        <ele>566.8344727</ele>
        <time>2009-05-08T06:58:12Z</time>
      </trkpt>
      <trkpt lat="46.07099" lon="3.09747">
        <ele>566.8344727</ele>
        <time>2009-05-08T06:58:18Z</time>
      </trkpt>
      <trkpt lat="46.07101" lon="3.09735">
        <ele>566.3537598</ele>
        <time>2009-05-08T06:58:23Z</time>
      </trkpt>
      <trkpt lat="46.07103" lon="3.09725">
        <ele>565.873291</ele>
        <time>2009-05-08T06:58:25Z</time>
      </trkpt>
      <trkpt lat="46.07105" lon="3.09712">
        <ele>565.3925781</ele>
        <time>2009-05-08T06:58:27Z</time>
      </trkpt>
      <trkpt lat="46.07102" lon="3.0968">
        <ele>562.5085449</ele>
        <time>2009-05-08T06:58:31Z</time>
      </trkpt>
      <trkpt lat="46.07098" lon="3.09654">
        <ele>558.6633301</ele>
        <time>2009-05-08T06:58:35Z</time>
      </trkpt>
      <trkpt lat="46.071" lon="3.09645">
        <ele>557.7021484</ele>
        <time>2009-05-08T06:58:37Z</time>
      </trkpt>
      <trkpt lat="46.0711" lon="3.09641">
        <ele>555.7792969</ele>
        <time>2009-05-08T06:58:40Z</time>
      </trkpt>
      <trkpt lat="46.0712" lon="3.09645">
        <ele>554.8178711</ele>
        <time>2009-05-08T06:58:42Z</time>
      </trkpt>
      <trkpt lat="46.07145" lon="3.09661">
        <ele>550.4921875</ele>
        <time>2009-05-08T06:58:48Z</time>
      </trkpt>
      <trkpt lat="46.07158" lon="3.09666">
        <ele>548.0888672</ele>
        <time>2009-05-08T06:58:51Z</time>
      </trkpt>
      <trkpt lat="46.07173" lon="3.09666">
        <ele>545.204834</ele>
        <time>2009-05-08T06:58:54Z</time>
      </trkpt>
      <trkpt lat="46.07189" lon="3.0966">
        <ele>541.3594971</ele>
        <time>2009-05-08T06:58:57Z</time>
      </trkpt>
      <trkpt lat="46.07195" lon="3.09658">
        <ele>541.3594971</ele>
        <time>2009-05-08T06:58:58Z</time>
      </trkpt>
      <trkpt lat="46.07207" lon="3.09656">
        <ele>539.9176025</ele>
        <time>2009-05-08T06:59:00Z</time>
      </trkpt>
      <trkpt lat="46.07233" lon="3.09641">
        <ele>536.0723877</ele>
        <time>2009-05-08T06:59:04Z</time>
      </trkpt>
      <trkpt lat="46.07255" lon="3.0963">
        <ele>536.0723877</ele>
        <time>2009-05-08T06:59:07Z</time>
      </trkpt>
      <trkpt lat="46.07277" lon="3.09629">
        <ele>534.6303711</ele>
        <time>2009-05-08T06:59:10Z</time>
      </trkpt>
      <trkpt lat="46.07285" lon="3.09629">
        <ele>534.1496582</ele>
        <time>2009-05-08T06:59:11Z</time>
      </trkpt>
      <trkpt lat="46.07324" lon="3.09611">
        <ele>530.7851563</ele>
        <time>2009-05-08T06:59:16Z</time>
      </trkpt>
      <trkpt lat="46.07338" lon="3.09603">
        <ele>530.3044434</ele>
        <time>2009-05-08T06:59:18Z</time>
      </trkpt>
      <trkpt lat="46.0737" lon="3.09575">
        <ele>526.4591064</ele>
        <time>2009-05-08T06:59:23Z</time>
      </trkpt>
      <trkpt lat="46.07399" lon="3.09552">
        <ele>522.1331787</ele>
        <time>2009-05-08T06:59:27Z</time>
      </trkpt>
      <trkpt lat="46.07411" lon="3.0954">
        <ele>519.7298584</ele>
        <time>2009-05-08T06:59:29Z</time>
      </trkpt>
      <trkpt lat="46.07435" lon="3.09518">
        <ele>514.442627</ele>
        <time>2009-05-08T06:59:33Z</time>
      </trkpt>
      <trkpt lat="46.07443" lon="3.09513">
        <ele>514.9233398</ele>
        <time>2009-05-08T06:59:34Z</time>
      </trkpt>
      <trkpt lat="46.07457" lon="3.09501">
        <ele>512.5200195</ele>
        <time>2009-05-08T06:59:36Z</time>
      </trkpt>
      <trkpt lat="46.07481" lon="3.09482">
        <ele>509.6361084</ele>
        <time>2009-05-08T06:59:40Z</time>
      </trkpt>
      <trkpt lat="46.07489" lon="3.09464">
        <ele>508.1940918</ele>
        <time>2009-05-08T06:59:44Z</time>
      </trkpt>
      <trkpt lat="46.07489" lon="3.0945">
        <ele>507.2327881</ele>
        <time>2009-05-08T06:59:46Z</time>
      </trkpt>
      <trkpt lat="46.07486" lon="3.09421">
        <ele>504.8294678</ele>
        <time>2009-05-08T06:59:49Z</time>
      </trkpt>
      <trkpt lat="46.07479" lon="3.09393">
        <ele>498.5809326</ele>
        <time>2009-05-08T06:59:52Z</time>
      </trkpt>
      <trkpt lat="46.07463" lon="3.09362">
        <ele>493.774292</ele>
        <time>2009-05-08T06:59:56Z</time>
      </trkpt>
      <trkpt lat="46.07451" lon="3.09338">
        <ele>489.4483643</ele>
        <time>2009-05-08T07:00:00Z</time>
      </trkpt>
      <trkpt lat="46.07436" lon="3.09321">
        <ele>484.6418457</ele>
        <time>2009-05-08T07:00:03Z</time>
      </trkpt>
      <trkpt lat="46.07423" lon="3.09309">
        <ele>482.7192383</ele>
        <time>2009-05-08T07:00:05Z</time>
      </trkpt>
      <trkpt lat="46.07413" lon="3.09293">
        <ele>481.7578125</ele>
        <time>2009-05-08T07:00:07Z</time>
      </trkpt>
      <trkpt lat="46.07401" lon="3.09255">
        <ele>476.4705811</ele>
        <time>2009-05-08T07:00:11Z</time>
      </trkpt>
      <trkpt lat="46.07394" lon="3.09212">
        <ele>470.7026367</ele>
        <time>2009-05-08T07:00:15Z</time>
      </trkpt>
      <trkpt lat="46.0739" lon="3.09186">
        <ele>467.3381348</ele>
        <time>2009-05-08T07:00:18Z</time>
      </trkpt>
      <trkpt lat="46.07389" lon="3.09177">
        <ele>465.4155273</ele>
        <time>2009-05-08T07:00:21Z</time>
      </trkpt>
      <trkpt lat="46.07383" lon="3.09163">
        <ele>465.8961182</ele>
        <time>2009-05-08T07:00:29Z</time>
      </trkpt>
      <trkpt lat="46.07379" lon="3.09161">
        <ele>465.8961182</ele>
        <time>2009-05-08T07:00:40Z</time>
      </trkpt>
      <trkpt lat="46.07379" lon="3.09162">
        <ele>466.376709</ele>
        <time>2009-05-08T07:00:47Z</time>
      </trkpt>
      <trkpt lat="46.07383" lon="3.09169">
        <ele>466.376709</ele>
        <time>2009-05-08T07:00:56Z</time>
      </trkpt>
      <trkpt lat="46.07385" lon="3.09172">
        <ele>466.376709</ele>
        <time>2009-05-08T07:01:02Z</time>
      </trkpt>
      <trkpt lat="46.07386" lon="3.09173">
        <ele>466.376709</ele>
        <time>2009-05-08T07:01:07Z</time>
      </trkpt>
      <trkpt lat="46.07385" lon="3.09176">
        <ele>466.376709</ele>
        <time>2009-05-08T07:01:12Z</time>
      </trkpt>
      <trkpt lat="46.07383" lon="3.09176">
        <ele>466.376709</ele>
        <time>2009-05-08T07:01:18Z</time>
      </trkpt>
      <trkpt lat="46.07374" lon="3.09161">
        <ele>466.376709</ele>
        <time>2009-05-08T07:01:23Z</time>
      </trkpt>
      <trkpt lat="46.07364" lon="3.09153">
        <ele>467.8187256</ele>
        <time>2009-05-08T07:01:29Z</time>
      </trkpt>
      <trkpt lat="46.07357" lon="3.09147">
        <ele>469.2607422</ele>
        <time>2009-05-08T07:01:34Z</time>
      </trkpt>
      <trkpt lat="46.07352" lon="3.0914">
        <ele>470.7026367</ele>
        <time>2009-05-08T07:01:37Z</time>
      </trkpt>
      <trkpt lat="46.07351" lon="3.09138">
        <ele>470.7026367</ele>
        <time>2009-05-08T07:01:38Z</time>
      </trkpt>
      <trkpt lat="46.07344" lon="3.09132">
        <ele>472.1446533</ele>
        <time>2009-05-08T07:01:42Z</time>
      </trkpt>
      <trkpt lat="46.07341" lon="3.09123">
        <ele>473.1060791</ele>
        <time>2009-05-08T07:01:47Z</time>
      </trkpt>
      <trkpt lat="46.07341" lon="3.09121">
        <ele>474.0672607</ele>
        <time>2009-05-08T07:01:48Z</time>
      </trkpt>
      <trkpt lat="46.07339" lon="3.09119">
        <ele>474.0672607</ele>
        <time>2009-05-08T07:01:49Z</time>
      </trkpt>
      <trkpt lat="46.07335" lon="3.09113">
        <ele>475.5092773</ele>
        <time>2009-05-08T07:01:52Z</time>
      </trkpt>
      <trkpt lat="46.07334" lon="3.0911">
        <ele>475.5092773</ele>
        <time>2009-05-08T07:01:53Z</time>
      </trkpt>
      <trkpt lat="46.07326" lon="3.09105">
        <ele>476.9512939</ele>
        <time>2009-05-08T07:01:59Z</time>
      </trkpt>
      <trkpt lat="46.07325" lon="3.09104">
        <ele>476.9512939</ele>
        <time>2009-05-08T07:02:01Z</time>
      </trkpt>
      <trkpt lat="46.07322" lon="3.09097">
        <ele>478.8739014</ele>
        <time>2009-05-08T07:02:06Z</time>
      </trkpt>
      <trkpt lat="46.07322" lon="3.09095">
        <ele>479.835083</ele>
        <time>2009-05-08T07:02:07Z</time>
      </trkpt>
      <trkpt lat="46.07312" lon="3.0908">
        <ele>482.7192383</ele>
        <time>2009-05-08T07:02:15Z</time>
      </trkpt>
      <trkpt lat="46.07304" lon="3.09067">
        <ele>484.1611328</ele>
        <time>2009-05-08T07:02:22Z</time>
      </trkpt>
      <trkpt lat="46.07297" lon="3.09059">
        <ele>486.5644531</ele>
        <time>2009-05-08T07:02:29Z</time>
      </trkpt>
      <trkpt lat="46.07296" lon="3.09054">
        <ele>487.0450439</ele>
        <time>2009-05-08T07:02:31Z</time>
      </trkpt>
      <trkpt lat="46.07283" lon="3.09042">
        <ele>489.9290771</ele>
        <time>2009-05-08T07:02:39Z</time>
      </trkpt>
      <trkpt lat="46.07274" lon="3.09031">
        <ele>491.8516846</ele>
        <time>2009-05-08T07:02:46Z</time>
      </trkpt>
      <trkpt lat="46.07266" lon="3.09022">
        <ele>492.8129883</ele>
        <time>2009-05-08T07:02:53Z</time>
      </trkpt>
      <trkpt lat="46.07257" lon="3.09013">
        <ele>494.2550049</ele>
        <time>2009-05-08T07:03:01Z</time>
      </trkpt>
      <trkpt lat="46.07247" lon="3.09005">
        <ele>495.2161865</ele>
        <time>2009-05-08T07:03:07Z</time>
      </trkpt>
      <trkpt lat="46.0724" lon="3.08998">
        <ele>497.138916</ele>
        <time>2009-05-08T07:03:12Z</time>
      </trkpt>
      <trkpt lat="46.07236" lon="3.08992">
        <ele>497.138916</ele>
        <time>2009-05-08T07:03:15Z</time>
      </trkpt>
      <trkpt lat="46.07221" lon="3.08986">
        <ele>498.5809326</ele>
        <time>2009-05-08T07:03:24Z</time>
      </trkpt>
      <trkpt lat="46.07211" lon="3.08983">
        <ele>499.5422363</ele>
        <time>2009-05-08T07:03:30Z</time>
      </trkpt>
      <trkpt lat="46.07202" lon="3.08982">
        <ele>500.50354</ele>
        <time>2009-05-08T07:03:37Z</time>
      </trkpt>
      <trkpt lat="46.07191" lon="3.08965">
        <ele>501.9455566</ele>
        <time>2009-05-08T07:03:45Z</time>
      </trkpt>
      <trkpt lat="46.07183" lon="3.08957">
        <ele>501.9455566</ele>
        <time>2009-05-08T07:03:52Z</time>
      </trkpt>
      <trkpt lat="46.07181" lon="3.08957">
        <ele>501.9455566</ele>
        <time>2009-05-08T07:03:57Z</time>
      </trkpt>
      <trkpt lat="46.07182" lon="3.08959">
        <ele>502.4261475</ele>
        <time>2009-05-08T07:04:03Z</time>
      </trkpt>
      <trkpt lat="46.07183" lon="3.0896">
        <ele>501.9455566</ele>
        <time>2009-05-08T07:04:04Z</time>
      </trkpt>
      <trkpt lat="46.07191" lon="3.08975">
        <ele>500.50354</ele>
        <time>2009-05-08T07:04:10Z</time>
      </trkpt>
      <trkpt lat="46.07193" lon="3.08979">
        <ele>500.50354</ele>
        <time>2009-05-08T07:04:11Z</time>
      </trkpt>
      <trkpt lat="46.07201" lon="3.08985">
        <ele>499.0615234</ele>
        <time>2009-05-08T07:04:15Z</time>
      </trkpt>
      <trkpt lat="46.07214" lon="3.08991">
        <ele>497.6196289</ele>
        <time>2009-05-08T07:04:18Z</time>
      </trkpt>
      <trkpt lat="46.07226" lon="3.08992">
        <ele>496.6583252</ele>
        <time>2009-05-08T07:04:20Z</time>
      </trkpt>
      <trkpt lat="46.07236" lon="3.0899">
        <ele>495.6968994</ele>
        <time>2009-05-08T07:04:22Z</time>
      </trkpt>
      <trkpt lat="46.07255" lon="3.08986">
        <ele>494.2550049</ele>
        <time>2009-05-08T07:04:25Z</time>
      </trkpt>
      <trkpt lat="46.0728" lon="3.08987">
        <ele>493.774292</ele>
        <time>2009-05-08T07:04:29Z</time>
      </trkpt>
      <trkpt lat="46.07303" lon="3.08992">
        <ele>494.2550049</ele>
        <time>2009-05-08T07:04:34Z</time>
      </trkpt>
      <trkpt lat="46.07311" lon="3.08993">
        <ele>495.6968994</ele>
        <time>2009-05-08T07:04:38Z</time>
      </trkpt>
      <trkpt lat="46.07317" lon="3.08992">
        <ele>496.1777344</ele>
        <time>2009-05-08T07:04:40Z</time>
      </trkpt>
      <trkpt lat="46.07325" lon="3.08989">
        <ele>497.6196289</ele>
        <time>2009-05-08T07:04:43Z</time>
      </trkpt>
      <trkpt lat="46.07332" lon="3.08985">
        <ele>498.1003418</ele>
        <time>2009-05-08T07:04:46Z</time>
      </trkpt>
      <trkpt lat="46.07338" lon="3.08982">
        <ele>500.0229492</ele>
        <time>2009-05-08T07:04:49Z</time>
      </trkpt>
      <trkpt lat="46.07342" lon="3.08981">
        <ele>500.50354</ele>
        <time>2009-05-08T07:04:51Z</time>
      </trkpt>
      <trkpt lat="46.07347" lon="3.08978">
        <ele>501.4648438</ele>
        <time>2009-05-08T07:04:54Z</time>
      </trkpt>
      <trkpt lat="46.07351" lon="3.08976">
        <ele>501.4648438</ele>
        <time>2009-05-08T07:04:57Z</time>
      </trkpt>
      <trkpt lat="46.07351" lon="3.08976">
        <ele>501.4648438</ele>
        <time>2009-05-08T07:04:58Z</time>
      </trkpt>
      <trkpt lat="46.07355" lon="3.08976">
        <ele>500.9841309</ele>
        <time>2009-05-08T07:05:17Z</time>
      </trkpt>
      <trkpt lat="46.07355" lon="3.08975">
        <ele>500.9841309</ele>
        <time>2009-05-08T07:05:19Z</time>
      </trkpt>
      <trkpt lat="46.07355" lon="3.08975">
        <ele>500.9841309</ele>
        <time>2009-05-08T07:05:20Z</time>
      </trkpt>
      <trkpt lat="46.07355" lon="3.08975">
        <ele>500.9841309</ele>
        <time>2009-05-08T07:05:28Z</time>
      </trkpt>
      <trkpt lat="46.07355" lon="3.08978">
        <ele>500.50354</ele>
        <time>2009-05-08T07:05:40Z</time>
      </trkpt>
      <trkpt lat="46.07357" lon="3.08978">
        <ele>500.50354</ele>
        <time>2009-05-08T07:05:54Z</time>
      </trkpt>
      <trkpt lat="46.07357" lon="3.08978">
        <ele>500.50354</ele>
        <time>2009-05-08T07:05:58Z</time>
      </trkpt>
      <trkpt lat="46.07358" lon="3.08978">
        <ele>501.4648438</ele>
        <time>2009-05-08T07:06:09Z</time>
      </trkpt>
      <trkpt lat="46.07362" lon="3.08973">
        <ele>500.9841309</ele>
        <time>2009-05-08T07:06:14Z</time>
      </trkpt>
      <trkpt lat="46.07373" lon="3.08958">
        <ele>499.0615234</ele>
        <time>2009-05-08T07:06:18Z</time>
      </trkpt>
      <trkpt lat="46.0739" lon="3.08932">
        <ele>495.6968994</ele>
        <time>2009-05-08T07:06:22Z</time>
      </trkpt>
      <trkpt lat="46.07396" lon="3.08923">
        <ele>494.2550049</ele>
        <time>2009-05-08T07:06:23Z</time>
      </trkpt>
      <trkpt lat="46.07411" lon="3.08907">
        <ele>491.8516846</ele>
        <time>2009-05-08T07:06:25Z</time>
      </trkpt>
      <trkpt lat="46.07418" lon="3.08899">
        <ele>491.8516846</ele>
        <time>2009-05-08T07:06:26Z</time>
      </trkpt>
      <trkpt lat="46.07443" lon="3.08862">
        <ele>488.4871826</ele>
        <time>2009-05-08T07:06:30Z</time>
      </trkpt>
      <trkpt lat="46.07463" lon="3.08844">
        <ele>488.0064697</ele>
        <time>2009-05-08T07:06:33Z</time>
      </trkpt>
      <trkpt lat="46.07475" lon="3.08832">
        <ele>486.5644531</ele>
        <time>2009-05-08T07:06:35Z</time>
      </trkpt>
      <trkpt lat="46.07493" lon="3.08804">
        <ele>482.7192383</ele>
        <time>2009-05-08T07:06:39Z</time>
      </trkpt>
      <trkpt lat="46.07503" lon="3.08786">
        <ele>479.3544922</ele>
        <time>2009-05-08T07:06:41Z</time>
      </trkpt>
      <trkpt lat="46.07517" lon="3.08757">
        <ele>474.0672607</ele>
        <time>2009-05-08T07:06:44Z</time>
      </trkpt>
      <trkpt lat="46.07522" lon="3.08746">
        <ele>471.1833496</ele>
        <time>2009-05-08T07:06:45Z</time>
      </trkpt>
      <trkpt lat="46.07537" lon="3.08717">
        <ele>467.8187256</ele>
        <time>2009-05-08T07:06:48Z</time>
      </trkpt>
      <trkpt lat="46.07546" lon="3.087">
        <ele>464.4541016</ele>
        <time>2009-05-08T07:06:50Z</time>
      </trkpt>
      <trkpt lat="46.07554" lon="3.08684">
        <ele>461.5701904</ele>
        <time>2009-05-08T07:06:52Z</time>
      </trkpt>
      <trkpt lat="46.07557" lon="3.08677">
        <ele>461.0894775</ele>
        <time>2009-05-08T07:06:53Z</time>
      </trkpt>
      <trkpt lat="46.07562" lon="3.08669">
        <ele>460.1281738</ele>
        <time>2009-05-08T07:06:55Z</time>
      </trkpt>
      <trkpt lat="46.07565" lon="3.08668">
        <ele>459.647583</ele>
        <time>2009-05-08T07:06:58Z</time>
      </trkpt>
      <trkpt lat="46.07565" lon="3.08668">
        <ele>459.647583</ele>
        <time>2009-05-08T07:07:03Z</time>
      </trkpt>
      <trkpt lat="46.07566" lon="3.08667">
        <ele>459.647583</ele>
        <time>2009-05-08T07:07:09Z</time>
      </trkpt>
      <trkpt lat="46.07566" lon="3.08667">
        <ele>459.647583</ele>
        <time>2009-05-08T07:07:16Z</time>
      </trkpt>
      <trkpt lat="46.07565" lon="3.08667">
        <ele>460.1281738</ele>
        <time>2009-05-08T07:07:23Z</time>
      </trkpt>
      <trkpt lat="46.07566" lon="3.08666">
        <ele>459.1668701</ele>
        <time>2009-05-08T07:07:27Z</time>
      </trkpt>
      <trkpt lat="46.07566" lon="3.08666">
        <ele>459.1668701</ele>
        <time>2009-05-08T07:07:30Z</time>
      </trkpt>
      <trkpt lat="46.07566" lon="3.08667">
        <ele>459.647583</ele>
        <time>2009-05-08T07:07:31Z</time>
      </trkpt>
      <trkpt lat="46.07572" lon="3.08666">
        <ele>459.647583</ele>
        <time>2009-05-08T07:07:50Z</time>
      </trkpt>
      <trkpt lat="46.07577" lon="3.08666">
        <ele>460.6087646</ele>
        <time>2009-05-08T07:07:54Z</time>
      </trkpt>
      <trkpt lat="46.0758" lon="3.08669">
        <ele>461.0894775</ele>
        <time>2009-05-08T07:07:57Z</time>
      </trkpt>
      <trkpt lat="46.07582" lon="3.0867">
        <ele>461.0894775</ele>
        <time>2009-05-08T07:07:58Z</time>
      </trkpt>
      <trkpt lat="46.07587" lon="3.08671">
        <ele>461.5701904</ele>
        <time>2009-05-08T07:08:05Z</time>
      </trkpt>
      <trkpt lat="46.07585" lon="3.08666">
        <ele>462.0507813</ele>
        <time>2009-05-08T07:08:13Z</time>
      </trkpt>
      <trkpt lat="46.07584" lon="3.08666">
        <ele>461.5701904</ele>
        <time>2009-05-08T07:08:14Z</time>
      </trkpt>
      <trkpt lat="46.07574" lon="3.08663">
        <ele>461.0894775</ele>
        <time>2009-05-08T07:08:19Z</time>
      </trkpt>
      <trkpt lat="46.07568" lon="3.08658">
        <ele>460.6087646</ele>
        <time>2009-05-08T07:08:22Z</time>
      </trkpt>
      <trkpt lat="46.07559" lon="3.08642">
        <ele>460.1281738</ele>
        <time>2009-05-08T07:08:28Z</time>
      </trkpt>
      <trkpt lat="46.07549" lon="3.0862">
        <ele>457.7249756</ele>
        <time>2009-05-08T07:08:34Z</time>
      </trkpt>
      <trkpt lat="46.07543" lon="3.08601">
        <ele>454.3602295</ele>
        <time>2009-05-08T07:08:39Z</time>
      </trkpt>
      <trkpt lat="46.0754" lon="3.08586">
        <ele>452.9182129</ele>
        <time>2009-05-08T07:08:43Z</time>
      </trkpt>
      <trkpt lat="46.07538" lon="3.0857">
        <ele>450.9956055</ele>
        <time>2009-05-08T07:08:46Z</time>
      </trkpt>
      <trkpt lat="46.0753" lon="3.08549">
        <ele>448.1118164</ele>
        <time>2009-05-08T07:08:51Z</time>
      </trkpt>
      <trkpt lat="46.07519" lon="3.08538">
        <ele>444.7470703</ele>
        <time>2009-05-08T07:08:54Z</time>
      </trkpt>
      <trkpt lat="46.07495" lon="3.08511">
        <ele>438.979126</ele>
        <time>2009-05-08T07:09:01Z</time>
      </trkpt>
      <trkpt lat="46.07485" lon="3.08503">
        <ele>436.0952148</ele>
        <time>2009-05-08T07:09:04Z</time>
      </trkpt>
      <trkpt lat="46.07479" lon="3.08499">
        <ele>434.6533203</ele>
        <time>2009-05-08T07:09:06Z</time>
      </trkpt>
      <trkpt lat="46.07476" lon="3.08496">
        <ele>433.6918945</ele>
        <time>2009-05-08T07:09:07Z</time>
      </trkpt>
      <trkpt lat="46.07469" lon="3.08491">
        <ele>433.2113037</ele>
        <time>2009-05-08T07:09:09Z</time>
      </trkpt>
      <trkpt lat="46.07459" lon="3.08485">
        <ele>431.769165</ele>
        <time>2009-05-08T07:09:12Z</time>
      </trkpt>
      <trkpt lat="46.07454" lon="3.08466">
        <ele>429.3659668</ele>
        <time>2009-05-08T07:09:17Z</time>
      </trkpt>
      <trkpt lat="46.07453" lon="3.08439">
        <ele>426.9627686</ele>
        <time>2009-05-08T07:09:21Z</time>
      </trkpt>
      <trkpt lat="46.07455" lon="3.08402">
        <ele>426.0013428</ele>
        <time>2009-05-08T07:09:26Z</time>
      </trkpt>
      <trkpt lat="46.07452" lon="3.08366">
        <ele>424.5594482</ele>
        <time>2009-05-08T07:09:30Z</time>
      </trkpt>
      <trkpt lat="46.07451" lon="3.08336">
        <ele>422.1560059</ele>
        <time>2009-05-08T07:09:33Z</time>
      </trkpt>
      <trkpt lat="46.07448" lon="3.08305">
        <ele>420.2333984</ele>
        <time>2009-05-08T07:09:36Z</time>
      </trkpt>
      <trkpt lat="46.07444" lon="3.08286">
        <ele>418.7915039</ele>
        <time>2009-05-08T07:09:38Z</time>
      </trkpt>
      <trkpt lat="46.07443" lon="3.08265">
        <ele>417.8302002</ele>
        <time>2009-05-08T07:09:42Z</time>
      </trkpt>
      <trkpt lat="46.0744" lon="3.08261">
        <ele>416.3881836</ele>
        <time>2009-05-08T07:09:45Z</time>
      </trkpt>
      <trkpt lat="46.07436" lon="3.08254">
        <ele>413.9848633</ele>
        <time>2009-05-08T07:09:48Z</time>
      </trkpt>
      <trkpt lat="46.07433" lon="3.08245">
        <ele>412.0622559</ele>
        <time>2009-05-08T07:09:51Z</time>
      </trkpt>
      <trkpt lat="46.07427" lon="3.0823">
        <ele>413.0235596</ele>
        <time>2009-05-08T07:09:55Z</time>
      </trkpt>
      <trkpt lat="46.07431" lon="3.08218">
        <ele>412.0622559</ele>
        <time>2009-05-08T07:09:58Z</time>
      </trkpt>
      <trkpt lat="46.07438" lon="3.08193">
        <ele>411.1009521</ele>
        <time>2009-05-08T07:10:02Z</time>
      </trkpt>
      <trkpt lat="46.07446" lon="3.08173">
        <ele>411.1009521</ele>
        <time>2009-05-08T07:10:07Z</time>
      </trkpt>
      <trkpt lat="46.07448" lon="3.08164">
        <ele>411.1009521</ele>
        <time>2009-05-08T07:10:10Z</time>
      </trkpt>
      <trkpt lat="46.07453" lon="3.08149">
        <ele>408.217041</ele>
        <time>2009-05-08T07:10:15Z</time>
      </trkpt>
      <trkpt lat="46.07454" lon="3.08143">
        <ele>408.217041</ele>
        <time>2009-05-08T07:10:17Z</time>
      </trkpt>
      <trkpt lat="46.07459" lon="3.08136">
        <ele>408.6976318</ele>
        <time>2009-05-08T07:10:22Z</time>
      </trkpt>
      <trkpt lat="46.07466" lon="3.0813">
        <ele>407.2556152</ele>
        <time>2009-05-08T07:10:26Z</time>
      </trkpt>
      <trkpt lat="46.0747" lon="3.08126">
        <ele>405.8137207</ele>
        <time>2009-05-08T07:10:28Z</time>
      </trkpt>
      <trkpt lat="46.07479" lon="3.0811">
        <ele>405.3330078</ele>
        <time>2009-05-08T07:10:34Z</time>
      </trkpt>
      <trkpt lat="46.07493" lon="3.081">
        <ele>404.3717041</ele>
        <time>2009-05-08T07:10:39Z</time>
      </trkpt>
      <trkpt lat="46.07507" lon="3.08084">
        <ele>403.4104004</ele>
        <time>2009-05-08T07:10:44Z</time>
      </trkpt>
      <trkpt lat="46.07511" lon="3.08079">
        <ele>402.9296875</ele>
        <time>2009-05-08T07:10:46Z</time>
      </trkpt>
      <trkpt lat="46.07524" lon="3.08076">
        <ele>401.9685059</ele>
        <time>2009-05-08T07:10:51Z</time>
      </trkpt>
      <trkpt lat="46.07539" lon="3.08074">
        <ele>401.0070801</ele>
        <time>2009-05-08T07:10:55Z</time>
      </trkpt>
      <trkpt lat="46.07547" lon="3.08079">
        <ele>401.487793</ele>
        <time>2009-05-08T07:10:58Z</time>
      </trkpt>
      <trkpt lat="46.0756" lon="3.08071">
        <ele>400.0458984</ele>
        <time>2009-05-08T07:11:03Z</time>
      </trkpt>
      <trkpt lat="46.07563" lon="3.08069">
        <ele>399.5650635</ele>
        <time>2009-05-08T07:11:04Z</time>
      </trkpt>
      <trkpt lat="46.07586" lon="3.08063">
        <ele>398.1231689</ele>
        <time>2009-05-08T07:11:10Z</time>
      </trkpt>
      <trkpt lat="46.07601" lon="3.08053">
        <ele>397.1617432</ele>
        <time>2009-05-08T07:11:14Z</time>
      </trkpt>
      <trkpt lat="46.07606" lon="3.0805">
        <ele>397.1617432</ele>
        <time>2009-05-08T07:11:15Z</time>
      </trkpt>
      <trkpt lat="46.07626" lon="3.0804">
        <ele>395.2391357</ele>
        <time>2009-05-08T07:11:19Z</time>
      </trkpt>
      <trkpt lat="46.07649" lon="3.0802">
        <ele>393.7972412</ele>
        <time>2009-05-08T07:11:24Z</time>
      </trkpt>
      <trkpt lat="46.07653" lon="3.08013">
        <ele>392.8359375</ele>
        <time>2009-05-08T07:11:26Z</time>
      </trkpt>
      <trkpt lat="46.07648" lon="3.08006">
        <ele>394.2779541</ele>
        <time>2009-05-08T07:11:30Z</time>
      </trkpt>
      <trkpt lat="46.07645" lon="3.08006">
        <ele>394.2779541</ele>
        <time>2009-05-08T07:11:31Z</time>
      </trkpt>
      <trkpt lat="46.07628" lon="3.07998">
        <ele>395.2391357</ele>
        <time>2009-05-08T07:11:36Z</time>
      </trkpt>
      <trkpt lat="46.07621" lon="3.07995">
        <ele>395.2391357</ele>
        <time>2009-05-08T07:11:38Z</time>
      </trkpt>
      <trkpt lat="46.07607" lon="3.07985">
        <ele>395.2391357</ele>
        <time>2009-05-08T07:11:42Z</time>
      </trkpt>
      <trkpt lat="46.07584" lon="3.07974">
        <ele>395.2391357</ele>
        <time>2009-05-08T07:11:48Z</time>
      </trkpt>
      <trkpt lat="46.0758" lon="3.07972">
        <ele>394.2779541</ele>
        <time>2009-05-08T07:11:49Z</time>
      </trkpt>
      <trkpt lat="46.07554" lon="3.07956">
        <ele>394.2779541</ele>
        <time>2009-05-08T07:11:56Z</time>
      </trkpt>
      <trkpt lat="46.07551" lon="3.07953">
        <ele>394.2779541</ele>
        <time>2009-05-08T07:11:59Z</time>
      </trkpt>
      <trkpt lat="46.07549" lon="3.07955">
        <ele>393.7972412</ele>
        <time>2009-05-08T07:12:03Z</time>
      </trkpt>
      <trkpt lat="46.07538" lon="3.07935">
        <ele>393.7972412</ele>
        <time>2009-05-08T07:12:08Z</time>
      </trkpt>
      <trkpt lat="46.07535" lon="3.0793">
        <ele>393.7972412</ele>
        <time>2009-05-08T07:12:09Z</time>
      </trkpt>
      <trkpt lat="46.0752" lon="3.0791">
        <ele>394.2779541</ele>
        <time>2009-05-08T07:12:13Z</time>
      </trkpt>
      <trkpt lat="46.07503" lon="3.07885">
        <ele>394.2779541</ele>
        <time>2009-05-08T07:12:19Z</time>
      </trkpt>
      <trkpt lat="46.07489" lon="3.07869">
        <ele>393.7972412</ele>
        <time>2009-05-08T07:12:23Z</time>
      </trkpt>
      <trkpt lat="46.07471" lon="3.07845">
        <ele>394.7585449</ele>
        <time>2009-05-08T07:12:29Z</time>
      </trkpt>
      <trkpt lat="46.0745" lon="3.0782">
        <ele>394.7585449</ele>
        <time>2009-05-08T07:12:35Z</time>
      </trkpt>
      <trkpt lat="46.07428" lon="3.07806">
        <ele>396.2005615</ele>
        <time>2009-05-08T07:12:41Z</time>
      </trkpt>
      <trkpt lat="46.07406" lon="3.0779">
        <ele>397.1617432</ele>
        <time>2009-05-08T07:12:47Z</time>
      </trkpt>
      <trkpt lat="46.07391" lon="3.07775">
        <ele>397.1617432</ele>
        <time>2009-05-08T07:12:52Z</time>
      </trkpt>
      <trkpt lat="46.07392" lon="3.0775">
        <ele>396.6811523</ele>
        <time>2009-05-08T07:12:57Z</time>
      </trkpt>
      <trkpt lat="46.07394" lon="3.07745">
        <ele>397.1617432</ele>
        <time>2009-05-08T07:12:58Z</time>
      </trkpt>
      <trkpt lat="46.07405" lon="3.07733">
        <ele>395.7198486</ele>
        <time>2009-05-08T07:13:02Z</time>
      </trkpt>
      <trkpt lat="46.07407" lon="3.07733">
        <ele>396.2005615</ele>
        <time>2009-05-08T07:13:03Z</time>
      </trkpt>
      <trkpt lat="46.07413" lon="3.07734">
        <ele>395.7198486</ele>
        <time>2009-05-08T07:13:08Z</time>
      </trkpt>
      <trkpt lat="46.07419" lon="3.0774">
        <ele>395.7198486</ele>
        <time>2009-05-08T07:13:13Z</time>
      </trkpt>
      <trkpt lat="46.07439" lon="3.07751">
        <ele>396.6811523</ele>
        <time>2009-05-08T07:13:19Z</time>
      </trkpt>
      <trkpt lat="46.07451" lon="3.07756">
        <ele>398.1231689</ele>
        <time>2009-05-08T07:13:24Z</time>
      </trkpt>
      <trkpt lat="46.07464" lon="3.0776">
        <ele>399.5650635</ele>
        <time>2009-05-08T07:13:30Z</time>
      </trkpt>
      <trkpt lat="46.07473" lon="3.07767">
        <ele>400.5264893</ele>
        <time>2009-05-08T07:13:35Z</time>
      </trkpt>
      <trkpt lat="46.07476" lon="3.0777">
        <ele>401.487793</ele>
        <time>2009-05-08T07:13:37Z</time>
      </trkpt>
      <trkpt lat="46.07482" lon="3.07776">
        <ele>401.9685059</ele>
        <time>2009-05-08T07:13:40Z</time>
      </trkpt>
      <trkpt lat="46.07496" lon="3.07786">
        <ele>402.4490967</ele>
        <time>2009-05-08T07:13:46Z</time>
      </trkpt>
      <trkpt lat="46.07512" lon="3.07797">
        <ele>403.4104004</ele>
        <time>2009-05-08T07:13:53Z</time>
      </trkpt>
      <trkpt lat="46.07523" lon="3.07802">
        <ele>405.8137207</ele>
        <time>2009-05-08T07:13:58Z</time>
      </trkpt>
      <trkpt lat="46.07525" lon="3.07802">
        <ele>406.2943115</ele>
        <time>2009-05-08T07:13:59Z</time>
      </trkpt>
      <trkpt lat="46.07539" lon="3.07807">
        <ele>407.7363281</ele>
        <time>2009-05-08T07:14:05Z</time>
      </trkpt>
      <trkpt lat="46.07552" lon="3.07815">
        <ele>409.6590576</ele>
        <time>2009-05-08T07:14:12Z</time>
      </trkpt>
      <trkpt lat="46.07568" lon="3.07826">
        <ele>411.581665</ele>
        <time>2009-05-08T07:14:20Z</time>
      </trkpt>
      <trkpt lat="46.07586" lon="3.07838">
        <ele>413.0235596</ele>
        <time>2009-05-08T07:14:28Z</time>
      </trkpt>
      <trkpt lat="46.07598" lon="3.07845">
        <ele>413.9848633</ele>
        <time>2009-05-08T07:14:34Z</time>
      </trkpt>
      <trkpt lat="46.07611" lon="3.07851">
        <ele>415.4268799</ele>
        <time>2009-05-08T07:14:40Z</time>
      </trkpt>
      <trkpt lat="46.07621" lon="3.07855">
        <ele>415.9074707</ele>
        <time>2009-05-08T07:14:45Z</time>
      </trkpt>
      <trkpt lat="46.07635" lon="3.07856">
        <ele>417.3496094</ele>
        <time>2009-05-08T07:14:51Z</time>
      </trkpt>
      <trkpt lat="46.07648" lon="3.07855">
        <ele>418.310791</ele>
        <time>2009-05-08T07:14:57Z</time>
      </trkpt>
      <trkpt lat="46.07663" lon="3.07849">
        <ele>419.7528076</ele>
        <time>2009-05-08T07:15:04Z</time>
      </trkpt>
      <trkpt lat="46.0768" lon="3.07836">
        <ele>421.675415</ele>
        <time>2009-05-08T07:15:12Z</time>
      </trkpt>
      <trkpt lat="46.07694" lon="3.07828">
        <ele>423.1174316</ele>
        <time>2009-05-08T07:15:18Z</time>
      </trkpt>
      <trkpt lat="46.07715" lon="3.07819">
        <ele>424.5594482</ele>
        <time>2009-05-08T07:15:26Z</time>
      </trkpt>
      <trkpt lat="46.07733" lon="3.07811">
        <ele>426.0013428</ele>
        <time>2009-05-08T07:15:33Z</time>
      </trkpt>
      <trkpt lat="46.0775" lon="3.07808">
        <ele>427.4433594</ele>
        <time>2009-05-08T07:15:39Z</time>
      </trkpt>
      <trkpt lat="46.07753" lon="3.07808">
        <ele>427.4433594</ele>
        <time>2009-05-08T07:15:40Z</time>
      </trkpt>
      <trkpt lat="46.0777" lon="3.07798">
        <ele>430.3272705</ele>
        <time>2009-05-08T07:15:47Z</time>
      </trkpt>
      <trkpt lat="46.07773" lon="3.07796">
        <ele>430.3272705</ele>
        <time>2009-05-08T07:15:48Z</time>
      </trkpt>
      <trkpt lat="46.07784" lon="3.07777">
        <ele>431.769165</ele>
        <time>2009-05-08T07:15:55Z</time>
      </trkpt>
      <trkpt lat="46.07797" lon="3.07752">
        <ele>432.25</ele>
        <time>2009-05-08T07:16:02Z</time>
      </trkpt>
      <trkpt lat="46.07815" lon="3.07727">
        <ele>432.7307129</ele>
        <time>2009-05-08T07:16:09Z</time>
      </trkpt>
      <trkpt lat="46.07843" lon="3.07703">
        <ele>434.1726074</ele>
        <time>2009-05-08T07:16:18Z</time>
      </trkpt>
      <trkpt lat="46.07869" lon="3.07675">
        <ele>435.614502</ele>
        <time>2009-05-08T07:16:27Z</time>
      </trkpt>
      <trkpt lat="46.07874" lon="3.07668">
        <ele>436.0952148</ele>
        <time>2009-05-08T07:16:29Z</time>
      </trkpt>
      <trkpt lat="46.07872" lon="3.07656">
        <ele>437.0565186</ele>
        <time>2009-05-08T07:16:33Z</time>
      </trkpt>
      <trkpt lat="46.07855" lon="3.07646">
        <ele>439.4597168</ele>
        <time>2009-05-08T07:16:40Z</time>
      </trkpt>
      <trkpt lat="46.07836" lon="3.07624">
        <ele>439.4597168</ele>
        <time>2009-05-08T07:16:49Z</time>
      </trkpt>
      <trkpt lat="46.07813" lon="3.07599">
        <ele>441.8631592</ele>
        <time>2009-05-08T07:17:00Z</time>
      </trkpt>
      <trkpt lat="46.07793" lon="3.07582">
        <ele>443.3050537</ele>
        <time>2009-05-08T07:17:09Z</time>
      </trkpt>
      <trkpt lat="46.07775" lon="3.07573">
        <ele>445.708374</ele>
        <time>2009-05-08T07:17:18Z</time>
      </trkpt>
      <trkpt lat="46.07755" lon="3.07563">
        <ele>448.1118164</ele>
        <time>2009-05-08T07:17:28Z</time>
      </trkpt>
      <trkpt lat="46.07737" lon="3.07554">
        <ele>450.9956055</ele>
        <time>2009-05-08T07:17:38Z</time>
      </trkpt>
      <trkpt lat="46.07723" lon="3.07546">
        <ele>453.3989258</ele>
        <time>2009-05-08T07:17:47Z</time>
      </trkpt>
      <trkpt lat="46.07714" lon="3.07541">
        <ele>454.3602295</ele>
        <time>2009-05-08T07:17:53Z</time>
      </trkpt>
      <trkpt lat="46.07706" lon="3.07538">
        <ele>455.8022461</ele>
        <time>2009-05-08T07:17:58Z</time>
      </trkpt>
      <trkpt lat="46.07703" lon="3.07537">
        <ele>457.2442627</ele>
        <time>2009-05-08T07:18:00Z</time>
      </trkpt>
      <trkpt lat="46.07699" lon="3.07535">
        <ele>458.6861572</ele>
        <time>2009-05-08T07:18:03Z</time>
      </trkpt>
      <trkpt lat="46.0769" lon="3.07531">
        <ele>460.1281738</ele>
        <time>2009-05-08T07:18:09Z</time>
      </trkpt>
      <trkpt lat="46.07679" lon="3.07522">
        <ele>461.5701904</ele>
        <time>2009-05-08T07:18:18Z</time>
      </trkpt>
      <trkpt lat="46.0767" lon="3.07509">
        <ele>463.9733887</ele>
        <time>2009-05-08T07:18:27Z</time>
      </trkpt>
      <trkpt lat="46.07664" lon="3.07503">
        <ele>465.4155273</ele>
        <time>2009-05-08T07:18:32Z</time>
      </trkpt>
      <trkpt lat="46.07654" lon="3.07493">
        <ele>466.8574219</ele>
        <time>2009-05-08T07:18:40Z</time>
      </trkpt>
      <trkpt lat="46.07644" lon="3.07486">
        <ele>468.7800293</ele>
        <time>2009-05-08T07:18:47Z</time>
      </trkpt>
      <trkpt lat="46.07631" lon="3.07479">
        <ele>470.2219238</ele>
        <time>2009-05-08T07:18:55Z</time>
      </trkpt>
      <trkpt lat="46.07618" lon="3.07468">
        <ele>471.6639404</ele>
        <time>2009-05-08T07:19:04Z</time>
      </trkpt>
      <trkpt lat="46.07606" lon="3.07456">
        <ele>474.0672607</ele>
        <time>2009-05-08T07:19:13Z</time>
      </trkpt>
      <trkpt lat="46.07595" lon="3.07444">
        <ele>476.4705811</ele>
        <time>2009-05-08T07:19:21Z</time>
      </trkpt>
      <trkpt lat="46.07586" lon="3.07429">
        <ele>477.9124756</ele>
        <time>2009-05-08T07:19:29Z</time>
      </trkpt>
      <trkpt lat="46.07576" lon="3.07414">
        <ele>479.835083</ele>
        <time>2009-05-08T07:19:37Z</time>
      </trkpt>
      <trkpt lat="46.07569" lon="3.07403">
        <ele>480.315918</ele>
        <time>2009-05-08T07:19:43Z</time>
      </trkpt>
      <trkpt lat="46.07562" lon="3.07393">
        <ele>481.2772217</ele>
        <time>2009-05-08T07:19:49Z</time>
      </trkpt>
      <trkpt lat="46.07553" lon="3.07377">
        <ele>482.2385254</ele>
        <time>2009-05-08T07:19:56Z</time>
      </trkpt>
      <trkpt lat="46.07547" lon="3.07351">
        <ele>481.2772217</ele>
        <time>2009-05-08T07:20:03Z</time>
      </trkpt>
      <trkpt lat="46.07543" lon="3.07327">
        <ele>481.2772217</ele>
        <time>2009-05-08T07:20:08Z</time>
      </trkpt>
      <trkpt lat="46.07539" lon="3.07303">
        <ele>481.7578125</ele>
        <time>2009-05-08T07:20:13Z</time>
      </trkpt>
      <trkpt lat="46.07536" lon="3.07284">
        <ele>482.2385254</ele>
        <time>2009-05-08T07:20:18Z</time>
      </trkpt>
      <trkpt lat="46.07528" lon="3.07262">
        <ele>482.2385254</ele>
        <time>2009-05-08T07:20:24Z</time>
      </trkpt>
      <trkpt lat="46.07515" lon="3.07244">
        <ele>482.7192383</ele>
        <time>2009-05-08T07:20:30Z</time>
      </trkpt>
      <trkpt lat="46.07501" lon="3.07229">
        <ele>482.7192383</ele>
        <time>2009-05-08T07:20:36Z</time>
      </trkpt>
      <trkpt lat="46.07491" lon="3.07219">
        <ele>483.6804199</ele>
        <time>2009-05-08T07:20:40Z</time>
      </trkpt>
      <trkpt lat="46.07484" lon="3.07212">
        <ele>484.1611328</ele>
        <time>2009-05-08T07:20:45Z</time>
      </trkpt>
      <trkpt lat="46.07472" lon="3.07201">
        <ele>484.6418457</ele>
        <time>2009-05-08T07:20:50Z</time>
      </trkpt>
      <trkpt lat="46.07467" lon="3.07197">
        <ele>485.1224365</ele>
        <time>2009-05-08T07:20:52Z</time>
      </trkpt>
      <trkpt lat="46.07454" lon="3.07186">
        <ele>486.0837402</ele>
        <time>2009-05-08T07:20:58Z</time>
      </trkpt>
      <trkpt lat="46.07437" lon="3.07174">
        <ele>487.5256348</ele>
        <time>2009-05-08T07:21:05Z</time>
      </trkpt>
      <trkpt lat="46.07427" lon="3.07158">
        <ele>489.4483643</ele>
        <time>2009-05-08T07:21:11Z</time>
      </trkpt>
      <trkpt lat="46.07419" lon="3.0714">
        <ele>489.9290771</ele>
        <time>2009-05-08T07:21:17Z</time>
      </trkpt>
      <trkpt lat="46.07414" lon="3.07121">
        <ele>490.8903809</ele>
        <time>2009-05-08T07:21:22Z</time>
      </trkpt>
      <trkpt lat="46.07408" lon="3.07096">
        <ele>491.8516846</ele>
        <time>2009-05-08T07:21:28Z</time>
      </trkpt>
      <trkpt lat="46.07401" lon="3.07077">
        <ele>492.3323975</ele>
        <time>2009-05-08T07:21:33Z</time>
      </trkpt>
      <trkpt lat="46.07389" lon="3.0706">
        <ele>492.8129883</ele>
        <time>2009-05-08T07:21:39Z</time>
      </trkpt>
      <trkpt lat="46.07381" lon="3.07045">
        <ele>493.774292</ele>
        <time>2009-05-08T07:21:44Z</time>
      </trkpt>
      <trkpt lat="46.07371" lon="3.07019">
        <ele>495.2161865</ele>
        <time>2009-05-08T07:21:51Z</time>
      </trkpt>
      <trkpt lat="46.0736" lon="3.06995">
        <ele>496.1777344</ele>
        <time>2009-05-08T07:21:57Z</time>
      </trkpt>
      <trkpt lat="46.07351" lon="3.06969">
        <ele>497.6196289</ele>
        <time>2009-05-08T07:22:04Z</time>
      </trkpt>
      <trkpt lat="46.07343" lon="3.06944">
        <ele>498.5809326</ele>
        <time>2009-05-08T07:22:10Z</time>
      </trkpt>
      <trkpt lat="46.07332" lon="3.06904">
        <ele>497.6196289</ele>
        <time>2009-05-08T07:22:17Z</time>
      </trkpt>
      <trkpt lat="46.07321" lon="3.06882">
        <ele>497.138916</ele>
        <time>2009-05-08T07:22:21Z</time>
      </trkpt>
      <trkpt lat="46.07309" lon="3.06857">
        <ele>494.7355957</ele>
        <time>2009-05-08T07:22:25Z</time>
      </trkpt>
      <trkpt lat="46.07307" lon="3.06823">
        <ele>493.774292</ele>
        <time>2009-05-08T07:22:29Z</time>
      </trkpt>
      <trkpt lat="46.07309" lon="3.06805">
        <ele>492.8129883</ele>
        <time>2009-05-08T07:22:31Z</time>
      </trkpt>
      <trkpt lat="46.07317" lon="3.06772">
        <ele>490.8903809</ele>
        <time>2009-05-08T07:22:34Z</time>
      </trkpt>
      <trkpt lat="46.07324" lon="3.06738">
        <ele>488.9677734</ele>
        <time>2009-05-08T07:22:37Z</time>
      </trkpt>
      <trkpt lat="46.07326" lon="3.06727">
        <ele>488.4871826</ele>
        <time>2009-05-08T07:22:38Z</time>
      </trkpt>
      <trkpt lat="46.07327" lon="3.0668">
        <ele>487.5256348</ele>
        <time>2009-05-08T07:22:42Z</time>
      </trkpt>
      <trkpt lat="46.07327" lon="3.06669">
        <ele>487.0450439</ele>
        <time>2009-05-08T07:22:43Z</time>
      </trkpt>
      <trkpt lat="46.07327" lon="3.06632">
        <ele>487.0450439</ele>
        <time>2009-05-08T07:22:48Z</time>
      </trkpt>
      <trkpt lat="46.07319" lon="3.06606">
        <ele>487.5256348</ele>
        <time>2009-05-08T07:22:54Z</time>
      </trkpt>
      <trkpt lat="46.07318" lon="3.06579">
        <ele>488.4871826</ele>
        <time>2009-05-08T07:22:59Z</time>
      </trkpt>
      <trkpt lat="46.07315" lon="3.06538">
        <ele>488.9677734</ele>
        <time>2009-05-08T07:23:06Z</time>
      </trkpt>
      <trkpt lat="46.07314" lon="3.06509">
        <ele>489.9290771</ele>
        <time>2009-05-08T07:23:11Z</time>
      </trkpt>
      <trkpt lat="46.07314" lon="3.06467">
        <ele>491.8516846</ele>
        <time>2009-05-08T07:23:18Z</time>
      </trkpt>
      <trkpt lat="46.07314" lon="3.06437">
        <ele>492.3323975</ele>
        <time>2009-05-08T07:23:23Z</time>
      </trkpt>
      <trkpt lat="46.07309" lon="3.06386">
        <ele>494.2550049</ele>
        <time>2009-05-08T07:23:32Z</time>
      </trkpt>
      <trkpt lat="46.07305" lon="3.06353">
        <ele>495.2161865</ele>
        <time>2009-05-08T07:23:38Z</time>
      </trkpt>
      <trkpt lat="46.07304" lon="3.06347">
        <ele>495.6968994</ele>
        <time>2009-05-08T07:23:39Z</time>
      </trkpt>
      <trkpt lat="46.07297" lon="3.06292">
        <ele>497.138916</ele>
        <time>2009-05-08T07:23:49Z</time>
      </trkpt>
      <trkpt lat="46.07295" lon="3.06277">
        <ele>497.6196289</ele>
        <time>2009-05-08T07:23:52Z</time>
      </trkpt>
      <trkpt lat="46.07305" lon="3.06266">
        <ele>497.138916</ele>
        <time>2009-05-08T07:23:56Z</time>
      </trkpt>
      <trkpt lat="46.07308" lon="3.06264">
        <ele>497.138916</ele>
        <time>2009-05-08T07:23:57Z</time>
      </trkpt>
      <trkpt lat="46.07329" lon="3.0625">
        <ele>496.1777344</ele>
        <time>2009-05-08T07:24:02Z</time>
      </trkpt>
      <trkpt lat="46.07357" lon="3.06229">
        <ele>495.2161865</ele>
        <time>2009-05-08T07:24:08Z</time>
      </trkpt>
      <trkpt lat="46.07377" lon="3.06215">
        <ele>494.2550049</ele>
        <time>2009-05-08T07:24:12Z</time>
      </trkpt>
      <trkpt lat="46.07408" lon="3.06213">
        <ele>496.6583252</ele>
        <time>2009-05-08T07:24:19Z</time>
      </trkpt>
      <trkpt lat="46.07418" lon="3.06217">
        <ele>497.138916</ele>
        <time>2009-05-08T07:24:22Z</time>
      </trkpt>
      <trkpt lat="46.07424" lon="3.06214">
        <ele>497.6196289</ele>
        <time>2009-05-08T07:24:25Z</time>
      </trkpt>
      <trkpt lat="46.07426" lon="3.06203">
        <ele>498.5809326</ele>
        <time>2009-05-08T07:24:29Z</time>
      </trkpt>
      <trkpt lat="46.07425" lon="3.06185">
        <ele>500.0229492</ele>
        <time>2009-05-08T07:24:34Z</time>
      </trkpt>
      <trkpt lat="46.07424" lon="3.0616">
        <ele>501.4648438</ele>
        <time>2009-05-08T07:24:41Z</time>
      </trkpt>
      <trkpt lat="46.07423" lon="3.06136">
        <ele>502.9067383</ele>
        <time>2009-05-08T07:24:48Z</time>
      </trkpt>
      <trkpt lat="46.07422" lon="3.06097">
        <ele>505.3101807</ele>
        <time>2009-05-08T07:24:59Z</time>
      </trkpt>
      <trkpt lat="46.07419" lon="3.06063">
        <ele>507.2327881</ele>
        <time>2009-05-08T07:25:08Z</time>
      </trkpt>
      <trkpt lat="46.07416" lon="3.06022">
        <ele>508.6746826</ele>
        <time>2009-05-08T07:25:19Z</time>
      </trkpt>
      <trkpt lat="46.07414" lon="3.05988">
        <ele>510.59729</ele>
        <time>2009-05-08T07:25:28Z</time>
      </trkpt>
      <trkpt lat="46.07423" lon="3.05981">
        <ele>512.5200195</ele>
        <time>2009-05-08T07:25:33Z</time>
      </trkpt>
      <trkpt lat="46.07444" lon="3.05975">
        <ele>514.9233398</ele>
        <time>2009-05-08T07:25:42Z</time>
      </trkpt>
      <trkpt lat="46.07463" lon="3.05968">
        <ele>515.4040527</ele>
        <time>2009-05-08T07:25:49Z</time>
      </trkpt>
      <trkpt lat="46.07489" lon="3.05959">
        <ele>516.3652344</ele>
        <time>2009-05-08T07:25:57Z</time>
      </trkpt>
      <trkpt lat="46.07515" lon="3.05952">
        <ele>516.3652344</ele>
        <time>2009-05-08T07:26:04Z</time>
      </trkpt>
      <trkpt lat="46.07544" lon="3.05946">
        <ele>515.8846436</ele>
        <time>2009-05-08T07:26:11Z</time>
      </trkpt>
      <trkpt lat="46.07574" lon="3.05937">
        <ele>514.442627</ele>
        <time>2009-05-08T07:26:17Z</time>
      </trkpt>
      <trkpt lat="46.07588" lon="3.05932">
        <ele>514.442627</ele>
        <time>2009-05-08T07:26:20Z</time>
      </trkpt>
      <trkpt lat="46.07603" lon="3.0593">
        <ele>514.9233398</ele>
        <time>2009-05-08T07:26:23Z</time>
      </trkpt>
      <trkpt lat="46.07608" lon="3.0593">
        <ele>514.442627</ele>
        <time>2009-05-08T07:26:24Z</time>
      </trkpt>
      <trkpt lat="46.07613" lon="3.05932">
        <ele>514.442627</ele>
        <time>2009-05-08T07:26:25Z</time>
      </trkpt>
      <trkpt lat="46.07618" lon="3.05934">
        <ele>514.442627</ele>
        <time>2009-05-08T07:26:26Z</time>
      </trkpt>
      <trkpt lat="46.07627" lon="3.05939">
        <ele>514.442627</ele>
        <time>2009-05-08T07:26:28Z</time>
      </trkpt>
      <trkpt lat="46.07646" lon="3.05939">
        <ele>513.4814453</ele>
        <time>2009-05-08T07:26:32Z</time>
      </trkpt>
      <trkpt lat="46.07673" lon="3.05927">
        <ele>510.59729</ele>
        <time>2009-05-08T07:26:36Z</time>
      </trkpt>
      <trkpt lat="46.07703" lon="3.05911">
        <ele>508.1940918</ele>
        <time>2009-05-08T07:26:40Z</time>
      </trkpt>
      <trkpt lat="46.07712" lon="3.05908">
        <ele>506.7520752</ele>
        <time>2009-05-08T07:26:41Z</time>
      </trkpt>
      <trkpt lat="46.07721" lon="3.05905">
        <ele>507.2327881</ele>
        <time>2009-05-08T07:26:42Z</time>
      </trkpt>
      <trkpt lat="46.07755" lon="3.05892">
        <ele>504.348877</ele>
        <time>2009-05-08T07:26:46Z</time>
      </trkpt>
      <trkpt lat="46.07764" lon="3.05889">
        <ele>503.8681641</ele>
        <time>2009-05-08T07:26:47Z</time>
      </trkpt>
      <trkpt lat="46.07773" lon="3.05887">
        <ele>502.9067383</ele>
        <time>2009-05-08T07:26:48Z</time>
      </trkpt>
      <trkpt lat="46.078" lon="3.05879">
        <ele>501.4648438</ele>
        <time>2009-05-08T07:26:51Z</time>
      </trkpt>
      <trkpt lat="46.07828" lon="3.05876">
        <ele>499.0615234</ele>
        <time>2009-05-08T07:26:54Z</time>
      </trkpt>
      <trkpt lat="46.07856" lon="3.05871">
        <ele>495.6968994</ele>
        <time>2009-05-08T07:26:57Z</time>
      </trkpt>
      <trkpt lat="46.07881" lon="3.05867">
        <ele>493.774292</ele>
        <time>2009-05-08T07:27:00Z</time>
      </trkpt>
      <trkpt lat="46.07904" lon="3.05862">
        <ele>490.40979</ele>
        <time>2009-05-08T07:27:03Z</time>
      </trkpt>
      <trkpt lat="46.07937" lon="3.05852">
        <ele>487.0450439</ele>
        <time>2009-05-08T07:27:07Z</time>
      </trkpt>
      <trkpt lat="46.07962" lon="3.05843">
        <ele>483.1998291</ele>
        <time>2009-05-08T07:27:10Z</time>
      </trkpt>
      <trkpt lat="46.07998" lon="3.05832">
        <ele>479.3544922</ele>
        <time>2009-05-08T07:27:14Z</time>
      </trkpt>
      <trkpt lat="46.08024" lon="3.05824">
        <ele>475.9898682</ele>
        <time>2009-05-08T07:27:17Z</time>
      </trkpt>
      <trkpt lat="46.08031" lon="3.05823">
        <ele>475.9898682</ele>
        <time>2009-05-08T07:27:18Z</time>
      </trkpt>
      <trkpt lat="46.08038" lon="3.05821">
        <ele>474.5479736</ele>
        <time>2009-05-08T07:27:19Z</time>
      </trkpt>
      <trkpt lat="46.08055" lon="3.05812">
        <ele>472.1446533</ele>
        <time>2009-05-08T07:27:23Z</time>
      </trkpt>
      <trkpt lat="46.08065" lon="3.05816">
        <ele>472.1446533</ele>
        <time>2009-05-08T07:27:25Z</time>
      </trkpt>
      <trkpt lat="46.08105" lon="3.0584">
        <ele>469.741333</ele>
        <time>2009-05-08T07:27:33Z</time>
      </trkpt>
      <trkpt lat="46.08122" lon="3.05851">
        <ele>467.8187256</ele>
        <time>2009-05-08T07:27:36Z</time>
      </trkpt>
      <trkpt lat="46.08142" lon="3.05862">
        <ele>467.3381348</ele>
        <time>2009-05-08T07:27:39Z</time>
      </trkpt>
      <trkpt lat="46.08157" lon="3.05871">
        <ele>466.8574219</ele>
        <time>2009-05-08T07:27:41Z</time>
      </trkpt>
      <trkpt lat="46.08164" lon="3.05875">
        <ele>466.376709</ele>
        <time>2009-05-08T07:27:42Z</time>
      </trkpt>
      <trkpt lat="46.08172" lon="3.0588">
        <ele>465.8961182</ele>
        <time>2009-05-08T07:27:43Z</time>
      </trkpt>
      <trkpt lat="46.08188" lon="3.05889">
        <ele>465.4155273</ele>
        <time>2009-05-08T07:27:45Z</time>
      </trkpt>
      <trkpt lat="46.08197" lon="3.05893">
        <ele>464.9348145</ele>
        <time>2009-05-08T07:27:46Z</time>
      </trkpt>
      <trkpt lat="46.08214" lon="3.05903">
        <ele>463.4927979</ele>
        <time>2009-05-08T07:27:48Z</time>
      </trkpt>
      <trkpt lat="46.08237" lon="3.05916">
        <ele>460.1281738</ele>
        <time>2009-05-08T07:27:51Z</time>
      </trkpt>
      <trkpt lat="46.08242" lon="3.05918">
        <ele>460.1281738</ele>
        <time>2009-05-08T07:27:52Z</time>
      </trkpt>
      <trkpt lat="46.08257" lon="3.05913">
        <ele>459.1668701</ele>
        <time>2009-05-08T07:27:56Z</time>
      </trkpt>
      <trkpt lat="46.08255" lon="3.05897">
        <ele>459.1668701</ele>
        <time>2009-05-08T07:27:59Z</time>
      </trkpt>
      <trkpt lat="46.08248" lon="3.05879">
        <ele>459.1668701</ele>
        <time>2009-05-08T07:28:02Z</time>
      </trkpt>
      <trkpt lat="46.08234" lon="3.05838">
        <ele>458.6861572</ele>
        <time>2009-05-08T07:28:08Z</time>
      </trkpt>
      <trkpt lat="46.08231" lon="3.05815">
        <ele>459.1668701</ele>
        <time>2009-05-08T07:28:11Z</time>
      </trkpt>
      <trkpt lat="46.08229" lon="3.05798">
        <ele>458.6861572</ele>
        <time>2009-05-08T07:28:13Z</time>
      </trkpt>
      <trkpt lat="46.08232" lon="3.05749">
        <ele>457.7249756</ele>
        <time>2009-05-08T07:28:19Z</time>
      </trkpt>
      <trkpt lat="46.08229" lon="3.05718">
        <ele>457.7249756</ele>
        <time>2009-05-08T07:28:23Z</time>
      </trkpt>
      <trkpt lat="46.08228" lon="3.05684">
        <ele>456.7635498</ele>
        <time>2009-05-08T07:28:27Z</time>
      </trkpt>
      <trkpt lat="46.08228" lon="3.05591">
        <ele>455.3215332</ele>
        <time>2009-05-08T07:28:37Z</time>
      </trkpt>
      <trkpt lat="46.08229" lon="3.05523">
        <ele>455.8022461</ele>
        <time>2009-05-08T07:28:45Z</time>
      </trkpt>
      <trkpt lat="46.08234" lon="3.05458">
        <ele>457.7249756</ele>
        <time>2009-05-08T07:28:54Z</time>
      </trkpt>
      <trkpt lat="46.08242" lon="3.05432">
        <ele>458.6861572</ele>
        <time>2009-05-08T07:28:59Z</time>
      </trkpt>
      <trkpt lat="46.08244" lon="3.05427">
        <ele>459.1668701</ele>
        <time>2009-05-08T07:29:00Z</time>
      </trkpt>
      <trkpt lat="46.08256" lon="3.05411">
        <ele>460.6087646</ele>
        <time>2009-05-08T07:29:05Z</time>
      </trkpt>
      <trkpt lat="46.08268" lon="3.05406">
        <ele>461.0894775</ele>
        <time>2009-05-08T07:29:09Z</time>
      </trkpt>
      <trkpt lat="46.0828" lon="3.05406">
        <ele>462.0507813</ele>
        <time>2009-05-08T07:29:12Z</time>
      </trkpt>
      <trkpt lat="46.08296" lon="3.05407">
        <ele>462.0507813</ele>
        <time>2009-05-08T07:29:16Z</time>
      </trkpt>
      <trkpt lat="46.08316" lon="3.05407">
        <ele>462.5313721</ele>
        <time>2009-05-08T07:29:21Z</time>
      </trkpt>
      <trkpt lat="46.08334" lon="3.05397">
        <ele>460.6087646</ele>
        <time>2009-05-08T07:29:26Z</time>
      </trkpt>
      <trkpt lat="46.08346" lon="3.05383">
        <ele>458.6861572</ele>
        <time>2009-05-08T07:29:29Z</time>
      </trkpt>
      <trkpt lat="46.08366" lon="3.0535">
        <ele>454.8408203</ele>
        <time>2009-05-08T07:29:34Z</time>
      </trkpt>
      <trkpt lat="46.08372" lon="3.05335">
        <ele>451.9570313</ele>
        <time>2009-05-08T07:29:36Z</time>
      </trkpt>
      <trkpt lat="46.08376" lon="3.05319">
        <ele>448.5924072</ele>
        <time>2009-05-08T07:29:38Z</time>
      </trkpt>
      <trkpt lat="46.08377" lon="3.05281">
        <ele>445.708374</ele>
        <time>2009-05-08T07:29:43Z</time>
      </trkpt>
      <trkpt lat="46.08369" lon="3.05252">
        <ele>443.3050537</ele>
        <time>2009-05-08T07:29:47Z</time>
      </trkpt>
      <trkpt lat="46.08364" lon="3.05244">
        <ele>442.8244629</ele>
        <time>2009-05-08T07:29:48Z</time>
      </trkpt>
      <trkpt lat="46.08347" lon="3.05208">
        <ele>437.0565186</ele>
        <time>2009-05-08T07:29:52Z</time>
      </trkpt>
      <trkpt lat="46.08342" lon="3.052">
        <ele>436.0952148</ele>
        <time>2009-05-08T07:29:53Z</time>
      </trkpt>
      <trkpt lat="46.08329" lon="3.05168">
        <ele>431.2885742</ele>
        <time>2009-05-08T07:29:57Z</time>
      </trkpt>
      <trkpt lat="46.08317" lon="3.05151">
        <ele>429.3659668</ele>
        <time>2009-05-08T07:30:00Z</time>
      </trkpt>
      <trkpt lat="46.08301" lon="3.05142">
        <ele>425.520752</ele>
        <time>2009-05-08T07:30:03Z</time>
      </trkpt>
      <trkpt lat="46.08295" lon="3.0514">
        <ele>425.0401611</ele>
        <time>2009-05-08T07:30:04Z</time>
      </trkpt>
      <trkpt lat="46.08284" lon="3.05139">
        <ele>424.0787354</ele>
        <time>2009-05-08T07:30:06Z</time>
      </trkpt>
      <trkpt lat="46.08254" lon="3.05143">
        <ele>422.1560059</ele>
        <time>2009-05-08T07:30:11Z</time>
      </trkpt>
      <trkpt lat="46.08238" lon="3.05147">
        <ele>418.310791</ele>
        <time>2009-05-08T07:30:14Z</time>
      </trkpt>
      <trkpt lat="46.08234" lon="3.05148">
        <ele>417.3496094</ele>
        <time>2009-05-08T07:30:15Z</time>
      </trkpt>
      <trkpt lat="46.0823" lon="3.05143">
        <ele>415.9074707</ele>
        <time>2009-05-08T07:30:17Z</time>
      </trkpt>
      <trkpt lat="46.08231" lon="3.05135">
        <ele>414.946167</ele>
        <time>2009-05-08T07:30:19Z</time>
      </trkpt>
      <trkpt lat="46.08236" lon="3.05123">
        <ele>413.5042725</ele>
        <time>2009-05-08T07:30:21Z</time>
      </trkpt>
      <trkpt lat="46.08243" lon="3.05107">
        <ele>410.1396484</ele>
        <time>2009-05-08T07:30:24Z</time>
      </trkpt>
      <trkpt lat="46.08252" lon="3.05093">
        <ele>407.7363281</ele>
        <time>2009-05-08T07:30:28Z</time>
      </trkpt>
      <trkpt lat="46.08261" lon="3.05075">
        <ele>404.3717041</ele>
        <time>2009-05-08T07:30:31Z</time>
      </trkpt>
      <trkpt lat="46.08275" lon="3.05054">
        <ele>402.4490967</ele>
        <time>2009-05-08T07:30:35Z</time>
      </trkpt>
      <trkpt lat="46.08289" lon="3.05036">
        <ele>399.0843506</ele>
        <time>2009-05-08T07:30:39Z</time>
      </trkpt>
      <trkpt lat="46.08294" lon="3.05027">
        <ele>398.1231689</ele>
        <time>2009-05-08T07:30:41Z</time>
      </trkpt>
      <trkpt lat="46.08302" lon="3.05018">
        <ele>394.2779541</ele>
        <time>2009-05-08T07:30:43Z</time>
      </trkpt>
      <trkpt lat="46.08317" lon="3.05001">
        <ele>389.9519043</ele>
        <time>2009-05-08T07:30:48Z</time>
      </trkpt>
      <trkpt lat="46.08316" lon="3.04996">
        <ele>389.4711914</ele>
        <time>2009-05-08T07:30:52Z</time>
      </trkpt>
      <trkpt lat="46.08312" lon="3.04986">
        <ele>389.9519043</ele>
        <time>2009-05-08T07:30:57Z</time>
      </trkpt>
      <trkpt lat="46.08311" lon="3.04982">
        <ele>389.4711914</ele>
        <time>2009-05-08T07:30:58Z</time>
      </trkpt>
      <trkpt lat="46.08291" lon="3.04968">
        <ele>391.3937988</ele>
        <time>2009-05-08T07:31:05Z</time>
      </trkpt>
      <trkpt lat="46.08283" lon="3.0496">
        <ele>389.9519043</ele>
        <time>2009-05-08T07:31:09Z</time>
      </trkpt>
      <trkpt lat="46.08281" lon="3.04957">
        <ele>389.9519043</ele>
        <time>2009-05-08T07:31:10Z</time>
      </trkpt>
      <trkpt lat="46.08279" lon="3.04953">
        <ele>389.9519043</ele>
        <time>2009-05-08T07:31:11Z</time>
      </trkpt>
      <trkpt lat="46.08279" lon="3.04944">
        <ele>390.913208</ele>
        <time>2009-05-08T07:31:16Z</time>
      </trkpt>
      <trkpt lat="46.08282" lon="3.04929">
        <ele>392.3553467</ele>
        <time>2009-05-08T07:31:22Z</time>
      </trkpt>
      <trkpt lat="46.08283" lon="3.04919">
        <ele>393.3165283</ele>
        <time>2009-05-08T07:31:25Z</time>
      </trkpt>
      <trkpt lat="46.08282" lon="3.04916">
        <ele>394.2779541</ele>
        <time>2009-05-08T07:31:27Z</time>
      </trkpt>
      <trkpt lat="46.08281" lon="3.04914">
        <ele>394.7585449</ele>
        <time>2009-05-08T07:31:28Z</time>
      </trkpt>
      <trkpt lat="46.08278" lon="3.04906">
        <ele>396.6811523</ele>
        <time>2009-05-08T07:31:32Z</time>
      </trkpt>
      <trkpt lat="46.08276" lon="3.04904">
        <ele>396.2005615</ele>
        <time>2009-05-08T07:31:33Z</time>
      </trkpt>
      <trkpt lat="46.08264" lon="3.04899">
        <ele>394.7585449</ele>
        <time>2009-05-08T07:31:37Z</time>
      </trkpt>
      <trkpt lat="46.08244" lon="3.04888">
        <ele>394.7585449</ele>
        <time>2009-05-08T07:31:42Z</time>
      </trkpt>
      <trkpt lat="46.08221" lon="3.04876">
        <ele>396.2005615</ele>
        <time>2009-05-08T07:31:48Z</time>
      </trkpt>
      <trkpt lat="46.08201" lon="3.04863">
        <ele>397.1617432</ele>
        <time>2009-05-08T07:31:54Z</time>
      </trkpt>
      <trkpt lat="46.08181" lon="3.04848">
        <ele>398.6037598</ele>
        <time>2009-05-08T07:32:01Z</time>
      </trkpt>
      <trkpt lat="46.08162" lon="3.04837">
        <ele>399.0843506</ele>
        <time>2009-05-08T07:32:07Z</time>
      </trkpt>
      <trkpt lat="46.08148" lon="3.04821">
        <ele>399.5650635</ele>
        <time>2009-05-08T07:32:13Z</time>
      </trkpt>
      <trkpt lat="46.08137" lon="3.04807">
        <ele>401.0070801</ele>
        <time>2009-05-08T07:32:18Z</time>
      </trkpt>
      <trkpt lat="46.08121" lon="3.04787">
        <ele>401.487793</ele>
        <time>2009-05-08T07:32:25Z</time>
      </trkpt>
      <trkpt lat="46.08109" lon="3.04767">
        <ele>401.487793</ele>
        <time>2009-05-08T07:32:30Z</time>
      </trkpt>
      <trkpt lat="46.08103" lon="3.04758">
        <ele>402.9296875</ele>
        <time>2009-05-08T07:32:33Z</time>
      </trkpt>
      <trkpt lat="46.08093" lon="3.04753">
        <ele>403.4104004</ele>
        <time>2009-05-08T07:32:37Z</time>
      </trkpt>
      <trkpt lat="46.08078" lon="3.04748">
        <ele>402.9296875</ele>
        <time>2009-05-08T07:32:42Z</time>
      </trkpt>
      <trkpt lat="46.08062" lon="3.04739">
        <ele>402.9296875</ele>
        <time>2009-05-08T07:32:46Z</time>
      </trkpt>
      <trkpt lat="46.08051" lon="3.04726">
        <ele>404.3717041</ele>
        <time>2009-05-08T07:32:51Z</time>
      </trkpt>
      <trkpt lat="46.08041" lon="3.04721">
        <ele>406.7749023</ele>
        <time>2009-05-08T07:32:56Z</time>
      </trkpt>
      <trkpt lat="46.08025" lon="3.04714">
        <ele>407.2556152</ele>
        <time>2009-05-08T07:33:03Z</time>
      </trkpt>
      <trkpt lat="46.0801" lon="3.04711">
        <ele>408.217041</ele>
        <time>2009-05-08T07:33:09Z</time>
      </trkpt>
      <trkpt lat="46.08" lon="3.04702">
        <ele>410.6202393</ele>
        <time>2009-05-08T07:33:15Z</time>
      </trkpt>
      <trkpt lat="46.07993" lon="3.04692">
        <ele>413.5042725</ele>
        <time>2009-05-08T07:33:22Z</time>
      </trkpt>
      <trkpt lat="46.07983" lon="3.04682">
        <ele>414.946167</ele>
        <time>2009-05-08T07:33:29Z</time>
      </trkpt>
      <trkpt lat="46.07975" lon="3.04667">
        <ele>416.8688965</ele>
        <time>2009-05-08T07:33:36Z</time>
      </trkpt>
      <trkpt lat="46.07968" lon="3.04656">
        <ele>417.8302002</ele>
        <time>2009-05-08T07:33:42Z</time>
      </trkpt>
      <trkpt lat="46.07959" lon="3.04639">
        <ele>419.2722168</ele>
        <time>2009-05-08T07:33:49Z</time>
      </trkpt>
      <trkpt lat="46.07949" lon="3.04618">
        <ele>419.2722168</ele>
        <time>2009-05-08T07:33:55Z</time>
      </trkpt>
      <trkpt lat="46.07946" lon="3.04592">
        <ele>420.2333984</ele>
        <time>2009-05-08T07:34:01Z</time>
      </trkpt>
      <trkpt lat="46.07944" lon="3.04576">
        <ele>421.675415</ele>
        <time>2009-05-08T07:34:07Z</time>
      </trkpt>
      <trkpt lat="46.07943" lon="3.04565">
        <ele>423.1174316</ele>
        <time>2009-05-08T07:34:11Z</time>
      </trkpt>
      <trkpt lat="46.07942" lon="3.04551">
        <ele>425.0401611</ele>
        <time>2009-05-08T07:34:17Z</time>
      </trkpt>
      <trkpt lat="46.07941" lon="3.0454">
        <ele>426.4820557</ele>
        <time>2009-05-08T07:34:22Z</time>
      </trkpt>
      <trkpt lat="46.07941" lon="3.04527">
        <ele>428.885376</ele>
        <time>2009-05-08T07:34:29Z</time>
      </trkpt>
      <trkpt lat="46.07941" lon="3.04518">
        <ele>430.3272705</ele>
        <time>2009-05-08T07:34:33Z</time>
      </trkpt>
      <trkpt lat="46.0794" lon="3.04513">
        <ele>430.8079834</ele>
        <time>2009-05-08T07:34:35Z</time>
      </trkpt>
      <trkpt lat="46.0794" lon="3.04504">
        <ele>431.2885742</ele>
        <time>2009-05-08T07:34:40Z</time>
      </trkpt>
      <trkpt lat="46.07943" lon="3.04499">
        <ele>431.2885742</ele>
        <time>2009-05-08T07:34:48Z</time>
      </trkpt>
      <trkpt lat="46.07943" lon="3.04498">
        <ele>431.2885742</ele>
        <time>2009-05-08T07:34:52Z</time>
      </trkpt>
      <trkpt lat="46.07944" lon="3.04497">
        <ele>431.2885742</ele>
        <time>2009-05-08T07:34:59Z</time>
      </trkpt>
      <trkpt lat="46.07947" lon="3.04503">
        <ele>432.7307129</ele>
        <time>2009-05-08T07:35:04Z</time>
      </trkpt>
      <trkpt lat="46.07955" lon="3.04521">
        <ele>433.6918945</ele>
        <time>2009-05-08T07:35:13Z</time>
      </trkpt>
      <trkpt lat="46.07967" lon="3.04543">
        <ele>434.6533203</ele>
        <time>2009-05-08T07:35:21Z</time>
      </trkpt>
      <trkpt lat="46.07976" lon="3.04559">
        <ele>435.614502</ele>
        <time>2009-05-08T07:35:28Z</time>
      </trkpt>
      <trkpt lat="46.07986" lon="3.04567">
        <ele>437.0565186</ele>
        <time>2009-05-08T07:35:34Z</time>
      </trkpt>
      <trkpt lat="46.07988" lon="3.04567">
        <ele>437.0565186</ele>
        <time>2009-05-08T07:35:35Z</time>
      </trkpt>
      <trkpt lat="46.07992" lon="3.04561">
        <ele>438.0178223</ele>
        <time>2009-05-08T07:35:39Z</time>
      </trkpt>
      <trkpt lat="46.07996" lon="3.04556">
        <ele>439.4597168</ele>
        <time>2009-05-08T07:35:42Z</time>
      </trkpt>
      <trkpt lat="46.08003" lon="3.04548">
        <ele>441.3824463</ele>
        <time>2009-05-08T07:35:48Z</time>
      </trkpt>
      <trkpt lat="46.08011" lon="3.04538">
        <ele>442.3438721</ele>
        <time>2009-05-08T07:35:55Z</time>
      </trkpt>
      <trkpt lat="46.0802" lon="3.04529">
        <ele>444.2664795</ele>
        <time>2009-05-08T07:36:02Z</time>
      </trkpt>
      <trkpt lat="46.08029" lon="3.0452">
        <ele>445.2276611</ele>
        <time>2009-05-08T07:36:09Z</time>
      </trkpt>
      <trkpt lat="46.08033" lon="3.04513">
        <ele>446.1890869</ele>
        <time>2009-05-08T07:36:13Z</time>
      </trkpt>
      <trkpt lat="46.08031" lon="3.04502">
        <ele>447.1502686</ele>
        <time>2009-05-08T07:36:17Z</time>
      </trkpt>
      <trkpt lat="46.08014" lon="3.04463">
        <ele>447.1502686</ele>
        <time>2009-05-08T07:36:28Z</time>
      </trkpt>
      <trkpt lat="46.08007" lon="3.0443">
        <ele>447.6309814</ele>
        <time>2009-05-08T07:36:35Z</time>
      </trkpt>
      <trkpt lat="46.08002" lon="3.04389">
        <ele>448.5924072</ele>
        <time>2009-05-08T07:36:43Z</time>
      </trkpt>
      <trkpt lat="46.07999" lon="3.04364">
        <ele>449.072998</ele>
        <time>2009-05-08T07:36:48Z</time>
      </trkpt>
      <trkpt lat="46.07993" lon="3.04325">
        <ele>450.9956055</ele>
        <time>2009-05-08T07:36:56Z</time>
      </trkpt>
      <trkpt lat="46.07986" lon="3.04285">
        <ele>452.9182129</ele>
        <time>2009-05-08T07:37:05Z</time>
      </trkpt>
      <trkpt lat="46.0798" lon="3.04247">
        <ele>455.3215332</ele>
        <time>2009-05-08T07:37:13Z</time>
      </trkpt>
      <trkpt lat="46.07978" lon="3.0422">
        <ele>456.7635498</ele>
        <time>2009-05-08T07:37:19Z</time>
      </trkpt>
      <trkpt lat="46.07977" lon="3.04211">
        <ele>457.2442627</ele>
        <time>2009-05-08T07:37:21Z</time>
      </trkpt>
      <trkpt lat="46.07972" lon="3.04168">
        <ele>457.7249756</ele>
        <time>2009-05-08T07:37:30Z</time>
      </trkpt>
      <trkpt lat="46.07963" lon="3.04131">
        <ele>457.2442627</ele>
        <time>2009-05-08T07:37:37Z</time>
      </trkpt>
      <trkpt lat="46.07964" lon="3.04106">
        <ele>458.2055664</ele>
        <time>2009-05-08T07:37:42Z</time>
      </trkpt>
      <trkpt lat="46.07974" lon="3.041">
        <ele>459.1668701</ele>
        <time>2009-05-08T07:37:47Z</time>
      </trkpt>
      <trkpt lat="46.07983" lon="3.0409">
        <ele>461.0894775</ele>
        <time>2009-05-08T07:37:53Z</time>
      </trkpt>
      <trkpt lat="46.07981" lon="3.04072">
        <ele>461.5701904</ele>
        <time>2009-05-08T07:37:58Z</time>
      </trkpt>
      <trkpt lat="46.07972" lon="3.04031">
        <ele>461.5701904</ele>
        <time>2009-05-08T07:38:06Z</time>
      </trkpt>
      <trkpt lat="46.07966" lon="3.03975">
        <ele>462.0507813</ele>
        <time>2009-05-08T07:38:16Z</time>
      </trkpt>
      <trkpt lat="46.07976" lon="3.03961">
        <ele>463.9733887</ele>
        <time>2009-05-08T07:38:20Z</time>
      </trkpt>
      <trkpt lat="46.08008" lon="3.03942">
        <ele>465.4155273</ele>
        <time>2009-05-08T07:38:29Z</time>
      </trkpt>
      <trkpt lat="46.0801" lon="3.03938">
        <ele>465.4155273</ele>
        <time>2009-05-08T07:38:30Z</time>
      </trkpt>
      <trkpt lat="46.08011" lon="3.03916">
        <ele>464.4541016</ele>
        <time>2009-05-08T07:38:34Z</time>
      </trkpt>
      <trkpt lat="46.08009" lon="3.03911">
        <ele>465.8961182</ele>
        <time>2009-05-08T07:38:35Z</time>
      </trkpt>
      <trkpt lat="46.0799" lon="3.03875">
        <ele>466.8574219</ele>
        <time>2009-05-08T07:38:43Z</time>
      </trkpt>
      <trkpt lat="46.07967" lon="3.03836">
        <ele>468.2993164</ele>
        <time>2009-05-08T07:38:53Z</time>
      </trkpt>
      <trkpt lat="46.07959" lon="3.03817">
        <ele>470.2219238</ele>
        <time>2009-05-08T07:38:58Z</time>
      </trkpt>
      <trkpt lat="46.07952" lon="3.03791">
        <ele>473.5866699</ele>
        <time>2009-05-08T07:39:05Z</time>
      </trkpt>
      <trkpt lat="46.07951" lon="3.03789">
        <ele>473.1060791</ele>
        <time>2009-05-08T07:39:06Z</time>
      </trkpt>
      <trkpt lat="46.07952" lon="3.03778">
        <ele>473.5866699</ele>
        <time>2009-05-08T07:39:13Z</time>
      </trkpt>
      <trkpt lat="46.07953" lon="3.03777">
        <ele>473.5866699</ele>
        <time>2009-05-08T07:39:22Z</time>
      </trkpt>
      <trkpt lat="46.0795" lon="3.03779">
        <ele>474.0672607</ele>
        <time>2009-05-08T07:40:43Z</time>
      </trkpt>
      <trkpt lat="46.07949" lon="3.03781">
        <ele>474.0672607</ele>
        <time>2009-05-08T07:41:07Z</time>
      </trkpt>
      <trkpt lat="46.0795" lon="3.03778">
        <ele>474.0672607</ele>
        <time>2009-05-08T07:41:18Z</time>
      </trkpt>
      <trkpt lat="46.07951" lon="3.03776">
        <ele>474.0672607</ele>
        <time>2009-05-08T07:41:27Z</time>
      </trkpt>
      <trkpt lat="46.07949" lon="3.03781">
        <ele>473.5866699</ele>
        <time>2009-05-08T07:41:40Z</time>
      </trkpt>
      <trkpt lat="46.07952" lon="3.03781">
        <ele>474.5479736</ele>
        <time>2009-05-08T07:42:15Z</time>
      </trkpt>
      <trkpt lat="46.07952" lon="3.03785">
        <ele>475.5092773</ele>
        <time>2009-05-08T07:43:49Z</time>
      </trkpt>
      <trkpt lat="46.07952" lon="3.03785">
        <ele>475.5092773</ele>
        <time>2009-05-08T07:43:50Z</time>
      </trkpt>
      <trkpt lat="46.0795" lon="3.03779">
        <ele>475.5092773</ele>
        <time>2009-05-08T07:44:17Z</time>
      </trkpt>
      <trkpt lat="46.07949" lon="3.03778">
        <ele>475.0286865</ele>
        <time>2009-05-08T07:44:29Z</time>
      </trkpt>
      <trkpt lat="46.07949" lon="3.03778">
        <ele>475.9898682</ele>
        <time>2009-05-08T07:44:35Z</time>
      </trkpt>
      <trkpt lat="46.07949" lon="3.03777">
        <ele>475.9898682</ele>
        <time>2009-05-08T07:44:50Z</time>
      </trkpt>
      <trkpt lat="46.07952" lon="3.03778">
        <ele>475.9898682</ele>
        <time>2009-05-08T07:46:06Z</time>
      </trkpt>
      <trkpt lat="46.07952" lon="3.03777">
        <ele>475.9898682</ele>
        <time>2009-05-08T07:46:16Z</time>
      </trkpt>
      <trkpt lat="46.07951" lon="3.03776">
        <ele>476.4705811</ele>
        <time>2009-05-08T07:46:22Z</time>
      </trkpt>
      <trkpt lat="46.07951" lon="3.03776">
        <ele>476.4705811</ele>
        <time>2009-05-08T07:46:29Z</time>
      </trkpt>
      <trkpt lat="46.0795" lon="3.03776">
        <ele>476.4705811</ele>
        <time>2009-05-08T07:46:44Z</time>
      </trkpt>
      <trkpt lat="46.0795" lon="3.03776">
        <ele>476.4705811</ele>
        <time>2009-05-08T07:46:54Z</time>
      </trkpt>
      <trkpt lat="46.07946" lon="3.03787">
        <ele>475.9898682</ele>
        <time>2009-05-08T07:46:59Z</time>
      </trkpt>
      <trkpt lat="46.07935" lon="3.03807">
        <ele>475.5092773</ele>
        <time>2009-05-08T07:47:05Z</time>
      </trkpt>
      <trkpt lat="46.07923" lon="3.03818">
        <ele>475.5092773</ele>
        <time>2009-05-08T07:47:09Z</time>
      </trkpt>
      <trkpt lat="46.07899" lon="3.03831">
        <ele>473.5866699</ele>
        <time>2009-05-08T07:47:15Z</time>
      </trkpt>
      <trkpt lat="46.07894" lon="3.03833">
        <ele>473.5866699</ele>
        <time>2009-05-08T07:47:16Z</time>
      </trkpt>
      <trkpt lat="46.07873" lon="3.03859">
        <ele>472.1446533</ele>
        <time>2009-05-08T07:47:21Z</time>
      </trkpt>
      <trkpt lat="46.07863" lon="3.03872">
        <ele>471.1833496</ele>
        <time>2009-05-08T07:47:23Z</time>
      </trkpt>
      <trkpt lat="46.07837" lon="3.0391">
        <ele>468.2993164</ele>
        <time>2009-05-08T07:47:28Z</time>
      </trkpt>
      <trkpt lat="46.07821" lon="3.03949">
        <ele>467.8187256</ele>
        <time>2009-05-08T07:47:32Z</time>
      </trkpt>
      <trkpt lat="46.07818" lon="3.03968">
        <ele>467.8187256</ele>
        <time>2009-05-08T07:47:34Z</time>
      </trkpt>
      <trkpt lat="46.07811" lon="3.04021">
        <ele>468.2993164</ele>
        <time>2009-05-08T07:47:40Z</time>
      </trkpt>
      <trkpt lat="46.07802" lon="3.04059">
        <ele>468.7800293</ele>
        <time>2009-05-08T07:47:45Z</time>
      </trkpt>
      <trkpt lat="46.07789" lon="3.04082">
        <ele>468.7800293</ele>
        <time>2009-05-08T07:47:49Z</time>
      </trkpt>
      <trkpt lat="46.07776" lon="3.04095">
        <ele>468.7800293</ele>
        <time>2009-05-08T07:47:52Z</time>
      </trkpt>
      <trkpt lat="46.07737" lon="3.04117">
        <ele>468.7800293</ele>
        <time>2009-05-08T07:48:00Z</time>
      </trkpt>
      <trkpt lat="46.07723" lon="3.04128">
        <ele>469.2607422</ele>
        <time>2009-05-08T07:48:03Z</time>
      </trkpt>
      <trkpt lat="46.07709" lon="3.04147">
        <ele>469.2607422</ele>
        <time>2009-05-08T07:48:07Z</time>
      </trkpt>
      <trkpt lat="46.07701" lon="3.04162">
        <ele>470.7026367</ele>
        <time>2009-05-08T07:48:10Z</time>
      </trkpt>
      <trkpt lat="46.07692" lon="3.04181">
        <ele>471.6639404</ele>
        <time>2009-05-08T07:48:14Z</time>
      </trkpt>
      <trkpt lat="46.07699" lon="3.04199">
        <ele>471.6639404</ele>
        <time>2009-05-08T07:48:18Z</time>
      </trkpt>
      <trkpt lat="46.07711" lon="3.04207">
        <ele>471.6639404</ele>
        <time>2009-05-08T07:48:21Z</time>
      </trkpt>
      <trkpt lat="46.07735" lon="3.04223">
        <ele>470.7026367</ele>
        <time>2009-05-08T07:48:26Z</time>
      </trkpt>
      <trkpt lat="46.07741" lon="3.04227">
        <ele>470.2219238</ele>
        <time>2009-05-08T07:48:27Z</time>
      </trkpt>
      <trkpt lat="46.07762" lon="3.04259">
        <ele>469.2607422</ele>
        <time>2009-05-08T07:48:32Z</time>
      </trkpt>
      <trkpt lat="46.07772" lon="3.04296">
        <ele>468.2993164</ele>
        <time>2009-05-08T07:48:37Z</time>
      </trkpt>
      <trkpt lat="46.07781" lon="3.04348">
        <ele>466.376709</ele>
        <time>2009-05-08T07:48:43Z</time>
      </trkpt>
      <trkpt lat="46.07793" lon="3.04395">
        <ele>464.4541016</ele>
        <time>2009-05-08T07:48:48Z</time>
      </trkpt>
      <trkpt lat="46.07795" lon="3.04405">
        <ele>462.5313721</ele>
        <time>2009-05-08T07:48:49Z</time>
      </trkpt>
      <trkpt lat="46.07797" lon="3.04413">
        <ele>462.5313721</ele>
        <time>2009-05-08T07:48:50Z</time>
      </trkpt>
      <trkpt lat="46.07802" lon="3.04431">
        <ele>461.0894775</ele>
        <time>2009-05-08T07:48:52Z</time>
      </trkpt>
      <trkpt lat="46.07806" lon="3.04448">
        <ele>457.7249756</ele>
        <time>2009-05-08T07:48:54Z</time>
      </trkpt>
      <trkpt lat="46.07814" lon="3.04476">
        <ele>454.3602295</ele>
        <time>2009-05-08T07:48:58Z</time>
      </trkpt>
      <trkpt lat="46.07811" lon="3.04499">
        <ele>449.5537109</ele>
        <time>2009-05-08T07:49:02Z</time>
      </trkpt>
      <trkpt lat="46.07808" lon="3.04504">
        <ele>449.072998</ele>
        <time>2009-05-08T07:49:03Z</time>
      </trkpt>
      <trkpt lat="46.07797" lon="3.04515">
        <ele>447.6309814</ele>
        <time>2009-05-08T07:49:05Z</time>
      </trkpt>
      <trkpt lat="46.0778" lon="3.04527">
        <ele>445.708374</ele>
        <time>2009-05-08T07:49:07Z</time>
      </trkpt>
      <trkpt lat="46.07761" lon="3.04531">
        <ele>441.8631592</ele>
        <time>2009-05-08T07:49:09Z</time>
      </trkpt>
      <trkpt lat="46.07754" lon="3.04533">
        <ele>440.4212646</ele>
        <time>2009-05-08T07:49:10Z</time>
      </trkpt>
      <trkpt lat="46.0774" lon="3.04537">
        <ele>437.0565186</ele>
        <time>2009-05-08T07:49:12Z</time>
      </trkpt>
      <trkpt lat="46.07731" lon="3.04542">
        <ele>436.5759277</ele>
        <time>2009-05-08T07:49:14Z</time>
      </trkpt>
      <trkpt lat="46.07725" lon="3.04546">
        <ele>435.1339111</ele>
        <time>2009-05-08T07:49:16Z</time>
      </trkpt>
      <trkpt lat="46.0772" lon="3.04552">
        <ele>434.1726074</ele>
        <time>2009-05-08T07:49:18Z</time>
      </trkpt>
      <trkpt lat="46.07717" lon="3.04554">
        <ele>433.2113037</ele>
        <time>2009-05-08T07:49:19Z</time>
      </trkpt>
      <trkpt lat="46.07716" lon="3.04554">
        <ele>433.2113037</ele>
        <time>2009-05-08T07:49:20Z</time>
      </trkpt>
      <trkpt lat="46.07706" lon="3.04559">
        <ele>431.2885742</ele>
        <time>2009-05-08T07:49:24Z</time>
      </trkpt>
      <trkpt lat="46.07689" lon="3.04563">
        <ele>428.885376</ele>
        <time>2009-05-08T07:49:27Z</time>
      </trkpt>
      <trkpt lat="46.07672" lon="3.04564">
        <ele>426.4820557</ele>
        <time>2009-05-08T07:49:30Z</time>
      </trkpt>
      <trkpt lat="46.0765" lon="3.04565">
        <ele>424.0787354</ele>
        <time>2009-05-08T07:49:35Z</time>
      </trkpt>
      <trkpt lat="46.07645" lon="3.04565">
        <ele>423.1174316</ele>
        <time>2009-05-08T07:49:37Z</time>
      </trkpt>
      <trkpt lat="46.07644" lon="3.04568">
        <ele>423.1174316</ele>
        <time>2009-05-08T07:49:40Z</time>
      </trkpt>
      <trkpt lat="46.07638" lon="3.04583">
        <ele>421.1948242</ele>
        <time>2009-05-08T07:49:46Z</time>
      </trkpt>
      <trkpt lat="46.0764" lon="3.04581">
        <ele>422.1560059</ele>
        <time>2009-05-08T07:49:52Z</time>
      </trkpt>
      <trkpt lat="46.07643" lon="3.04581">
        <ele>422.6367188</ele>
        <time>2009-05-08T07:49:56Z</time>
      </trkpt>
      <trkpt lat="46.07645" lon="3.04587">
        <ele>424.0787354</ele>
        <time>2009-05-08T07:50:01Z</time>
      </trkpt>
      <trkpt lat="46.07644" lon="3.04589">
        <ele>424.0787354</ele>
        <time>2009-05-08T07:50:03Z</time>
      </trkpt>
      <trkpt lat="46.07641" lon="3.04596">
        <ele>425.520752</ele>
        <time>2009-05-08T07:50:06Z</time>
      </trkpt>
      <trkpt lat="46.07638" lon="3.046">
        <ele>425.520752</ele>
        <time>2009-05-08T07:50:08Z</time>
      </trkpt>
      <trkpt lat="46.07633" lon="3.04611">
        <ele>426.9627686</ele>
        <time>2009-05-08T07:50:13Z</time>
      </trkpt>
      <trkpt lat="46.0763" lon="3.04618">
        <ele>426.9627686</ele>
        <time>2009-05-08T07:50:15Z</time>
      </trkpt>
      <trkpt lat="46.07624" lon="3.0463">
        <ele>427.9239502</ele>
        <time>2009-05-08T07:50:21Z</time>
      </trkpt>
      <trkpt lat="46.07619" lon="3.04645">
        <ele>427.9239502</ele>
        <time>2009-05-08T07:50:26Z</time>
      </trkpt>
      <trkpt lat="46.07612" lon="3.0466">
        <ele>429.3659668</ele>
        <time>2009-05-08T07:50:32Z</time>
      </trkpt>
      <trkpt lat="46.07609" lon="3.04666">
        <ele>429.8465576</ele>
        <time>2009-05-08T07:50:35Z</time>
      </trkpt>
      <trkpt lat="46.07601" lon="3.04674">
        <ele>431.2885742</ele>
        <time>2009-05-08T07:50:41Z</time>
      </trkpt>
      <trkpt lat="46.07587" lon="3.04689">
        <ele>431.769165</ele>
        <time>2009-05-08T07:50:48Z</time>
      </trkpt>
      <trkpt lat="46.07587" lon="3.04689">
        <ele>432.25</ele>
        <time>2009-05-08T07:50:49Z</time>
      </trkpt>
      <trkpt lat="46.07575" lon="3.047">
        <ele>433.2113037</ele>
        <time>2009-05-08T07:50:57Z</time>
      </trkpt>
      <trkpt lat="46.07573" lon="3.04704">
        <ele>434.1726074</ele>
        <time>2009-05-08T07:51:02Z</time>
      </trkpt>
      <trkpt lat="46.07568" lon="3.04708">
        <ele>435.1339111</ele>
        <time>2009-05-08T07:51:07Z</time>
      </trkpt>
      <trkpt lat="46.07559" lon="3.04713">
        <ele>436.5759277</ele>
        <time>2009-05-08T07:51:14Z</time>
      </trkpt>
      <trkpt lat="46.07547" lon="3.0472">
        <ele>438.0178223</ele>
        <time>2009-05-08T07:51:22Z</time>
      </trkpt>
      <trkpt lat="46.07545" lon="3.04721">
        <ele>438.979126</ele>
        <time>2009-05-08T07:51:25Z</time>
      </trkpt>
      <trkpt lat="46.07538" lon="3.04727">
        <ele>439.9404297</ele>
        <time>2009-05-08T07:51:31Z</time>
      </trkpt>
      <trkpt lat="46.07531" lon="3.04743">
        <ele>439.4597168</ele>
        <time>2009-05-08T07:51:37Z</time>
      </trkpt>
      <trkpt lat="46.07524" lon="3.04753">
        <ele>441.8631592</ele>
        <time>2009-05-08T07:51:43Z</time>
      </trkpt>
      <trkpt lat="46.07525" lon="3.04754">
        <ele>441.8631592</ele>
        <time>2009-05-08T07:51:46Z</time>
      </trkpt>
      <trkpt lat="46.07521" lon="3.04759">
        <ele>442.8244629</ele>
        <time>2009-05-08T07:51:52Z</time>
      </trkpt>
      <trkpt lat="46.0752" lon="3.04759">
        <ele>442.3438721</ele>
        <time>2009-05-08T07:51:53Z</time>
      </trkpt>
      <trkpt lat="46.07514" lon="3.0477">
        <ele>442.8244629</ele>
        <time>2009-05-08T07:52:00Z</time>
      </trkpt>
      <trkpt lat="46.07508" lon="3.04778">
        <ele>443.7857666</ele>
        <time>2009-05-08T07:52:05Z</time>
      </trkpt>
      <trkpt lat="46.07497" lon="3.04794">
        <ele>444.7470703</ele>
        <time>2009-05-08T07:52:12Z</time>
      </trkpt>
      <trkpt lat="46.07493" lon="3.04798">
        <ele>444.7470703</ele>
        <time>2009-05-08T07:52:14Z</time>
      </trkpt>
      <trkpt lat="46.07491" lon="3.04811">
        <ele>445.2276611</ele>
        <time>2009-05-08T07:52:18Z</time>
      </trkpt>
      <trkpt lat="46.07487" lon="3.04824">
        <ele>445.708374</ele>
        <time>2009-05-08T07:52:23Z</time>
      </trkpt>
      <trkpt lat="46.07487" lon="3.04832">
        <ele>446.6696777</ele>
        <time>2009-05-08T07:52:25Z</time>
      </trkpt>
      <trkpt lat="46.07485" lon="3.04851">
        <ele>448.1118164</ele>
        <time>2009-05-08T07:52:31Z</time>
      </trkpt>
      <trkpt lat="46.07484" lon="3.04854">
        <ele>448.5924072</ele>
        <time>2009-05-08T07:52:32Z</time>
      </trkpt>
      <trkpt lat="46.07481" lon="3.04875">
        <ele>450.0344238</ele>
        <time>2009-05-08T07:52:39Z</time>
      </trkpt>
      <trkpt lat="46.0748" lon="3.04877">
        <ele>450.5150146</ele>
        <time>2009-05-08T07:52:40Z</time>
      </trkpt>
      <trkpt lat="46.07469" lon="3.04887">
        <ele>451.9570313</ele>
        <time>2009-05-08T07:52:46Z</time>
      </trkpt>
      <trkpt lat="46.0746" lon="3.04895">
        <ele>452.9182129</ele>
        <time>2009-05-08T07:52:52Z</time>
      </trkpt>
      <trkpt lat="46.07454" lon="3.04907">
        <ele>453.3989258</ele>
        <time>2009-05-08T07:52:58Z</time>
      </trkpt>
      <trkpt lat="46.0745" lon="3.04921">
        <ele>452.4376221</ele>
        <time>2009-05-08T07:53:02Z</time>
      </trkpt>
      <trkpt lat="46.07459" lon="3.04923">
        <ele>453.3989258</ele>
        <time>2009-05-08T07:53:07Z</time>
      </trkpt>
      <trkpt lat="46.07462" lon="3.04926">
        <ele>453.8796387</ele>
        <time>2009-05-08T07:53:09Z</time>
      </trkpt>
      <trkpt lat="46.07463" lon="3.04936">
        <ele>455.3215332</ele>
        <time>2009-05-08T07:53:15Z</time>
      </trkpt>
      <trkpt lat="46.07464" lon="3.04941">
        <ele>455.8022461</ele>
        <time>2009-05-08T07:53:18Z</time>
      </trkpt>
      <trkpt lat="46.07464" lon="3.0495">
        <ele>457.2442627</ele>
        <time>2009-05-08T07:53:24Z</time>
      </trkpt>
      <trkpt lat="46.07461" lon="3.04963">
        <ele>459.647583</ele>
        <time>2009-05-08T07:53:31Z</time>
      </trkpt>
      <trkpt lat="46.07461" lon="3.04972">
        <ele>460.1281738</ele>
        <time>2009-05-08T07:53:37Z</time>
      </trkpt>
      <trkpt lat="46.0746" lon="3.04974">
        <ele>460.6087646</ele>
        <time>2009-05-08T07:53:40Z</time>
      </trkpt>
      <trkpt lat="46.07457" lon="3.04983">
        <ele>462.5313721</ele>
        <time>2009-05-08T07:53:47Z</time>
      </trkpt>
      <trkpt lat="46.07453" lon="3.04993">
        <ele>464.4541016</ele>
        <time>2009-05-08T07:53:54Z</time>
      </trkpt>
      <trkpt lat="46.07446" lon="3.05004">
        <ele>465.4155273</ele>
        <time>2009-05-08T07:54:02Z</time>
      </trkpt>
      <trkpt lat="46.0744" lon="3.05014">
        <ele>467.8187256</ele>
        <time>2009-05-08T07:54:09Z</time>
      </trkpt>
      <trkpt lat="46.07439" lon="3.05017">
        <ele>468.7800293</ele>
        <time>2009-05-08T07:54:11Z</time>
      </trkpt>
      <trkpt lat="46.07435" lon="3.05023">
        <ele>469.2607422</ele>
        <time>2009-05-08T07:54:15Z</time>
      </trkpt>
      <trkpt lat="46.07428" lon="3.05039">
        <ele>471.1833496</ele>
        <time>2009-05-08T07:54:24Z</time>
      </trkpt>
      <trkpt lat="46.07419" lon="3.05058">
        <ele>472.6253662</ele>
        <time>2009-05-08T07:54:34Z</time>
      </trkpt>
      <trkpt lat="46.07412" lon="3.05073">
        <ele>474.5479736</ele>
        <time>2009-05-08T07:54:41Z</time>
      </trkpt>
      <trkpt lat="46.07401" lon="3.05091">
        <ele>475.5092773</ele>
        <time>2009-05-08T07:54:49Z</time>
      </trkpt>
      <trkpt lat="46.07385" lon="3.05119">
        <ele>476.4705811</ele>
        <time>2009-05-08T07:54:59Z</time>
      </trkpt>
      <trkpt lat="46.07365" lon="3.0515">
        <ele>476.9512939</ele>
        <time>2009-05-08T07:55:08Z</time>
      </trkpt>
      <trkpt lat="46.07348" lon="3.05178">
        <ele>478.3931885</ele>
        <time>2009-05-08T07:55:16Z</time>
      </trkpt>
      <trkpt lat="46.07329" lon="3.05199">
        <ele>480.315918</ele>
        <time>2009-05-08T07:55:25Z</time>
      </trkpt>
      <trkpt lat="46.07308" lon="3.05217">
        <ele>483.1998291</ele>
        <time>2009-05-08T07:55:35Z</time>
      </trkpt>
      <trkpt lat="46.07283" lon="3.05239">
        <ele>484.6418457</ele>
        <time>2009-05-08T07:55:47Z</time>
      </trkpt>
      <trkpt lat="46.07265" lon="3.05247">
        <ele>486.5644531</ele>
        <time>2009-05-08T07:55:55Z</time>
      </trkpt>
      <trkpt lat="46.07254" lon="3.0525">
        <ele>487.5256348</ele>
        <time>2009-05-08T07:56:00Z</time>
      </trkpt>
      <trkpt lat="46.07231" lon="3.05256">
        <ele>489.9290771</ele>
        <time>2009-05-08T07:56:10Z</time>
      </trkpt>
      <trkpt lat="46.07211" lon="3.05263">
        <ele>490.8903809</ele>
        <time>2009-05-08T07:56:20Z</time>
      </trkpt>
      <trkpt lat="46.0719" lon="3.0527">
        <ele>493.774292</ele>
        <time>2009-05-08T07:56:31Z</time>
      </trkpt>
      <trkpt lat="46.07173" lon="3.05275">
        <ele>496.1777344</ele>
        <time>2009-05-08T07:56:41Z</time>
      </trkpt>
      <trkpt lat="46.0717" lon="3.05276">
        <ele>497.138916</ele>
        <time>2009-05-08T07:56:43Z</time>
      </trkpt>
      <trkpt lat="46.07167" lon="3.05278">
        <ele>497.6196289</ele>
        <time>2009-05-08T07:56:45Z</time>
      </trkpt>
      <trkpt lat="46.07154" lon="3.05282">
        <ele>499.0615234</ele>
        <time>2009-05-08T07:56:53Z</time>
      </trkpt>
      <trkpt lat="46.07143" lon="3.05286">
        <ele>500.9841309</ele>
        <time>2009-05-08T07:57:00Z</time>
      </trkpt>
      <trkpt lat="46.07132" lon="3.05289">
        <ele>502.9067383</ele>
        <time>2009-05-08T07:57:08Z</time>
      </trkpt>
      <trkpt lat="46.07118" lon="3.05294">
        <ele>504.8294678</ele>
        <time>2009-05-08T07:57:18Z</time>
      </trkpt>
      <trkpt lat="46.07112" lon="3.05296">
        <ele>506.2714844</ele>
        <time>2009-05-08T07:57:22Z</time>
      </trkpt>
      <trkpt lat="46.07102" lon="3.05299">
        <ele>508.6746826</ele>
        <time>2009-05-08T07:57:30Z</time>
      </trkpt>
      <trkpt lat="46.07093" lon="3.05302">
        <ele>510.59729</ele>
        <time>2009-05-08T07:57:38Z</time>
      </trkpt>
      <trkpt lat="46.07086" lon="3.05303">
        <ele>512.5200195</ele>
        <time>2009-05-08T07:57:44Z</time>
      </trkpt>
      <trkpt lat="46.07078" lon="3.05299">
        <ele>513.9620361</ele>
        <time>2009-05-08T07:57:51Z</time>
      </trkpt>
      <trkpt lat="46.07066" lon="3.05273">
        <ele>513.9620361</ele>
        <time>2009-05-08T07:58:00Z</time>
      </trkpt>
      <trkpt lat="46.07054" lon="3.05241">
        <ele>514.9233398</ele>
        <time>2009-05-08T07:58:07Z</time>
      </trkpt>
      <trkpt lat="46.07038" lon="3.05195">
        <ele>515.4040527</ele>
        <time>2009-05-08T07:58:14Z</time>
      </trkpt>
      <trkpt lat="46.0702" lon="3.05136">
        <ele>516.3652344</ele>
        <time>2009-05-08T07:58:23Z</time>
      </trkpt>
      <trkpt lat="46.07009" lon="3.05104">
        <ele>517.3266602</ele>
        <time>2009-05-08T07:58:28Z</time>
      </trkpt>
      <trkpt lat="46.06994" lon="3.05052">
        <ele>518.2878418</ele>
        <time>2009-05-08T07:58:35Z</time>
      </trkpt>
      <trkpt lat="46.06974" lon="3.04988">
        <ele>519.7298584</ele>
        <time>2009-05-08T07:58:44Z</time>
      </trkpt>
      <trkpt lat="46.06963" lon="3.04958">
        <ele>520.6912842</ele>
        <time>2009-05-08T07:58:49Z</time>
      </trkpt>
      <trkpt lat="46.06955" lon="3.0494">
        <ele>522.6138916</ele>
        <time>2009-05-08T07:58:52Z</time>
      </trkpt>
      <trkpt lat="46.06951" lon="3.04917">
        <ele>522.6138916</ele>
        <time>2009-05-08T07:58:56Z</time>
      </trkpt>
      <trkpt lat="46.06954" lon="3.04882">
        <ele>524.0557861</ele>
        <time>2009-05-08T07:59:03Z</time>
      </trkpt>
      <trkpt lat="46.06958" lon="3.04835">
        <ele>524.0557861</ele>
        <time>2009-05-08T07:59:11Z</time>
      </trkpt>
      <trkpt lat="46.06963" lon="3.0479">
        <ele>523.5751953</ele>
        <time>2009-05-08T07:59:18Z</time>
      </trkpt>
      <trkpt lat="46.06964" lon="3.04783">
        <ele>524.0557861</ele>
        <time>2009-05-08T07:59:19Z</time>
      </trkpt>
      <trkpt lat="46.06969" lon="3.04748">
        <ele>524.536499</ele>
        <time>2009-05-08T07:59:24Z</time>
      </trkpt>
      <trkpt lat="46.06976" lon="3.04711">
        <ele>522.6138916</ele>
        <time>2009-05-08T07:59:29Z</time>
      </trkpt>
      <trkpt lat="46.06985" lon="3.04661">
        <ele>521.6525879</ele>
        <time>2009-05-08T07:59:35Z</time>
      </trkpt>
      <trkpt lat="46.06992" lon="3.04629">
        <ele>520.6912842</ele>
        <time>2009-05-08T07:59:39Z</time>
      </trkpt>
      <trkpt lat="46.06996" lon="3.04606">
        <ele>520.2105713</ele>
        <time>2009-05-08T07:59:42Z</time>
      </trkpt>
      <trkpt lat="46.07006" lon="3.04562">
        <ele>520.6912842</ele>
        <time>2009-05-08T07:59:48Z</time>
      </trkpt>
      <trkpt lat="46.07015" lon="3.04536">
        <ele>521.1719971</ele>
        <time>2009-05-08T07:59:52Z</time>
      </trkpt>
      <trkpt lat="46.07014" lon="3.0452">
        <ele>520.6912842</ele>
        <time>2009-05-08T07:59:55Z</time>
      </trkpt>
      <trkpt lat="46.07007" lon="3.04516">
        <ele>520.6912842</ele>
        <time>2009-05-08T07:59:57Z</time>
      </trkpt>
      <trkpt lat="46.06998" lon="3.04514">
        <ele>521.6525879</ele>
        <time>2009-05-08T07:59:59Z</time>
      </trkpt>
      <trkpt lat="46.06981" lon="3.04505">
        <ele>521.1719971</ele>
        <time>2009-05-08T08:00:03Z</time>
      </trkpt>
      <trkpt lat="46.06961" lon="3.04511">
        <ele>520.2105713</ele>
        <time>2009-05-08T08:00:07Z</time>
      </trkpt>
      <trkpt lat="46.06956" lon="3.04518">
        <ele>519.2492676</ele>
        <time>2009-05-08T08:00:08Z</time>
      </trkpt>
      <trkpt lat="46.06923" lon="3.04567">
        <ele>518.2878418</ele>
        <time>2009-05-08T08:00:15Z</time>
      </trkpt>
      <trkpt lat="46.06902" lon="3.04593">
        <ele>516.8459473</ele>
        <time>2009-05-08T08:00:19Z</time>
      </trkpt>
      <trkpt lat="46.06897" lon="3.04599">
        <ele>517.3266602</ele>
        <time>2009-05-08T08:00:20Z</time>
      </trkpt>
      <trkpt lat="46.06866" lon="3.04627">
        <ele>516.8459473</ele>
        <time>2009-05-08T08:00:26Z</time>
      </trkpt>
      <trkpt lat="46.06835" lon="3.04645">
        <ele>517.3266602</ele>
        <time>2009-05-08T08:00:32Z</time>
      </trkpt>
      <trkpt lat="46.06817" lon="3.04647">
        <ele>517.3266602</ele>
        <time>2009-05-08T08:00:37Z</time>
      </trkpt>
      <trkpt lat="46.06805" lon="3.0465">
        <ele>518.2878418</ele>
        <time>2009-05-08T08:00:40Z</time>
      </trkpt>
      <trkpt lat="46.06795" lon="3.04634">
        <ele>518.7685547</ele>
        <time>2009-05-08T08:00:44Z</time>
      </trkpt>
      <trkpt lat="46.06791" lon="3.04623">
        <ele>519.2492676</ele>
        <time>2009-05-08T08:00:46Z</time>
      </trkpt>
      <trkpt lat="46.06776" lon="3.04591">
        <ele>520.6912842</ele>
        <time>2009-05-08T08:00:52Z</time>
      </trkpt>
      <trkpt lat="46.06767" lon="3.04575">
        <ele>521.1719971</ele>
        <time>2009-05-08T08:00:55Z</time>
      </trkpt>
      <trkpt lat="46.06737" lon="3.04535">
        <ele>521.6525879</ele>
        <time>2009-05-08T08:01:04Z</time>
      </trkpt>
      <trkpt lat="46.0671" lon="3.04504">
        <ele>520.6912842</ele>
        <time>2009-05-08T08:01:10Z</time>
      </trkpt>
      <trkpt lat="46.0667" lon="3.0447">
        <ele>520.2105713</ele>
        <time>2009-05-08T08:01:18Z</time>
      </trkpt>
      <trkpt lat="46.06632" lon="3.04441">
        <ele>521.6525879</ele>
        <time>2009-05-08T08:01:27Z</time>
      </trkpt>
      <trkpt lat="46.06612" lon="3.04427">
        <ele>523.0946045</ele>
        <time>2009-05-08T08:01:34Z</time>
      </trkpt>
      <trkpt lat="46.066" lon="3.04419">
        <ele>525.4978027</ele>
        <time>2009-05-08T08:01:40Z</time>
      </trkpt>
      <trkpt lat="46.06597" lon="3.04418">
        <ele>526.9398193</ele>
        <time>2009-05-08T08:01:42Z</time>
      </trkpt>
      <trkpt lat="46.0659" lon="3.04415">
        <ele>526.9398193</ele>
        <time>2009-05-08T08:01:46Z</time>
      </trkpt>
      <trkpt lat="46.06585" lon="3.04411">
        <ele>528.3818359</ele>
        <time>2009-05-08T08:01:49Z</time>
      </trkpt>
      <trkpt lat="46.0658" lon="3.04407">
        <ele>529.3431396</ele>
        <time>2009-05-08T08:01:52Z</time>
      </trkpt>
      <trkpt lat="46.06569" lon="3.04395">
        <ele>530.3044434</ele>
        <time>2009-05-08T08:01:59Z</time>
      </trkpt>
      <trkpt lat="46.06563" lon="3.04384">
        <ele>531.7463379</ele>
        <time>2009-05-08T08:02:04Z</time>
      </trkpt>
      <trkpt lat="46.06555" lon="3.04361">
        <ele>533.6689453</ele>
        <time>2009-05-08T08:02:13Z</time>
      </trkpt>
      <trkpt lat="46.06548" lon="3.04339">
        <ele>535.5915527</ele>
        <time>2009-05-08T08:02:22Z</time>
      </trkpt>
      <trkpt lat="46.06545" lon="3.04325">
        <ele>537.5142822</ele>
        <time>2009-05-08T08:02:28Z</time>
      </trkpt>
      <trkpt lat="46.06541" lon="3.04308">
        <ele>538.475708</ele>
        <time>2009-05-08T08:02:36Z</time>
      </trkpt>
      <trkpt lat="46.06536" lon="3.04292">
        <ele>541.3594971</ele>
        <time>2009-05-08T08:02:43Z</time>
      </trkpt>
      <trkpt lat="46.06531" lon="3.04282">
        <ele>542.8015137</ele>
        <time>2009-05-08T08:02:49Z</time>
      </trkpt>
      <trkpt lat="46.06527" lon="3.04266">
        <ele>544.7242432</ele>
        <time>2009-05-08T08:02:56Z</time>
      </trkpt>
      <trkpt lat="46.06522" lon="3.04252">
        <ele>545.204834</ele>
        <time>2009-05-08T08:03:02Z</time>
      </trkpt>
      <trkpt lat="46.06514" lon="3.0423">
        <ele>547.6081543</ele>
        <time>2009-05-08T08:03:11Z</time>
      </trkpt>
      <trkpt lat="46.06508" lon="3.04216">
        <ele>548.5693359</ele>
        <time>2009-05-08T08:03:17Z</time>
      </trkpt>
      <trkpt lat="46.06498" lon="3.04194">
        <ele>549.5307617</ele>
        <time>2009-05-08T08:03:26Z</time>
      </trkpt>
      <trkpt lat="46.06489" lon="3.04166">
        <ele>551.934082</ele>
        <time>2009-05-08T08:03:35Z</time>
      </trkpt>
      <trkpt lat="46.06487" lon="3.0414">
        <ele>552.8952637</ele>
        <time>2009-05-08T08:03:42Z</time>
      </trkpt>
      <trkpt lat="46.0649" lon="3.04118">
        <ele>553.3759766</ele>
        <time>2009-05-08T08:03:48Z</time>
      </trkpt>
      <trkpt lat="46.06495" lon="3.04101">
        <ele>554.8178711</ele>
        <time>2009-05-08T08:03:53Z</time>
      </trkpt>
      <trkpt lat="46.06499" lon="3.0408">
        <ele>556.7407227</ele>
        <time>2009-05-08T08:03:59Z</time>
      </trkpt>
      <trkpt lat="46.06499" lon="3.04062">
        <ele>558.1828613</ele>
        <time>2009-05-08T08:04:05Z</time>
      </trkpt>
      <trkpt lat="46.06494" lon="3.04042">
        <ele>560.1052246</ele>
        <time>2009-05-08T08:04:13Z</time>
      </trkpt>
      <trkpt lat="46.06489" lon="3.04028">
        <ele>561.5473633</ele>
        <time>2009-05-08T08:04:19Z</time>
      </trkpt>
      <trkpt lat="46.06489" lon="3.04026">
        <ele>562.0280762</ele>
        <time>2009-05-08T08:04:20Z</time>
      </trkpt>
      <trkpt lat="46.06483" lon="3.04009">
        <ele>562.9892578</ele>
        <time>2009-05-08T08:04:27Z</time>
      </trkpt>
      <trkpt lat="46.06481" lon="3.03992">
        <ele>565.3925781</ele>
        <time>2009-05-08T08:04:34Z</time>
      </trkpt>
      <trkpt lat="46.06485" lon="3.0397">
        <ele>566.3537598</ele>
        <time>2009-05-08T08:04:41Z</time>
      </trkpt>
      <trkpt lat="46.06493" lon="3.0394">
        <ele>568.2763672</ele>
        <time>2009-05-08T08:04:50Z</time>
      </trkpt>
      <trkpt lat="46.06503" lon="3.03912">
        <ele>571.1604004</ele>
        <time>2009-05-08T08:04:59Z</time>
      </trkpt>
      <trkpt lat="46.0651" lon="3.03891">
        <ele>572.1218262</ele>
        <time>2009-05-08T08:05:06Z</time>
      </trkpt>
      <trkpt lat="46.06521" lon="3.03863">
        <ele>574.0444336</ele>
        <time>2009-05-08T08:05:15Z</time>
      </trkpt>
      <trkpt lat="46.06533" lon="3.03828">
        <ele>575.4863281</ele>
        <time>2009-05-08T08:05:25Z</time>
      </trkpt>
      <trkpt lat="46.06545" lon="3.03794">
        <ele>576.4477539</ele>
        <time>2009-05-08T08:05:34Z</time>
      </trkpt>
      <trkpt lat="46.06559" lon="3.0376">
        <ele>577.4091797</ele>
        <time>2009-05-08T08:05:43Z</time>
      </trkpt>
      <trkpt lat="46.06571" lon="3.03737">
        <ele>577.4091797</ele>
        <time>2009-05-08T08:05:49Z</time>
      </trkpt>
      <trkpt lat="46.0659" lon="3.03702">
        <ele>578.8510742</ele>
        <time>2009-05-08T08:05:58Z</time>
      </trkpt>
      <trkpt lat="46.06611" lon="3.03666">
        <ele>581.2543945</ele>
        <time>2009-05-08T08:06:08Z</time>
      </trkpt>
      <trkpt lat="46.06613" lon="3.0365">
        <ele>581.7348633</ele>
        <time>2009-05-08T08:06:12Z</time>
      </trkpt>
      <trkpt lat="46.06604" lon="3.03629">
        <ele>581.7348633</ele>
        <time>2009-05-08T08:06:18Z</time>
      </trkpt>
      <trkpt lat="46.066" lon="3.03619">
        <ele>580.7736816</ele>
        <time>2009-05-08T08:06:20Z</time>
      </trkpt>
      <trkpt lat="46.06598" lon="3.03613">
        <ele>580.2929688</ele>
        <time>2009-05-08T08:06:21Z</time>
      </trkpt>
      <trkpt lat="46.06592" lon="3.0358">
        <ele>577.8896484</ele>
        <time>2009-05-08T08:06:25Z</time>
      </trkpt>
      <trkpt lat="46.06584" lon="3.03514">
        <ele>576.9284668</ele>
        <time>2009-05-08T08:06:32Z</time>
      </trkpt>
      <trkpt lat="46.06579" lon="3.03489">
        <ele>576.9284668</ele>
        <time>2009-05-08T08:06:35Z</time>
      </trkpt>
      <trkpt lat="46.06577" lon="3.03482">
        <ele>576.9284668</ele>
        <time>2009-05-08T08:06:36Z</time>
      </trkpt>
      <trkpt lat="46.06562" lon="3.03431">
        <ele>576.9284668</ele>
        <time>2009-05-08T08:06:43Z</time>
      </trkpt>
      <trkpt lat="46.06546" lon="3.03374">
        <ele>576.4477539</ele>
        <time>2009-05-08T08:06:50Z</time>
      </trkpt>
      <trkpt lat="46.06537" lon="3.03343">
        <ele>575.967041</ele>
        <time>2009-05-08T08:06:54Z</time>
      </trkpt>
      <trkpt lat="46.06534" lon="3.03336">
        <ele>576.4477539</ele>
        <time>2009-05-08T08:06:55Z</time>
      </trkpt>
      <trkpt lat="46.0652" lon="3.03302">
        <ele>577.4091797</ele>
        <time>2009-05-08T08:07:01Z</time>
      </trkpt>
      <trkpt lat="46.065" lon="3.03262">
        <ele>578.3703613</ele>
        <time>2009-05-08T08:07:09Z</time>
      </trkpt>
      <trkpt lat="46.0648" lon="3.03226">
        <ele>578.8510742</ele>
        <time>2009-05-08T08:07:16Z</time>
      </trkpt>
      <trkpt lat="46.06468" lon="3.03196">
        <ele>580.7736816</ele>
        <time>2009-05-08T08:07:22Z</time>
      </trkpt>
      <trkpt lat="46.06466" lon="3.03183">
        <ele>582.2155762</ele>
        <time>2009-05-08T08:07:25Z</time>
      </trkpt>
      <trkpt lat="46.06466" lon="3.03173">
        <ele>583.6574707</ele>
        <time>2009-05-08T08:07:27Z</time>
      </trkpt>
      <trkpt lat="46.06467" lon="3.03159">
        <ele>584.1381836</ele>
        <time>2009-05-08T08:07:30Z</time>
      </trkpt>
      <trkpt lat="46.06468" lon="3.03149">
        <ele>584.1381836</ele>
        <time>2009-05-08T08:07:32Z</time>
      </trkpt>
      <trkpt lat="46.0647" lon="3.03117">
        <ele>585.0996094</ele>
        <time>2009-05-08T08:07:38Z</time>
      </trkpt>
      <trkpt lat="46.06472" lon="3.03101">
        <ele>585.0996094</ele>
        <time>2009-05-08T08:07:41Z</time>
      </trkpt>
      <trkpt lat="46.06475" lon="3.03066">
        <ele>585.0996094</ele>
        <time>2009-05-08T08:07:47Z</time>
      </trkpt>
      <trkpt lat="46.0648" lon="3.0301">
        <ele>584.1381836</ele>
        <time>2009-05-08T08:07:55Z</time>
      </trkpt>
      <trkpt lat="46.06483" lon="3.0297">
        <ele>582.6962891</ele>
        <time>2009-05-08T08:08:00Z</time>
      </trkpt>
      <trkpt lat="46.06484" lon="3.02944">
        <ele>581.7348633</ele>
        <time>2009-05-08T08:08:03Z</time>
      </trkpt>
      <trkpt lat="46.06485" lon="3.02935">
        <ele>581.2543945</ele>
        <time>2009-05-08T08:08:04Z</time>
      </trkpt>
      <trkpt lat="46.06486" lon="3.02926">
        <ele>581.2543945</ele>
        <time>2009-05-08T08:08:05Z</time>
      </trkpt>
      <trkpt lat="46.06482" lon="3.02892">
        <ele>581.2543945</ele>
        <time>2009-05-08T08:08:09Z</time>
      </trkpt>
      <trkpt lat="46.06474" lon="3.02873">
        <ele>581.7348633</ele>
        <time>2009-05-08T08:08:12Z</time>
      </trkpt>
      <trkpt lat="46.0646" lon="3.02839">
        <ele>583.1767578</ele>
        <time>2009-05-08T08:08:18Z</time>
      </trkpt>
      <trkpt lat="46.06455" lon="3.02822">
        <ele>583.6574707</ele>
        <time>2009-05-08T08:08:21Z</time>
      </trkpt>
      <trkpt lat="46.0645" lon="3.02774">
        <ele>585.0996094</ele>
        <time>2009-05-08T08:08:29Z</time>
      </trkpt>
      <trkpt lat="46.06454" lon="3.02745">
        <ele>586.060791</ele>
        <time>2009-05-08T08:08:35Z</time>
      </trkpt>
      <trkpt lat="46.06464" lon="3.02727">
        <ele>588.4643555</ele>
        <time>2009-05-08T08:08:41Z</time>
      </trkpt>
      <trkpt lat="46.06477" lon="3.02718">
        <ele>590.3869629</ele>
        <time>2009-05-08T08:08:46Z</time>
      </trkpt>
      <trkpt lat="46.06493" lon="3.02709">
        <ele>591.3481445</ele>
        <time>2009-05-08T08:08:52Z</time>
      </trkpt>
      <trkpt lat="46.0651" lon="3.02701">
        <ele>593.7514648</ele>
        <time>2009-05-08T08:08:59Z</time>
      </trkpt>
      <trkpt lat="46.06517" lon="3.02698">
        <ele>594.2321777</ele>
        <time>2009-05-08T08:09:02Z</time>
      </trkpt>
      <trkpt lat="46.06523" lon="3.02681">
        <ele>596.635498</ele>
        <time>2009-05-08T08:09:07Z</time>
      </trkpt>
      <trkpt lat="46.06522" lon="3.02677">
        <ele>596.635498</ele>
        <time>2009-05-08T08:09:08Z</time>
      </trkpt>
      <trkpt lat="46.06522" lon="3.02673">
        <ele>597.1159668</ele>
        <time>2009-05-08T08:09:09Z</time>
      </trkpt>
      <trkpt lat="46.06509" lon="3.02646">
        <ele>599.0385742</ele>
        <time>2009-05-08T08:09:17Z</time>
      </trkpt>
      <trkpt lat="46.06488" lon="3.02627">
        <ele>600</ele>
        <time>2009-05-08T08:09:25Z</time>
      </trkpt>
      <trkpt lat="46.06465" lon="3.0261">
        <ele>602.4030762</ele>
        <time>2009-05-08T08:09:34Z</time>
      </trkpt>
      <trkpt lat="46.06448" lon="3.02583">
        <ele>604.8066406</ele>
        <time>2009-05-08T08:09:43Z</time>
      </trkpt>
      <trkpt lat="46.06447" lon="3.02562">
        <ele>604.8066406</ele>
        <time>2009-05-08T08:09:48Z</time>
      </trkpt>
      <trkpt lat="46.06438" lon="3.02536">
        <ele>604.3261719</ele>
        <time>2009-05-08T08:09:53Z</time>
      </trkpt>
      <trkpt lat="46.06415" lon="3.02508">
        <ele>601.4418945</ele>
        <time>2009-05-08T08:09:59Z</time>
      </trkpt>
      <trkpt lat="46.064" lon="3.02491">
        <ele>600</ele>
        <time>2009-05-08T08:10:02Z</time>
      </trkpt>
      <trkpt lat="46.06382" lon="3.02473">
        <ele>598.0773926</ele>
        <time>2009-05-08T08:10:05Z</time>
      </trkpt>
      <trkpt lat="46.06376" lon="3.02467">
        <ele>597.5966797</ele>
        <time>2009-05-08T08:10:06Z</time>
      </trkpt>
      <trkpt lat="46.0637" lon="3.0246">
        <ele>596.1547852</ele>
        <time>2009-05-08T08:10:07Z</time>
      </trkpt>
      <trkpt lat="46.06344" lon="3.02435">
        <ele>593.7514648</ele>
        <time>2009-05-08T08:10:11Z</time>
      </trkpt>
      <trkpt lat="46.06336" lon="3.02429">
        <ele>593.7514648</ele>
        <time>2009-05-08T08:10:12Z</time>
      </trkpt>
      <trkpt lat="46.06329" lon="3.02423">
        <ele>592.3095703</ele>
        <time>2009-05-08T08:10:13Z</time>
      </trkpt>
      <trkpt lat="46.06323" lon="3.02418">
        <ele>591.8288574</ele>
        <time>2009-05-08T08:10:14Z</time>
      </trkpt>
      <trkpt lat="46.06313" lon="3.02407">
        <ele>591.3481445</ele>
        <time>2009-05-08T08:10:16Z</time>
      </trkpt>
      <trkpt lat="46.06283" lon="3.02378">
        <ele>589.4255371</ele>
        <time>2009-05-08T08:10:21Z</time>
      </trkpt>
      <trkpt lat="46.06256" lon="3.02351">
        <ele>587.9833984</ele>
        <time>2009-05-08T08:10:25Z</time>
      </trkpt>
      <trkpt lat="46.06231" lon="3.02326">
        <ele>587.9833984</ele>
        <time>2009-05-08T08:10:29Z</time>
      </trkpt>
      <trkpt lat="46.06201" lon="3.02301">
        <ele>587.9833984</ele>
        <time>2009-05-08T08:10:34Z</time>
      </trkpt>
      <trkpt lat="46.06167" lon="3.02277">
        <ele>588.4643555</ele>
        <time>2009-05-08T08:10:40Z</time>
      </trkpt>
      <trkpt lat="46.06152" lon="3.02267">
        <ele>588.9450684</ele>
        <time>2009-05-08T08:10:43Z</time>
      </trkpt>
      <trkpt lat="46.06143" lon="3.02264">
        <ele>589.4255371</ele>
        <time>2009-05-08T08:10:45Z</time>
      </trkpt>
      <trkpt lat="46.06121" lon="3.02249">
        <ele>590.8674316</ele>
        <time>2009-05-08T08:10:51Z</time>
      </trkpt>
      <trkpt lat="46.06103" lon="3.02218">
        <ele>591.3481445</ele>
        <time>2009-05-08T08:10:57Z</time>
      </trkpt>
      <trkpt lat="46.06093" lon="3.02198">
        <ele>592.3095703</ele>
        <time>2009-05-08T08:11:01Z</time>
      </trkpt>
      <trkpt lat="46.06075" lon="3.02171">
        <ele>594.2321777</ele>
        <time>2009-05-08T08:11:08Z</time>
      </trkpt>
      <trkpt lat="46.06071" lon="3.02163">
        <ele>594.7126465</ele>
        <time>2009-05-08T08:11:10Z</time>
      </trkpt>
      <trkpt lat="46.06057" lon="3.02138">
        <ele>596.1547852</ele>
        <time>2009-05-08T08:11:16Z</time>
      </trkpt>
      <trkpt lat="46.06046" lon="3.02118">
        <ele>597.1159668</ele>
        <time>2009-05-08T08:11:21Z</time>
      </trkpt>
      <trkpt lat="46.06034" lon="3.02095">
        <ele>598.0773926</ele>
        <time>2009-05-08T08:11:27Z</time>
      </trkpt>
      <trkpt lat="46.0602" lon="3.02069">
        <ele>600.4807129</ele>
        <time>2009-05-08T08:11:35Z</time>
      </trkpt>
      <trkpt lat="46.06016" lon="3.02064">
        <ele>601.4418945</ele>
        <time>2009-05-08T08:11:37Z</time>
      </trkpt>
      <trkpt lat="46.06011" lon="3.02054">
        <ele>602.8837891</ele>
        <time>2009-05-08T08:11:41Z</time>
      </trkpt>
      <trkpt lat="46.06011" lon="3.02036">
        <ele>602.4030762</ele>
        <time>2009-05-08T08:11:47Z</time>
      </trkpt>
      <trkpt lat="46.06013" lon="3.02003">
        <ele>601.9226074</ele>
        <time>2009-05-08T08:11:52Z</time>
      </trkpt>
      <trkpt lat="46.06022" lon="3.01978">
        <ele>601.4418945</ele>
        <time>2009-05-08T08:11:56Z</time>
      </trkpt>
      <trkpt lat="46.0604" lon="3.0197">
        <ele>601.4418945</ele>
        <time>2009-05-08T08:12:00Z</time>
      </trkpt>
      <trkpt lat="46.06045" lon="3.0197">
        <ele>602.4030762</ele>
        <time>2009-05-08T08:12:01Z</time>
      </trkpt>
      <trkpt lat="46.06054" lon="3.0197">
        <ele>602.8837891</ele>
        <time>2009-05-08T08:12:03Z</time>
      </trkpt>
      <trkpt lat="46.06067" lon="3.01967">
        <ele>602.8837891</ele>
        <time>2009-05-08T08:12:06Z</time>
      </trkpt>
      <trkpt lat="46.06094" lon="3.01946">
        <ele>602.4030762</ele>
        <time>2009-05-08T08:12:12Z</time>
      </trkpt>
      <trkpt lat="46.06106" lon="3.01931">
        <ele>602.4030762</ele>
        <time>2009-05-08T08:12:15Z</time>
      </trkpt>
      <trkpt lat="46.06129" lon="3.01918">
        <ele>603.364502</ele>
        <time>2009-05-08T08:12:20Z</time>
      </trkpt>
      <trkpt lat="46.06133" lon="3.01919">
        <ele>603.364502</ele>
        <time>2009-05-08T08:12:21Z</time>
      </trkpt>
      <trkpt lat="46.06175" lon="3.01933">
        <ele>604.8066406</ele>
        <time>2009-05-08T08:12:30Z</time>
      </trkpt>
      <trkpt lat="46.06214" lon="3.01939">
        <ele>605.7680664</ele>
        <time>2009-05-08T08:12:38Z</time>
      </trkpt>
      <trkpt lat="46.06236" lon="3.01933">
        <ele>606.2485352</ele>
        <time>2009-05-08T08:12:44Z</time>
      </trkpt>
      <trkpt lat="46.06239" lon="3.01932">
        <ele>606.2485352</ele>
        <time>2009-05-08T08:12:48Z</time>
      </trkpt>
      <trkpt lat="46.06252" lon="3.01924">
        <ele>606.2485352</ele>
        <time>2009-05-08T08:12:55Z</time>
      </trkpt>
      <trkpt lat="46.06264" lon="3.01921">
        <ele>606.2485352</ele>
        <time>2009-05-08T08:13:00Z</time>
      </trkpt>
      <trkpt lat="46.06278" lon="3.01914">
        <ele>606.2485352</ele>
        <time>2009-05-08T08:13:04Z</time>
      </trkpt>
      <trkpt lat="46.06296" lon="3.01888">
        <ele>605.7680664</ele>
        <time>2009-05-08T08:13:10Z</time>
      </trkpt>
      <trkpt lat="46.06296" lon="3.01866">
        <ele>605.2873535</ele>
        <time>2009-05-08T08:13:14Z</time>
      </trkpt>
      <trkpt lat="46.06293" lon="3.01862">
        <ele>605.2873535</ele>
        <time>2009-05-08T08:13:15Z</time>
      </trkpt>
      <trkpt lat="46.06281" lon="3.0183">
        <ele>607.2099609</ele>
        <time>2009-05-08T08:13:21Z</time>
      </trkpt>
      <trkpt lat="46.06279" lon="3.01818">
        <ele>607.2099609</ele>
        <time>2009-05-08T08:13:23Z</time>
      </trkpt>
      <trkpt lat="46.06275" lon="3.01765">
        <ele>607.6906738</ele>
        <time>2009-05-08T08:13:31Z</time>
      </trkpt>
      <trkpt lat="46.0627" lon="3.0173">
        <ele>608.6518555</ele>
        <time>2009-05-08T08:13:36Z</time>
      </trkpt>
      <trkpt lat="46.06256" lon="3.01686">
        <ele>609.1325684</ele>
        <time>2009-05-08T08:13:43Z</time>
      </trkpt>
      <trkpt lat="46.0625" lon="3.01659">
        <ele>610.09375</ele>
        <time>2009-05-08T08:13:47Z</time>
      </trkpt>
      <trkpt lat="46.0625" lon="3.01608">
        <ele>611.0551758</ele>
        <time>2009-05-08T08:13:55Z</time>
      </trkpt>
      <trkpt lat="46.06253" lon="3.0157">
        <ele>612.4970703</ele>
        <time>2009-05-08T08:14:01Z</time>
      </trkpt>
      <trkpt lat="46.06251" lon="3.01547">
        <ele>613.4584961</ele>
        <time>2009-05-08T08:14:05Z</time>
      </trkpt>
      <trkpt lat="46.06238" lon="3.01512">
        <ele>614.9003906</ele>
        <time>2009-05-08T08:14:12Z</time>
      </trkpt>
      <trkpt lat="46.06225" lon="3.01485">
        <ele>616.3422852</ele>
        <time>2009-05-08T08:14:18Z</time>
      </trkpt>
      <trkpt lat="46.06204" lon="3.01451">
        <ele>617.7841797</ele>
        <time>2009-05-08T08:14:27Z</time>
      </trkpt>
      <trkpt lat="46.06188" lon="3.0143">
        <ele>619.2263184</ele>
        <time>2009-05-08T08:14:33Z</time>
      </trkpt>
      <trkpt lat="46.0617" lon="3.01408">
        <ele>620.668457</ele>
        <time>2009-05-08T08:14:40Z</time>
      </trkpt>
      <trkpt lat="46.06153" lon="3.01389">
        <ele>621.6296387</ele>
        <time>2009-05-08T08:14:47Z</time>
      </trkpt>
      <trkpt lat="46.06135" lon="3.01367">
        <ele>623.0717773</ele>
        <time>2009-05-08T08:14:54Z</time>
      </trkpt>
      <trkpt lat="46.06114" lon="3.01349">
        <ele>625.4748535</ele>
        <time>2009-05-08T08:15:02Z</time>
      </trkpt>
      <trkpt lat="46.06093" lon="3.01343">
        <ele>627.8781738</ele>
        <time>2009-05-08T08:15:09Z</time>
      </trkpt>
      <trkpt lat="46.06075" lon="3.01342">
        <ele>628.3588867</ele>
        <time>2009-05-08T08:15:15Z</time>
      </trkpt>
      <trkpt lat="46.06037" lon="3.01354">
        <ele>628.8395996</ele>
        <time>2009-05-08T08:15:25Z</time>
      </trkpt>
      <trkpt lat="46.05992" lon="3.01368">
        <ele>629.3200684</ele>
        <time>2009-05-08T08:15:36Z</time>
      </trkpt>
      <trkpt lat="46.05975" lon="3.01375">
        <ele>628.8395996</ele>
        <time>2009-05-08T08:15:40Z</time>
      </trkpt>
      <trkpt lat="46.0595" lon="3.01394">
        <ele>629.3200684</ele>
        <time>2009-05-08T08:15:46Z</time>
      </trkpt>
      <trkpt lat="46.05917" lon="3.01425">
        <ele>630.2814941</ele>
        <time>2009-05-08T08:15:54Z</time>
      </trkpt>
      <trkpt lat="46.05903" lon="3.01442">
        <ele>630.762207</ele>
        <time>2009-05-08T08:15:58Z</time>
      </trkpt>
      <trkpt lat="46.05895" lon="3.01449">
        <ele>630.762207</ele>
        <time>2009-05-08T08:16:00Z</time>
      </trkpt>
      <trkpt lat="46.05868" lon="3.01478">
        <ele>630.2814941</ele>
        <time>2009-05-08T08:16:07Z</time>
      </trkpt>
      <trkpt lat="46.05836" lon="3.01513">
        <ele>629.8007813</ele>
        <time>2009-05-08T08:16:15Z</time>
      </trkpt>
      <trkpt lat="46.05802" lon="3.01543">
        <ele>629.3200684</ele>
        <time>2009-05-08T08:16:23Z</time>
      </trkpt>
      <trkpt lat="46.05792" lon="3.01551">
        <ele>629.3200684</ele>
        <time>2009-05-08T08:16:25Z</time>
      </trkpt>
      <trkpt lat="46.05771" lon="3.01562">
        <ele>628.8395996</ele>
        <time>2009-05-08T08:16:29Z</time>
      </trkpt>
      <trkpt lat="46.05765" lon="3.01564">
        <ele>628.8395996</ele>
        <time>2009-05-08T08:16:30Z</time>
      </trkpt>
      <trkpt lat="46.05736" lon="3.01569">
        <ele>628.3588867</ele>
        <time>2009-05-08T08:16:35Z</time>
      </trkpt>
      <trkpt lat="46.05718" lon="3.01567">
        <ele>628.3588867</ele>
        <time>2009-05-08T08:16:38Z</time>
      </trkpt>
      <trkpt lat="46.05689" lon="3.01562">
        <ele>627.8781738</ele>
        <time>2009-05-08T08:16:43Z</time>
      </trkpt>
      <trkpt lat="46.05679" lon="3.01549">
        <ele>627.8781738</ele>
        <time>2009-05-08T08:16:47Z</time>
      </trkpt>
      <trkpt lat="46.05681" lon="3.01544">
        <ele>627.8781738</ele>
        <time>2009-05-08T08:16:50Z</time>
      </trkpt>
      <trkpt lat="46.05682" lon="3.01541">
        <ele>627.8781738</ele>
        <time>2009-05-08T08:16:56Z</time>
      </trkpt>
      <trkpt lat="46.05685" lon="3.01533">
        <ele>627.8781738</ele>
        <time>2009-05-08T08:16:59Z</time>
      </trkpt>
      <trkpt lat="46.05679" lon="3.01518">
        <ele>627.8781738</ele>
        <time>2009-05-08T08:17:03Z</time>
      </trkpt>
      <trkpt lat="46.05677" lon="3.01514">
        <ele>628.3588867</ele>
        <time>2009-05-08T08:17:04Z</time>
      </trkpt>
      <trkpt lat="46.05668" lon="3.01497">
        <ele>627.8781738</ele>
        <time>2009-05-08T08:17:08Z</time>
      </trkpt>
      <trkpt lat="46.05654" lon="3.01454">
        <ele>627.8781738</ele>
        <time>2009-05-08T08:17:15Z</time>
      </trkpt>
      <trkpt lat="46.0564" lon="3.01411">
        <ele>627.8781738</ele>
        <time>2009-05-08T08:17:22Z</time>
      </trkpt>
      <trkpt lat="46.05633" lon="3.01383">
        <ele>626.9169922</ele>
        <time>2009-05-08T08:17:26Z</time>
      </trkpt>
      <trkpt lat="46.05631" lon="3.01368">
        <ele>627.3977051</ele>
        <time>2009-05-08T08:17:28Z</time>
      </trkpt>
      <trkpt lat="46.05631" lon="3.01324">
        <ele>628.3588867</ele>
        <time>2009-05-08T08:17:34Z</time>
      </trkpt>
      <trkpt lat="46.05631" lon="3.01264">
        <ele>628.8395996</ele>
        <time>2009-05-08T08:17:42Z</time>
      </trkpt>
      <trkpt lat="46.0563" lon="3.01208">
        <ele>627.8781738</ele>
        <time>2009-05-08T08:17:49Z</time>
      </trkpt>
      <trkpt lat="46.05628" lon="3.01133">
        <ele>626.4362793</ele>
        <time>2009-05-08T08:17:57Z</time>
      </trkpt>
      <trkpt lat="46.05627" lon="3.01082">
        <ele>624.9943848</ele>
        <time>2009-05-08T08:18:02Z</time>
      </trkpt>
      <trkpt lat="46.05625" lon="3.01039">
        <ele>624.032959</ele>
        <time>2009-05-08T08:18:06Z</time>
      </trkpt>
      <trkpt lat="46.05621" lon="3.00995">
        <ele>623.0717773</ele>
        <time>2009-05-08T08:18:10Z</time>
      </trkpt>
      <trkpt lat="46.05614" lon="3.00949">
        <ele>621.1491699</ele>
        <time>2009-05-08T08:18:14Z</time>
      </trkpt>
      <trkpt lat="46.05605" lon="3.00885">
        <ele>618.7456055</ele>
        <time>2009-05-08T08:18:19Z</time>
      </trkpt>
      <trkpt lat="46.05598" lon="3.00804">
        <ele>614.9003906</ele>
        <time>2009-05-08T08:18:25Z</time>
      </trkpt>
      <trkpt lat="46.05597" lon="3.00687">
        <ele>612.4970703</ele>
        <time>2009-05-08T08:18:33Z</time>
      </trkpt>
      <trkpt lat="46.05595" lon="3.00612">
        <ele>609.1325684</ele>
        <time>2009-05-08T08:18:38Z</time>
      </trkpt>
      <trkpt lat="46.05584" lon="3.00544">
        <ele>607.2099609</ele>
        <time>2009-05-08T08:18:43Z</time>
      </trkpt>
      <trkpt lat="46.05572" lon="3.0049">
        <ele>609.1325684</ele>
        <time>2009-05-08T08:18:48Z</time>
      </trkpt>
      <trkpt lat="46.05563" lon="3.00449">
        <ele>609.6132813</ele>
        <time>2009-05-08T08:18:53Z</time>
      </trkpt>
      <trkpt lat="46.05559" lon="3.00428">
        <ele>610.5744629</ele>
        <time>2009-05-08T08:18:56Z</time>
      </trkpt>
      <trkpt lat="46.05552" lon="3.00396">
        <ele>611.5358887</ele>
        <time>2009-05-08T08:19:01Z</time>
      </trkpt>
      <trkpt lat="46.05547" lon="3.00377">
        <ele>612.4970703</ele>
        <time>2009-05-08T08:19:04Z</time>
      </trkpt>
      <trkpt lat="46.05545" lon="3.00371">
        <ele>612.4970703</ele>
        <time>2009-05-08T08:19:05Z</time>
      </trkpt>
      <trkpt lat="46.05531" lon="3.00344">
        <ele>612.4970703</ele>
        <time>2009-05-08T08:19:10Z</time>
      </trkpt>
      <trkpt lat="46.05523" lon="3.00329">
        <ele>612.9777832</ele>
        <time>2009-05-08T08:19:13Z</time>
      </trkpt>
      <trkpt lat="46.05517" lon="3.0032">
        <ele>613.9389648</ele>
        <time>2009-05-08T08:19:15Z</time>
      </trkpt>
      <trkpt lat="46.0551" lon="3.00311">
        <ele>613.4584961</ele>
        <time>2009-05-08T08:19:17Z</time>
      </trkpt>
      <trkpt lat="46.05505" lon="3.00302">
        <ele>614.4196777</ele>
        <time>2009-05-08T08:19:19Z</time>
      </trkpt>
      <trkpt lat="46.05486" lon="3.00281">
        <ele>615.8618164</ele>
        <time>2009-05-08T08:19:25Z</time>
      </trkpt>
      <trkpt lat="46.05478" lon="3.00284">
        <ele>615.8618164</ele>
        <time>2009-05-08T08:19:29Z</time>
      </trkpt>
      <trkpt lat="46.0547" lon="3.00291">
        <ele>615.8618164</ele>
        <time>2009-05-08T08:19:35Z</time>
      </trkpt>
      <trkpt lat="46.05469" lon="3.00294">
        <ele>615.3811035</ele>
        <time>2009-05-08T08:19:37Z</time>
      </trkpt>
      <trkpt lat="46.05462" lon="3.0031">
        <ele>615.8618164</ele>
        <time>2009-05-08T08:19:42Z</time>
      </trkpt>
      <trkpt lat="46.05459" lon="3.00314">
        <ele>615.3811035</ele>
        <time>2009-05-08T08:19:43Z</time>
      </trkpt>
      <trkpt lat="46.05444" lon="3.00337">
        <ele>613.9389648</ele>
        <time>2009-05-08T08:19:49Z</time>
      </trkpt>
      <trkpt lat="46.05434" lon="3.00352">
        <ele>612.9777832</ele>
        <time>2009-05-08T08:19:53Z</time>
      </trkpt>
      <trkpt lat="46.05432" lon="3.00356">
        <ele>612.9777832</ele>
        <time>2009-05-08T08:19:54Z</time>
      </trkpt>
      <trkpt lat="46.0543" lon="3.0036">
        <ele>612.9777832</ele>
        <time>2009-05-08T08:19:55Z</time>
      </trkpt>
      <trkpt lat="46.05427" lon="3.00365">
        <ele>612.0166016</ele>
        <time>2009-05-08T08:19:59Z</time>
      </trkpt>
      <trkpt lat="46.05427" lon="3.00367">
        <ele>612.4970703</ele>
        <time>2009-05-08T08:20:06Z</time>
      </trkpt>
      <trkpt lat="46.05425" lon="3.00368">
        <ele>612.0166016</ele>
        <time>2009-05-08T08:20:10Z</time>
      </trkpt>
      <trkpt lat="46.05422" lon="3.00366">
        <ele>612.0166016</ele>
        <time>2009-05-08T08:20:18Z</time>
      </trkpt>
      <trkpt lat="46.05413" lon="3.00378">
        <ele>611.5358887</ele>
        <time>2009-05-08T08:20:24Z</time>
      </trkpt>
      <trkpt lat="46.05406" lon="3.00386">
        <ele>611.0551758</ele>
        <time>2009-05-08T08:20:26Z</time>
      </trkpt>
      <trkpt lat="46.05395" lon="3.00401">
        <ele>610.09375</ele>
        <time>2009-05-08T08:20:29Z</time>
      </trkpt>
      <trkpt lat="46.05391" lon="3.00407">
        <ele>610.09375</ele>
        <time>2009-05-08T08:20:30Z</time>
      </trkpt>
      <trkpt lat="46.05363" lon="3.00456">
        <ele>606.2485352</ele>
        <time>2009-05-08T08:20:37Z</time>
      </trkpt>
      <trkpt lat="46.05342" lon="3.00468">
        <ele>603.364502</ele>
        <time>2009-05-08T08:20:41Z</time>
      </trkpt>
      <trkpt lat="46.0531" lon="3.00473">
        <ele>599.5192871</ele>
        <time>2009-05-08T08:20:46Z</time>
      </trkpt>
      <trkpt lat="46.05295" lon="3.00476">
        <ele>597.5966797</ele>
        <time>2009-05-08T08:20:48Z</time>
      </trkpt>
      <trkpt lat="46.05281" lon="3.00474">
        <ele>597.5966797</ele>
        <time>2009-05-08T08:20:50Z</time>
      </trkpt>
      <trkpt lat="46.0527" lon="3.00467">
        <ele>596.1547852</ele>
        <time>2009-05-08T08:20:52Z</time>
      </trkpt>
      <trkpt lat="46.0526" lon="3.00458">
        <ele>594.2321777</ele>
        <time>2009-05-08T08:20:54Z</time>
      </trkpt>
      <trkpt lat="46.05231" lon="3.00436">
        <ele>589.90625</ele>
        <time>2009-05-08T08:20:59Z</time>
      </trkpt>
      <trkpt lat="46.0521" lon="3.0042">
        <ele>588.4643555</ele>
        <time>2009-05-08T08:21:03Z</time>
      </trkpt>
      <trkpt lat="46.05199" lon="3.00411">
        <ele>587.9833984</ele>
        <time>2009-05-08T08:21:05Z</time>
      </trkpt>
      <trkpt lat="46.05184" lon="3.00398">
        <ele>585.5800781</ele>
        <time>2009-05-08T08:21:08Z</time>
      </trkpt>
      <trkpt lat="46.05167" lon="3.00402">
        <ele>584.6188965</ele>
        <time>2009-05-08T08:21:12Z</time>
      </trkpt>
      <trkpt lat="46.0515" lon="3.00426">
        <ele>584.6188965</ele>
        <time>2009-05-08T08:21:17Z</time>
      </trkpt>
      <trkpt lat="46.05133" lon="3.00426">
        <ele>584.6188965</ele>
        <time>2009-05-08T08:21:21Z</time>
      </trkpt>
      <trkpt lat="46.05104" lon="3.00417">
        <ele>586.060791</ele>
        <time>2009-05-08T08:21:29Z</time>
      </trkpt>
      <trkpt lat="46.05089" lon="3.00419">
        <ele>586.5415039</ele>
        <time>2009-05-08T08:21:33Z</time>
      </trkpt>
      <trkpt lat="46.0507" lon="3.00424">
        <ele>587.5026855</ele>
        <time>2009-05-08T08:21:38Z</time>
      </trkpt>
      <trkpt lat="46.05052" lon="3.00423">
        <ele>588.4643555</ele>
        <time>2009-05-08T08:21:43Z</time>
      </trkpt>
      <trkpt lat="46.05034" lon="3.0042">
        <ele>589.4255371</ele>
        <time>2009-05-08T08:21:48Z</time>
      </trkpt>
      <trkpt lat="46.05011" lon="3.00415">
        <ele>589.90625</ele>
        <time>2009-05-08T08:21:54Z</time>
      </trkpt>
      <trkpt lat="46.04985" lon="3.00403">
        <ele>589.90625</ele>
        <time>2009-05-08T08:22:01Z</time>
      </trkpt>
      <trkpt lat="46.04956" lon="3.00383">
        <ele>588.9450684</ele>
        <time>2009-05-08T08:22:08Z</time>
      </trkpt>
      <trkpt lat="46.04947" lon="3.00378">
        <ele>588.4643555</ele>
        <time>2009-05-08T08:22:10Z</time>
      </trkpt>
      <trkpt lat="46.04926" lon="3.00371">
        <ele>587.9833984</ele>
        <time>2009-05-08T08:22:14Z</time>
      </trkpt>
      <trkpt lat="46.04901" lon="3.00356">
        <ele>586.5415039</ele>
        <time>2009-05-08T08:22:19Z</time>
      </trkpt>
      <trkpt lat="46.04894" lon="3.00352">
        <ele>586.060791</ele>
        <time>2009-05-08T08:22:22Z</time>
      </trkpt>
      <trkpt lat="46.04894" lon="3.00349">
        <ele>586.060791</ele>
        <time>2009-05-08T08:22:28Z</time>
      </trkpt>
      <trkpt lat="46.04894" lon="3.00349">
        <ele>586.060791</ele>
        <time>2009-05-08T08:22:29Z</time>
      </trkpt>
      <trkpt lat="46.04894" lon="3.0035">
        <ele>586.060791</ele>
        <time>2009-05-08T08:22:30Z</time>
      </trkpt>
      <trkpt lat="46.04894" lon="3.0035">
        <ele>585.5800781</ele>
        <time>2009-05-08T08:22:31Z</time>
      </trkpt>
      <trkpt lat="46.0489" lon="3.00347">
        <ele>586.060791</ele>
        <time>2009-05-08T08:22:40Z</time>
      </trkpt>
      <trkpt lat="46.04879" lon="3.00341">
        <ele>586.5415039</ele>
        <time>2009-05-08T08:22:44Z</time>
      </trkpt>
      <trkpt lat="46.0486" lon="3.00327">
        <ele>586.5415039</ele>
        <time>2009-05-08T08:22:48Z</time>
      </trkpt>
      <trkpt lat="46.04835" lon="3.00306">
        <ele>585.0996094</ele>
        <time>2009-05-08T08:22:53Z</time>
      </trkpt>
      <trkpt lat="46.04819" lon="3.00292">
        <ele>585.0996094</ele>
        <time>2009-05-08T08:22:56Z</time>
      </trkpt>
      <trkpt lat="46.04796" lon="3.00281">
        <ele>583.6574707</ele>
        <time>2009-05-08T08:23:01Z</time>
      </trkpt>
      <trkpt lat="46.04763" lon="3.00272">
        <ele>583.1767578</ele>
        <time>2009-05-08T08:23:09Z</time>
      </trkpt>
      <trkpt lat="46.04751" lon="3.00266">
        <ele>583.1767578</ele>
        <time>2009-05-08T08:23:14Z</time>
      </trkpt>
      <trkpt lat="46.04746" lon="3.00266">
        <ele>582.6962891</ele>
        <time>2009-05-08T08:23:19Z</time>
      </trkpt>
      <trkpt lat="46.04732" lon="3.00261">
        <ele>583.1767578</ele>
        <time>2009-05-08T08:23:24Z</time>
      </trkpt>
      <trkpt lat="46.04708" lon="3.00254">
        <ele>584.1381836</ele>
        <time>2009-05-08T08:23:30Z</time>
      </trkpt>
      <trkpt lat="46.0469" lon="3.0027">
        <ele>585.0996094</ele>
        <time>2009-05-08T08:23:35Z</time>
      </trkpt>
      <trkpt lat="46.04675" lon="3.00278">
        <ele>585.0996094</ele>
        <time>2009-05-08T08:23:39Z</time>
      </trkpt>
      <trkpt lat="46.04663" lon="3.00276">
        <ele>585.5800781</ele>
        <time>2009-05-08T08:23:42Z</time>
      </trkpt>
      <trkpt lat="46.04621" lon="3.0027">
        <ele>585.0996094</ele>
        <time>2009-05-08T08:23:51Z</time>
      </trkpt>
      <trkpt lat="46.04605" lon="3.00258">
        <ele>585.0996094</ele>
        <time>2009-05-08T08:23:55Z</time>
      </trkpt>
      <trkpt lat="46.04604" lon="3.00243">
        <ele>585.5800781</ele>
        <time>2009-05-08T08:23:57Z</time>
      </trkpt>
      <trkpt lat="46.04604" lon="3.00229">
        <ele>585.0996094</ele>
        <time>2009-05-08T08:23:59Z</time>
      </trkpt>
      <trkpt lat="46.04595" lon="3.00202">
        <ele>583.6574707</ele>
        <time>2009-05-08T08:24:03Z</time>
      </trkpt>
      <trkpt lat="46.04578" lon="3.00191">
        <ele>582.6962891</ele>
        <time>2009-05-08T08:24:06Z</time>
      </trkpt>
      <trkpt lat="46.04548" lon="3.00187">
        <ele>581.7348633</ele>
        <time>2009-05-08T08:24:11Z</time>
      </trkpt>
      <trkpt lat="46.04534" lon="3.00191">
        <ele>582.2155762</ele>
        <time>2009-05-08T08:24:14Z</time>
      </trkpt>
      <trkpt lat="46.04514" lon="3.00194">
        <ele>584.1381836</ele>
        <time>2009-05-08T08:24:20Z</time>
      </trkpt>
      <trkpt lat="46.04504" lon="3.00196">
        <ele>585.5800781</ele>
        <time>2009-05-08T08:24:24Z</time>
      </trkpt>
      <trkpt lat="46.04494" lon="3.00202">
        <ele>587.0219727</ele>
        <time>2009-05-08T08:24:29Z</time>
      </trkpt>
      <trkpt lat="46.04485" lon="3.00211">
        <ele>587.9833984</ele>
        <time>2009-05-08T08:24:34Z</time>
      </trkpt>
      <trkpt lat="46.04472" lon="3.00224">
        <ele>589.4255371</ele>
        <time>2009-05-08T08:24:41Z</time>
      </trkpt>
      <trkpt lat="46.04469" lon="3.00231">
        <ele>590.3869629</ele>
        <time>2009-05-08T08:24:44Z</time>
      </trkpt>
      <trkpt lat="46.04463" lon="3.0024">
        <ele>591.8288574</ele>
        <time>2009-05-08T08:24:49Z</time>
      </trkpt>
      <trkpt lat="46.04452" lon="3.00251">
        <ele>592.7902832</ele>
        <time>2009-05-08T08:24:56Z</time>
      </trkpt>
      <trkpt lat="46.0444" lon="3.00261">
        <ele>593.270752</ele>
        <time>2009-05-08T08:25:02Z</time>
      </trkpt>
      <trkpt lat="46.04429" lon="3.0027">
        <ele>595.1933594</ele>
        <time>2009-05-08T08:25:08Z</time>
      </trkpt>
      <trkpt lat="46.04423" lon="3.0028">
        <ele>596.1547852</ele>
        <time>2009-05-08T08:25:13Z</time>
      </trkpt>
      <trkpt lat="46.04415" lon="3.00293">
        <ele>597.1159668</ele>
        <time>2009-05-08T08:25:19Z</time>
      </trkpt>
      <trkpt lat="46.04408" lon="3.00311">
        <ele>598.5578613</ele>
        <time>2009-05-08T08:25:26Z</time>
      </trkpt>
      <trkpt lat="46.04399" lon="3.00332">
        <ele>599.5192871</ele>
        <time>2009-05-08T08:25:33Z</time>
      </trkpt>
      <trkpt lat="46.04386" lon="3.00351">
        <ele>600.4807129</ele>
        <time>2009-05-08T08:25:40Z</time>
      </trkpt>
      <trkpt lat="46.04367" lon="3.00367">
        <ele>601.9226074</ele>
        <time>2009-05-08T08:25:48Z</time>
      </trkpt>
      <trkpt lat="46.04345" lon="3.00375">
        <ele>602.8837891</ele>
        <time>2009-05-08T08:25:56Z</time>
      </trkpt>
      <trkpt lat="46.04318" lon="3.00386">
        <ele>604.8066406</ele>
        <time>2009-05-08T08:26:05Z</time>
      </trkpt>
      <trkpt lat="46.04307" lon="3.00401">
        <ele>604.3261719</ele>
        <time>2009-05-08T08:26:10Z</time>
      </trkpt>
      <trkpt lat="46.04296" lon="3.00427">
        <ele>605.2873535</ele>
        <time>2009-05-08T08:26:17Z</time>
      </trkpt>
      <trkpt lat="46.04281" lon="3.00457">
        <ele>607.2099609</ele>
        <time>2009-05-08T08:26:25Z</time>
      </trkpt>
      <trkpt lat="46.04261" lon="3.005">
        <ele>608.1713867</ele>
        <time>2009-05-08T08:26:36Z</time>
      </trkpt>
      <trkpt lat="46.04242" lon="3.00538">
        <ele>608.1713867</ele>
        <time>2009-05-08T08:26:45Z</time>
      </trkpt>
      <trkpt lat="46.0422" lon="3.00584">
        <ele>609.1325684</ele>
        <time>2009-05-08T08:26:55Z</time>
      </trkpt>
      <trkpt lat="46.04207" lon="3.00619">
        <ele>609.6132813</ele>
        <time>2009-05-08T08:27:02Z</time>
      </trkpt>
      <trkpt lat="46.04198" lon="3.00667">
        <ele>610.5744629</ele>
        <time>2009-05-08T08:27:11Z</time>
      </trkpt>
      <trkpt lat="46.04192" lon="3.00711">
        <ele>610.09375</ele>
        <time>2009-05-08T08:27:18Z</time>
      </trkpt>
      <trkpt lat="46.04185" lon="3.00737">
        <ele>610.09375</ele>
        <time>2009-05-08T08:27:22Z</time>
      </trkpt>
      <trkpt lat="46.04162" lon="3.00787">
        <ele>610.09375</ele>
        <time>2009-05-08T08:27:30Z</time>
      </trkpt>
      <trkpt lat="46.04146" lon="3.00805">
        <ele>609.6132813</ele>
        <time>2009-05-08T08:27:34Z</time>
      </trkpt>
      <trkpt lat="46.04114" lon="3.00831">
        <ele>607.6906738</ele>
        <time>2009-05-08T08:27:41Z</time>
      </trkpt>
      <trkpt lat="46.04092" lon="3.00865">
        <ele>607.6906738</ele>
        <time>2009-05-08T08:27:47Z</time>
      </trkpt>
      <trkpt lat="46.04078" lon="3.00879">
        <ele>607.2099609</ele>
        <time>2009-05-08T08:27:50Z</time>
      </trkpt>
      <trkpt lat="46.04045" lon="3.00896">
        <ele>605.7680664</ele>
        <time>2009-05-08T08:27:56Z</time>
      </trkpt>
      <trkpt lat="46.04034" lon="3.00902">
        <ele>605.7680664</ele>
        <time>2009-05-08T08:27:58Z</time>
      </trkpt>
      <trkpt lat="46.04021" lon="3.00909">
        <ele>605.7680664</ele>
        <time>2009-05-08T08:28:00Z</time>
      </trkpt>
      <trkpt lat="46.03977" lon="3.00933">
        <ele>603.8452148</ele>
        <time>2009-05-08T08:28:07Z</time>
      </trkpt>
      <trkpt lat="46.03957" lon="3.00944">
        <ele>602.8837891</ele>
        <time>2009-05-08T08:28:10Z</time>
      </trkpt>
      <trkpt lat="46.03905" lon="3.00972">
        <ele>601.9226074</ele>
        <time>2009-05-08T08:28:18Z</time>
      </trkpt>
      <trkpt lat="46.03879" lon="3.0099">
        <ele>599.5192871</ele>
        <time>2009-05-08T08:28:22Z</time>
      </trkpt>
      <trkpt lat="46.03866" lon="3.01">
        <ele>599.0385742</ele>
        <time>2009-05-08T08:28:24Z</time>
      </trkpt>
      <trkpt lat="46.03845" lon="3.01017">
        <ele>598.0773926</ele>
        <time>2009-05-08T08:28:27Z</time>
      </trkpt>
      <trkpt lat="46.03838" lon="3.01023">
        <ele>597.5966797</ele>
        <time>2009-05-08T08:28:28Z</time>
      </trkpt>
      <trkpt lat="46.03822" lon="3.01035">
        <ele>595.6740723</ele>
        <time>2009-05-08T08:28:30Z</time>
      </trkpt>
      <trkpt lat="46.03814" lon="3.01041">
        <ele>595.6740723</ele>
        <time>2009-05-08T08:28:31Z</time>
      </trkpt>
      <trkpt lat="46.03769" lon="3.01076">
        <ele>591.8288574</ele>
        <time>2009-05-08T08:28:37Z</time>
      </trkpt>
      <trkpt lat="46.03752" lon="3.01103">
        <ele>590.3869629</ele>
        <time>2009-05-08T08:28:40Z</time>
      </trkpt>
      <trkpt lat="46.0373" lon="3.01151">
        <ele>586.060791</ele>
        <time>2009-05-08T08:28:44Z</time>
      </trkpt>
      <trkpt lat="46.03724" lon="3.01163">
        <ele>586.060791</ele>
        <time>2009-05-08T08:28:45Z</time>
      </trkpt>
      <trkpt lat="46.03707" lon="3.012">
        <ele>583.1767578</ele>
        <time>2009-05-08T08:28:48Z</time>
      </trkpt>
      <trkpt lat="46.03702" lon="3.01213">
        <ele>582.6962891</ele>
        <time>2009-05-08T08:28:49Z</time>
      </trkpt>
      <trkpt lat="46.03684" lon="3.01253">
        <ele>578.8510742</ele>
        <time>2009-05-08T08:28:52Z</time>
      </trkpt>
      <trkpt lat="46.03656" lon="3.01317">
        <ele>575.4863281</ele>
        <time>2009-05-08T08:28:57Z</time>
      </trkpt>
      <trkpt lat="46.03638" lon="3.01344">
        <ele>575.0058594</ele>
        <time>2009-05-08T08:29:00Z</time>
      </trkpt>
      <trkpt lat="46.03631" lon="3.01349">
        <ele>575.0058594</ele>
        <time>2009-05-08T08:29:01Z</time>
      </trkpt>
      <trkpt lat="46.03611" lon="3.01358">
        <ele>572.6025391</ele>
        <time>2009-05-08T08:29:04Z</time>
      </trkpt>
      <trkpt lat="46.03599" lon="3.01354">
        <ele>570.6796875</ele>
        <time>2009-05-08T08:29:06Z</time>
      </trkpt>
      <trkpt lat="46.0358" lon="3.01352">
        <ele>567.3151855</ele>
        <time>2009-05-08T08:29:09Z</time>
      </trkpt>
      <trkpt lat="46.03575" lon="3.01354">
        <ele>567.3151855</ele>
        <time>2009-05-08T08:29:10Z</time>
      </trkpt>
      <trkpt lat="46.03566" lon="3.01368">
        <ele>564.9118652</ele>
        <time>2009-05-08T08:29:12Z</time>
      </trkpt>
      <trkpt lat="46.03564" lon="3.01387">
        <ele>563.9504395</ele>
        <time>2009-05-08T08:29:14Z</time>
      </trkpt>
      <trkpt lat="46.03571" lon="3.01408">
        <ele>561.5473633</ele>
        <time>2009-05-08T08:29:16Z</time>
      </trkpt>
      <trkpt lat="46.03573" lon="3.01418">
        <ele>560.5859375</ele>
        <time>2009-05-08T08:29:17Z</time>
      </trkpt>
      <trkpt lat="46.0359" lon="3.0146">
        <ele>553.8566895</ele>
        <time>2009-05-08T08:29:22Z</time>
      </trkpt>
      <trkpt lat="46.03601" lon="3.01474">
        <ele>551.934082</ele>
        <time>2009-05-08T08:29:24Z</time>
      </trkpt>
      <trkpt lat="46.03614" lon="3.01501">
        <ele>548.5693359</ele>
        <time>2009-05-08T08:29:27Z</time>
      </trkpt>
      <trkpt lat="46.03616" lon="3.01534">
        <ele>544.7242432</ele>
        <time>2009-05-08T08:29:30Z</time>
      </trkpt>
      <trkpt lat="46.03604" lon="3.0156">
        <ele>543.2821045</ele>
        <time>2009-05-08T08:29:32Z</time>
      </trkpt>
      <trkpt lat="46.03596" lon="3.0157">
        <ele>540.3983154</ele>
        <time>2009-05-08T08:29:33Z</time>
      </trkpt>
      <trkpt lat="46.03579" lon="3.01581">
        <ele>537.0336914</ele>
        <time>2009-05-08T08:29:35Z</time>
      </trkpt>
      <trkpt lat="46.03551" lon="3.01579">
        <ele>532.7077637</ele>
        <time>2009-05-08T08:29:38Z</time>
      </trkpt>
      <trkpt lat="46.03536" lon="3.0157">
        <ele>528.8625488</ele>
        <time>2009-05-08T08:29:41Z</time>
      </trkpt>
      <trkpt lat="46.03524" lon="3.01574">
        <ele>525.4978027</ele>
        <time>2009-05-08T08:29:44Z</time>
      </trkpt>
      <trkpt lat="46.03517" lon="3.01587">
        <ele>521.6525879</ele>
        <time>2009-05-08T08:29:46Z</time>
      </trkpt>
      <trkpt lat="46.03507" lon="3.01607">
        <ele>518.7685547</ele>
        <time>2009-05-08T08:29:49Z</time>
      </trkpt>
      <trkpt lat="46.03497" lon="3.0161">
        <ele>515.4040527</ele>
        <time>2009-05-08T08:29:51Z</time>
      </trkpt>
      <trkpt lat="46.0349" lon="3.01604">
        <ele>512.5200195</ele>
        <time>2009-05-08T08:29:53Z</time>
      </trkpt>
      <trkpt lat="46.03488" lon="3.01596">
        <ele>512.5200195</ele>
        <time>2009-05-08T08:29:54Z</time>
      </trkpt>
      <trkpt lat="46.03486" lon="3.01587">
        <ele>511.0780029</ele>
        <time>2009-05-08T08:29:55Z</time>
      </trkpt>
      <trkpt lat="46.03481" lon="3.01563">
        <ele>509.6361084</ele>
        <time>2009-05-08T08:29:57Z</time>
      </trkpt>
      <trkpt lat="46.03479" lon="3.01511">
        <ele>507.713501</ele>
        <time>2009-05-08T08:30:01Z</time>
      </trkpt>
      <trkpt lat="46.03471" lon="3.01465">
        <ele>507.713501</ele>
        <time>2009-05-08T08:30:05Z</time>
      </trkpt>
      <trkpt lat="46.0347" lon="3.01454">
        <ele>507.2327881</ele>
        <time>2009-05-08T08:30:06Z</time>
      </trkpt>
      <trkpt lat="46.0347" lon="3.01417">
        <ele>506.7520752</ele>
        <time>2009-05-08T08:30:11Z</time>
      </trkpt>
      <trkpt lat="46.03465" lon="3.01375">
        <ele>507.2327881</ele>
        <time>2009-05-08T08:30:17Z</time>
      </trkpt>
      <trkpt lat="46.03464" lon="3.01359">
        <ele>506.7520752</ele>
        <time>2009-05-08T08:30:19Z</time>
      </trkpt>
      <trkpt lat="46.03465" lon="3.01327">
        <ele>507.2327881</ele>
        <time>2009-05-08T08:30:23Z</time>
      </trkpt>
      <trkpt lat="46.03465" lon="3.01292">
        <ele>507.713501</ele>
        <time>2009-05-08T08:30:27Z</time>
      </trkpt>
      <trkpt lat="46.03463" lon="3.01249">
        <ele>507.2327881</ele>
        <time>2009-05-08T08:30:32Z</time>
      </trkpt>
      <trkpt lat="46.03463" lon="3.01216">
        <ele>507.2327881</ele>
        <time>2009-05-08T08:30:36Z</time>
      </trkpt>
      <trkpt lat="46.03454" lon="3.01166">
        <ele>506.7520752</ele>
        <time>2009-05-08T08:30:42Z</time>
      </trkpt>
      <trkpt lat="46.03453" lon="3.01158">
        <ele>506.7520752</ele>
        <time>2009-05-08T08:30:43Z</time>
      </trkpt>
      <trkpt lat="46.03455" lon="3.01105">
        <ele>507.2327881</ele>
        <time>2009-05-08T08:30:49Z</time>
      </trkpt>
      <trkpt lat="46.03464" lon="3.01016">
        <ele>506.7520752</ele>
        <time>2009-05-08T08:30:59Z</time>
      </trkpt>
      <trkpt lat="46.0347" lon="3.00971">
        <ele>507.2327881</ele>
        <time>2009-05-08T08:31:04Z</time>
      </trkpt>
      <trkpt lat="46.03466" lon="3.0094">
        <ele>506.2714844</ele>
        <time>2009-05-08T08:31:08Z</time>
      </trkpt>
      <trkpt lat="46.03449" lon="3.00932">
        <ele>506.2714844</ele>
        <time>2009-05-08T08:31:11Z</time>
      </trkpt>
      <trkpt lat="46.03429" lon="3.00914">
        <ele>507.2327881</ele>
        <time>2009-05-08T08:31:15Z</time>
      </trkpt>
      <trkpt lat="46.03426" lon="3.00908">
        <ele>506.2714844</ele>
        <time>2009-05-08T08:31:16Z</time>
      </trkpt>
      <trkpt lat="46.034" lon="3.00859">
        <ele>506.2714844</ele>
        <time>2009-05-08T08:31:23Z</time>
      </trkpt>
      <trkpt lat="46.03392" lon="3.00845">
        <ele>506.2714844</ele>
        <time>2009-05-08T08:31:25Z</time>
      </trkpt>
      <trkpt lat="46.03382" lon="3.00804">
        <ele>507.2327881</ele>
        <time>2009-05-08T08:31:30Z</time>
      </trkpt>
      <trkpt lat="46.03389" lon="3.00769">
        <ele>506.7520752</ele>
        <time>2009-05-08T08:31:34Z</time>
      </trkpt>
      <trkpt lat="46.03414" lon="3.00712">
        <ele>506.2714844</ele>
        <time>2009-05-08T08:31:41Z</time>
      </trkpt>
      <trkpt lat="46.03426" lon="3.00686">
        <ele>506.2714844</ele>
        <time>2009-05-08T08:31:44Z</time>
      </trkpt>
      <trkpt lat="46.03446" lon="3.0065">
        <ele>506.2714844</ele>
        <time>2009-05-08T08:31:49Z</time>
      </trkpt>
      <trkpt lat="46.03457" lon="3.0064">
        <ele>506.7520752</ele>
        <time>2009-05-08T08:31:51Z</time>
      </trkpt>
      <trkpt lat="46.03505" lon="3.00612">
        <ele>507.713501</ele>
        <time>2009-05-08T08:31:59Z</time>
      </trkpt>
      <trkpt lat="46.03511" lon="3.0061">
        <ele>507.2327881</ele>
        <time>2009-05-08T08:32:00Z</time>
      </trkpt>
      <trkpt lat="46.03534" lon="3.00597">
        <ele>507.713501</ele>
        <time>2009-05-08T08:32:04Z</time>
      </trkpt>
      <trkpt lat="46.03553" lon="3.00578">
        <ele>507.2327881</ele>
        <time>2009-05-08T08:32:08Z</time>
      </trkpt>
      <trkpt lat="46.03564" lon="3.00551">
        <ele>507.2327881</ele>
        <time>2009-05-08T08:32:13Z</time>
      </trkpt>
      <trkpt lat="46.03571" lon="3.00492">
        <ele>507.2327881</ele>
        <time>2009-05-08T08:32:21Z</time>
      </trkpt>
      <trkpt lat="46.03571" lon="3.00447">
        <ele>508.1940918</ele>
        <time>2009-05-08T08:32:26Z</time>
      </trkpt>
      <trkpt lat="46.03569" lon="3.004">
        <ele>507.2327881</ele>
        <time>2009-05-08T08:32:31Z</time>
      </trkpt>
      <trkpt lat="46.03568" lon="3.0039">
        <ele>507.713501</ele>
        <time>2009-05-08T08:32:32Z</time>
      </trkpt>
      <trkpt lat="46.03575" lon="3.00334">
        <ele>507.713501</ele>
        <time>2009-05-08T08:32:38Z</time>
      </trkpt>
      <trkpt lat="46.03575" lon="3.00276">
        <ele>508.6746826</ele>
        <time>2009-05-08T08:32:44Z</time>
      </trkpt>
      <trkpt lat="46.03573" lon="3.00205">
        <ele>508.1940918</ele>
        <time>2009-05-08T08:32:51Z</time>
      </trkpt>
      <trkpt lat="46.03585" lon="3.00165">
        <ele>508.1940918</ele>
        <time>2009-05-08T08:32:56Z</time>
      </trkpt>
      <trkpt lat="46.036" lon="3.00156">
        <ele>507.713501</ele>
        <time>2009-05-08T08:32:59Z</time>
      </trkpt>
      <trkpt lat="46.03616" lon="3.00164">
        <ele>507.713501</ele>
        <time>2009-05-08T08:33:02Z</time>
      </trkpt>
      <trkpt lat="46.03632" lon="3.00174">
        <ele>505.7908936</ele>
        <time>2009-05-08T08:33:06Z</time>
      </trkpt>
      <trkpt lat="46.03638" lon="3.00175">
        <ele>506.2714844</ele>
        <time>2009-05-08T08:33:10Z</time>
      </trkpt>
      <trkpt lat="46.03642" lon="3.00173">
        <ele>505.7908936</ele>
        <time>2009-05-08T08:33:19Z</time>
      </trkpt>
      <trkpt lat="46.03644" lon="3.00171">
        <ele>505.7908936</ele>
        <time>2009-05-08T08:33:24Z</time>
      </trkpt>
      <trkpt lat="46.03645" lon="3.00169">
        <ele>505.3101807</ele>
        <time>2009-05-08T08:33:29Z</time>
      </trkpt>
      <trkpt lat="46.03644" lon="3.00167">
        <ele>505.7908936</ele>
        <time>2009-05-08T08:33:35Z</time>
      </trkpt>
      <trkpt lat="46.03643" lon="3.00166">
        <ele>505.3101807</ele>
        <time>2009-05-08T08:33:36Z</time>
      </trkpt>
      <trkpt lat="46.03639" lon="3.00157">
        <ele>505.7908936</ele>
        <time>2009-05-08T08:33:43Z</time>
      </trkpt>
      <trkpt lat="46.03627" lon="3.00138">
        <ele>505.7908936</ele>
        <time>2009-05-08T08:33:49Z</time>
      </trkpt>
      <trkpt lat="46.03618" lon="3.00116">
        <ele>506.2714844</ele>
        <time>2009-05-08T08:33:54Z</time>
      </trkpt>
      <trkpt lat="46.03605" lon="3.00103">
        <ele>506.2714844</ele>
        <time>2009-05-08T08:33:58Z</time>
      </trkpt>
      <trkpt lat="46.0359" lon="3.00095">
        <ele>506.7520752</ele>
        <time>2009-05-08T08:34:03Z</time>
      </trkpt>
      <trkpt lat="46.03574" lon="3.00094">
        <ele>506.7520752</ele>
        <time>2009-05-08T08:34:09Z</time>
      </trkpt>
      <trkpt lat="46.03557" lon="3.001">
        <ele>506.2714844</ele>
        <time>2009-05-08T08:34:14Z</time>
      </trkpt>
      <trkpt lat="46.03541" lon="3.00116">
        <ele>506.2714844</ele>
        <time>2009-05-08T08:34:20Z</time>
      </trkpt>
      <trkpt lat="46.03537" lon="3.00135">
        <ele>506.7520752</ele>
        <time>2009-05-08T08:34:24Z</time>
      </trkpt>
      <trkpt lat="46.03529" lon="3.00166">
        <ele>506.2714844</ele>
        <time>2009-05-08T08:34:29Z</time>
      </trkpt>
      <trkpt lat="46.03517" lon="3.00197">
        <ele>505.7908936</ele>
        <time>2009-05-08T08:34:34Z</time>
      </trkpt>
      <trkpt lat="46.0351" lon="3.00225">
        <ele>505.7908936</ele>
        <time>2009-05-08T08:34:38Z</time>
      </trkpt>
      <trkpt lat="46.03504" lon="3.00272">
        <ele>506.2714844</ele>
        <time>2009-05-08T08:34:44Z</time>
      </trkpt>
      <trkpt lat="46.03509" lon="3.00322">
        <ele>506.2714844</ele>
        <time>2009-05-08T08:34:50Z</time>
      </trkpt>
      <trkpt lat="46.0351" lon="3.00329">
        <ele>505.7908936</ele>
        <time>2009-05-08T08:34:51Z</time>
      </trkpt>
      <trkpt lat="46.03508" lon="3.0037">
        <ele>505.3101807</ele>
        <time>2009-05-08T08:34:56Z</time>
      </trkpt>
      <trkpt lat="46.03509" lon="3.00407">
        <ele>506.2714844</ele>
        <time>2009-05-08T08:35:01Z</time>
      </trkpt>
      <trkpt lat="46.03514" lon="3.00462">
        <ele>505.7908936</ele>
        <time>2009-05-08T08:35:08Z</time>
      </trkpt>
      <trkpt lat="46.03514" lon="3.0047">
        <ele>505.7908936</ele>
        <time>2009-05-08T08:35:09Z</time>
      </trkpt>
      <trkpt lat="46.03509" lon="3.00502">
        <ele>505.7908936</ele>
        <time>2009-05-08T08:35:13Z</time>
      </trkpt>
      <trkpt lat="46.03495" lon="3.00527">
        <ele>505.3101807</ele>
        <time>2009-05-08T08:35:17Z</time>
      </trkpt>
      <trkpt lat="46.03486" lon="3.00533">
        <ele>505.3101807</ele>
        <time>2009-05-08T08:35:19Z</time>
      </trkpt>
      <trkpt lat="46.03474" lon="3.00534">
        <ele>505.3101807</ele>
        <time>2009-05-08T08:35:24Z</time>
      </trkpt>
      <trkpt lat="46.03468" lon="3.00531">
        <ele>505.3101807</ele>
        <time>2009-05-08T08:35:30Z</time>
      </trkpt>
      <trkpt lat="46.03462" lon="3.0053">
        <ele>505.3101807</ele>
        <time>2009-05-08T08:35:34Z</time>
      </trkpt>
      <trkpt lat="46.03461" lon="3.0052">
        <ele>506.7520752</ele>
        <time>2009-05-08T08:35:39Z</time>
      </trkpt>
      <trkpt lat="46.03463" lon="3.00518">
        <ele>507.713501</ele>
        <time>2009-05-08T08:35:42Z</time>
      </trkpt>
      <trkpt lat="46.03463" lon="3.00517">
        <ele>507.2327881</ele>
        <time>2009-05-08T08:35:44Z</time>
      </trkpt>
      <trkpt lat="46.03465" lon="3.00514">
        <ele>507.713501</ele>
        <time>2009-05-08T08:35:48Z</time>
      </trkpt>
      <trkpt lat="46.03466" lon="3.00513">
        <ele>508.6746826</ele>
        <time>2009-05-08T08:35:50Z</time>
      </trkpt>
      <trkpt lat="46.03469" lon="3.00509">
        <ele>509.6361084</ele>
        <time>2009-05-08T08:35:53Z</time>
      </trkpt>
      <trkpt lat="46.0347" lon="3.00508">
        <ele>509.6361084</ele>
        <time>2009-05-08T08:35:54Z</time>
      </trkpt>
      <trkpt lat="46.03473" lon="3.005">
        <ele>511.5587158</ele>
        <time>2009-05-08T08:36:00Z</time>
      </trkpt>
      <trkpt lat="46.03479" lon="3.00495">
        <ele>514.442627</ele>
        <time>2009-05-08T08:36:06Z</time>
      </trkpt>
      <trkpt lat="46.03483" lon="3.00485">
        <ele>516.3652344</ele>
        <time>2009-05-08T08:36:12Z</time>
      </trkpt>
      <trkpt lat="46.03483" lon="3.00475">
        <ele>517.807251</ele>
        <time>2009-05-08T08:36:18Z</time>
      </trkpt>
      <trkpt lat="46.03482" lon="3.00462">
        <ele>519.2492676</ele>
        <time>2009-05-08T08:36:24Z</time>
      </trkpt>
      <trkpt lat="46.03477" lon="3.00443">
        <ele>519.7298584</ele>
        <time>2009-05-08T08:36:32Z</time>
      </trkpt>
      <trkpt lat="46.03476" lon="3.00429">
        <ele>521.1719971</ele>
        <time>2009-05-08T08:36:38Z</time>
      </trkpt>
      <trkpt lat="46.03476" lon="3.00414">
        <ele>523.0946045</ele>
        <time>2009-05-08T08:36:45Z</time>
      </trkpt>
      <trkpt lat="46.03474" lon="3.004">
        <ele>525.0172119</ele>
        <time>2009-05-08T08:36:53Z</time>
      </trkpt>
      <trkpt lat="46.03472" lon="3.00386">
        <ele>527.4204102</ele>
        <time>2009-05-08T08:37:00Z</time>
      </trkpt>
      <trkpt lat="46.03472" lon="3.00373">
        <ele>528.8625488</ele>
        <time>2009-05-08T08:37:06Z</time>
      </trkpt>
      <trkpt lat="46.0347" lon="3.00356">
        <ele>530.3044434</ele>
        <time>2009-05-08T08:37:13Z</time>
      </trkpt>
      <trkpt lat="46.03471" lon="3.00336">
        <ele>530.7851563</ele>
        <time>2009-05-08T08:37:19Z</time>
      </trkpt>
      <trkpt lat="46.03469" lon="3.00322">
        <ele>531.2657471</ele>
        <time>2009-05-08T08:37:24Z</time>
      </trkpt>
      <trkpt lat="46.03466" lon="3.00309">
        <ele>531.2657471</ele>
        <time>2009-05-08T08:37:30Z</time>
      </trkpt>
      <trkpt lat="46.03465" lon="3.00307">
        <ele>532.2270508</ele>
        <time>2009-05-08T08:37:37Z</time>
      </trkpt>
      <trkpt lat="46.03462" lon="3.00295">
        <ele>532.7077637</ele>
        <time>2009-05-08T08:37:43Z</time>
      </trkpt>
      <trkpt lat="46.03461" lon="3.00282">
        <ele>534.1496582</ele>
        <time>2009-05-08T08:37:49Z</time>
      </trkpt>
      <trkpt lat="46.0346" lon="3.0027">
        <ele>534.6303711</ele>
        <time>2009-05-08T08:37:54Z</time>
      </trkpt>
      <trkpt lat="46.03458" lon="3.00259">
        <ele>535.1109619</ele>
        <time>2009-05-08T08:37:59Z</time>
      </trkpt>
      <trkpt lat="46.03454" lon="3.00244">
        <ele>536.5531006</ele>
        <time>2009-05-08T08:38:06Z</time>
      </trkpt>
      <trkpt lat="46.03452" lon="3.00238">
        <ele>537.0336914</ele>
        <time>2009-05-08T08:38:09Z</time>
      </trkpt>
      <trkpt lat="46.03451" lon="3.00218">
        <ele>537.9949951</ele>
        <time>2009-05-08T08:38:15Z</time>
      </trkpt>
      <trkpt lat="46.0345" lon="3.00211">
        <ele>538.9562988</ele>
        <time>2009-05-08T08:38:18Z</time>
      </trkpt>
      <trkpt lat="46.03446" lon="3.00196">
        <ele>540.8789063</ele>
        <time>2009-05-08T08:38:26Z</time>
      </trkpt>
      <trkpt lat="46.03443" lon="3.0018">
        <ele>542.8015137</ele>
        <time>2009-05-08T08:38:32Z</time>
      </trkpt>
      <trkpt lat="46.0344" lon="3.00164">
        <ele>544.2436523</ele>
        <time>2009-05-08T08:38:39Z</time>
      </trkpt>
      <trkpt lat="46.03438" lon="3.00151">
        <ele>545.204834</ele>
        <time>2009-05-08T08:38:44Z</time>
      </trkpt>
      <trkpt lat="46.03437" lon="3.00138">
        <ele>546.1662598</ele>
        <time>2009-05-08T08:38:50Z</time>
      </trkpt>
      <trkpt lat="46.03435" lon="3.0013">
        <ele>549.0500488</ele>
        <time>2009-05-08T08:38:56Z</time>
      </trkpt>
      <trkpt lat="46.03435" lon="3.00129">
        <ele>549.5307617</ele>
        <time>2009-05-08T08:38:57Z</time>
      </trkpt>
      <trkpt lat="46.03433" lon="3.0012">
        <ele>550.4921875</ele>
        <time>2009-05-08T08:39:03Z</time>
      </trkpt>
      <trkpt lat="46.03433" lon="3.00115">
        <ele>550.4921875</ele>
        <time>2009-05-08T08:39:06Z</time>
      </trkpt>
      <trkpt lat="46.03434" lon="3.00104">
        <ele>552.4145508</ele>
        <time>2009-05-08T08:39:13Z</time>
      </trkpt>
      <trkpt lat="46.03436" lon="3.00094">
        <ele>554.3374023</ele>
        <time>2009-05-08T08:39:20Z</time>
      </trkpt>
      <trkpt lat="46.0344" lon="3.00083">
        <ele>556.7407227</ele>
        <time>2009-05-08T08:39:27Z</time>
      </trkpt>
      <trkpt lat="46.03442" lon="3.00078">
        <ele>556.7407227</ele>
        <time>2009-05-08T08:39:32Z</time>
      </trkpt>
      <trkpt lat="46.03442" lon="3.00073">
        <ele>557.7021484</ele>
        <time>2009-05-08T08:39:37Z</time>
      </trkpt>
      <trkpt lat="46.03444" lon="3.00067">
        <ele>558.6633301</ele>
        <time>2009-05-08T08:39:44Z</time>
      </trkpt>
      <trkpt lat="46.03445" lon="3.00065">
        <ele>559.144043</ele>
        <time>2009-05-08T08:39:54Z</time>
      </trkpt>
      <trkpt lat="46.03447" lon="3.00058">
        <ele>561.0666504</ele>
        <time>2009-05-08T08:40:00Z</time>
      </trkpt>
      <trkpt lat="46.03448" lon="3.00049">
        <ele>562.0280762</ele>
        <time>2009-05-08T08:40:07Z</time>
      </trkpt>
      <trkpt lat="46.03448" lon="3.00038">
        <ele>563.4699707</ele>
        <time>2009-05-08T08:40:12Z</time>
      </trkpt>
      <trkpt lat="46.03445" lon="3.00023">
        <ele>565.3925781</ele>
        <time>2009-05-08T08:40:20Z</time>
      </trkpt>
      <trkpt lat="46.03445" lon="3.00013">
        <ele>566.8344727</ele>
        <time>2009-05-08T08:40:25Z</time>
      </trkpt>
      <trkpt lat="46.03444" lon="2.99994">
        <ele>568.2763672</ele>
        <time>2009-05-08T08:40:34Z</time>
      </trkpt>
      <trkpt lat="46.03441" lon="2.99978">
        <ele>569.7185059</ele>
        <time>2009-05-08T08:40:39Z</time>
      </trkpt>
      <trkpt lat="46.03438" lon="2.99961">
        <ele>570.6796875</ele>
        <time>2009-05-08T08:40:44Z</time>
      </trkpt>
      <trkpt lat="46.03438" lon="2.99941">
        <ele>572.6025391</ele>
        <time>2009-05-08T08:40:50Z</time>
      </trkpt>
      <trkpt lat="46.03438" lon="2.99926">
        <ele>573.5639648</ele>
        <time>2009-05-08T08:40:56Z</time>
      </trkpt>
      <trkpt lat="46.03438" lon="2.99909">
        <ele>574.5251465</ele>
        <time>2009-05-08T08:41:02Z</time>
      </trkpt>
      <trkpt lat="46.03437" lon="2.99897">
        <ele>575.0058594</ele>
        <time>2009-05-08T08:41:06Z</time>
      </trkpt>
      <trkpt lat="46.03436" lon="2.99889">
        <ele>575.4863281</ele>
        <time>2009-05-08T08:41:09Z</time>
      </trkpt>
      <trkpt lat="46.03433" lon="2.99864">
        <ele>576.4477539</ele>
        <time>2009-05-08T08:41:16Z</time>
      </trkpt>
      <trkpt lat="46.03431" lon="2.9985">
        <ele>577.8896484</ele>
        <time>2009-05-08T08:41:21Z</time>
      </trkpt>
      <trkpt lat="46.03431" lon="2.99834">
        <ele>578.8510742</ele>
        <time>2009-05-08T08:41:26Z</time>
      </trkpt>
      <trkpt lat="46.03432" lon="2.99811">
        <ele>580.2929688</ele>
        <time>2009-05-08T08:41:33Z</time>
      </trkpt>
      <trkpt lat="46.03433" lon="2.99797">
        <ele>582.6962891</ele>
        <time>2009-05-08T08:41:40Z</time>
      </trkpt>
      <trkpt lat="46.03434" lon="2.99787">
        <ele>584.6188965</ele>
        <time>2009-05-08T08:41:45Z</time>
      </trkpt>
      <trkpt lat="46.03436" lon="2.99777">
        <ele>585.5800781</ele>
        <time>2009-05-08T08:41:50Z</time>
      </trkpt>
      <trkpt lat="46.03439" lon="2.99761">
        <ele>587.5026855</ele>
        <time>2009-05-08T08:41:57Z</time>
      </trkpt>
      <trkpt lat="46.03441" lon="2.99749">
        <ele>588.4643555</ele>
        <time>2009-05-08T08:42:03Z</time>
      </trkpt>
      <trkpt lat="46.03441" lon="2.99747">
        <ele>588.4643555</ele>
        <time>2009-05-08T08:42:04Z</time>
      </trkpt>
      <trkpt lat="46.03446" lon="2.99732">
        <ele>590.3869629</ele>
        <time>2009-05-08T08:42:12Z</time>
      </trkpt>
      <trkpt lat="46.03448" lon="2.99724">
        <ele>590.8674316</ele>
        <time>2009-05-08T08:42:17Z</time>
      </trkpt>
      <trkpt lat="46.03449" lon="2.99721">
        <ele>591.3481445</ele>
        <time>2009-05-08T08:42:19Z</time>
      </trkpt>
      <trkpt lat="46.03453" lon="2.9971">
        <ele>592.7902832</ele>
        <time>2009-05-08T08:42:27Z</time>
      </trkpt>
      <trkpt lat="46.03454" lon="2.99701">
        <ele>595.1933594</ele>
        <time>2009-05-08T08:42:33Z</time>
      </trkpt>
      <trkpt lat="46.03456" lon="2.99692">
        <ele>596.635498</ele>
        <time>2009-05-08T08:42:40Z</time>
      </trkpt>
      <trkpt lat="46.03457" lon="2.99681">
        <ele>598.5578613</ele>
        <time>2009-05-08T08:42:47Z</time>
      </trkpt>
      <trkpt lat="46.03459" lon="2.99669">
        <ele>600.4807129</ele>
        <time>2009-05-08T08:42:53Z</time>
      </trkpt>
      <trkpt lat="46.0346" lon="2.99656">
        <ele>601.4418945</ele>
        <time>2009-05-08T08:42:59Z</time>
      </trkpt>
      <trkpt lat="46.03464" lon="2.99641">
        <ele>602.8837891</ele>
        <time>2009-05-08T08:43:06Z</time>
      </trkpt>
      <trkpt lat="46.03464" lon="2.99637">
        <ele>602.8837891</ele>
        <time>2009-05-08T08:43:08Z</time>
      </trkpt>
      <trkpt lat="46.03464" lon="2.99629">
        <ele>604.3261719</ele>
        <time>2009-05-08T08:43:12Z</time>
      </trkpt>
      <trkpt lat="46.03467" lon="2.99612">
        <ele>605.7680664</ele>
        <time>2009-05-08T08:43:20Z</time>
      </trkpt>
      <trkpt lat="46.03473" lon="2.99591">
        <ele>606.729248</ele>
        <time>2009-05-08T08:43:27Z</time>
      </trkpt>
      <trkpt lat="46.0348" lon="2.99571">
        <ele>607.6906738</ele>
        <time>2009-05-08T08:43:33Z</time>
      </trkpt>
      <trkpt lat="46.03484" lon="2.99544">
        <ele>608.6518555</ele>
        <time>2009-05-08T08:43:39Z</time>
      </trkpt>
      <trkpt lat="46.03485" lon="2.99511">
        <ele>610.09375</ele>
        <time>2009-05-08T08:43:46Z</time>
      </trkpt>
      <trkpt lat="46.03484" lon="2.99484">
        <ele>610.5744629</ele>
        <time>2009-05-08T08:43:52Z</time>
      </trkpt>
      <trkpt lat="46.03489" lon="2.99461">
        <ele>611.0551758</ele>
        <time>2009-05-08T08:43:58Z</time>
      </trkpt>
      <trkpt lat="46.035" lon="2.99438">
        <ele>612.0166016</ele>
        <time>2009-05-08T08:44:04Z</time>
      </trkpt>
      <trkpt lat="46.03513" lon="2.99415">
        <ele>613.4584961</ele>
        <time>2009-05-08T08:44:10Z</time>
      </trkpt>
      <trkpt lat="46.03525" lon="2.99396">
        <ele>614.4196777</ele>
        <time>2009-05-08T08:44:16Z</time>
      </trkpt>
      <trkpt lat="46.03529" lon="2.99387">
        <ele>615.3811035</ele>
        <time>2009-05-08T08:44:18Z</time>
      </trkpt>
      <trkpt lat="46.03542" lon="2.99367">
        <ele>616.822998</ele>
        <time>2009-05-08T08:44:24Z</time>
      </trkpt>
      <trkpt lat="46.03556" lon="2.99348">
        <ele>618.2648926</ele>
        <time>2009-05-08T08:44:31Z</time>
      </trkpt>
      <trkpt lat="46.0357" lon="2.99328">
        <ele>619.7070313</ele>
        <time>2009-05-08T08:44:38Z</time>
      </trkpt>
      <trkpt lat="46.0358" lon="2.99312">
        <ele>621.1491699</ele>
        <time>2009-05-08T08:44:43Z</time>
      </trkpt>
      <trkpt lat="46.03589" lon="2.99293">
        <ele>621.1491699</ele>
        <time>2009-05-08T08:44:49Z</time>
      </trkpt>
      <trkpt lat="46.03598" lon="2.99272">
        <ele>621.1491699</ele>
        <time>2009-05-08T08:44:54Z</time>
      </trkpt>
      <trkpt lat="46.03608" lon="2.99245">
        <ele>620.1877441</ele>
        <time>2009-05-08T08:44:59Z</time>
      </trkpt>
      <trkpt lat="46.03614" lon="2.99227">
        <ele>620.1877441</ele>
        <time>2009-05-08T08:45:02Z</time>
      </trkpt>
      <trkpt lat="46.0362" lon="2.99213">
        <ele>619.2263184</ele>
        <time>2009-05-08T08:45:04Z</time>
      </trkpt>
      <trkpt lat="46.03636" lon="2.99191">
        <ele>618.7456055</ele>
        <time>2009-05-08T08:45:09Z</time>
      </trkpt>
      <trkpt lat="46.03658" lon="2.99154">
        <ele>618.7456055</ele>
        <time>2009-05-08T08:45:15Z</time>
      </trkpt>
      <trkpt lat="46.03669" lon="2.99127">
        <ele>618.2648926</ele>
        <time>2009-05-08T08:45:19Z</time>
      </trkpt>
      <trkpt lat="46.03683" lon="2.99073">
        <ele>618.7456055</ele>
        <time>2009-05-08T08:45:26Z</time>
      </trkpt>
      <trkpt lat="46.03693" lon="2.99022">
        <ele>618.2648926</ele>
        <time>2009-05-08T08:45:32Z</time>
      </trkpt>
      <trkpt lat="46.03704" lon="2.98974">
        <ele>618.7456055</ele>
        <time>2009-05-08T08:45:38Z</time>
      </trkpt>
      <trkpt lat="46.03705" lon="2.98966">
        <ele>618.2648926</ele>
        <time>2009-05-08T08:45:39Z</time>
      </trkpt>
      <trkpt lat="46.03709" lon="2.9892">
        <ele>618.2648926</ele>
        <time>2009-05-08T08:45:45Z</time>
      </trkpt>
      <trkpt lat="46.03708" lon="2.98872">
        <ele>618.2648926</ele>
        <time>2009-05-08T08:45:51Z</time>
      </trkpt>
      <trkpt lat="46.03713" lon="2.98821">
        <ele>619.2263184</ele>
        <time>2009-05-08T08:45:57Z</time>
      </trkpt>
      <trkpt lat="46.03722" lon="2.98765">
        <ele>620.668457</ele>
        <time>2009-05-08T08:46:05Z</time>
      </trkpt>
      <trkpt lat="46.03726" lon="2.98731">
        <ele>621.6296387</ele>
        <time>2009-05-08T08:46:10Z</time>
      </trkpt>
      <trkpt lat="46.03733" lon="2.98678">
        <ele>622.1103516</ele>
        <time>2009-05-08T08:46:18Z</time>
      </trkpt>
      <trkpt lat="46.03741" lon="2.98631">
        <ele>621.6296387</ele>
        <time>2009-05-08T08:46:25Z</time>
      </trkpt>
      <trkpt lat="46.0375" lon="2.98566">
        <ele>621.1491699</ele>
        <time>2009-05-08T08:46:33Z</time>
      </trkpt>
      <trkpt lat="46.03751" lon="2.98557">
        <ele>620.1877441</ele>
        <time>2009-05-08T08:46:34Z</time>
      </trkpt>
      <trkpt lat="46.03755" lon="2.98524">
        <ele>619.2263184</ele>
        <time>2009-05-08T08:46:38Z</time>
      </trkpt>
      <trkpt lat="46.03756" lon="2.98515">
        <ele>618.2648926</ele>
        <time>2009-05-08T08:46:39Z</time>
      </trkpt>
      <trkpt lat="46.0376" lon="2.98498">
        <ele>617.3037109</ele>
        <time>2009-05-08T08:46:41Z</time>
      </trkpt>
      <trkpt lat="46.03764" lon="2.98477">
        <ele>616.822998</ele>
        <time>2009-05-08T08:46:43Z</time>
      </trkpt>
      <trkpt lat="46.03771" lon="2.98441">
        <ele>614.9003906</ele>
        <time>2009-05-08T08:46:46Z</time>
      </trkpt>
      <trkpt lat="46.03776" lon="2.98417">
        <ele>615.3811035</ele>
        <time>2009-05-08T08:46:48Z</time>
      </trkpt>
      <trkpt lat="46.0378" lon="2.98348">
        <ele>614.4196777</ele>
        <time>2009-05-08T08:46:54Z</time>
      </trkpt>
      <trkpt lat="46.03784" lon="2.98295">
        <ele>613.4584961</ele>
        <time>2009-05-08T08:46:59Z</time>
      </trkpt>
      <trkpt lat="46.03785" lon="2.98284">
        <ele>613.4584961</ele>
        <time>2009-05-08T08:47:00Z</time>
      </trkpt>
      <trkpt lat="46.03798" lon="2.98219">
        <ele>612.0166016</ele>
        <time>2009-05-08T08:47:06Z</time>
      </trkpt>
      <trkpt lat="46.03806" lon="2.98174">
        <ele>611.0551758</ele>
        <time>2009-05-08T08:47:10Z</time>
      </trkpt>
      <trkpt lat="46.03826" lon="2.98125">
        <ele>608.6518555</ele>
        <time>2009-05-08T08:47:15Z</time>
      </trkpt>
      <trkpt lat="46.03832" lon="2.98117">
        <ele>608.6518555</ele>
        <time>2009-05-08T08:47:16Z</time>
      </trkpt>
      <trkpt lat="46.0389" lon="2.98064">
        <ele>606.2485352</ele>
        <time>2009-05-08T08:47:24Z</time>
      </trkpt>
      <trkpt lat="46.03934" lon="2.98033">
        <ele>606.2485352</ele>
        <time>2009-05-08T08:47:30Z</time>
      </trkpt>
      <trkpt lat="46.03966" lon="2.98011">
        <ele>606.729248</ele>
        <time>2009-05-08T08:47:35Z</time>
      </trkpt>
      <trkpt lat="46.03979" lon="2.97991">
        <ele>607.2099609</ele>
        <time>2009-05-08T08:47:39Z</time>
      </trkpt>
      <trkpt lat="46.03978" lon="2.97962">
        <ele>606.729248</ele>
        <time>2009-05-08T08:47:43Z</time>
      </trkpt>
      <trkpt lat="46.03969" lon="2.97899">
        <ele>607.2099609</ele>
        <time>2009-05-08T08:47:50Z</time>
      </trkpt>
      <trkpt lat="46.03967" lon="2.97872">
        <ele>606.729248</ele>
        <time>2009-05-08T08:47:53Z</time>
      </trkpt>
      <trkpt lat="46.03953" lon="2.97847">
        <ele>605.7680664</ele>
        <time>2009-05-08T08:47:57Z</time>
      </trkpt>
      <trkpt lat="46.03946" lon="2.97846">
        <ele>605.7680664</ele>
        <time>2009-05-08T08:47:58Z</time>
      </trkpt>
      <trkpt lat="46.0394" lon="2.97847">
        <ele>605.7680664</ele>
        <time>2009-05-08T08:47:59Z</time>
      </trkpt>
      <trkpt lat="46.03917" lon="2.97853">
        <ele>604.3261719</ele>
        <time>2009-05-08T08:48:02Z</time>
      </trkpt>
      <trkpt lat="46.03884" lon="2.97862">
        <ele>601.9226074</ele>
        <time>2009-05-08T08:48:06Z</time>
      </trkpt>
      <trkpt lat="46.03859" lon="2.97868">
        <ele>600</ele>
        <time>2009-05-08T08:48:09Z</time>
      </trkpt>
      <trkpt lat="46.03824" lon="2.97876">
        <ele>599.5192871</ele>
        <time>2009-05-08T08:48:13Z</time>
      </trkpt>
      <trkpt lat="46.03816" lon="2.97877">
        <ele>598.5578613</ele>
        <time>2009-05-08T08:48:14Z</time>
      </trkpt>
      <trkpt lat="46.03807" lon="2.97877">
        <ele>598.0773926</ele>
        <time>2009-05-08T08:48:15Z</time>
      </trkpt>
      <trkpt lat="46.03772" lon="2.97868">
        <ele>595.6740723</ele>
        <time>2009-05-08T08:48:19Z</time>
      </trkpt>
      <trkpt lat="46.03756" lon="2.97862">
        <ele>594.2321777</ele>
        <time>2009-05-08T08:48:21Z</time>
      </trkpt>
      <trkpt lat="46.03747" lon="2.9786">
        <ele>593.7514648</ele>
        <time>2009-05-08T08:48:22Z</time>
      </trkpt>
      <trkpt lat="46.03738" lon="2.97857">
        <ele>593.270752</ele>
        <time>2009-05-08T08:48:23Z</time>
      </trkpt>
      <trkpt lat="46.03722" lon="2.97847">
        <ele>592.3095703</ele>
        <time>2009-05-08T08:48:25Z</time>
      </trkpt>
      <trkpt lat="46.0371" lon="2.97831">
        <ele>591.8288574</ele>
        <time>2009-05-08T08:48:27Z</time>
      </trkpt>
      <trkpt lat="46.03682" lon="2.97791">
        <ele>590.8674316</ele>
        <time>2009-05-08T08:48:32Z</time>
      </trkpt>
      <trkpt lat="46.03665" lon="2.97771">
        <ele>590.8674316</ele>
        <time>2009-05-08T08:48:35Z</time>
      </trkpt>
      <trkpt lat="46.03659" lon="2.97766">
        <ele>590.8674316</ele>
        <time>2009-05-08T08:48:36Z</time>
      </trkpt>
      <trkpt lat="46.03648" lon="2.97758">
        <ele>592.3095703</ele>
        <time>2009-05-08T08:48:38Z</time>
      </trkpt>
      <trkpt lat="46.03631" lon="2.97751">
        <ele>593.270752</ele>
        <time>2009-05-08T08:48:42Z</time>
      </trkpt>
      <trkpt lat="46.0362" lon="2.9775">
        <ele>594.2321777</ele>
        <time>2009-05-08T08:48:45Z</time>
      </trkpt>
      <trkpt lat="46.03612" lon="2.97755">
        <ele>594.7126465</ele>
        <time>2009-05-08T08:48:48Z</time>
      </trkpt>
      <trkpt lat="46.03605" lon="2.97765">
        <ele>596.1547852</ele>
        <time>2009-05-08T08:48:51Z</time>
      </trkpt>
      <trkpt lat="46.03603" lon="2.97768">
        <ele>596.635498</ele>
        <time>2009-05-08T08:48:52Z</time>
      </trkpt>
      <trkpt lat="46.03598" lon="2.97774">
        <ele>596.635498</ele>
        <time>2009-05-08T08:48:54Z</time>
      </trkpt>
      <trkpt lat="46.03595" lon="2.97775">
        <ele>596.635498</ele>
        <time>2009-05-08T08:48:55Z</time>
      </trkpt>
      <trkpt lat="46.03582" lon="2.97778">
        <ele>597.5966797</ele>
        <time>2009-05-08T08:48:59Z</time>
      </trkpt>
      <trkpt lat="46.03573" lon="2.97781">
        <ele>598.0773926</ele>
        <time>2009-05-08T08:49:02Z</time>
      </trkpt>
      <trkpt lat="46.0357" lon="2.97783">
        <ele>598.0773926</ele>
        <time>2009-05-08T08:49:03Z</time>
      </trkpt>
      <trkpt lat="46.03557" lon="2.97787">
        <ele>600</ele>
        <time>2009-05-08T08:49:07Z</time>
      </trkpt>
      <trkpt lat="46.03542" lon="2.97792">
        <ele>600.4807129</ele>
        <time>2009-05-08T08:49:12Z</time>
      </trkpt>
      <trkpt lat="46.03518" lon="2.97799">
        <ele>603.364502</ele>
        <time>2009-05-08T08:49:20Z</time>
      </trkpt>
      <trkpt lat="46.03516" lon="2.97801">
        <ele>602.8837891</ele>
        <time>2009-05-08T08:49:21Z</time>
      </trkpt>
      <trkpt lat="46.03499" lon="2.97806">
        <ele>604.8066406</ele>
        <time>2009-05-08T08:49:26Z</time>
      </trkpt>
      <trkpt lat="46.03476" lon="2.97813">
        <ele>605.7680664</ele>
        <time>2009-05-08T08:49:33Z</time>
      </trkpt>
      <trkpt lat="46.03456" lon="2.9782">
        <ele>606.2485352</ele>
        <time>2009-05-08T08:49:39Z</time>
      </trkpt>
      <trkpt lat="46.03433" lon="2.97826">
        <ele>607.6906738</ele>
        <time>2009-05-08T08:49:46Z</time>
      </trkpt>
      <trkpt lat="46.03413" lon="2.97831">
        <ele>608.6518555</ele>
        <time>2009-05-08T08:49:52Z</time>
      </trkpt>
      <trkpt lat="46.03393" lon="2.97837">
        <ele>610.09375</ele>
        <time>2009-05-08T08:49:58Z</time>
      </trkpt>
      <trkpt lat="46.03374" lon="2.97842">
        <ele>610.5744629</ele>
        <time>2009-05-08T08:50:03Z</time>
      </trkpt>
      <trkpt lat="46.03355" lon="2.97848">
        <ele>610.5744629</ele>
        <time>2009-05-08T08:50:08Z</time>
      </trkpt>
      <trkpt lat="46.03347" lon="2.9785">
        <ele>611.0551758</ele>
        <time>2009-05-08T08:50:10Z</time>
      </trkpt>
      <trkpt lat="46.0331" lon="2.97863">
        <ele>608.6518555</ele>
        <time>2009-05-08T08:50:18Z</time>
      </trkpt>
      <trkpt lat="46.03294" lon="2.97863">
        <ele>607.6906738</ele>
        <time>2009-05-08T08:50:22Z</time>
      </trkpt>
      <trkpt lat="46.03298" lon="2.97848">
        <ele>608.6518555</ele>
        <time>2009-05-08T08:50:26Z</time>
      </trkpt>
      <trkpt lat="46.03305" lon="2.9784">
        <ele>608.6518555</ele>
        <time>2009-05-08T08:50:28Z</time>
      </trkpt>
      <trkpt lat="46.03314" lon="2.97826">
        <ele>609.6132813</ele>
        <time>2009-05-08T08:50:31Z</time>
      </trkpt>
      <trkpt lat="46.03319" lon="2.97817">
        <ele>609.6132813</ele>
        <time>2009-05-08T08:50:33Z</time>
      </trkpt>
      <trkpt lat="46.0334" lon="2.97789">
        <ele>610.5744629</ele>
        <time>2009-05-08T08:50:39Z</time>
      </trkpt>
      <trkpt lat="46.03372" lon="2.97739">
        <ele>611.5358887</ele>
        <time>2009-05-08T08:50:48Z</time>
      </trkpt>
      <trkpt lat="46.03399" lon="2.97699">
        <ele>610.5744629</ele>
        <time>2009-05-08T08:50:55Z</time>
      </trkpt>
      <trkpt lat="46.03426" lon="2.97656">
        <ele>609.1325684</ele>
        <time>2009-05-08T08:51:02Z</time>
      </trkpt>
      <trkpt lat="46.03439" lon="2.97638">
        <ele>608.6518555</ele>
        <time>2009-05-08T08:51:05Z</time>
      </trkpt>
      <trkpt lat="46.03446" lon="2.9761">
        <ele>609.1325684</ele>
        <time>2009-05-08T08:51:09Z</time>
      </trkpt>
      <trkpt lat="46.03436" lon="2.97594">
        <ele>609.1325684</ele>
        <time>2009-05-08T08:51:12Z</time>
      </trkpt>
      <trkpt lat="46.03425" lon="2.9758">
        <ele>610.5744629</ele>
        <time>2009-05-08T08:51:15Z</time>
      </trkpt>
      <trkpt lat="46.03401" lon="2.97534">
        <ele>611.0551758</ele>
        <time>2009-05-08T08:51:23Z</time>
      </trkpt>
      <trkpt lat="46.03391" lon="2.97509">
        <ele>611.5358887</ele>
        <time>2009-05-08T08:51:27Z</time>
      </trkpt>
      <trkpt lat="46.03388" lon="2.97503">
        <ele>611.5358887</ele>
        <time>2009-05-08T08:51:28Z</time>
      </trkpt>
      <trkpt lat="46.03372" lon="2.9748">
        <ele>612.0166016</ele>
        <time>2009-05-08T08:51:33Z</time>
      </trkpt>
      <trkpt lat="46.03364" lon="2.97474">
        <ele>612.4970703</ele>
        <time>2009-05-08T08:51:35Z</time>
      </trkpt>
      <trkpt lat="46.03349" lon="2.97463">
        <ele>613.4584961</ele>
        <time>2009-05-08T08:51:39Z</time>
      </trkpt>
      <trkpt lat="46.03324" lon="2.97449">
        <ele>614.9003906</ele>
        <time>2009-05-08T08:51:45Z</time>
      </trkpt>
      <trkpt lat="46.03288" lon="2.97427">
        <ele>615.8618164</ele>
        <time>2009-05-08T08:51:54Z</time>
      </trkpt>
      <trkpt lat="46.03256" lon="2.97407">
        <ele>616.822998</ele>
        <time>2009-05-08T08:52:02Z</time>
      </trkpt>
      <trkpt lat="46.03231" lon="2.9738">
        <ele>616.822998</ele>
        <time>2009-05-08T08:52:09Z</time>
      </trkpt>
      <trkpt lat="46.03203" lon="2.97343">
        <ele>617.3037109</ele>
        <time>2009-05-08T08:52:17Z</time>
      </trkpt>
      <trkpt lat="46.03199" lon="2.97338">
        <ele>617.3037109</ele>
        <time>2009-05-08T08:52:18Z</time>
      </trkpt>
      <trkpt lat="46.03163" lon="2.97289">
        <ele>616.822998</ele>
        <time>2009-05-08T08:52:28Z</time>
      </trkpt>
      <trkpt lat="46.03136" lon="2.97253">
        <ele>615.8618164</ele>
        <time>2009-05-08T08:52:35Z</time>
      </trkpt>
      <trkpt lat="46.03112" lon="2.97224">
        <ele>614.9003906</ele>
        <time>2009-05-08T08:52:41Z</time>
      </trkpt>
      <trkpt lat="46.03094" lon="2.97199">
        <ele>614.4196777</ele>
        <time>2009-05-08T08:52:46Z</time>
      </trkpt>
      <trkpt lat="46.03078" lon="2.97175">
        <ele>614.4196777</ele>
        <time>2009-05-08T08:52:51Z</time>
      </trkpt>
      <trkpt lat="46.03048" lon="2.97136">
        <ele>615.8618164</ele>
        <time>2009-05-08T08:53:00Z</time>
      </trkpt>
      <trkpt lat="46.03035" lon="2.97118">
        <ele>615.3811035</ele>
        <time>2009-05-08T08:53:04Z</time>
      </trkpt>
      <trkpt lat="46.03018" lon="2.97092">
        <ele>614.9003906</ele>
        <time>2009-05-08T08:53:10Z</time>
      </trkpt>
      <trkpt lat="46.03009" lon="2.97083">
        <ele>614.4196777</ele>
        <time>2009-05-08T08:53:13Z</time>
      </trkpt>
      <trkpt lat="46.02991" lon="2.97094">
        <ele>612.9777832</ele>
        <time>2009-05-08T08:53:19Z</time>
      </trkpt>
      <trkpt lat="46.02988" lon="2.97098">
        <ele>612.9777832</ele>
        <time>2009-05-08T08:53:20Z</time>
      </trkpt>
      <trkpt lat="46.02971" lon="2.97118">
        <ele>611.5358887</ele>
        <time>2009-05-08T08:53:24Z</time>
      </trkpt>
      <trkpt lat="46.02939" lon="2.97155">
        <ele>611.0551758</ele>
        <time>2009-05-08T08:53:31Z</time>
      </trkpt>
      <trkpt lat="46.02917" lon="2.97183">
        <ele>611.5358887</ele>
        <time>2009-05-08T08:53:37Z</time>
      </trkpt>
      <trkpt lat="46.02899" lon="2.97205">
        <ele>611.5358887</ele>
        <time>2009-05-08T08:53:42Z</time>
      </trkpt>
      <trkpt lat="46.02888" lon="2.97218">
        <ele>612.0166016</ele>
        <time>2009-05-08T08:53:45Z</time>
      </trkpt>
      <trkpt lat="46.02876" lon="2.97231">
        <ele>612.9777832</ele>
        <time>2009-05-08T08:53:48Z</time>
      </trkpt>
      <trkpt lat="46.02854" lon="2.97237">
        <ele>612.9777832</ele>
        <time>2009-05-08T08:53:53Z</time>
      </trkpt>
      <trkpt lat="46.0285" lon="2.97236">
        <ele>612.9777832</ele>
        <time>2009-05-08T08:53:54Z</time>
      </trkpt>
      <trkpt lat="46.02841" lon="2.97232">
        <ele>613.9389648</ele>
        <time>2009-05-08T08:53:56Z</time>
      </trkpt>
      <trkpt lat="46.02809" lon="2.97213">
        <ele>615.3811035</ele>
        <time>2009-05-08T08:54:04Z</time>
      </trkpt>
      <trkpt lat="46.02804" lon="2.97211">
        <ele>615.3811035</ele>
        <time>2009-05-08T08:54:05Z</time>
      </trkpt>
      <trkpt lat="46.02774" lon="2.97194">
        <ele>615.3811035</ele>
        <time>2009-05-08T08:54:12Z</time>
      </trkpt>
      <trkpt lat="46.02755" lon="2.97184">
        <ele>614.4196777</ele>
        <time>2009-05-08T08:54:16Z</time>
      </trkpt>
      <trkpt lat="46.02738" lon="2.97178">
        <ele>614.4196777</ele>
        <time>2009-05-08T08:54:19Z</time>
      </trkpt>
      <trkpt lat="46.02713" lon="2.97172">
        <ele>614.4196777</ele>
        <time>2009-05-08T08:54:24Z</time>
      </trkpt>
      <trkpt lat="46.0271" lon="2.97169">
        <ele>614.9003906</ele>
        <time>2009-05-08T08:54:25Z</time>
      </trkpt>
      <trkpt lat="46.02689" lon="2.97155">
        <ele>616.822998</ele>
        <time>2009-05-08T08:54:32Z</time>
      </trkpt>
      <trkpt lat="46.02668" lon="2.97143">
        <ele>618.2648926</ele>
        <time>2009-05-08T08:54:40Z</time>
      </trkpt>
      <trkpt lat="46.02641" lon="2.97131">
        <ele>621.1491699</ele>
        <time>2009-05-08T08:54:49Z</time>
      </trkpt>
      <trkpt lat="46.02628" lon="2.97123">
        <ele>621.1491699</ele>
        <time>2009-05-08T08:54:54Z</time>
      </trkpt>
      <trkpt lat="46.02599" lon="2.97107">
        <ele>622.5910645</ele>
        <time>2009-05-08T08:55:04Z</time>
      </trkpt>
      <trkpt lat="46.0258" lon="2.97095">
        <ele>624.032959</ele>
        <time>2009-05-08T08:55:11Z</time>
      </trkpt>
      <trkpt lat="46.02564" lon="2.97079">
        <ele>624.9943848</ele>
        <time>2009-05-08T08:55:18Z</time>
      </trkpt>
      <trkpt lat="46.02552" lon="2.97059">
        <ele>625.4748535</ele>
        <time>2009-05-08T08:55:24Z</time>
      </trkpt>
      <trkpt lat="46.02546" lon="2.97036">
        <ele>626.4362793</ele>
        <time>2009-05-08T08:55:30Z</time>
      </trkpt>
      <trkpt lat="46.02535" lon="2.97008">
        <ele>629.3200684</ele>
        <time>2009-05-08T08:55:38Z</time>
      </trkpt>
      <trkpt lat="46.02526" lon="2.96989">
        <ele>629.3200684</ele>
        <time>2009-05-08T08:55:44Z</time>
      </trkpt>
      <trkpt lat="46.02515" lon="2.9697">
        <ele>630.762207</ele>
        <time>2009-05-08T08:55:50Z</time>
      </trkpt>
      <trkpt lat="46.02503" lon="2.96955">
        <ele>631.2429199</ele>
        <time>2009-05-08T08:55:56Z</time>
      </trkpt>
      <trkpt lat="46.02489" lon="2.96939">
        <ele>633.1652832</ele>
        <time>2009-05-08T08:56:02Z</time>
      </trkpt>
      <trkpt lat="46.02476" lon="2.96926">
        <ele>633.6459961</ele>
        <time>2009-05-08T08:56:07Z</time>
      </trkpt>
      <trkpt lat="46.02457" lon="2.96913">
        <ele>635.0881348</ele>
        <time>2009-05-08T08:56:13Z</time>
      </trkpt>
      <trkpt lat="46.02436" lon="2.9691">
        <ele>636.5302734</ele>
        <time>2009-05-08T08:56:19Z</time>
      </trkpt>
      <trkpt lat="46.02407" lon="2.96904">
        <ele>637.0107422</ele>
        <time>2009-05-08T08:56:27Z</time>
      </trkpt>
      <trkpt lat="46.0239" lon="2.96895">
        <ele>637.4914551</ele>
        <time>2009-05-08T08:56:32Z</time>
      </trkpt>
      <trkpt lat="46.02372" lon="2.96882">
        <ele>638.4528809</ele>
        <time>2009-05-08T08:56:38Z</time>
      </trkpt>
      <trkpt lat="46.02364" lon="2.96873">
        <ele>638.9335938</ele>
        <time>2009-05-08T08:56:41Z</time>
      </trkpt>
      <trkpt lat="46.02359" lon="2.96861">
        <ele>640.3754883</ele>
        <time>2009-05-08T08:56:47Z</time>
      </trkpt>
      <trkpt lat="46.02367" lon="2.96837">
        <ele>640.855957</ele>
        <time>2009-05-08T08:56:54Z</time>
      </trkpt>
      <trkpt lat="46.02374" lon="2.96819">
        <ele>640.855957</ele>
        <time>2009-05-08T08:56:59Z</time>
      </trkpt>
      <trkpt lat="46.02385" lon="2.96795">
        <ele>641.8173828</ele>
        <time>2009-05-08T08:57:06Z</time>
      </trkpt>
      <trkpt lat="46.02398" lon="2.96763">
        <ele>642.2980957</ele>
        <time>2009-05-08T08:57:15Z</time>
      </trkpt>
      <trkpt lat="46.02408" lon="2.9674">
        <ele>642.7788086</ele>
        <time>2009-05-08T08:57:22Z</time>
      </trkpt>
      <trkpt lat="46.02409" lon="2.96736">
        <ele>642.7788086</ele>
        <time>2009-05-08T08:57:24Z</time>
      </trkpt>
      <trkpt lat="46.02407" lon="2.96732">
        <ele>642.7788086</ele>
        <time>2009-05-08T08:57:27Z</time>
      </trkpt>
      <trkpt lat="46.02403" lon="2.96722">
        <ele>643.2592773</ele>
        <time>2009-05-08T08:57:33Z</time>
      </trkpt>
      <trkpt lat="46.02398" lon="2.96717">
        <ele>644.7011719</ele>
        <time>2009-05-08T08:57:40Z</time>
      </trkpt>
      <trkpt lat="46.02395" lon="2.96712">
        <ele>645.1818848</ele>
        <time>2009-05-08T08:57:47Z</time>
      </trkpt>
      <trkpt lat="46.02394" lon="2.96711">
        <ele>645.1818848</ele>
        <time>2009-05-08T08:57:48Z</time>
      </trkpt>
      <trkpt lat="46.02387" lon="2.96701">
        <ele>646.6240234</ele>
        <time>2009-05-08T08:57:55Z</time>
      </trkpt>
      <trkpt lat="46.02381" lon="2.96692">
        <ele>648.5463867</ele>
        <time>2009-05-08T08:58:00Z</time>
      </trkpt>
      <trkpt lat="46.02373" lon="2.9668">
        <ele>649.5078125</ele>
        <time>2009-05-08T08:58:07Z</time>
      </trkpt>
      <trkpt lat="46.0237" lon="2.96674">
        <ele>650.4692383</ele>
        <time>2009-05-08T08:58:10Z</time>
      </trkpt>
      <trkpt lat="46.02363" lon="2.9666">
        <ele>651.4304199</ele>
        <time>2009-05-08T08:58:17Z</time>
      </trkpt>
      <trkpt lat="46.02355" lon="2.96647">
        <ele>652.3918457</ele>
        <time>2009-05-08T08:58:23Z</time>
      </trkpt>
      <trkpt lat="46.0235" lon="2.96637">
        <ele>653.8339844</ele>
        <time>2009-05-08T08:58:28Z</time>
      </trkpt>
      <trkpt lat="46.02343" lon="2.96623">
        <ele>655.7565918</ele>
        <time>2009-05-08T08:58:35Z</time>
      </trkpt>
      <trkpt lat="46.02339" lon="2.96614">
        <ele>656.7177734</ele>
        <time>2009-05-08T08:58:40Z</time>
      </trkpt>
      <trkpt lat="46.02329" lon="2.96597">
        <ele>659.1210938</ele>
        <time>2009-05-08T08:58:49Z</time>
      </trkpt>
      <trkpt lat="46.02323" lon="2.96583">
        <ele>660.0822754</ele>
        <time>2009-05-08T08:58:55Z</time>
      </trkpt>
      <trkpt lat="46.02318" lon="2.96564">
        <ele>662.005127</ele>
        <time>2009-05-08T08:59:01Z</time>
      </trkpt>
      <trkpt lat="46.02317" lon="2.9656">
        <ele>662.9663086</ele>
        <time>2009-05-08T08:59:03Z</time>
      </trkpt>
      <trkpt lat="46.02315" lon="2.96545">
        <ele>663.9274902</ele>
        <time>2009-05-08T08:59:09Z</time>
      </trkpt>
      <trkpt lat="46.02314" lon="2.96534">
        <ele>664.888916</ele>
        <time>2009-05-08T08:59:14Z</time>
      </trkpt>
      <trkpt lat="46.02313" lon="2.96531">
        <ele>664.888916</ele>
        <time>2009-05-08T08:59:15Z</time>
      </trkpt>
      <trkpt lat="46.02311" lon="2.96512">
        <ele>665.8503418</ele>
        <time>2009-05-08T08:59:21Z</time>
      </trkpt>
      <trkpt lat="46.02309" lon="2.96498">
        <ele>666.3308105</ele>
        <time>2009-05-08T08:59:25Z</time>
      </trkpt>
      <trkpt lat="46.02308" lon="2.96488">
        <ele>667.2922363</ele>
        <time>2009-05-08T08:59:28Z</time>
      </trkpt>
      <trkpt lat="46.02307" lon="2.96469">
        <ele>669.2150879</ele>
        <time>2009-05-08T08:59:33Z</time>
      </trkpt>
      <trkpt lat="46.02306" lon="2.96462">
        <ele>669.6958008</ele>
        <time>2009-05-08T08:59:35Z</time>
      </trkpt>
      <trkpt lat="46.02306" lon="2.96455">
        <ele>669.2150879</ele>
        <time>2009-05-08T08:59:37Z</time>
      </trkpt>
      <trkpt lat="46.02303" lon="2.9643">
        <ele>670.1762695</ele>
        <time>2009-05-08T08:59:44Z</time>
      </trkpt>
      <trkpt lat="46.02302" lon="2.96425">
        <ele>670.6569824</ele>
        <time>2009-05-08T08:59:45Z</time>
      </trkpt>
      <trkpt lat="46.02299" lon="2.96407">
        <ele>672.098877</ele>
        <time>2009-05-08T08:59:50Z</time>
      </trkpt>
      <trkpt lat="46.02295" lon="2.96391">
        <ele>672.5795898</ele>
        <time>2009-05-08T08:59:55Z</time>
      </trkpt>
      <trkpt lat="46.02291" lon="2.96374">
        <ele>674.9829102</ele>
        <time>2009-05-08T09:00:00Z</time>
      </trkpt>
      <trkpt lat="46.02287" lon="2.96355">
        <ele>675.4633789</ele>
        <time>2009-05-08T09:00:06Z</time>
      </trkpt>
      <trkpt lat="46.02285" lon="2.9635">
        <ele>675.4633789</ele>
        <time>2009-05-08T09:00:10Z</time>
      </trkpt>
      <trkpt lat="46.02283" lon="2.96348">
        <ele>675.4633789</ele>
        <time>2009-05-08T09:00:18Z</time>
      </trkpt>
      <trkpt lat="46.02286" lon="2.96346">
        <ele>675.9440918</ele>
        <time>2009-05-08T09:00:25Z</time>
      </trkpt>
      <trkpt lat="46.02286" lon="2.96345">
        <ele>675.4633789</ele>
        <time>2009-05-08T09:00:33Z</time>
      </trkpt>
      <trkpt lat="46.02286" lon="2.9635">
        <ele>675.4633789</ele>
        <time>2009-05-08T09:01:38Z</time>
      </trkpt>
      <trkpt lat="46.02283" lon="2.96357">
        <ele>674.5021973</ele>
        <time>2009-05-08T09:01:57Z</time>
      </trkpt>
      <trkpt lat="46.02284" lon="2.9636">
        <ele>675.4633789</ele>
        <time>2009-05-08T09:02:47Z</time>
      </trkpt>
      <trkpt lat="46.02289" lon="2.96349">
        <ele>675.4633789</ele>
        <time>2009-05-08T09:03:10Z</time>
      </trkpt>
      <trkpt lat="46.02286" lon="2.9635">
        <ele>675.9440918</ele>
        <time>2009-05-08T09:03:26Z</time>
      </trkpt>
      <trkpt lat="46.02288" lon="2.96347">
        <ele>676.9055176</ele>
        <time>2009-05-08T09:04:26Z</time>
      </trkpt>
      <trkpt lat="46.02287" lon="2.96347">
        <ele>676.9055176</ele>
        <time>2009-05-08T09:04:27Z</time>
      </trkpt>
      <trkpt lat="46.02288" lon="2.96345">
        <ele>676.9055176</ele>
        <time>2009-05-08T09:05:16Z</time>
      </trkpt>
      <trkpt lat="46.02289" lon="2.96343">
        <ele>677.8666992</ele>
        <time>2009-05-08T09:05:33Z</time>
      </trkpt>
      <trkpt lat="46.02289" lon="2.96343">
        <ele>677.8666992</ele>
        <time>2009-05-08T09:05:34Z</time>
      </trkpt>
      <trkpt lat="46.02289" lon="2.9634">
        <ele>678.3474121</ele>
        <time>2009-05-08T09:05:58Z</time>
      </trkpt>
      <trkpt lat="46.0229" lon="2.96344">
        <ele>678.3474121</ele>
        <time>2009-05-08T09:06:13Z</time>
      </trkpt>
      <trkpt lat="46.02287" lon="2.96344">
        <ele>678.3474121</ele>
        <time>2009-05-08T09:06:19Z</time>
      </trkpt>
      <trkpt lat="46.02283" lon="2.96348">
        <ele>678.3474121</ele>
        <time>2009-05-08T09:06:30Z</time>
      </trkpt>
      <trkpt lat="46.02283" lon="2.96347">
        <ele>677.8666992</ele>
        <time>2009-05-08T09:06:34Z</time>
      </trkpt>
      <trkpt lat="46.02282" lon="2.96342">
        <ele>677.8666992</ele>
        <time>2009-05-08T09:06:42Z</time>
      </trkpt>
      <trkpt lat="46.02284" lon="2.96334">
        <ele>678.3474121</ele>
        <time>2009-05-08T09:06:48Z</time>
      </trkpt>
      <trkpt lat="46.02286" lon="2.96328">
        <ele>678.3474121</ele>
        <time>2009-05-08T09:06:55Z</time>
      </trkpt>
      <trkpt lat="46.02285" lon="2.96322">
        <ele>678.3474121</ele>
        <time>2009-05-08T09:07:05Z</time>
      </trkpt>
      <trkpt lat="46.02285" lon="2.96317">
        <ele>678.828125</ele>
        <time>2009-05-08T09:07:16Z</time>
      </trkpt>
      <trkpt lat="46.02286" lon="2.96315">
        <ele>677.8666992</ele>
        <time>2009-05-08T09:07:23Z</time>
      </trkpt>
      <trkpt lat="46.02284" lon="2.96311">
        <ele>678.3474121</ele>
        <time>2009-05-08T09:07:45Z</time>
      </trkpt>
      <trkpt lat="46.02284" lon="2.96309">
        <ele>679.3085938</ele>
        <time>2009-05-08T09:07:59Z</time>
      </trkpt>
      <trkpt lat="46.02284" lon="2.96309">
        <ele>679.3085938</ele>
        <time>2009-05-08T09:08:05Z</time>
      </trkpt>
      <trkpt lat="46.02284" lon="2.9631">
        <ele>679.3085938</ele>
        <time>2009-05-08T09:08:17Z</time>
      </trkpt>
      <trkpt lat="46.02283" lon="2.96307">
        <ele>679.3085938</ele>
        <time>2009-05-08T09:08:20Z</time>
      </trkpt>
      <trkpt lat="46.02283" lon="2.96298">
        <ele>679.3085938</ele>
        <time>2009-05-08T09:08:24Z</time>
      </trkpt>
      <trkpt lat="46.02282" lon="2.96289">
        <ele>679.3085938</ele>
        <time>2009-05-08T09:08:27Z</time>
      </trkpt>
      <trkpt lat="46.0228" lon="2.9627">
        <ele>679.3085938</ele>
        <time>2009-05-08T09:08:36Z</time>
      </trkpt>
      <trkpt lat="46.0228" lon="2.96267">
        <ele>679.3085938</ele>
        <time>2009-05-08T09:08:41Z</time>
      </trkpt>
      <trkpt lat="46.0228" lon="2.96268">
        <ele>679.3085938</ele>
        <time>2009-05-08T09:08:46Z</time>
      </trkpt>
      <trkpt lat="46.0228" lon="2.96267">
        <ele>678.828125</ele>
        <time>2009-05-08T09:09:02Z</time>
      </trkpt>
      <trkpt lat="46.02279" lon="2.96266">
        <ele>678.828125</ele>
        <time>2009-05-08T09:09:18Z</time>
      </trkpt>
      <trkpt lat="46.02279" lon="2.96266">
        <ele>679.3085938</ele>
        <time>2009-05-08T09:09:25Z</time>
      </trkpt>
      <trkpt lat="46.02279" lon="2.96265">
        <ele>678.828125</ele>
        <time>2009-05-08T09:09:34Z</time>
      </trkpt>
      <trkpt lat="46.02279" lon="2.96265">
        <ele>678.828125</ele>
        <time>2009-05-08T09:09:43Z</time>
      </trkpt>
      <trkpt lat="46.02279" lon="2.96264">
        <ele>678.828125</ele>
        <time>2009-05-08T09:10:03Z</time>
      </trkpt>
      <trkpt lat="46.02285" lon="2.96254">
        <ele>679.3085938</ele>
        <time>2009-05-08T09:10:08Z</time>
      </trkpt>
      <trkpt lat="46.02289" lon="2.96245">
        <ele>679.3085938</ele>
        <time>2009-05-08T09:10:11Z</time>
      </trkpt>
      <trkpt lat="46.02293" lon="2.96236">
        <ele>678.828125</ele>
        <time>2009-05-08T09:10:14Z</time>
      </trkpt>
      <trkpt lat="46.02295" lon="2.9623">
        <ele>678.828125</ele>
        <time>2009-05-08T09:10:16Z</time>
      </trkpt>
      <trkpt lat="46.023" lon="2.96212">
        <ele>678.828125</ele>
        <time>2009-05-08T09:10:21Z</time>
      </trkpt>
      <trkpt lat="46.02303" lon="2.96197">
        <ele>678.3474121</ele>
        <time>2009-05-08T09:10:24Z</time>
      </trkpt>
      <trkpt lat="46.02304" lon="2.96191">
        <ele>678.3474121</ele>
        <time>2009-05-08T09:10:25Z</time>
      </trkpt>
      <trkpt lat="46.0231" lon="2.96144">
        <ele>677.3862305</ele>
        <time>2009-05-08T09:10:32Z</time>
      </trkpt>
      <trkpt lat="46.02314" lon="2.96096">
        <ele>676.4248047</ele>
        <time>2009-05-08T09:10:38Z</time>
      </trkpt>
      <trkpt lat="46.02315" lon="2.96035">
        <ele>675.4633789</ele>
        <time>2009-05-08T09:10:45Z</time>
      </trkpt>
      <trkpt lat="46.02315" lon="2.95964">
        <ele>674.9829102</ele>
        <time>2009-05-08T09:10:53Z</time>
      </trkpt>
      <trkpt lat="46.02317" lon="2.95911">
        <ele>674.9829102</ele>
        <time>2009-05-08T09:10:59Z</time>
      </trkpt>
      <trkpt lat="46.0233" lon="2.95837">
        <ele>674.0214844</ele>
        <time>2009-05-08T09:11:08Z</time>
      </trkpt>
      <trkpt lat="46.02342" lon="2.9579">
        <ele>673.5410156</ele>
        <time>2009-05-08T09:11:14Z</time>
      </trkpt>
      <trkpt lat="46.02347" lon="2.95779">
        <ele>673.0603027</ele>
        <time>2009-05-08T09:11:17Z</time>
      </trkpt>
      <trkpt lat="46.02348" lon="2.95778">
        <ele>674.0214844</ele>
        <time>2009-05-08T09:11:19Z</time>
      </trkpt>
      <trkpt lat="46.02352" lon="2.95762">
        <ele>673.5410156</ele>
        <time>2009-05-08T09:11:24Z</time>
      </trkpt>
      <trkpt lat="46.0236" lon="2.95727">
        <ele>674.5021973</ele>
        <time>2009-05-08T09:11:30Z</time>
      </trkpt>
      <trkpt lat="46.02367" lon="2.95691">
        <ele>674.5021973</ele>
        <time>2009-05-08T09:11:35Z</time>
      </trkpt>
      <trkpt lat="46.02371" lon="2.95676">
        <ele>674.5021973</ele>
        <time>2009-05-08T09:11:37Z</time>
      </trkpt>
      <trkpt lat="46.02391" lon="2.95595">
        <ele>674.0214844</ele>
        <time>2009-05-08T09:11:48Z</time>
      </trkpt>
      <trkpt lat="46.02412" lon="2.95552">
        <ele>674.9829102</ele>
        <time>2009-05-08T09:11:55Z</time>
      </trkpt>
      <trkpt lat="46.02424" lon="2.95512">
        <ele>675.9440918</ele>
        <time>2009-05-08T09:12:01Z</time>
      </trkpt>
      <trkpt lat="46.02428" lon="2.95491">
        <ele>676.4248047</ele>
        <time>2009-05-08T09:12:04Z</time>
      </trkpt>
      <trkpt lat="46.02431" lon="2.95456">
        <ele>676.9055176</ele>
        <time>2009-05-08T09:12:09Z</time>
      </trkpt>
      <trkpt lat="46.02432" lon="2.95405">
        <ele>676.9055176</ele>
        <time>2009-05-08T09:12:16Z</time>
      </trkpt>
      <trkpt lat="46.02433" lon="2.95376">
        <ele>676.9055176</ele>
        <time>2009-05-08T09:12:20Z</time>
      </trkpt>
      <trkpt lat="46.02429" lon="2.95347">
        <ele>677.3862305</ele>
        <time>2009-05-08T09:12:24Z</time>
      </trkpt>
      <trkpt lat="46.02421" lon="2.95302">
        <ele>677.8666992</ele>
        <time>2009-05-08T09:12:30Z</time>
      </trkpt>
      <trkpt lat="46.02412" lon="2.95257">
        <ele>678.3474121</ele>
        <time>2009-05-08T09:12:36Z</time>
      </trkpt>
      <trkpt lat="46.02414" lon="2.9522">
        <ele>678.3474121</ele>
        <time>2009-05-08T09:12:41Z</time>
      </trkpt>
      <trkpt lat="46.02417" lon="2.95214">
        <ele>678.828125</ele>
        <time>2009-05-08T09:12:42Z</time>
      </trkpt>
      <trkpt lat="46.02423" lon="2.95202">
        <ele>679.3085938</ele>
        <time>2009-05-08T09:12:44Z</time>
      </trkpt>
      <trkpt lat="46.02432" lon="2.95162">
        <ele>679.3085938</ele>
        <time>2009-05-08T09:12:50Z</time>
      </trkpt>
      <trkpt lat="46.02432" lon="2.95155">
        <ele>680.2700195</ele>
        <time>2009-05-08T09:12:51Z</time>
      </trkpt>
      <trkpt lat="46.02426" lon="2.95101">
        <ele>681.7119141</ele>
        <time>2009-05-08T09:13:00Z</time>
      </trkpt>
      <trkpt lat="46.02416" lon="2.95061">
        <ele>684.1154785</ele>
        <time>2009-05-08T09:13:09Z</time>
      </trkpt>
      <trkpt lat="46.02416" lon="2.95036">
        <ele>685.0769043</ele>
        <time>2009-05-08T09:13:15Z</time>
      </trkpt>
      <trkpt lat="46.02424" lon="2.95004">
        <ele>686.5187988</ele>
        <time>2009-05-08T09:13:22Z</time>
      </trkpt>
      <trkpt lat="46.02437" lon="2.94968">
        <ele>687.4799805</ele>
        <time>2009-05-08T09:13:30Z</time>
      </trkpt>
      <trkpt lat="46.02453" lon="2.94923">
        <ele>687.9606934</ele>
        <time>2009-05-08T09:13:39Z</time>
      </trkpt>
      <trkpt lat="46.02465" lon="2.9487">
        <ele>689.4025879</ele>
        <time>2009-05-08T09:13:49Z</time>
      </trkpt>
      <trkpt lat="46.02468" lon="2.9484">
        <ele>690.3640137</ele>
        <time>2009-05-08T09:13:55Z</time>
      </trkpt>
      <trkpt lat="46.0247" lon="2.94799">
        <ele>692.2866211</ele>
        <time>2009-05-08T09:14:03Z</time>
      </trkpt>
      <trkpt lat="46.02476" lon="2.94749">
        <ele>692.2866211</ele>
        <time>2009-05-08T09:14:12Z</time>
      </trkpt>
      <trkpt lat="46.02482" lon="2.94716">
        <ele>693.2478027</ele>
        <time>2009-05-08T09:14:18Z</time>
      </trkpt>
      <trkpt lat="46.0249" lon="2.94692">
        <ele>692.767334</ele>
        <time>2009-05-08T09:14:22Z</time>
      </trkpt>
      <trkpt lat="46.02511" lon="2.9465">
        <ele>691.3251953</ele>
        <time>2009-05-08T09:14:29Z</time>
      </trkpt>
      <trkpt lat="46.02529" lon="2.946">
        <ele>689.8833008</ele>
        <time>2009-05-08T09:14:35Z</time>
      </trkpt>
      <trkpt lat="46.02543" lon="2.94555">
        <ele>689.4025879</ele>
        <time>2009-05-08T09:14:40Z</time>
      </trkpt>
      <trkpt lat="46.02564" lon="2.94529">
        <ele>687.4799805</ele>
        <time>2009-05-08T09:14:44Z</time>
      </trkpt>
      <trkpt lat="46.02577" lon="2.9452">
        <ele>686.5187988</ele>
        <time>2009-05-08T09:14:46Z</time>
      </trkpt>
      <trkpt lat="46.02593" lon="2.94509">
        <ele>685.557373</ele>
        <time>2009-05-08T09:14:48Z</time>
      </trkpt>
      <trkpt lat="46.02601" lon="2.94503">
        <ele>685.557373</ele>
        <time>2009-05-08T09:14:49Z</time>
      </trkpt>
      <trkpt lat="46.02617" lon="2.94491">
        <ele>684.5961914</ele>
        <time>2009-05-08T09:14:51Z</time>
      </trkpt>
      <trkpt lat="46.02625" lon="2.94485">
        <ele>683.6345215</ele>
        <time>2009-05-08T09:14:52Z</time>
      </trkpt>
      <trkpt lat="46.02649" lon="2.94468">
        <ele>681.7119141</ele>
        <time>2009-05-08T09:14:55Z</time>
      </trkpt>
      <trkpt lat="46.02673" lon="2.94434">
        <ele>679.7893066</ele>
        <time>2009-05-08T09:14:59Z</time>
      </trkpt>
      <trkpt lat="46.02681" lon="2.94412">
        <ele>678.3474121</ele>
        <time>2009-05-08T09:15:01Z</time>
      </trkpt>
      <trkpt lat="46.02688" lon="2.94388">
        <ele>677.8666992</ele>
        <time>2009-05-08T09:15:03Z</time>
      </trkpt>
      <trkpt lat="46.02691" lon="2.94376">
        <ele>676.4248047</ele>
        <time>2009-05-08T09:15:04Z</time>
      </trkpt>
      <trkpt lat="46.02696" lon="2.94349">
        <ele>674.0214844</ele>
        <time>2009-05-08T09:15:06Z</time>
      </trkpt>
      <trkpt lat="46.02697" lon="2.94334">
        <ele>674.5021973</ele>
        <time>2009-05-08T09:15:07Z</time>
      </trkpt>
      <trkpt lat="46.02698" lon="2.94321">
        <ele>673.5410156</ele>
        <time>2009-05-08T09:15:08Z</time>
      </trkpt>
      <trkpt lat="46.02695" lon="2.94279">
        <ele>671.1376953</ele>
        <time>2009-05-08T09:15:11Z</time>
      </trkpt>
      <trkpt lat="46.02677" lon="2.94248">
        <ele>667.7727051</ele>
        <time>2009-05-08T09:15:14Z</time>
      </trkpt>
      <trkpt lat="46.0266" lon="2.94234">
        <ele>666.3308105</ele>
        <time>2009-05-08T09:15:16Z</time>
      </trkpt>
      <trkpt lat="46.02647" lon="2.94215">
        <ele>665.3696289</ele>
        <time>2009-05-08T09:15:18Z</time>
      </trkpt>
      <trkpt lat="46.02638" lon="2.94172">
        <ele>664.888916</ele>
        <time>2009-05-08T09:15:22Z</time>
      </trkpt>
      <trkpt lat="46.02637" lon="2.94153">
        <ele>665.3696289</ele>
        <time>2009-05-08T09:15:24Z</time>
      </trkpt>
      <trkpt lat="46.02646" lon="2.94146">
        <ele>664.888916</ele>
        <time>2009-05-08T09:15:27Z</time>
      </trkpt>
      <trkpt lat="46.02664" lon="2.94131">
        <ele>665.8503418</ele>
        <time>2009-05-08T09:15:31Z</time>
      </trkpt>
      <trkpt lat="46.02671" lon="2.94122">
        <ele>666.3308105</ele>
        <time>2009-05-08T09:15:34Z</time>
      </trkpt>
      <trkpt lat="46.02676" lon="2.94116">
        <ele>667.2922363</ele>
        <time>2009-05-08T09:15:36Z</time>
      </trkpt>
      <trkpt lat="46.02681" lon="2.94112">
        <ele>667.7727051</ele>
        <time>2009-05-08T09:15:38Z</time>
      </trkpt>
      <trkpt lat="46.02688" lon="2.94103">
        <ele>669.6958008</ele>
        <time>2009-05-08T09:15:41Z</time>
      </trkpt>
      <trkpt lat="46.02694" lon="2.94096">
        <ele>670.6569824</ele>
        <time>2009-05-08T09:15:44Z</time>
      </trkpt>
      <trkpt lat="46.02695" lon="2.94094">
        <ele>670.6569824</ele>
        <time>2009-05-08T09:15:45Z</time>
      </trkpt>
      <trkpt lat="46.027" lon="2.94082">
        <ele>672.098877</ele>
        <time>2009-05-08T09:15:50Z</time>
      </trkpt>
      <trkpt lat="46.02705" lon="2.94068">
        <ele>673.5410156</ele>
        <time>2009-05-08T09:15:54Z</time>
      </trkpt>
      <trkpt lat="46.02709" lon="2.94057">
        <ele>674.9829102</ele>
        <time>2009-05-08T09:15:57Z</time>
      </trkpt>
      <trkpt lat="46.02719" lon="2.9403">
        <ele>676.4248047</ele>
        <time>2009-05-08T09:16:04Z</time>
      </trkpt>
      <trkpt lat="46.02725" lon="2.94009">
        <ele>676.9055176</ele>
        <time>2009-05-08T09:16:09Z</time>
      </trkpt>
      <trkpt lat="46.0273" lon="2.93988">
        <ele>675.9440918</ele>
        <time>2009-05-08T09:16:13Z</time>
      </trkpt>
      <trkpt lat="46.02737" lon="2.93954">
        <ele>676.9055176</ele>
        <time>2009-05-08T09:16:19Z</time>
      </trkpt>
      <trkpt lat="46.02744" lon="2.93925">
        <ele>678.3474121</ele>
        <time>2009-05-08T09:16:25Z</time>
      </trkpt>
      <trkpt lat="46.02755" lon="2.93885">
        <ele>678.3474121</ele>
        <time>2009-05-08T09:16:33Z</time>
      </trkpt>
      <trkpt lat="46.0277" lon="2.93849">
        <ele>677.3862305</ele>
        <time>2009-05-08T09:16:39Z</time>
      </trkpt>
      <trkpt lat="46.02794" lon="2.93798">
        <ele>676.9055176</ele>
        <time>2009-05-08T09:16:47Z</time>
      </trkpt>
      <trkpt lat="46.02815" lon="2.93772">
        <ele>675.4633789</ele>
        <time>2009-05-08T09:16:52Z</time>
      </trkpt>
      <trkpt lat="46.0283" lon="2.93746">
        <ele>674.5021973</ele>
        <time>2009-05-08T09:16:56Z</time>
      </trkpt>
      <trkpt lat="46.02846" lon="2.93715">
        <ele>672.098877</ele>
        <time>2009-05-08T09:17:00Z</time>
      </trkpt>
      <trkpt lat="46.02851" lon="2.93706">
        <ele>672.098877</ele>
        <time>2009-05-08T09:17:01Z</time>
      </trkpt>
      <trkpt lat="46.02861" lon="2.93688">
        <ele>671.1376953</ele>
        <time>2009-05-08T09:17:03Z</time>
      </trkpt>
      <trkpt lat="46.02867" lon="2.93679">
        <ele>669.6958008</ele>
        <time>2009-05-08T09:17:04Z</time>
      </trkpt>
      <trkpt lat="46.02879" lon="2.93664">
        <ele>668.734375</ele>
        <time>2009-05-08T09:17:06Z</time>
      </trkpt>
      <trkpt lat="46.02889" lon="2.93648">
        <ele>667.7727051</ele>
        <time>2009-05-08T09:17:08Z</time>
      </trkpt>
      <trkpt lat="46.02893" lon="2.93629">
        <ele>667.2922363</ele>
        <time>2009-05-08T09:17:10Z</time>
      </trkpt>
      <trkpt lat="46.02894" lon="2.93598">
        <ele>665.8503418</ele>
        <time>2009-05-08T09:17:13Z</time>
      </trkpt>
      <trkpt lat="46.02895" lon="2.93587">
        <ele>664.4082031</ele>
        <time>2009-05-08T09:17:14Z</time>
      </trkpt>
      <trkpt lat="46.02896" lon="2.93576">
        <ele>665.3696289</ele>
        <time>2009-05-08T09:17:15Z</time>
      </trkpt>
      <trkpt lat="46.02899" lon="2.93541">
        <ele>661.0437012</ele>
        <time>2009-05-08T09:17:18Z</time>
      </trkpt>
      <trkpt lat="46.02896" lon="2.93506">
        <ele>657.6791992</ele>
        <time>2009-05-08T09:17:21Z</time>
      </trkpt>
      <trkpt lat="46.02894" lon="2.93497">
        <ele>656.2370605</ele>
        <time>2009-05-08T09:17:22Z</time>
      </trkpt>
      <trkpt lat="46.029" lon="2.93459">
        <ele>652.8725586</ele>
        <time>2009-05-08T09:17:26Z</time>
      </trkpt>
      <trkpt lat="46.02912" lon="2.93424">
        <ele>649.5078125</ele>
        <time>2009-05-08T09:17:29Z</time>
      </trkpt>
      <trkpt lat="46.02917" lon="2.93375">
        <ele>644.2207031</ele>
        <time>2009-05-08T09:17:32Z</time>
      </trkpt>
      <trkpt lat="46.0292" lon="2.93347">
        <ele>640.3754883</ele>
        <time>2009-05-08T09:17:34Z</time>
      </trkpt>
      <trkpt lat="46.02921" lon="2.93334">
        <ele>638.4528809</ele>
        <time>2009-05-08T09:17:35Z</time>
      </trkpt>
      <trkpt lat="46.02922" lon="2.93308">
        <ele>637.0107422</ele>
        <time>2009-05-08T09:17:37Z</time>
      </trkpt>
      <trkpt lat="46.02916" lon="2.93267">
        <ele>634.6074219</ele>
        <time>2009-05-08T09:17:40Z</time>
      </trkpt>
      <trkpt lat="46.02909" lon="2.93227">
        <ele>631.2429199</ele>
        <time>2009-05-08T09:17:43Z</time>
      </trkpt>
      <trkpt lat="46.02907" lon="2.93218">
        <ele>629.8007813</ele>
        <time>2009-05-08T09:17:44Z</time>
      </trkpt>
      <trkpt lat="46.02905" lon="2.93212">
        <ele>628.8395996</ele>
        <time>2009-05-08T09:17:45Z</time>
      </trkpt>
      <trkpt lat="46.029" lon="2.93206">
        <ele>628.3588867</ele>
        <time>2009-05-08T09:17:47Z</time>
      </trkpt>
      <trkpt lat="46.02892" lon="2.93211">
        <ele>628.8395996</ele>
        <time>2009-05-08T09:17:50Z</time>
      </trkpt>
      <trkpt lat="46.02869" lon="2.93228">
        <ele>630.2814941</ele>
        <time>2009-05-08T09:17:57Z</time>
      </trkpt>
      <trkpt lat="46.02853" lon="2.93238">
        <ele>630.762207</ele>
        <time>2009-05-08T09:18:01Z</time>
      </trkpt>
      <trkpt lat="46.0284" lon="2.93244">
        <ele>631.2429199</ele>
        <time>2009-05-08T09:18:04Z</time>
      </trkpt>
      <trkpt lat="46.02836" lon="2.93246">
        <ele>631.2429199</ele>
        <time>2009-05-08T09:18:05Z</time>
      </trkpt>
      <trkpt lat="46.02832" lon="2.93248">
        <ele>631.2429199</ele>
        <time>2009-05-08T09:18:06Z</time>
      </trkpt>
      <trkpt lat="46.02813" lon="2.9325">
        <ele>631.7233887</ele>
        <time>2009-05-08T09:18:10Z</time>
      </trkpt>
      <trkpt lat="46.0277" lon="2.93249">
        <ele>631.2429199</ele>
        <time>2009-05-08T09:18:18Z</time>
      </trkpt>
      <trkpt lat="46.02726" lon="2.93249">
        <ele>631.7233887</ele>
        <time>2009-05-08T09:18:26Z</time>
      </trkpt>
      <trkpt lat="46.02674" lon="2.9325">
        <ele>632.2041016</ele>
        <time>2009-05-08T09:18:36Z</time>
      </trkpt>
      <trkpt lat="46.02652" lon="2.93248">
        <ele>633.1652832</ele>
        <time>2009-05-08T09:18:41Z</time>
      </trkpt>
      <trkpt lat="46.02617" lon="2.93251">
        <ele>635.0881348</ele>
        <time>2009-05-08T09:18:49Z</time>
      </trkpt>
      <trkpt lat="46.02584" lon="2.9325">
        <ele>635.5686035</ele>
        <time>2009-05-08T09:18:57Z</time>
      </trkpt>
      <trkpt lat="46.0258" lon="2.93248">
        <ele>635.5686035</ele>
        <time>2009-05-08T09:18:58Z</time>
      </trkpt>
      <trkpt lat="46.02554" lon="2.93239">
        <ele>635.0881348</ele>
        <time>2009-05-08T09:19:04Z</time>
      </trkpt>
      <trkpt lat="46.02525" lon="2.93228">
        <ele>634.6074219</ele>
        <time>2009-05-08T09:19:11Z</time>
      </trkpt>
      <trkpt lat="46.02502" lon="2.93224">
        <ele>635.0881348</ele>
        <time>2009-05-08T09:19:18Z</time>
      </trkpt>
      <trkpt lat="46.02494" lon="2.93231">
        <ele>636.5302734</ele>
        <time>2009-05-08T09:19:22Z</time>
      </trkpt>
      <trkpt lat="46.02489" lon="2.93242">
        <ele>637.972168</ele>
        <time>2009-05-08T09:19:28Z</time>
      </trkpt>
      <trkpt lat="46.02485" lon="2.93252">
        <ele>639.8947754</ele>
        <time>2009-05-08T09:19:34Z</time>
      </trkpt>
      <trkpt lat="46.0248" lon="2.93258">
        <ele>640.855957</ele>
        <time>2009-05-08T09:19:39Z</time>
      </trkpt>
      <trkpt lat="46.0247" lon="2.93259">
        <ele>642.2980957</ele>
        <time>2009-05-08T09:19:45Z</time>
      </trkpt>
      <trkpt lat="46.0246" lon="2.93255">
        <ele>643.7399902</ele>
        <time>2009-05-08T09:19:51Z</time>
      </trkpt>
      <trkpt lat="46.0245" lon="2.93252">
        <ele>644.2207031</ele>
        <time>2009-05-08T09:19:57Z</time>
      </trkpt>
      <trkpt lat="46.02435" lon="2.93246">
        <ele>645.6625977</ele>
        <time>2009-05-08T09:20:04Z</time>
      </trkpt>
      <trkpt lat="46.02423" lon="2.93241">
        <ele>646.6240234</ele>
        <time>2009-05-08T09:20:09Z</time>
      </trkpt>
      <trkpt lat="46.02413" lon="2.93236">
        <ele>647.1044922</ele>
        <time>2009-05-08T09:20:14Z</time>
      </trkpt>
      <trkpt lat="46.02407" lon="2.93234">
        <ele>647.5852051</ele>
        <time>2009-05-08T09:20:19Z</time>
      </trkpt>
      <trkpt lat="46.02399" lon="2.93234">
        <ele>648.5463867</ele>
        <time>2009-05-08T09:20:24Z</time>
      </trkpt>
      <trkpt lat="46.02388" lon="2.93227">
        <ele>649.0270996</ele>
        <time>2009-05-08T09:20:31Z</time>
      </trkpt>
      <trkpt lat="46.02377" lon="2.9322">
        <ele>648.5463867</ele>
        <time>2009-05-08T09:20:37Z</time>
      </trkpt>
      <trkpt lat="46.02365" lon="2.9321">
        <ele>648.5463867</ele>
        <time>2009-05-08T09:20:43Z</time>
      </trkpt>
      <trkpt lat="46.02357" lon="2.93204">
        <ele>649.5078125</ele>
        <time>2009-05-08T09:20:49Z</time>
      </trkpt>
      <trkpt lat="46.02355" lon="2.93203">
        <ele>649.9885254</ele>
        <time>2009-05-08T09:20:55Z</time>
      </trkpt>
      <trkpt lat="46.0235" lon="2.93199">
        <ele>650.949707</ele>
        <time>2009-05-08T09:21:02Z</time>
      </trkpt>
      <trkpt lat="46.02349" lon="2.93198">
        <ele>650.949707</ele>
        <time>2009-05-08T09:21:03Z</time>
      </trkpt>
      <trkpt lat="46.02341" lon="2.9319">
        <ele>651.9111328</ele>
        <time>2009-05-08T09:21:12Z</time>
      </trkpt>
      <trkpt lat="46.02334" lon="2.93184">
        <ele>652.8725586</ele>
        <time>2009-05-08T09:21:20Z</time>
      </trkpt>
      <trkpt lat="46.02331" lon="2.93183">
        <ele>652.8725586</ele>
        <time>2009-05-08T09:21:25Z</time>
      </trkpt>
      <trkpt lat="46.02323" lon="2.9318">
        <ele>653.3532715</ele>
        <time>2009-05-08T09:21:31Z</time>
      </trkpt>
      <trkpt lat="46.02314" lon="2.93173">
        <ele>653.8339844</ele>
        <time>2009-05-08T09:21:37Z</time>
      </trkpt>
      <trkpt lat="46.02309" lon="2.93171">
        <ele>654.3146973</ele>
        <time>2009-05-08T09:21:40Z</time>
      </trkpt>
      <trkpt lat="46.023" lon="2.93167">
        <ele>654.795166</ele>
        <time>2009-05-08T09:21:45Z</time>
      </trkpt>
      <trkpt lat="46.02293" lon="2.93161">
        <ele>654.3146973</ele>
        <time>2009-05-08T09:21:48Z</time>
      </trkpt>
      <trkpt lat="46.02271" lon="2.93151">
        <ele>653.3532715</ele>
        <time>2009-05-08T09:21:55Z</time>
      </trkpt>
      <trkpt lat="46.02267" lon="2.93153">
        <ele>653.3532715</ele>
        <time>2009-05-08T09:21:57Z</time>
      </trkpt>
      <trkpt lat="46.02263" lon="2.93152">
        <ele>653.3532715</ele>
        <time>2009-05-08T09:22:00Z</time>
      </trkpt>
      <trkpt lat="46.02251" lon="2.93152">
        <ele>653.3532715</ele>
        <time>2009-05-08T09:22:08Z</time>
      </trkpt>
      <trkpt lat="46.0225" lon="2.93152">
        <ele>653.3532715</ele>
        <time>2009-05-08T09:22:12Z</time>
      </trkpt>
      <trkpt lat="46.02241" lon="2.93153">
        <ele>652.8725586</ele>
        <time>2009-05-08T09:22:17Z</time>
      </trkpt>
      <trkpt lat="46.02231" lon="2.93153">
        <ele>653.3532715</ele>
        <time>2009-05-08T09:22:22Z</time>
      </trkpt>
      <trkpt lat="46.02222" lon="2.93153">
        <ele>653.3532715</ele>
        <time>2009-05-08T09:22:27Z</time>
      </trkpt>
      <trkpt lat="46.02219" lon="2.93153">
        <ele>653.3532715</ele>
        <time>2009-05-08T09:22:32Z</time>
      </trkpt>
      <trkpt lat="46.0221" lon="2.93154">
        <ele>653.3532715</ele>
        <time>2009-05-08T09:22:38Z</time>
      </trkpt>
      <trkpt lat="46.02209" lon="2.93154">
        <ele>653.3532715</ele>
        <time>2009-05-08T09:22:39Z</time>
      </trkpt>
      <trkpt lat="46.02198" lon="2.93156">
        <ele>653.3532715</ele>
        <time>2009-05-08T09:22:46Z</time>
      </trkpt>
      <trkpt lat="46.02187" lon="2.93158">
        <ele>653.3532715</ele>
        <time>2009-05-08T09:22:51Z</time>
      </trkpt>
      <trkpt lat="46.0217" lon="2.93163">
        <ele>653.3532715</ele>
        <time>2009-05-08T09:22:57Z</time>
      </trkpt>
      <trkpt lat="46.02157" lon="2.93168">
        <ele>653.3532715</ele>
        <time>2009-05-08T09:23:02Z</time>
      </trkpt>
      <trkpt lat="46.02135" lon="2.93176">
        <ele>653.8339844</ele>
        <time>2009-05-08T09:23:10Z</time>
      </trkpt>
      <trkpt lat="46.02117" lon="2.93183">
        <ele>654.795166</ele>
        <time>2009-05-08T09:23:17Z</time>
      </trkpt>
      <trkpt lat="46.02103" lon="2.93183">
        <ele>654.3146973</ele>
        <time>2009-05-08T09:23:22Z</time>
      </trkpt>
      <trkpt lat="46.02088" lon="2.9318">
        <ele>653.8339844</ele>
        <time>2009-05-08T09:23:27Z</time>
      </trkpt>
      <trkpt lat="46.02074" lon="2.93181">
        <ele>653.8339844</ele>
        <time>2009-05-08T09:23:33Z</time>
      </trkpt>
      <trkpt lat="46.02057" lon="2.9318">
        <ele>653.3532715</ele>
        <time>2009-05-08T09:23:39Z</time>
      </trkpt>
      <trkpt lat="46.0204" lon="2.93177">
        <ele>653.8339844</ele>
        <time>2009-05-08T09:23:45Z</time>
      </trkpt>
      <trkpt lat="46.0202" lon="2.93171">
        <ele>654.3146973</ele>
        <time>2009-05-08T09:23:51Z</time>
      </trkpt>
      <trkpt lat="46.02004" lon="2.93163">
        <ele>654.795166</ele>
        <time>2009-05-08T09:23:56Z</time>
      </trkpt>
      <trkpt lat="46.01988" lon="2.93154">
        <ele>655.7565918</ele>
        <time>2009-05-08T09:24:01Z</time>
      </trkpt>
      <trkpt lat="46.01964" lon="2.93144">
        <ele>656.2370605</ele>
        <time>2009-05-08T09:24:08Z</time>
      </trkpt>
      <trkpt lat="46.01945" lon="2.93137">
        <ele>658.1599121</ele>
        <time>2009-05-08T09:24:15Z</time>
      </trkpt>
      <trkpt lat="46.01927" lon="2.93129">
        <ele>661.0437012</ele>
        <time>2009-05-08T09:24:23Z</time>
      </trkpt>
      <trkpt lat="46.01912" lon="2.9312">
        <ele>662.9663086</ele>
        <time>2009-05-08T09:24:30Z</time>
      </trkpt>
      <trkpt lat="46.01895" lon="2.93109">
        <ele>664.888916</ele>
        <time>2009-05-08T09:24:38Z</time>
      </trkpt>
      <trkpt lat="46.01879" lon="2.93097">
        <ele>666.8115234</ele>
        <time>2009-05-08T09:24:46Z</time>
      </trkpt>
      <trkpt lat="46.0186" lon="2.93085">
        <ele>667.2922363</ele>
        <time>2009-05-08T09:24:54Z</time>
      </trkpt>
      <trkpt lat="46.0184" lon="2.93072">
        <ele>666.3308105</ele>
        <time>2009-05-08T09:25:01Z</time>
      </trkpt>
      <trkpt lat="46.01829" lon="2.93064">
        <ele>665.8503418</ele>
        <time>2009-05-08T09:25:04Z</time>
      </trkpt>
      <trkpt lat="46.018" lon="2.9305">
        <ele>662.9663086</ele>
        <time>2009-05-08T09:25:09Z</time>
      </trkpt>
      <trkpt lat="46.01771" lon="2.9305">
        <ele>659.1210938</ele>
        <time>2009-05-08T09:25:13Z</time>
      </trkpt>
      <trkpt lat="46.01753" lon="2.93056">
        <ele>658.1599121</ele>
        <time>2009-05-08T09:25:15Z</time>
      </trkpt>
      <trkpt lat="46.01733" lon="2.93061">
        <ele>656.2370605</ele>
        <time>2009-05-08T09:25:17Z</time>
      </trkpt>
      <trkpt lat="46.01714" lon="2.93057">
        <ele>655.2758789</ele>
        <time>2009-05-08T09:25:19Z</time>
      </trkpt>
      <trkpt lat="46.01704" lon="2.93052">
        <ele>652.3918457</ele>
        <time>2009-05-08T09:25:20Z</time>
      </trkpt>
      <trkpt lat="46.01695" lon="2.93046">
        <ele>652.8725586</ele>
        <time>2009-05-08T09:25:21Z</time>
      </trkpt>
      <trkpt lat="46.01686" lon="2.93039">
        <ele>650.949707</ele>
        <time>2009-05-08T09:25:22Z</time>
      </trkpt>
      <trkpt lat="46.01643" lon="2.93033">
        <ele>645.1818848</ele>
        <time>2009-05-08T09:25:26Z</time>
      </trkpt>
      <trkpt lat="46.01619" lon="2.93039">
        <ele>642.7788086</ele>
        <time>2009-05-08T09:25:28Z</time>
      </trkpt>
      <trkpt lat="46.01586" lon="2.93044">
        <ele>641.3366699</ele>
        <time>2009-05-08T09:25:31Z</time>
      </trkpt>
      <trkpt lat="46.01578" lon="2.93046">
        <ele>640.855957</ele>
        <time>2009-05-08T09:25:32Z</time>
      </trkpt>
      <trkpt lat="46.01565" lon="2.93043">
        <ele>639.4140625</ele>
        <time>2009-05-08T09:25:34Z</time>
      </trkpt>
      <trkpt lat="46.01553" lon="2.93019">
        <ele>637.972168</ele>
        <time>2009-05-08T09:25:37Z</time>
      </trkpt>
      <trkpt lat="46.01549" lon="2.92985">
        <ele>635.5686035</ele>
        <time>2009-05-08T09:25:40Z</time>
      </trkpt>
      <trkpt lat="46.01559" lon="2.92952">
        <ele>632.6848145</ele>
        <time>2009-05-08T09:25:43Z</time>
      </trkpt>
      <trkpt lat="46.01566" lon="2.92945">
        <ele>633.1652832</ele>
        <time>2009-05-08T09:25:44Z</time>
      </trkpt>
      <trkpt lat="46.01583" lon="2.92923">
        <ele>632.2041016</ele>
        <time>2009-05-08T09:25:47Z</time>
      </trkpt>
      <trkpt lat="46.0159" lon="2.92894">
        <ele>631.2429199</ele>
        <time>2009-05-08T09:25:50Z</time>
      </trkpt>
      <trkpt lat="46.0159" lon="2.92884">
        <ele>630.762207</ele>
        <time>2009-05-08T09:25:51Z</time>
      </trkpt>
      <trkpt lat="46.01586" lon="2.92853">
        <ele>629.8007813</ele>
        <time>2009-05-08T09:25:54Z</time>
      </trkpt>
      <trkpt lat="46.01583" lon="2.92843">
        <ele>627.8781738</ele>
        <time>2009-05-08T09:25:55Z</time>
      </trkpt>
      <trkpt lat="46.01581" lon="2.92802">
        <ele>624.5136719</ele>
        <time>2009-05-08T09:26:00Z</time>
      </trkpt>
      <trkpt lat="46.01584" lon="2.92795">
        <ele>624.9943848</ele>
        <time>2009-05-08T09:26:01Z</time>
      </trkpt>
      <trkpt lat="46.01595" lon="2.92774">
        <ele>625.9555664</ele>
        <time>2009-05-08T09:26:05Z</time>
      </trkpt>
      <trkpt lat="46.01598" lon="2.92764">
        <ele>627.3977051</ele>
        <time>2009-05-08T09:26:07Z</time>
      </trkpt>
      <trkpt lat="46.016" lon="2.92758">
        <ele>627.3977051</ele>
        <time>2009-05-08T09:26:08Z</time>
      </trkpt>
      <trkpt lat="46.01603" lon="2.92747">
        <ele>628.3588867</ele>
        <time>2009-05-08T09:26:10Z</time>
      </trkpt>
      <trkpt lat="46.01605" lon="2.92741">
        <ele>629.3200684</ele>
        <time>2009-05-08T09:26:11Z</time>
      </trkpt>
      <trkpt lat="46.01608" lon="2.92736">
        <ele>628.8395996</ele>
        <time>2009-05-08T09:26:12Z</time>
      </trkpt>
      <trkpt lat="46.01612" lon="2.92726">
        <ele>630.2814941</ele>
        <time>2009-05-08T09:26:14Z</time>
      </trkpt>
      <trkpt lat="46.01613" lon="2.92721">
        <ele>630.762207</ele>
        <time>2009-05-08T09:26:15Z</time>
      </trkpt>
      <trkpt lat="46.01615" lon="2.92716">
        <ele>630.762207</ele>
        <time>2009-05-08T09:26:16Z</time>
      </trkpt>
      <trkpt lat="46.01617" lon="2.927">
        <ele>631.7233887</ele>
        <time>2009-05-08T09:26:19Z</time>
      </trkpt>
      <trkpt lat="46.01617" lon="2.92688">
        <ele>631.7233887</ele>
        <time>2009-05-08T09:26:21Z</time>
      </trkpt>
      <trkpt lat="46.01617" lon="2.92674">
        <ele>631.2429199</ele>
        <time>2009-05-08T09:26:23Z</time>
      </trkpt>
      <trkpt lat="46.01617" lon="2.92657">
        <ele>630.2814941</ele>
        <time>2009-05-08T09:26:25Z</time>
      </trkpt>
      <trkpt lat="46.01617" lon="2.92616">
        <ele>627.8781738</ele>
        <time>2009-05-08T09:26:29Z</time>
      </trkpt>
      <trkpt lat="46.01625" lon="2.92568">
        <ele>628.8395996</ele>
        <time>2009-05-08T09:26:34Z</time>
      </trkpt>
      <trkpt lat="46.0164" lon="2.92507">
        <ele>628.8395996</ele>
        <time>2009-05-08T09:26:41Z</time>
      </trkpt>
      <trkpt lat="46.01661" lon="2.9246">
        <ele>629.8007813</ele>
        <time>2009-05-08T09:26:47Z</time>
      </trkpt>
      <trkpt lat="46.01688" lon="2.9243">
        <ele>630.762207</ele>
        <time>2009-05-08T09:26:53Z</time>
      </trkpt>
      <trkpt lat="46.01715" lon="2.92411">
        <ele>632.2041016</ele>
        <time>2009-05-08T09:27:00Z</time>
      </trkpt>
      <trkpt lat="46.01735" lon="2.92393">
        <ele>631.7233887</ele>
        <time>2009-05-08T09:27:05Z</time>
      </trkpt>
      <trkpt lat="46.01744" lon="2.92383">
        <ele>630.2814941</ele>
        <time>2009-05-08T09:27:07Z</time>
      </trkpt>
      <trkpt lat="46.01772" lon="2.92351">
        <ele>628.3588867</ele>
        <time>2009-05-08T09:27:12Z</time>
      </trkpt>
      <trkpt lat="46.01802" lon="2.92331">
        <ele>625.4748535</ele>
        <time>2009-05-08T09:27:16Z</time>
      </trkpt>
      <trkpt lat="46.01834" lon="2.92321">
        <ele>624.032959</ele>
        <time>2009-05-08T09:27:20Z</time>
      </trkpt>
      <trkpt lat="46.01849" lon="2.92314">
        <ele>624.032959</ele>
        <time>2009-05-08T09:27:22Z</time>
      </trkpt>
      <trkpt lat="46.01864" lon="2.92308">
        <ele>623.0717773</ele>
        <time>2009-05-08T09:27:24Z</time>
      </trkpt>
      <trkpt lat="46.01886" lon="2.92298">
        <ele>622.5910645</ele>
        <time>2009-05-08T09:27:27Z</time>
      </trkpt>
      <trkpt lat="46.019" lon="2.9229">
        <ele>621.6296387</ele>
        <time>2009-05-08T09:27:29Z</time>
      </trkpt>
      <trkpt lat="46.0194" lon="2.92254">
        <ele>621.1491699</ele>
        <time>2009-05-08T09:27:35Z</time>
      </trkpt>
      <trkpt lat="46.01957" lon="2.92236">
        <ele>620.668457</ele>
        <time>2009-05-08T09:27:38Z</time>
      </trkpt>
      <trkpt lat="46.01963" lon="2.92214">
        <ele>618.2648926</ele>
        <time>2009-05-08T09:27:42Z</time>
      </trkpt>
      <trkpt lat="46.01959" lon="2.92211">
        <ele>617.7841797</ele>
        <time>2009-05-08T09:27:43Z</time>
      </trkpt>
      <trkpt lat="46.01954" lon="2.9221">
        <ele>617.3037109</ele>
        <time>2009-05-08T09:27:44Z</time>
      </trkpt>
      <trkpt lat="46.01947" lon="2.9221">
        <ele>616.822998</ele>
        <time>2009-05-08T09:27:45Z</time>
      </trkpt>
      <trkpt lat="46.01925" lon="2.92213">
        <ele>613.9389648</ele>
        <time>2009-05-08T09:27:48Z</time>
      </trkpt>
      <trkpt lat="46.01918" lon="2.92211">
        <ele>613.9389648</ele>
        <time>2009-05-08T09:27:49Z</time>
      </trkpt>
      <trkpt lat="46.01901" lon="2.92196">
        <ele>608.6518555</ele>
        <time>2009-05-08T09:27:52Z</time>
      </trkpt>
      <trkpt lat="46.01897" lon="2.9219">
        <ele>608.1713867</ele>
        <time>2009-05-08T09:27:53Z</time>
      </trkpt>
      <trkpt lat="46.01893" lon="2.92183">
        <ele>607.2099609</ele>
        <time>2009-05-08T09:27:54Z</time>
      </trkpt>
      <trkpt lat="46.01887" lon="2.92164">
        <ele>605.7680664</ele>
        <time>2009-05-08T09:27:56Z</time>
      </trkpt>
      <trkpt lat="46.01865" lon="2.92137">
        <ele>601.4418945</ele>
        <time>2009-05-08T09:28:00Z</time>
      </trkpt>
      <trkpt lat="46.01852" lon="2.92132">
        <ele>599.5192871</ele>
        <time>2009-05-08T09:28:02Z</time>
      </trkpt>
      <trkpt lat="46.01842" lon="2.92102">
        <ele>596.1547852</ele>
        <time>2009-05-08T09:28:06Z</time>
      </trkpt>
      <trkpt lat="46.01843" lon="2.92091">
        <ele>595.1933594</ele>
        <time>2009-05-08T09:28:07Z</time>
      </trkpt>
      <trkpt lat="46.01847" lon="2.92058">
        <ele>594.2321777</ele>
        <time>2009-05-08T09:28:10Z</time>
      </trkpt>
      <trkpt lat="46.01841" lon="2.92039">
        <ele>593.7514648</ele>
        <time>2009-05-08T09:28:13Z</time>
      </trkpt>
      <trkpt lat="46.01836" lon="2.92036">
        <ele>592.7902832</ele>
        <time>2009-05-08T09:28:14Z</time>
      </trkpt>
      <trkpt lat="46.01813" lon="2.92026">
        <ele>590.3869629</ele>
        <time>2009-05-08T09:28:17Z</time>
      </trkpt>
      <trkpt lat="46.01786" lon="2.92004">
        <ele>584.6188965</ele>
        <time>2009-05-08T09:28:20Z</time>
      </trkpt>
      <trkpt lat="46.01754" lon="2.91981">
        <ele>580.7736816</ele>
        <time>2009-05-08T09:28:23Z</time>
      </trkpt>
      <trkpt lat="46.0173" lon="2.91969">
        <ele>576.9284668</ele>
        <time>2009-05-08T09:28:25Z</time>
      </trkpt>
      <trkpt lat="46.01707" lon="2.91957">
        <ele>573.5639648</ele>
        <time>2009-05-08T09:28:27Z</time>
      </trkpt>
      <trkpt lat="46.01685" lon="2.91947">
        <ele>569.237793</ele>
        <time>2009-05-08T09:28:29Z</time>
      </trkpt>
      <trkpt lat="46.01666" lon="2.91939">
        <ele>565.873291</ele>
        <time>2009-05-08T09:28:31Z</time>
      </trkpt>
      <trkpt lat="46.01638" lon="2.91931">
        <ele>561.0666504</ele>
        <time>2009-05-08T09:28:34Z</time>
      </trkpt>
      <trkpt lat="46.0162" lon="2.91925">
        <ele>558.1828613</ele>
        <time>2009-05-08T09:28:36Z</time>
      </trkpt>
      <trkpt lat="46.01612" lon="2.91922">
        <ele>556.2600098</ele>
        <time>2009-05-08T09:28:37Z</time>
      </trkpt>
      <trkpt lat="46.01598" lon="2.91921">
        <ele>553.8566895</ele>
        <time>2009-05-08T09:28:39Z</time>
      </trkpt>
      <trkpt lat="46.01587" lon="2.91927">
        <ele>548.0888672</ele>
        <time>2009-05-08T09:28:41Z</time>
      </trkpt>
      <trkpt lat="46.01581" lon="2.9193">
        <ele>547.1274414</ele>
        <time>2009-05-08T09:28:42Z</time>
      </trkpt>
      <trkpt lat="46.01568" lon="2.91926">
        <ele>543.2821045</ele>
        <time>2009-05-08T09:28:45Z</time>
      </trkpt>
      <trkpt lat="46.01557" lon="2.91907">
        <ele>541.3594971</ele>
        <time>2009-05-08T09:28:47Z</time>
      </trkpt>
      <trkpt lat="46.01529" lon="2.91867">
        <ele>537.0336914</ele>
        <time>2009-05-08T09:28:51Z</time>
      </trkpt>
      <trkpt lat="46.01517" lon="2.9185">
        <ele>535.5915527</ele>
        <time>2009-05-08T09:28:53Z</time>
      </trkpt>
      <trkpt lat="46.01503" lon="2.91828">
        <ele>532.2270508</ele>
        <time>2009-05-08T09:28:56Z</time>
      </trkpt>
      <trkpt lat="46.01495" lon="2.91812">
        <ele>527.901001</ele>
        <time>2009-05-08T09:28:58Z</time>
      </trkpt>
      <trkpt lat="46.01484" lon="2.91793">
        <ele>524.0557861</ele>
        <time>2009-05-08T09:29:00Z</time>
      </trkpt>
      <trkpt lat="46.01471" lon="2.91772">
        <ele>520.2105713</ele>
        <time>2009-05-08T09:29:02Z</time>
      </trkpt>
      <trkpt lat="46.01459" lon="2.91753">
        <ele>515.4040527</ele>
        <time>2009-05-08T09:29:04Z</time>
      </trkpt>
      <trkpt lat="46.01448" lon="2.91736">
        <ele>512.0394287</ele>
        <time>2009-05-08T09:29:06Z</time>
      </trkpt>
      <trkpt lat="46.01431" lon="2.91711">
        <ele>508.6746826</ele>
        <time>2009-05-08T09:29:09Z</time>
      </trkpt>
      <trkpt lat="46.01425" lon="2.91704">
        <ele>508.6746826</ele>
        <time>2009-05-08T09:29:10Z</time>
      </trkpt>
      <trkpt lat="46.01401" lon="2.91678">
        <ele>503.8681641</ele>
        <time>2009-05-08T09:29:14Z</time>
      </trkpt>
      <trkpt lat="46.01374" lon="2.91635">
        <ele>497.6196289</ele>
        <time>2009-05-08T09:29:18Z</time>
      </trkpt>
      <trkpt lat="46.01358" lon="2.91615">
        <ele>495.6968994</ele>
        <time>2009-05-08T09:29:20Z</time>
      </trkpt>
      <trkpt lat="46.01345" lon="2.91599">
        <ele>494.2550049</ele>
        <time>2009-05-08T09:29:22Z</time>
      </trkpt>
      <trkpt lat="46.01339" lon="2.91591">
        <ele>491.8516846</ele>
        <time>2009-05-08T09:29:23Z</time>
      </trkpt>
      <trkpt lat="46.01327" lon="2.91582">
        <ele>489.9290771</ele>
        <time>2009-05-08T09:29:25Z</time>
      </trkpt>
      <trkpt lat="46.01315" lon="2.91572">
        <ele>485.1224365</ele>
        <time>2009-05-08T09:29:29Z</time>
      </trkpt>
      <trkpt lat="46.01311" lon="2.9157">
        <ele>483.1998291</ele>
        <time>2009-05-08T09:29:31Z</time>
      </trkpt>
      <trkpt lat="46.01313" lon="2.91569">
        <ele>482.7192383</ele>
        <time>2009-05-08T09:29:37Z</time>
      </trkpt>
      <trkpt lat="46.01316" lon="2.91567">
        <ele>482.2385254</ele>
        <time>2009-05-08T09:29:47Z</time>
      </trkpt>
      <trkpt lat="46.01316" lon="2.91568">
        <ele>482.2385254</ele>
        <time>2009-05-08T09:29:51Z</time>
      </trkpt>
      <trkpt lat="46.01312" lon="2.91576">
        <ele>482.2385254</ele>
        <time>2009-05-08T09:29:55Z</time>
      </trkpt>
      <trkpt lat="46.01301" lon="2.91592">
        <ele>483.6804199</ele>
        <time>2009-05-08T09:30:02Z</time>
      </trkpt>
      <trkpt lat="46.01292" lon="2.91601">
        <ele>484.1611328</ele>
        <time>2009-05-08T09:30:07Z</time>
      </trkpt>
      <trkpt lat="46.01283" lon="2.91608">
        <ele>485.1224365</ele>
        <time>2009-05-08T09:30:11Z</time>
      </trkpt>
      <trkpt lat="46.01275" lon="2.91616">
        <ele>485.1224365</ele>
        <time>2009-05-08T09:30:15Z</time>
      </trkpt>
      <trkpt lat="46.01268" lon="2.91631">
        <ele>486.0837402</ele>
        <time>2009-05-08T09:30:20Z</time>
      </trkpt>
      <trkpt lat="46.01261" lon="2.91649">
        <ele>486.5644531</ele>
        <time>2009-05-08T09:30:25Z</time>
      </trkpt>
      <trkpt lat="46.01251" lon="2.91665">
        <ele>487.0450439</ele>
        <time>2009-05-08T09:30:31Z</time>
      </trkpt>
      <trkpt lat="46.01238" lon="2.91686">
        <ele>488.0064697</ele>
        <time>2009-05-08T09:30:38Z</time>
      </trkpt>
      <trkpt lat="46.01228" lon="2.91712">
        <ele>488.9677734</ele>
        <time>2009-05-08T09:30:45Z</time>
      </trkpt>
      <trkpt lat="46.01213" lon="2.91732">
        <ele>490.8903809</ele>
        <time>2009-05-08T09:30:52Z</time>
      </trkpt>
      <trkpt lat="46.01201" lon="2.9174">
        <ele>491.3709717</ele>
        <time>2009-05-08T09:30:58Z</time>
      </trkpt>
      <trkpt lat="46.01189" lon="2.91743">
        <ele>491.8516846</ele>
        <time>2009-05-08T09:31:05Z</time>
      </trkpt>
      <trkpt lat="46.01179" lon="2.91746">
        <ele>493.2935791</ele>
        <time>2009-05-08T09:31:10Z</time>
      </trkpt>
      <trkpt lat="46.01174" lon="2.91749">
        <ele>493.2935791</ele>
        <time>2009-05-08T09:31:13Z</time>
      </trkpt>
      <trkpt lat="46.01168" lon="2.91757">
        <ele>492.8129883</ele>
        <time>2009-05-08T09:31:17Z</time>
      </trkpt>
      <trkpt lat="46.01158" lon="2.91766">
        <ele>494.2550049</ele>
        <time>2009-05-08T09:31:23Z</time>
      </trkpt>
      <trkpt lat="46.01151" lon="2.91776">
        <ele>495.6968994</ele>
        <time>2009-05-08T09:31:27Z</time>
      </trkpt>
      <trkpt lat="46.01141" lon="2.91795">
        <ele>495.6968994</ele>
        <time>2009-05-08T09:31:33Z</time>
      </trkpt>
      <trkpt lat="46.01129" lon="2.91812">
        <ele>496.6583252</ele>
        <time>2009-05-08T09:31:38Z</time>
      </trkpt>
      <trkpt lat="46.01114" lon="2.91831">
        <ele>497.138916</ele>
        <time>2009-05-08T09:31:44Z</time>
      </trkpt>
      <trkpt lat="46.011" lon="2.91848">
        <ele>497.6196289</ele>
        <time>2009-05-08T09:31:48Z</time>
      </trkpt>
      <trkpt lat="46.01091" lon="2.91854">
        <ele>498.1003418</ele>
        <time>2009-05-08T09:31:52Z</time>
      </trkpt>
      <trkpt lat="46.01077" lon="2.91859">
        <ele>499.5422363</ele>
        <time>2009-05-08T09:31:58Z</time>
      </trkpt>
      <trkpt lat="46.0106" lon="2.91866">
        <ele>500.50354</ele>
        <time>2009-05-08T09:32:04Z</time>
      </trkpt>
      <trkpt lat="46.01045" lon="2.91869">
        <ele>501.4648438</ele>
        <time>2009-05-08T09:32:09Z</time>
      </trkpt>
      <trkpt lat="46.01024" lon="2.91878">
        <ele>501.9455566</ele>
        <time>2009-05-08T09:32:16Z</time>
      </trkpt>
      <trkpt lat="46.0101" lon="2.9189">
        <ele>502.9067383</ele>
        <time>2009-05-08T09:32:21Z</time>
      </trkpt>
      <trkpt lat="46.00995" lon="2.91905">
        <ele>503.8681641</ele>
        <time>2009-05-08T09:32:27Z</time>
      </trkpt>
      <trkpt lat="46.00981" lon="2.91925">
        <ele>505.7908936</ele>
        <time>2009-05-08T09:32:33Z</time>
      </trkpt>
      <trkpt lat="46.00966" lon="2.91943">
        <ele>506.2714844</ele>
        <time>2009-05-08T09:32:39Z</time>
      </trkpt>
      <trkpt lat="46.00962" lon="2.91947">
        <ele>506.7520752</ele>
        <time>2009-05-08T09:32:41Z</time>
      </trkpt>
      <trkpt lat="46.00952" lon="2.91952">
        <ele>506.2714844</ele>
        <time>2009-05-08T09:32:47Z</time>
      </trkpt>
      <trkpt lat="46.00948" lon="2.91954">
        <ele>507.713501</ele>
        <time>2009-05-08T09:32:49Z</time>
      </trkpt>
      <trkpt lat="46.00936" lon="2.91962">
        <ele>508.6746826</ele>
        <time>2009-05-08T09:32:55Z</time>
      </trkpt>
      <trkpt lat="46.00924" lon="2.91973">
        <ele>509.6361084</ele>
        <time>2009-05-08T09:33:01Z</time>
      </trkpt>
      <trkpt lat="46.0092" lon="2.91976">
        <ele>509.6361084</ele>
        <time>2009-05-08T09:33:03Z</time>
      </trkpt>
      <trkpt lat="46.00911" lon="2.91975">
        <ele>511.0780029</ele>
        <time>2009-05-08T09:33:08Z</time>
      </trkpt>
      <trkpt lat="46.00907" lon="2.91978">
        <ele>511.0780029</ele>
        <time>2009-05-08T09:33:11Z</time>
      </trkpt>
      <trkpt lat="46.009" lon="2.91996">
        <ele>510.1166992</ele>
        <time>2009-05-08T09:33:16Z</time>
      </trkpt>
      <trkpt lat="46.00891" lon="2.92008">
        <ele>510.59729</ele>
        <time>2009-05-08T09:33:21Z</time>
      </trkpt>
      <trkpt lat="46.00883" lon="2.92024">
        <ele>510.59729</ele>
        <time>2009-05-08T09:33:26Z</time>
      </trkpt>
      <trkpt lat="46.00878" lon="2.92034">
        <ele>511.0780029</ele>
        <time>2009-05-08T09:33:31Z</time>
      </trkpt>
      <trkpt lat="46.00878" lon="2.92035">
        <ele>511.0780029</ele>
        <time>2009-05-08T09:33:33Z</time>
      </trkpt>
      <trkpt lat="46.00885" lon="2.92041">
        <ele>511.5587158</ele>
        <time>2009-05-08T09:33:37Z</time>
      </trkpt>
      <trkpt lat="46.00886" lon="2.92051">
        <ele>514.442627</ele>
        <time>2009-05-08T09:33:42Z</time>
      </trkpt>
      <trkpt lat="46.00885" lon="2.92065">
        <ele>516.8459473</ele>
        <time>2009-05-08T09:33:50Z</time>
      </trkpt>
      <trkpt lat="46.00884" lon="2.92071">
        <ele>518.7685547</ele>
        <time>2009-05-08T09:33:53Z</time>
      </trkpt>
      <trkpt lat="46.00884" lon="2.92085">
        <ele>519.7298584</ele>
        <time>2009-05-08T09:33:59Z</time>
      </trkpt>
      <trkpt lat="46.00882" lon="2.92098">
        <ele>519.2492676</ele>
        <time>2009-05-08T09:34:04Z</time>
      </trkpt>
      <trkpt lat="46.0088" lon="2.92103">
        <ele>518.7685547</ele>
        <time>2009-05-08T09:34:05Z</time>
      </trkpt>
      <trkpt lat="46.00873" lon="2.92121">
        <ele>517.3266602</ele>
        <time>2009-05-08T09:34:10Z</time>
      </trkpt>
      <trkpt lat="46.0087" lon="2.9213">
        <ele>516.8459473</ele>
        <time>2009-05-08T09:34:14Z</time>
      </trkpt>
      <trkpt lat="46.00869" lon="2.92133">
        <ele>517.3266602</ele>
        <time>2009-05-08T09:34:20Z</time>
      </trkpt>
      <trkpt lat="46.0087" lon="2.92133">
        <ele>517.807251</ele>
        <time>2009-05-08T09:34:21Z</time>
      </trkpt>
      <trkpt lat="46.00877" lon="2.92145">
        <ele>519.2492676</ele>
        <time>2009-05-08T09:34:28Z</time>
      </trkpt>
      <trkpt lat="46.00887" lon="2.92159">
        <ele>520.2105713</ele>
        <time>2009-05-08T09:34:34Z</time>
      </trkpt>
      <trkpt lat="46.00891" lon="2.92172">
        <ele>521.1719971</ele>
        <time>2009-05-08T09:34:40Z</time>
      </trkpt>
      <trkpt lat="46.00894" lon="2.92181">
        <ele>523.0946045</ele>
        <time>2009-05-08T09:34:45Z</time>
      </trkpt>
      <trkpt lat="46.00899" lon="2.92191">
        <ele>523.5751953</ele>
        <time>2009-05-08T09:34:50Z</time>
      </trkpt>
      <trkpt lat="46.00901" lon="2.92196">
        <ele>523.5751953</ele>
        <time>2009-05-08T09:34:53Z</time>
      </trkpt>
      <trkpt lat="46.0091" lon="2.92211">
        <ele>524.0557861</ele>
        <time>2009-05-08T09:35:00Z</time>
      </trkpt>
      <trkpt lat="46.00913" lon="2.92224">
        <ele>524.536499</ele>
        <time>2009-05-08T09:35:05Z</time>
      </trkpt>
      <trkpt lat="46.00914" lon="2.92234">
        <ele>525.4978027</ele>
        <time>2009-05-08T09:35:09Z</time>
      </trkpt>
      <trkpt lat="46.00919" lon="2.92248">
        <ele>527.901001</ele>
        <time>2009-05-08T09:35:17Z</time>
      </trkpt>
      <trkpt lat="46.00919" lon="2.92249">
        <ele>528.3818359</ele>
        <time>2009-05-08T09:35:18Z</time>
      </trkpt>
      <trkpt lat="46.0092" lon="2.92253">
        <ele>528.8625488</ele>
        <time>2009-05-08T09:35:20Z</time>
      </trkpt>
      <trkpt lat="46.00922" lon="2.92262">
        <ele>529.8237305</ele>
        <time>2009-05-08T09:35:25Z</time>
      </trkpt>
      <trkpt lat="46.00922" lon="2.92276">
        <ele>531.2657471</ele>
        <time>2009-05-08T09:35:32Z</time>
      </trkpt>
      <trkpt lat="46.00921" lon="2.92295">
        <ele>532.2270508</ele>
        <time>2009-05-08T09:35:38Z</time>
      </trkpt>
      <trkpt lat="46.0092" lon="2.92318">
        <ele>532.7077637</ele>
        <time>2009-05-08T09:35:45Z</time>
      </trkpt>
      <trkpt lat="46.00922" lon="2.92334">
        <ele>533.1883545</ele>
        <time>2009-05-08T09:35:50Z</time>
      </trkpt>
      <trkpt lat="46.00922" lon="2.92336">
        <ele>533.1883545</ele>
        <time>2009-05-08T09:35:51Z</time>
      </trkpt>
      <trkpt lat="46.0092" lon="2.92343">
        <ele>534.6303711</ele>
        <time>2009-05-08T09:35:54Z</time>
      </trkpt>
      <trkpt lat="46.00917" lon="2.92356">
        <ele>536.5531006</ele>
        <time>2009-05-08T09:36:01Z</time>
      </trkpt>
      <trkpt lat="46.00917" lon="2.92357">
        <ele>536.5531006</ele>
        <time>2009-05-08T09:36:02Z</time>
      </trkpt>
      <trkpt lat="46.00914" lon="2.92375">
        <ele>537.0336914</ele>
        <time>2009-05-08T09:36:10Z</time>
      </trkpt>
      <trkpt lat="46.00909" lon="2.9239">
        <ele>537.0336914</ele>
        <time>2009-05-08T09:36:15Z</time>
      </trkpt>
      <trkpt lat="46.00903" lon="2.92407">
        <ele>537.9949951</ele>
        <time>2009-05-08T09:36:22Z</time>
      </trkpt>
      <trkpt lat="46.00897" lon="2.92423">
        <ele>539.4368896</ele>
        <time>2009-05-08T09:36:30Z</time>
      </trkpt>
      <trkpt lat="46.00893" lon="2.92436">
        <ele>539.9176025</ele>
        <time>2009-05-08T09:36:37Z</time>
      </trkpt>
      <trkpt lat="46.00888" lon="2.92449">
        <ele>541.84021</ele>
        <time>2009-05-08T09:36:44Z</time>
      </trkpt>
      <trkpt lat="46.00887" lon="2.92454">
        <ele>541.84021</ele>
        <time>2009-05-08T09:36:47Z</time>
      </trkpt>
      <trkpt lat="46.00885" lon="2.92474">
        <ele>543.2821045</ele>
        <time>2009-05-08T09:36:55Z</time>
      </trkpt>
      <trkpt lat="46.00886" lon="2.92492">
        <ele>543.7628174</ele>
        <time>2009-05-08T09:37:00Z</time>
      </trkpt>
      <trkpt lat="46.00883" lon="2.92516">
        <ele>545.204834</ele>
        <time>2009-05-08T09:37:07Z</time>
      </trkpt>
      <trkpt lat="46.00881" lon="2.92519">
        <ele>545.6855469</ele>
        <time>2009-05-08T09:37:09Z</time>
      </trkpt>
      <trkpt lat="46.00872" lon="2.92534">
        <ele>548.0888672</ele>
        <time>2009-05-08T09:37:17Z</time>
      </trkpt>
      <trkpt lat="46.00863" lon="2.92548">
        <ele>549.0500488</ele>
        <time>2009-05-08T09:37:23Z</time>
      </trkpt>
      <trkpt lat="46.00854" lon="2.92555">
        <ele>549.5307617</ele>
        <time>2009-05-08T09:37:29Z</time>
      </trkpt>
      <trkpt lat="46.00844" lon="2.9256">
        <ele>551.934082</ele>
        <time>2009-05-08T09:37:36Z</time>
      </trkpt>
      <trkpt lat="46.00832" lon="2.92566">
        <ele>553.8566895</ele>
        <time>2009-05-08T09:37:44Z</time>
      </trkpt>
      <trkpt lat="46.00821" lon="2.92572">
        <ele>554.3374023</ele>
        <time>2009-05-08T09:37:51Z</time>
      </trkpt>
      <trkpt lat="46.00812" lon="2.92577">
        <ele>555.298584</ele>
        <time>2009-05-08T09:37:56Z</time>
      </trkpt>
      <trkpt lat="46.00806" lon="2.92577">
        <ele>556.7407227</ele>
        <time>2009-05-08T09:37:59Z</time>
      </trkpt>
      <trkpt lat="46.00802" lon="2.92592">
        <ele>556.2600098</ele>
        <time>2009-05-08T09:38:04Z</time>
      </trkpt>
      <trkpt lat="46.008" lon="2.92596">
        <ele>556.7407227</ele>
        <time>2009-05-08T09:38:05Z</time>
      </trkpt>
      <trkpt lat="46.00793" lon="2.92609">
        <ele>557.2214355</ele>
        <time>2009-05-08T09:38:11Z</time>
      </trkpt>
      <trkpt lat="46.00789" lon="2.9262">
        <ele>559.144043</ele>
        <time>2009-05-08T09:38:17Z</time>
      </trkpt>
      <trkpt lat="46.00788" lon="2.92621">
        <ele>559.144043</ele>
        <time>2009-05-08T09:38:18Z</time>
      </trkpt>
      <trkpt lat="46.00781" lon="2.92631">
        <ele>561.0666504</ele>
        <time>2009-05-08T09:38:26Z</time>
      </trkpt>
      <trkpt lat="46.00781" lon="2.92632">
        <ele>558.6633301</ele>
        <time>2009-05-08T09:38:29Z</time>
      </trkpt>
      <trkpt lat="46.00782" lon="2.92631">
        <ele>562.0280762</ele>
        <time>2009-05-08T09:38:31Z</time>
      </trkpt>
      <trkpt lat="46.00784" lon="2.9263">
        <ele>562.5085449</ele>
        <time>2009-05-08T09:38:36Z</time>
      </trkpt>
      <trkpt lat="46.00786" lon="2.92629">
        <ele>559.144043</ele>
        <time>2009-05-08T09:38:42Z</time>
      </trkpt>
      <trkpt lat="46.00786" lon="2.92628">
        <ele>562.5085449</ele>
        <time>2009-05-08T09:38:43Z</time>
      </trkpt>
      <trkpt lat="46.00786" lon="2.92628">
        <ele>561.5473633</ele>
        <time>2009-05-08T09:38:44Z</time>
      </trkpt>
      <trkpt lat="46.00812" lon="2.92628">
        <ele>564.9118652</ele>
        <time>2009-05-08T09:38:47Z</time>
      </trkpt>
      <trkpt lat="46.00798" lon="2.92629">
        <ele>561.5473633</ele>
        <time>2009-05-08T09:38:48Z</time>
      </trkpt>
      <trkpt lat="46.00782" lon="2.92634">
        <ele>562.0280762</ele>
        <time>2009-05-08T09:38:58Z</time>
      </trkpt>
      <trkpt lat="46.00776" lon="2.92639">
        <ele>562.5085449</ele>
        <time>2009-05-08T09:39:03Z</time>
      </trkpt>
      <trkpt lat="46.00769" lon="2.92648">
        <ele>564.4311523</ele>
        <time>2009-05-08T09:39:11Z</time>
      </trkpt>
      <trkpt lat="46.00764" lon="2.92653">
        <ele>566.3537598</ele>
        <time>2009-05-08T09:39:17Z</time>
      </trkpt>
      <trkpt lat="46.00759" lon="2.9266">
        <ele>568.2763672</ele>
        <time>2009-05-08T09:39:24Z</time>
      </trkpt>
      <trkpt lat="46.00756" lon="2.92663">
        <ele>569.237793</ele>
        <time>2009-05-08T09:39:27Z</time>
      </trkpt>
      <trkpt lat="46.00749" lon="2.92667">
        <ele>570.1989746</ele>
        <time>2009-05-08T09:39:33Z</time>
      </trkpt>
      <trkpt lat="46.00743" lon="2.92671">
        <ele>570.6796875</ele>
        <time>2009-05-08T09:39:38Z</time>
      </trkpt>
      <trkpt lat="46.00731" lon="2.92683">
        <ele>573.083252</ele>
        <time>2009-05-08T09:39:46Z</time>
      </trkpt>
      <trkpt lat="46.00724" lon="2.92691">
        <ele>574.0444336</ele>
        <time>2009-05-08T09:39:52Z</time>
      </trkpt>
      <trkpt lat="46.00718" lon="2.92703">
        <ele>574.5251465</ele>
        <time>2009-05-08T09:39:58Z</time>
      </trkpt>
      <trkpt lat="46.00712" lon="2.92714">
        <ele>575.4863281</ele>
        <time>2009-05-08T09:40:03Z</time>
      </trkpt>
      <trkpt lat="46.00707" lon="2.92726">
        <ele>576.4477539</ele>
        <time>2009-05-08T09:40:09Z</time>
      </trkpt>
      <trkpt lat="46.00699" lon="2.92739">
        <ele>578.3703613</ele>
        <time>2009-05-08T09:40:16Z</time>
      </trkpt>
      <trkpt lat="46.00691" lon="2.92752">
        <ele>579.8122559</ele>
        <time>2009-05-08T09:40:23Z</time>
      </trkpt>
      <trkpt lat="46.00685" lon="2.92765">
        <ele>580.7736816</ele>
        <time>2009-05-08T09:40:29Z</time>
      </trkpt>
      <trkpt lat="46.00681" lon="2.92778">
        <ele>582.2155762</ele>
        <time>2009-05-08T09:40:36Z</time>
      </trkpt>
      <trkpt lat="46.00677" lon="2.92793">
        <ele>583.6574707</ele>
        <time>2009-05-08T09:40:44Z</time>
      </trkpt>
      <trkpt lat="46.00675" lon="2.92803">
        <ele>585.0996094</ele>
        <time>2009-05-08T09:40:49Z</time>
      </trkpt>
      <trkpt lat="46.00674" lon="2.92813">
        <ele>585.5800781</ele>
        <time>2009-05-08T09:40:54Z</time>
      </trkpt>
      <trkpt lat="46.00672" lon="2.92825">
        <ele>586.5415039</ele>
        <time>2009-05-08T09:41:00Z</time>
      </trkpt>
      <trkpt lat="46.00665" lon="2.92841">
        <ele>587.0219727</ele>
        <time>2009-05-08T09:41:07Z</time>
      </trkpt>
      <trkpt lat="46.0066" lon="2.92855">
        <ele>587.5026855</ele>
        <time>2009-05-08T09:41:12Z</time>
      </trkpt>
      <trkpt lat="46.00653" lon="2.92865">
        <ele>587.9833984</ele>
        <time>2009-05-08T09:41:16Z</time>
      </trkpt>
      <trkpt lat="46.00646" lon="2.92881">
        <ele>588.4643555</ele>
        <time>2009-05-08T09:41:22Z</time>
      </trkpt>
      <trkpt lat="46.00644" lon="2.92885">
        <ele>588.9450684</ele>
        <time>2009-05-08T09:41:24Z</time>
      </trkpt>
      <trkpt lat="46.00634" lon="2.92895">
        <ele>589.90625</ele>
        <time>2009-05-08T09:41:30Z</time>
      </trkpt>
      <trkpt lat="46.00626" lon="2.92904">
        <ele>590.8674316</ele>
        <time>2009-05-08T09:41:35Z</time>
      </trkpt>
      <trkpt lat="46.00625" lon="2.92908">
        <ele>591.8288574</ele>
        <time>2009-05-08T09:41:37Z</time>
      </trkpt>
      <trkpt lat="46.00624" lon="2.92913">
        <ele>592.3095703</ele>
        <time>2009-05-08T09:41:40Z</time>
      </trkpt>
      <trkpt lat="46.00624" lon="2.92924">
        <ele>593.270752</ele>
        <time>2009-05-08T09:41:45Z</time>
      </trkpt>
      <trkpt lat="46.00624" lon="2.92928">
        <ele>588.9450684</ele>
        <time>2009-05-08T09:41:50Z</time>
      </trkpt>
      <trkpt lat="46.00623" lon="2.92928">
        <ele>592.3095703</ele>
        <time>2009-05-08T09:41:51Z</time>
      </trkpt>
      <trkpt lat="46.00623" lon="2.92929">
        <ele>589.90625</ele>
        <time>2009-05-08T09:41:52Z</time>
      </trkpt>
      <trkpt lat="46.00625" lon="2.92935">
        <ele>594.7126465</ele>
        <time>2009-05-08T09:41:54Z</time>
      </trkpt>
      <trkpt lat="46.00622" lon="2.92937">
        <ele>593.270752</ele>
        <time>2009-05-08T09:41:56Z</time>
      </trkpt>
      <trkpt lat="46.00621" lon="2.9294">
        <ele>593.7514648</ele>
        <time>2009-05-08T09:41:58Z</time>
      </trkpt>
      <trkpt lat="46.00619" lon="2.92951">
        <ele>594.7126465</ele>
        <time>2009-05-08T09:42:04Z</time>
      </trkpt>
      <trkpt lat="46.00616" lon="2.92964">
        <ele>596.1547852</ele>
        <time>2009-05-08T09:42:10Z</time>
      </trkpt>
      <trkpt lat="46.00615" lon="2.92978">
        <ele>597.1159668</ele>
        <time>2009-05-08T09:42:16Z</time>
      </trkpt>
      <trkpt lat="46.00613" lon="2.92991">
        <ele>597.5966797</ele>
        <time>2009-05-08T09:42:22Z</time>
      </trkpt>
      <trkpt lat="46.00608" lon="2.93">
        <ele>598.5578613</ele>
        <time>2009-05-08T09:42:29Z</time>
      </trkpt>
      <trkpt lat="46.00606" lon="2.93007">
        <ele>600</ele>
        <time>2009-05-08T09:42:33Z</time>
      </trkpt>
      <trkpt lat="46.00603" lon="2.93025">
        <ele>601.4418945</ele>
        <time>2009-05-08T09:42:41Z</time>
      </trkpt>
      <trkpt lat="46.00601" lon="2.93036">
        <ele>601.9226074</ele>
        <time>2009-05-08T09:42:47Z</time>
      </trkpt>
      <trkpt lat="46.00599" lon="2.93053">
        <ele>603.364502</ele>
        <time>2009-05-08T09:42:54Z</time>
      </trkpt>
      <trkpt lat="46.00597" lon="2.93067">
        <ele>604.3261719</ele>
        <time>2009-05-08T09:43:00Z</time>
      </trkpt>
      <trkpt lat="46.00595" lon="2.93085">
        <ele>606.729248</ele>
        <time>2009-05-08T09:43:08Z</time>
      </trkpt>
      <trkpt lat="46.00593" lon="2.93104">
        <ele>608.6518555</ele>
        <time>2009-05-08T09:43:16Z</time>
      </trkpt>
      <trkpt lat="46.00595" lon="2.93118">
        <ele>610.09375</ele>
        <time>2009-05-08T09:43:24Z</time>
      </trkpt>
      <trkpt lat="46.00591" lon="2.93134">
        <ele>610.09375</ele>
        <time>2009-05-08T09:43:30Z</time>
      </trkpt>
      <trkpt lat="46.00585" lon="2.93146">
        <ele>611.0551758</ele>
        <time>2009-05-08T09:43:37Z</time>
      </trkpt>
      <trkpt lat="46.00576" lon="2.93159">
        <ele>612.9777832</ele>
        <time>2009-05-08T09:43:45Z</time>
      </trkpt>
      <trkpt lat="46.00571" lon="2.93172">
        <ele>613.9389648</ele>
        <time>2009-05-08T09:43:52Z</time>
      </trkpt>
      <trkpt lat="46.00564" lon="2.93183">
        <ele>614.9003906</ele>
        <time>2009-05-08T09:43:59Z</time>
      </trkpt>
      <trkpt lat="46.00554" lon="2.93198">
        <ele>616.822998</ele>
        <time>2009-05-08T09:44:08Z</time>
      </trkpt>
      <trkpt lat="46.0055" lon="2.93204">
        <ele>617.3037109</ele>
        <time>2009-05-08T09:44:11Z</time>
      </trkpt>
      <trkpt lat="46.00539" lon="2.93218">
        <ele>619.2263184</ele>
        <time>2009-05-08T09:44:19Z</time>
      </trkpt>
      <trkpt lat="46.00528" lon="2.93231">
        <ele>620.668457</ele>
        <time>2009-05-08T09:44:27Z</time>
      </trkpt>
      <trkpt lat="46.00521" lon="2.93238">
        <ele>621.6296387</ele>
        <time>2009-05-08T09:44:33Z</time>
      </trkpt>
      <trkpt lat="46.00514" lon="2.93246">
        <ele>623.5524902</ele>
        <time>2009-05-08T09:44:39Z</time>
      </trkpt>
      <trkpt lat="46.00509" lon="2.93254">
        <ele>624.032959</ele>
        <time>2009-05-08T09:44:44Z</time>
      </trkpt>
      <trkpt lat="46.00502" lon="2.93261">
        <ele>624.9943848</ele>
        <time>2009-05-08T09:44:50Z</time>
      </trkpt>
      <trkpt lat="46.00494" lon="2.93268">
        <ele>625.9555664</ele>
        <time>2009-05-08T09:44:56Z</time>
      </trkpt>
      <trkpt lat="46.00485" lon="2.93275">
        <ele>626.9169922</ele>
        <time>2009-05-08T09:45:02Z</time>
      </trkpt>
      <trkpt lat="46.00474" lon="2.93282">
        <ele>629.3200684</ele>
        <time>2009-05-08T09:45:08Z</time>
      </trkpt>
      <trkpt lat="46.00461" lon="2.93289">
        <ele>629.8007813</ele>
        <time>2009-05-08T09:45:13Z</time>
      </trkpt>
      <trkpt lat="46.00459" lon="2.9329">
        <ele>630.2814941</ele>
        <time>2009-05-08T09:45:14Z</time>
      </trkpt>
      <trkpt lat="46.00447" lon="2.93297">
        <ele>631.2429199</ele>
        <time>2009-05-08T09:45:21Z</time>
      </trkpt>
      <trkpt lat="46.00435" lon="2.93305">
        <ele>632.2041016</ele>
        <time>2009-05-08T09:45:27Z</time>
      </trkpt>
      <trkpt lat="46.00424" lon="2.9331">
        <ele>634.126709</ele>
        <time>2009-05-08T09:45:33Z</time>
      </trkpt>
      <trkpt lat="46.00408" lon="2.93313">
        <ele>635.0881348</ele>
        <time>2009-05-08T09:45:40Z</time>
      </trkpt>
      <trkpt lat="46.00392" lon="2.93315">
        <ele>636.0495605</ele>
        <time>2009-05-08T09:45:48Z</time>
      </trkpt>
      <trkpt lat="46.00387" lon="2.93316">
        <ele>636.0495605</ele>
        <time>2009-05-08T09:45:50Z</time>
      </trkpt>
      <trkpt lat="46.00381" lon="2.93334">
        <ele>636.5302734</ele>
        <time>2009-05-08T09:45:56Z</time>
      </trkpt>
      <trkpt lat="46.00381" lon="2.93367">
        <ele>637.4914551</ele>
        <time>2009-05-08T09:46:05Z</time>
      </trkpt>
      <trkpt lat="46.00381" lon="2.93401">
        <ele>638.9335938</ele>
        <time>2009-05-08T09:46:14Z</time>
      </trkpt>
      <trkpt lat="46.00381" lon="2.93432">
        <ele>640.3754883</ele>
        <time>2009-05-08T09:46:23Z</time>
      </trkpt>
      <trkpt lat="46.00375" lon="2.93459">
        <ele>641.3366699</ele>
        <time>2009-05-08T09:46:31Z</time>
      </trkpt>
      <trkpt lat="46.00367" lon="2.93485">
        <ele>642.7788086</ele>
        <time>2009-05-08T09:46:39Z</time>
      </trkpt>
      <trkpt lat="46.00356" lon="2.93513">
        <ele>643.2592773</ele>
        <time>2009-05-08T09:46:48Z</time>
      </trkpt>
      <trkpt lat="46.00346" lon="2.93542">
        <ele>643.7399902</ele>
        <time>2009-05-08T09:46:56Z</time>
      </trkpt>
      <trkpt lat="46.0034" lon="2.93561">
        <ele>644.2207031</ele>
        <time>2009-05-08T09:47:01Z</time>
      </trkpt>
      <trkpt lat="46.00333" lon="2.93592">
        <ele>645.6625977</ele>
        <time>2009-05-08T09:47:09Z</time>
      </trkpt>
      <trkpt lat="46.00325" lon="2.93625">
        <ele>646.1433105</ele>
        <time>2009-05-08T09:47:17Z</time>
      </trkpt>
      <trkpt lat="46.00313" lon="2.93668">
        <ele>647.1044922</ele>
        <time>2009-05-08T09:47:27Z</time>
      </trkpt>
      <trkpt lat="46.00301" lon="2.93699">
        <ele>647.5852051</ele>
        <time>2009-05-08T09:47:35Z</time>
      </trkpt>
      <trkpt lat="46.00291" lon="2.93726">
        <ele>649.0270996</ele>
        <time>2009-05-08T09:47:42Z</time>
      </trkpt>
      <trkpt lat="46.00293" lon="2.93746">
        <ele>649.9885254</ele>
        <time>2009-05-08T09:47:47Z</time>
      </trkpt>
      <trkpt lat="46.00306" lon="2.9377">
        <ele>649.9885254</ele>
        <time>2009-05-08T09:47:53Z</time>
      </trkpt>
      <trkpt lat="46.00324" lon="2.93801">
        <ele>649.9885254</ele>
        <time>2009-05-08T09:48:01Z</time>
      </trkpt>
      <trkpt lat="46.00343" lon="2.93828">
        <ele>650.949707</ele>
        <time>2009-05-08T09:48:09Z</time>
      </trkpt>
      <trkpt lat="46.00368" lon="2.93853">
        <ele>652.3918457</ele>
        <time>2009-05-08T09:48:18Z</time>
      </trkpt>
      <trkpt lat="46.00387" lon="2.93875">
        <ele>653.3532715</ele>
        <time>2009-05-08T09:48:26Z</time>
      </trkpt>
      <trkpt lat="46.00406" lon="2.93895">
        <ele>654.795166</ele>
        <time>2009-05-08T09:48:35Z</time>
      </trkpt>
      <trkpt lat="46.00421" lon="2.93911">
        <ele>655.7565918</ele>
        <time>2009-05-08T09:48:43Z</time>
      </trkpt>
      <trkpt lat="46.00436" lon="2.93926">
        <ele>658.1599121</ele>
        <time>2009-05-08T09:48:52Z</time>
      </trkpt>
      <trkpt lat="46.00439" lon="2.9393">
        <ele>659.1210938</ele>
        <time>2009-05-08T09:48:54Z</time>
      </trkpt>
      <trkpt lat="46.00444" lon="2.93945">
        <ele>660.0822754</ele>
        <time>2009-05-08T09:49:00Z</time>
      </trkpt>
      <trkpt lat="46.00453" lon="2.93969">
        <ele>661.0437012</ele>
        <time>2009-05-08T09:49:09Z</time>
      </trkpt>
      <trkpt lat="46.00462" lon="2.93989">
        <ele>662.005127</ele>
        <time>2009-05-08T09:49:17Z</time>
      </trkpt>
      <trkpt lat="46.00469" lon="2.94004">
        <ele>663.4470215</ele>
        <time>2009-05-08T09:49:24Z</time>
      </trkpt>
      <trkpt lat="46.0048" lon="2.94025">
        <ele>665.3696289</ele>
        <time>2009-05-08T09:49:34Z</time>
      </trkpt>
      <trkpt lat="46.00488" lon="2.94038">
        <ele>666.8115234</ele>
        <time>2009-05-08T09:49:42Z</time>
      </trkpt>
      <trkpt lat="46.00497" lon="2.94051">
        <ele>669.2150879</ele>
        <time>2009-05-08T09:49:50Z</time>
      </trkpt>
      <trkpt lat="46.00502" lon="2.94056">
        <ele>669.2150879</ele>
        <time>2009-05-08T09:49:54Z</time>
      </trkpt>
      <trkpt lat="46.00506" lon="2.94062">
        <ele>670.6569824</ele>
        <time>2009-05-08T09:49:58Z</time>
      </trkpt>
      <trkpt lat="46.00516" lon="2.94073">
        <ele>672.098877</ele>
        <time>2009-05-08T09:50:07Z</time>
      </trkpt>
      <trkpt lat="46.00524" lon="2.94083">
        <ele>674.0214844</ele>
        <time>2009-05-08T09:50:15Z</time>
      </trkpt>
      <trkpt lat="46.0053" lon="2.94089">
        <ele>675.9440918</ele>
        <time>2009-05-08T09:50:21Z</time>
      </trkpt>
      <trkpt lat="46.00536" lon="2.94096">
        <ele>676.9055176</ele>
        <time>2009-05-08T09:50:28Z</time>
      </trkpt>
      <trkpt lat="46.00542" lon="2.94104">
        <ele>678.3474121</ele>
        <time>2009-05-08T09:50:35Z</time>
      </trkpt>
      <trkpt lat="46.0055" lon="2.94112">
        <ele>681.2314453</ele>
        <time>2009-05-08T09:50:43Z</time>
      </trkpt>
      <trkpt lat="46.00555" lon="2.94117">
        <ele>681.7119141</ele>
        <time>2009-05-08T09:50:49Z</time>
      </trkpt>
      <trkpt lat="46.00556" lon="2.94118">
        <ele>682.192627</ele>
        <time>2009-05-08T09:50:50Z</time>
      </trkpt>
      <trkpt lat="46.00565" lon="2.94128">
        <ele>684.1154785</ele>
        <time>2009-05-08T09:51:00Z</time>
      </trkpt>
      <trkpt lat="46.00566" lon="2.9413">
        <ele>684.1154785</ele>
        <time>2009-05-08T09:51:02Z</time>
      </trkpt>
      <trkpt lat="46.00572" lon="2.94137">
        <ele>686.5187988</ele>
        <time>2009-05-08T09:51:09Z</time>
      </trkpt>
      <trkpt lat="46.0058" lon="2.94148">
        <ele>687.9606934</ele>
        <time>2009-05-08T09:51:18Z</time>
      </trkpt>
      <trkpt lat="46.00585" lon="2.94159">
        <ele>688.9221191</ele>
        <time>2009-05-08T09:51:25Z</time>
      </trkpt>
      <trkpt lat="46.00589" lon="2.94173">
        <ele>690.8444824</ele>
        <time>2009-05-08T09:51:33Z</time>
      </trkpt>
      <trkpt lat="46.00589" lon="2.94188">
        <ele>691.8059082</ele>
        <time>2009-05-08T09:51:41Z</time>
      </trkpt>
      <trkpt lat="46.00589" lon="2.94205">
        <ele>693.2478027</ele>
        <time>2009-05-08T09:51:48Z</time>
      </trkpt>
      <trkpt lat="46.00595" lon="2.9422">
        <ele>694.6896973</ele>
        <time>2009-05-08T09:51:55Z</time>
      </trkpt>
      <trkpt lat="46.00603" lon="2.94232">
        <ele>695.651123</ele>
        <time>2009-05-08T09:52:02Z</time>
      </trkpt>
      <trkpt lat="46.00614" lon="2.94246">
        <ele>697.0930176</ele>
        <time>2009-05-08T09:52:09Z</time>
      </trkpt>
      <trkpt lat="46.00624" lon="2.9426">
        <ele>697.5737305</ele>
        <time>2009-05-08T09:52:16Z</time>
      </trkpt>
      <trkpt lat="46.00639" lon="2.94275">
        <ele>695.651123</ele>
        <time>2009-05-08T09:52:23Z</time>
      </trkpt>
      <trkpt lat="46.00657" lon="2.9428">
        <ele>695.651123</ele>
        <time>2009-05-08T09:52:27Z</time>
      </trkpt>
      <trkpt lat="46.00681" lon="2.94286">
        <ele>694.6896973</ele>
        <time>2009-05-08T09:52:31Z</time>
      </trkpt>
      <trkpt lat="46.00708" lon="2.94306">
        <ele>692.2866211</ele>
        <time>2009-05-08T09:52:35Z</time>
      </trkpt>
      <trkpt lat="46.00714" lon="2.94315">
        <ele>691.3251953</ele>
        <time>2009-05-08T09:52:36Z</time>
      </trkpt>
      <trkpt lat="46.00735" lon="2.94343">
        <ele>689.4025879</ele>
        <time>2009-05-08T09:52:39Z</time>
      </trkpt>
      <trkpt lat="46.00742" lon="2.94352">
        <ele>687.9606934</ele>
        <time>2009-05-08T09:52:40Z</time>
      </trkpt>
      <trkpt lat="46.00776" lon="2.94378">
        <ele>686.5187988</ele>
        <time>2009-05-08T09:52:44Z</time>
      </trkpt>
      <trkpt lat="46.00785" lon="2.94383">
        <ele>685.557373</ele>
        <time>2009-05-08T09:52:45Z</time>
      </trkpt>
      <trkpt lat="46.0083" lon="2.94413">
        <ele>685.0769043</ele>
        <time>2009-05-08T09:52:51Z</time>
      </trkpt>
      <trkpt lat="46.00863" lon="2.94439">
        <ele>682.6733398</ele>
        <time>2009-05-08T09:52:56Z</time>
      </trkpt>
      <trkpt lat="46.00876" lon="2.94449">
        <ele>682.6733398</ele>
        <time>2009-05-08T09:52:58Z</time>
      </trkpt>
      <trkpt lat="46.00893" lon="2.94465">
        <ele>682.192627</ele>
        <time>2009-05-08T09:53:01Z</time>
      </trkpt>
      <trkpt lat="46.00934" lon="2.94496">
        <ele>682.192627</ele>
        <time>2009-05-08T09:53:08Z</time>
      </trkpt>
      <trkpt lat="46.00972" lon="2.94525">
        <ele>680.7507324</ele>
        <time>2009-05-08T09:53:15Z</time>
      </trkpt>
      <trkpt lat="46.00977" lon="2.94529">
        <ele>680.7507324</ele>
        <time>2009-05-08T09:53:16Z</time>
      </trkpt>
      <trkpt lat="46.00996" lon="2.94528">
        <ele>679.7893066</ele>
        <time>2009-05-08T09:53:20Z</time>
      </trkpt>
      <trkpt lat="46.01001" lon="2.94519">
        <ele>679.7893066</ele>
        <time>2009-05-08T09:53:22Z</time>
      </trkpt>
      <trkpt lat="46.01011" lon="2.94506">
        <ele>680.7507324</ele>
        <time>2009-05-08T09:53:26Z</time>
      </trkpt>
      <trkpt lat="46.01024" lon="2.94501">
        <ele>682.192627</ele>
        <time>2009-05-08T09:53:30Z</time>
      </trkpt>
      <trkpt lat="46.01039" lon="2.94492">
        <ele>683.1538086</ele>
        <time>2009-05-08T09:53:34Z</time>
      </trkpt>
      <trkpt lat="46.01049" lon="2.94484">
        <ele>683.6345215</ele>
        <time>2009-05-08T09:53:37Z</time>
      </trkpt>
      <trkpt lat="46.01079" lon="2.94468">
        <ele>684.5961914</ele>
        <time>2009-05-08T09:53:45Z</time>
      </trkpt>
      <trkpt lat="46.01099" lon="2.94462">
        <ele>685.0769043</ele>
        <time>2009-05-08T09:53:50Z</time>
      </trkpt>
      <trkpt lat="46.01107" lon="2.9446">
        <ele>685.557373</ele>
        <time>2009-05-08T09:53:52Z</time>
      </trkpt>
      <trkpt lat="46.0114" lon="2.94463">
        <ele>684.5961914</ele>
        <time>2009-05-08T09:53:59Z</time>
      </trkpt>
      <trkpt lat="46.01189" lon="2.94468">
        <ele>683.6345215</ele>
        <time>2009-05-08T09:54:08Z</time>
      </trkpt>
      <trkpt lat="46.01195" lon="2.94468">
        <ele>682.6733398</ele>
        <time>2009-05-08T09:54:09Z</time>
      </trkpt>
      <trkpt lat="46.01218" lon="2.94456">
        <ele>682.6733398</ele>
        <time>2009-05-08T09:54:14Z</time>
      </trkpt>
      <trkpt lat="46.01223" lon="2.94446">
        <ele>683.1538086</ele>
        <time>2009-05-08T09:54:16Z</time>
      </trkpt>
      <trkpt lat="46.01233" lon="2.94421">
        <ele>684.1154785</ele>
        <time>2009-05-08T09:54:23Z</time>
      </trkpt>
      <trkpt lat="46.01238" lon="2.94394">
        <ele>687.4799805</ele>
        <time>2009-05-08T09:54:32Z</time>
      </trkpt>
      <trkpt lat="46.01242" lon="2.94368">
        <ele>689.4025879</ele>
        <time>2009-05-08T09:54:41Z</time>
      </trkpt>
      <trkpt lat="46.01246" lon="2.94347">
        <ele>689.8833008</ele>
        <time>2009-05-08T09:54:49Z</time>
      </trkpt>
      <trkpt lat="46.01251" lon="2.9432">
        <ele>691.8059082</ele>
        <time>2009-05-08T09:54:59Z</time>
      </trkpt>
      <trkpt lat="46.01252" lon="2.94296">
        <ele>694.2092285</ele>
        <time>2009-05-08T09:55:08Z</time>
      </trkpt>
      <trkpt lat="46.01253" lon="2.9428">
        <ele>695.1704102</ele>
        <time>2009-05-08T09:55:15Z</time>
      </trkpt>
      <trkpt lat="46.01256" lon="2.94262">
        <ele>696.1318359</ele>
        <time>2009-05-08T09:55:22Z</time>
      </trkpt>
      <trkpt lat="46.01262" lon="2.94238">
        <ele>697.5737305</ele>
        <time>2009-05-08T09:55:31Z</time>
      </trkpt>
      <trkpt lat="46.01266" lon="2.9422">
        <ele>698.0544434</ele>
        <time>2009-05-08T09:55:39Z</time>
      </trkpt>
      <trkpt lat="46.0127" lon="2.94204">
        <ele>699.4963379</ele>
        <time>2009-05-08T09:55:47Z</time>
      </trkpt>
      <trkpt lat="46.01274" lon="2.94189">
        <ele>700.9384766</ele>
        <time>2009-05-08T09:55:55Z</time>
      </trkpt>
      <trkpt lat="46.01277" lon="2.94179">
        <ele>702.3803711</ele>
        <time>2009-05-08T09:56:01Z</time>
      </trkpt>
      <trkpt lat="46.01283" lon="2.94165">
        <ele>703.8225098</ele>
        <time>2009-05-08T09:56:09Z</time>
      </trkpt>
      <trkpt lat="46.01289" lon="2.94154">
        <ele>704.7836914</ele>
        <time>2009-05-08T09:56:16Z</time>
      </trkpt>
      <trkpt lat="46.01298" lon="2.94142">
        <ele>707.1870117</ele>
        <time>2009-05-08T09:56:23Z</time>
      </trkpt>
      <trkpt lat="46.01301" lon="2.94138">
        <ele>707.6677246</ele>
        <time>2009-05-08T09:56:25Z</time>
      </trkpt>
      <trkpt lat="46.01314" lon="2.94131">
        <ele>708.6289063</ele>
        <time>2009-05-08T09:56:34Z</time>
      </trkpt>
      <trkpt lat="46.01324" lon="2.94126">
        <ele>709.590332</ele>
        <time>2009-05-08T09:56:39Z</time>
      </trkpt>
      <trkpt lat="46.01332" lon="2.94118">
        <ele>710.5515137</ele>
        <time>2009-05-08T09:56:46Z</time>
      </trkpt>
      <trkpt lat="46.01333" lon="2.94117">
        <ele>711.0322266</ele>
        <time>2009-05-08T09:56:47Z</time>
      </trkpt>
      <trkpt lat="46.01339" lon="2.94107">
        <ele>712.954834</ele>
        <time>2009-05-08T09:56:53Z</time>
      </trkpt>
      <trkpt lat="46.01348" lon="2.94095">
        <ele>714.3967285</ele>
        <time>2009-05-08T09:57:01Z</time>
      </trkpt>
      <trkpt lat="46.01358" lon="2.94089">
        <ele>715.3581543</ele>
        <time>2009-05-08T09:57:08Z</time>
      </trkpt>
      <trkpt lat="46.01369" lon="2.94091">
        <ele>715.3581543</ele>
        <time>2009-05-08T09:57:14Z</time>
      </trkpt>
      <trkpt lat="46.01378" lon="2.94095">
        <ele>716.3195801</ele>
        <time>2009-05-08T09:57:20Z</time>
      </trkpt>
      <trkpt lat="46.01386" lon="2.94096">
        <ele>717.7614746</ele>
        <time>2009-05-08T09:57:26Z</time>
      </trkpt>
      <trkpt lat="46.01397" lon="2.94097">
        <ele>719.2036133</ele>
        <time>2009-05-08T09:57:33Z</time>
      </trkpt>
      <trkpt lat="46.01406" lon="2.94101">
        <ele>720.6455078</ele>
        <time>2009-05-08T09:57:41Z</time>
      </trkpt>
      <trkpt lat="46.01414" lon="2.94105">
        <ele>720.6455078</ele>
        <time>2009-05-08T09:57:47Z</time>
      </trkpt>
      <trkpt lat="46.01419" lon="2.94108">
        <ele>721.1262207</ele>
        <time>2009-05-08T09:57:50Z</time>
      </trkpt>
      <trkpt lat="46.01432" lon="2.9411">
        <ele>722.5681152</ele>
        <time>2009-05-08T09:57:58Z</time>
      </trkpt>
      <trkpt lat="46.01444" lon="2.94113">
        <ele>723.0488281</ele>
        <time>2009-05-08T09:58:05Z</time>
      </trkpt>
      <trkpt lat="46.01457" lon="2.94114">
        <ele>723.529541</ele>
        <time>2009-05-08T09:58:13Z</time>
      </trkpt>
      <trkpt lat="46.01464" lon="2.94115">
        <ele>724.0100098</ele>
        <time>2009-05-08T09:58:18Z</time>
      </trkpt>
      <trkpt lat="46.01473" lon="2.94113">
        <ele>725.9326172</ele>
        <time>2009-05-08T09:58:25Z</time>
      </trkpt>
      <trkpt lat="46.01477" lon="2.94113">
        <ele>725.9326172</ele>
        <time>2009-05-08T09:58:28Z</time>
      </trkpt>
      <trkpt lat="46.01489" lon="2.94116">
        <ele>726.894043</ele>
        <time>2009-05-08T09:58:35Z</time>
      </trkpt>
      <trkpt lat="46.01503" lon="2.94119">
        <ele>727.3747559</ele>
        <time>2009-05-08T09:58:42Z</time>
      </trkpt>
      <trkpt lat="46.01523" lon="2.94128">
        <ele>727.8552246</ele>
        <time>2009-05-08T09:58:50Z</time>
      </trkpt>
      <trkpt lat="46.01538" lon="2.94134">
        <ele>727.8552246</ele>
        <time>2009-05-08T09:58:55Z</time>
      </trkpt>
      <trkpt lat="46.01553" lon="2.94135">
        <ele>728.3359375</ele>
        <time>2009-05-08T09:59:00Z</time>
      </trkpt>
      <trkpt lat="46.01566" lon="2.94134">
        <ele>728.8166504</ele>
        <time>2009-05-08T09:59:06Z</time>
      </trkpt>
      <trkpt lat="46.01577" lon="2.94132">
        <ele>728.3359375</ele>
        <time>2009-05-08T09:59:11Z</time>
      </trkpt>
      <trkpt lat="46.01584" lon="2.94131">
        <ele>728.3359375</ele>
        <time>2009-05-08T09:59:15Z</time>
      </trkpt>
      <trkpt lat="46.01586" lon="2.94132">
        <ele>728.3359375</ele>
        <time>2009-05-08T09:59:17Z</time>
      </trkpt>
      <trkpt lat="46.01591" lon="2.94133">
        <ele>728.3359375</ele>
        <time>2009-05-08T09:59:26Z</time>
      </trkpt>
      <trkpt lat="46.01593" lon="2.94134">
        <ele>728.8166504</ele>
        <time>2009-05-08T09:59:32Z</time>
      </trkpt>
      <trkpt lat="46.01594" lon="2.94134">
        <ele>728.8166504</ele>
        <time>2009-05-08T09:59:33Z</time>
      </trkpt>
      <trkpt lat="46.01605" lon="2.94141">
        <ele>727.8552246</ele>
        <time>2009-05-08T09:59:39Z</time>
      </trkpt>
      <trkpt lat="46.01627" lon="2.9415">
        <ele>726.4133301</ele>
        <time>2009-05-08T09:59:45Z</time>
      </trkpt>
      <trkpt lat="46.01637" lon="2.94154">
        <ele>725.9326172</ele>
        <time>2009-05-08T09:59:48Z</time>
      </trkpt>
      <trkpt lat="46.01641" lon="2.94156">
        <ele>726.4133301</ele>
        <time>2009-05-08T09:59:49Z</time>
      </trkpt>
      <trkpt lat="46.01645" lon="2.94158">
        <ele>725.9326172</ele>
        <time>2009-05-08T09:59:50Z</time>
      </trkpt>
      <trkpt lat="46.01655" lon="2.94167">
        <ele>724.9714355</ele>
        <time>2009-05-08T09:59:53Z</time>
      </trkpt>
      <trkpt lat="46.01677" lon="2.94197">
        <ele>724.4907227</ele>
        <time>2009-05-08T10:00:00Z</time>
      </trkpt>
      <trkpt lat="46.01684" lon="2.94208">
        <ele>723.529541</ele>
        <time>2009-05-08T10:00:02Z</time>
      </trkpt>
      <trkpt lat="46.01695" lon="2.94235">
        <ele>721.6066895</ele>
        <time>2009-05-08T10:00:07Z</time>
      </trkpt>
      <trkpt lat="46.01707" lon="2.94253">
        <ele>720.6455078</ele>
        <time>2009-05-08T10:00:12Z</time>
      </trkpt>
      <trkpt lat="46.01717" lon="2.94267">
        <ele>720.6455078</ele>
        <time>2009-05-08T10:00:16Z</time>
      </trkpt>
      <trkpt lat="46.01726" lon="2.94277">
        <ele>718.2421875</ele>
        <time>2009-05-08T10:00:19Z</time>
      </trkpt>
      <trkpt lat="46.01748" lon="2.94303">
        <ele>717.2810059</ele>
        <time>2009-05-08T10:00:25Z</time>
      </trkpt>
      <trkpt lat="46.0176" lon="2.94318">
        <ele>716.3195801</ele>
        <time>2009-05-08T10:00:29Z</time>
      </trkpt>
      <trkpt lat="46.01768" lon="2.94337">
        <ele>716.3195801</ele>
        <time>2009-05-08T10:00:33Z</time>
      </trkpt>
      <trkpt lat="46.01773" lon="2.9436">
        <ele>715.3581543</ele>
        <time>2009-05-08T10:00:37Z</time>
      </trkpt>
      <trkpt lat="46.01778" lon="2.94386">
        <ele>714.3967285</ele>
        <time>2009-05-08T10:00:42Z</time>
      </trkpt>
      <trkpt lat="46.0178" lon="2.94414">
        <ele>715.3581543</ele>
        <time>2009-05-08T10:00:48Z</time>
      </trkpt>
      <trkpt lat="46.01771" lon="2.94421">
        <ele>712.954834</ele>
        <time>2009-05-08T10:00:52Z</time>
      </trkpt>
      <trkpt lat="46.01752" lon="2.94428">
        <ele>711.5129395</ele>
        <time>2009-05-08T10:00:57Z</time>
      </trkpt>
      <trkpt lat="46.01742" lon="2.94432">
        <ele>710.5515137</ele>
        <time>2009-05-08T10:00:59Z</time>
      </trkpt>
      <trkpt lat="46.01699" lon="2.94441">
        <ele>706.7062988</ele>
        <time>2009-05-08T10:01:04Z</time>
      </trkpt>
      <trkpt lat="46.01691" lon="2.94443">
        <ele>705.7451172</ele>
        <time>2009-05-08T10:01:05Z</time>
      </trkpt>
      <trkpt lat="46.01674" lon="2.94445">
        <ele>704.3032227</ele>
        <time>2009-05-08T10:01:07Z</time>
      </trkpt>
      <trkpt lat="46.01667" lon="2.94445">
        <ele>703.8225098</ele>
        <time>2009-05-08T10:01:08Z</time>
      </trkpt>
      <trkpt lat="46.01634" lon="2.94438">
        <ele>699.4963379</ele>
        <time>2009-05-08T10:01:12Z</time>
      </trkpt>
      <trkpt lat="46.01619" lon="2.94434">
        <ele>698.0544434</ele>
        <time>2009-05-08T10:01:14Z</time>
      </trkpt>
      <trkpt lat="46.01596" lon="2.94444">
        <ele>695.651123</ele>
        <time>2009-05-08T10:01:18Z</time>
      </trkpt>
      <trkpt lat="46.01593" lon="2.94452">
        <ele>695.651123</ele>
        <time>2009-05-08T10:01:19Z</time>
      </trkpt>
      <trkpt lat="46.01586" lon="2.94483">
        <ele>695.1704102</ele>
        <time>2009-05-08T10:01:23Z</time>
      </trkpt>
      <trkpt lat="46.01579" lon="2.94505">
        <ele>694.6896973</ele>
        <time>2009-05-08T10:01:26Z</time>
      </trkpt>
      <trkpt lat="46.01564" lon="2.94536">
        <ele>693.2478027</ele>
        <time>2009-05-08T10:01:31Z</time>
      </trkpt>
      <trkpt lat="46.0155" lon="2.94562">
        <ele>691.8059082</ele>
        <time>2009-05-08T10:01:35Z</time>
      </trkpt>
      <trkpt lat="46.01534" lon="2.94585">
        <ele>690.8444824</ele>
        <time>2009-05-08T10:01:39Z</time>
      </trkpt>
      <trkpt lat="46.01517" lon="2.94609">
        <ele>688.9221191</ele>
        <time>2009-05-08T10:01:44Z</time>
      </trkpt>
      <trkpt lat="46.01508" lon="2.9462">
        <ele>688.4414063</ele>
        <time>2009-05-08T10:01:46Z</time>
      </trkpt>
      <trkpt lat="46.01489" lon="2.94657">
        <ele>685.0769043</ele>
        <time>2009-05-08T10:01:51Z</time>
      </trkpt>
      <trkpt lat="46.01472" lon="2.9469">
        <ele>684.1154785</ele>
        <time>2009-05-08T10:01:55Z</time>
      </trkpt>
      <trkpt lat="46.01455" lon="2.94714">
        <ele>684.1154785</ele>
        <time>2009-05-08T10:02:00Z</time>
      </trkpt>
      <trkpt lat="46.01445" lon="2.94743">
        <ele>682.192627</ele>
        <time>2009-05-08T10:02:04Z</time>
      </trkpt>
      <trkpt lat="46.01438" lon="2.94777">
        <ele>680.7507324</ele>
        <time>2009-05-08T10:02:08Z</time>
      </trkpt>
      <trkpt lat="46.01433" lon="2.94797">
        <ele>678.828125</ele>
        <time>2009-05-08T10:02:10Z</time>
      </trkpt>
      <trkpt lat="46.01413" lon="2.94844">
        <ele>676.9055176</ele>
        <time>2009-05-08T10:02:15Z</time>
      </trkpt>
      <trkpt lat="46.01406" lon="2.94879">
        <ele>674.9829102</ele>
        <time>2009-05-08T10:02:19Z</time>
      </trkpt>
      <trkpt lat="46.0141" lon="2.94891">
        <ele>674.9829102</ele>
        <time>2009-05-08T10:02:22Z</time>
      </trkpt>
      <trkpt lat="46.01424" lon="2.94901">
        <ele>675.9440918</ele>
        <time>2009-05-08T10:02:29Z</time>
      </trkpt>
      <trkpt lat="46.01434" lon="2.9491">
        <ele>676.4248047</ele>
        <time>2009-05-08T10:02:34Z</time>
      </trkpt>
      <trkpt lat="46.01449" lon="2.94925">
        <ele>678.3474121</ele>
        <time>2009-05-08T10:02:41Z</time>
      </trkpt>
      <trkpt lat="46.0146" lon="2.94936">
        <ele>679.3085938</ele>
        <time>2009-05-08T10:02:46Z</time>
      </trkpt>
      <trkpt lat="46.01474" lon="2.94957">
        <ele>680.2700195</ele>
        <time>2009-05-08T10:02:53Z</time>
      </trkpt>
      <trkpt lat="46.01478" lon="2.94972">
        <ele>681.2314453</ele>
        <time>2009-05-08T10:02:57Z</time>
      </trkpt>
      <trkpt lat="46.01485" lon="2.94999">
        <ele>681.7119141</ele>
        <time>2009-05-08T10:03:04Z</time>
      </trkpt>
      <trkpt lat="46.01496" lon="2.95018">
        <ele>683.6345215</ele>
        <time>2009-05-08T10:03:10Z</time>
      </trkpt>
      <trkpt lat="46.01513" lon="2.95035">
        <ele>684.5961914</ele>
        <time>2009-05-08T10:03:18Z</time>
      </trkpt>
      <trkpt lat="46.01534" lon="2.95052">
        <ele>686.0380859</ele>
        <time>2009-05-08T10:03:27Z</time>
      </trkpt>
      <trkpt lat="46.01552" lon="2.95065">
        <ele>687.9606934</ele>
        <time>2009-05-08T10:03:35Z</time>
      </trkpt>
      <trkpt lat="46.01571" lon="2.95075">
        <ele>688.9221191</ele>
        <time>2009-05-08T10:03:43Z</time>
      </trkpt>
      <trkpt lat="46.01593" lon="2.95083">
        <ele>689.8833008</ele>
        <time>2009-05-08T10:03:51Z</time>
      </trkpt>
      <trkpt lat="46.01619" lon="2.95082">
        <ele>691.8059082</ele>
        <time>2009-05-08T10:04:00Z</time>
      </trkpt>
      <trkpt lat="46.01633" lon="2.95078">
        <ele>692.767334</ele>
        <time>2009-05-08T10:04:06Z</time>
      </trkpt>
      <trkpt lat="46.01638" lon="2.95076">
        <ele>693.2478027</ele>
        <time>2009-05-08T10:04:08Z</time>
      </trkpt>
      <trkpt lat="46.0166" lon="2.95067">
        <ele>693.7285156</ele>
        <time>2009-05-08T10:04:16Z</time>
      </trkpt>
      <trkpt lat="46.01686" lon="2.95057">
        <ele>695.1704102</ele>
        <time>2009-05-08T10:04:25Z</time>
      </trkpt>
      <trkpt lat="46.01707" lon="2.95055">
        <ele>697.5737305</ele>
        <time>2009-05-08T10:04:32Z</time>
      </trkpt>
      <trkpt lat="46.01727" lon="2.95059">
        <ele>698.5349121</ele>
        <time>2009-05-08T10:04:39Z</time>
      </trkpt>
      <trkpt lat="46.01756" lon="2.95074">
        <ele>699.4963379</ele>
        <time>2009-05-08T10:04:49Z</time>
      </trkpt>
      <trkpt lat="46.01786" lon="2.95092">
        <ele>699.9770508</ele>
        <time>2009-05-08T10:04:58Z</time>
      </trkpt>
      <trkpt lat="46.01814" lon="2.95111">
        <ele>699.4963379</ele>
        <time>2009-05-08T10:05:05Z</time>
      </trkpt>
      <trkpt lat="46.01841" lon="2.95125">
        <ele>699.015625</ele>
        <time>2009-05-08T10:05:10Z</time>
      </trkpt>
      <trkpt lat="46.01876" lon="2.95131">
        <ele>699.015625</ele>
        <time>2009-05-08T10:05:16Z</time>
      </trkpt>
      <trkpt lat="46.01913" lon="2.95137">
        <ele>698.5349121</ele>
        <time>2009-05-08T10:05:22Z</time>
      </trkpt>
      <trkpt lat="46.01958" lon="2.95148">
        <ele>697.5737305</ele>
        <time>2009-05-08T10:05:29Z</time>
      </trkpt>
      <trkpt lat="46.02014" lon="2.9517">
        <ele>698.0544434</ele>
        <time>2009-05-08T10:05:38Z</time>
      </trkpt>
      <trkpt lat="46.02055" lon="2.95187">
        <ele>697.0930176</ele>
        <time>2009-05-08T10:05:45Z</time>
      </trkpt>
      <trkpt lat="46.0211" lon="2.95209">
        <ele>695.651123</ele>
        <time>2009-05-08T10:05:54Z</time>
      </trkpt>
      <trkpt lat="46.02146" lon="2.95221">
        <ele>692.2866211</ele>
        <time>2009-05-08T10:05:59Z</time>
      </trkpt>
      <trkpt lat="46.02162" lon="2.95226">
        <ele>691.3251953</ele>
        <time>2009-05-08T10:06:01Z</time>
      </trkpt>
      <trkpt lat="46.02189" lon="2.95232">
        <ele>687.9606934</ele>
        <time>2009-05-08T10:06:04Z</time>
      </trkpt>
      <trkpt lat="46.02227" lon="2.9524">
        <ele>685.0769043</ele>
        <time>2009-05-08T10:06:08Z</time>
      </trkpt>
      <trkpt lat="46.02236" lon="2.95242">
        <ele>684.1154785</ele>
        <time>2009-05-08T10:06:09Z</time>
      </trkpt>
      <trkpt lat="46.02263" lon="2.95247">
        <ele>683.6345215</ele>
        <time>2009-05-08T10:06:12Z</time>
      </trkpt>
      <trkpt lat="46.02312" lon="2.95263">
        <ele>682.192627</ele>
        <time>2009-05-08T10:06:18Z</time>
      </trkpt>
      <trkpt lat="46.02342" lon="2.95278">
        <ele>682.192627</ele>
        <time>2009-05-08T10:06:22Z</time>
      </trkpt>
      <trkpt lat="46.02391" lon="2.95312">
        <ele>681.2314453</ele>
        <time>2009-05-08T10:06:29Z</time>
      </trkpt>
      <trkpt lat="46.02397" lon="2.95318">
        <ele>680.2700195</ele>
        <time>2009-05-08T10:06:30Z</time>
      </trkpt>
      <trkpt lat="46.02415" lon="2.95337">
        <ele>681.2314453</ele>
        <time>2009-05-08T10:06:33Z</time>
      </trkpt>
      <trkpt lat="46.02421" lon="2.95342">
        <ele>681.7119141</ele>
        <time>2009-05-08T10:06:34Z</time>
      </trkpt>
      <trkpt lat="46.02432" lon="2.95372">
        <ele>680.7507324</ele>
        <time>2009-05-08T10:06:38Z</time>
      </trkpt>
      <trkpt lat="46.02432" lon="2.95381">
        <ele>680.7507324</ele>
        <time>2009-05-08T10:06:39Z</time>
      </trkpt>
      <trkpt lat="46.0243" lon="2.9546">
        <ele>679.7893066</ele>
        <time>2009-05-08T10:06:47Z</time>
      </trkpt>
      <trkpt lat="46.0243" lon="2.9547">
        <ele>679.3085938</ele>
        <time>2009-05-08T10:06:48Z</time>
      </trkpt>
      <trkpt lat="46.02417" lon="2.95539">
        <ele>679.7893066</ele>
        <time>2009-05-08T10:06:55Z</time>
      </trkpt>
      <trkpt lat="46.02414" lon="2.95548">
        <ele>678.828125</ele>
        <time>2009-05-08T10:06:56Z</time>
      </trkpt>
      <trkpt lat="46.02388" lon="2.95605">
        <ele>677.8666992</ele>
        <time>2009-05-08T10:07:03Z</time>
      </trkpt>
      <trkpt lat="46.02373" lon="2.95669">
        <ele>677.8666992</ele>
        <time>2009-05-08T10:07:10Z</time>
      </trkpt>
      <trkpt lat="46.0236" lon="2.95723">
        <ele>677.8666992</ele>
        <time>2009-05-08T10:07:16Z</time>
      </trkpt>
      <trkpt lat="46.0235" lon="2.95771">
        <ele>676.9055176</ele>
        <time>2009-05-08T10:07:22Z</time>
      </trkpt>
      <trkpt lat="46.02345" lon="2.95783">
        <ele>676.4248047</ele>
        <time>2009-05-08T10:07:26Z</time>
      </trkpt>
      <trkpt lat="46.02339" lon="2.95803">
        <ele>676.4248047</ele>
        <time>2009-05-08T10:07:30Z</time>
      </trkpt>
      <trkpt lat="46.02338" lon="2.95809">
        <ele>676.4248047</ele>
        <time>2009-05-08T10:07:31Z</time>
      </trkpt>
      <trkpt lat="46.02325" lon="2.95868">
        <ele>676.9055176</ele>
        <time>2009-05-08T10:07:39Z</time>
      </trkpt>
      <trkpt lat="46.02316" lon="2.95932">
        <ele>677.3862305</ele>
        <time>2009-05-08T10:07:47Z</time>
      </trkpt>
      <trkpt lat="46.02315" lon="2.95983">
        <ele>677.3862305</ele>
        <time>2009-05-08T10:07:53Z</time>
      </trkpt>
      <trkpt lat="46.02315" lon="2.96059">
        <ele>677.8666992</ele>
        <time>2009-05-08T10:08:02Z</time>
      </trkpt>
      <trkpt lat="46.02313" lon="2.96113">
        <ele>678.3474121</ele>
        <time>2009-05-08T10:08:09Z</time>
      </trkpt>
      <trkpt lat="46.02309" lon="2.96172">
        <ele>679.7893066</ele>
        <time>2009-05-08T10:08:17Z</time>
      </trkpt>
      <trkpt lat="46.02298" lon="2.96234">
        <ele>680.7507324</ele>
        <time>2009-05-08T10:08:26Z</time>
      </trkpt>
      <trkpt lat="46.02296" lon="2.96241">
        <ele>680.7507324</ele>
        <time>2009-05-08T10:08:27Z</time>
      </trkpt>
      <trkpt lat="46.02283" lon="2.96275">
        <ele>681.2314453</ele>
        <time>2009-05-08T10:08:34Z</time>
      </trkpt>
      <trkpt lat="46.02283" lon="2.96289">
        <ele>681.7119141</ele>
        <time>2009-05-08T10:08:38Z</time>
      </trkpt>
      <trkpt lat="46.02286" lon="2.96314">
        <ele>681.2314453</ele>
        <time>2009-05-08T10:08:44Z</time>
      </trkpt>
      <trkpt lat="46.02286" lon="2.9633">
        <ele>681.2314453</ele>
        <time>2009-05-08T10:08:50Z</time>
      </trkpt>
      <trkpt lat="46.02284" lon="2.96332">
        <ele>681.7119141</ele>
        <time>2009-05-08T10:08:54Z</time>
      </trkpt>
      <trkpt lat="46.02283" lon="2.96332">
        <ele>681.7119141</ele>
        <time>2009-05-08T10:08:59Z</time>
      </trkpt>
      <trkpt lat="46.02282" lon="2.96332">
        <ele>681.7119141</ele>
        <time>2009-05-08T10:09:04Z</time>
      </trkpt>
      <trkpt lat="46.02279" lon="2.96332">
        <ele>680.2700195</ele>
        <time>2009-05-08T10:09:10Z</time>
      </trkpt>
      <trkpt lat="46.02278" lon="2.96333">
        <ele>680.2700195</ele>
        <time>2009-05-08T10:09:42Z</time>
      </trkpt>
      <trkpt lat="46.0228" lon="2.96332">
        <ele>680.2700195</ele>
        <time>2009-05-08T10:10:20Z</time>
      </trkpt>
      <trkpt lat="46.0228" lon="2.96332">
        <ele>680.7507324</ele>
        <time>2009-05-08T10:10:21Z</time>
      </trkpt>
      <trkpt lat="46.02277" lon="2.9633">
        <ele>680.2700195</ele>
        <time>2009-05-08T10:10:37Z</time>
      </trkpt>
      <trkpt lat="46.02273" lon="2.96326">
        <ele>680.2700195</ele>
        <time>2009-05-08T10:11:25Z</time>
      </trkpt>
      <trkpt lat="46.02272" lon="2.96341">
        <ele>680.2700195</ele>
        <time>2009-05-08T10:12:21Z</time>
      </trkpt>
      <trkpt lat="46.02272" lon="2.96343">
        <ele>679.7893066</ele>
        <time>2009-05-08T10:12:32Z</time>
      </trkpt>
      <trkpt lat="46.02271" lon="2.96342">
        <ele>679.7893066</ele>
        <time>2009-05-08T10:12:48Z</time>
      </trkpt>
      <trkpt lat="46.02271" lon="2.96342">
        <ele>680.2700195</ele>
        <time>2009-05-08T10:12:49Z</time>
      </trkpt>
      <trkpt lat="46.02276" lon="2.96336">
        <ele>681.2314453</ele>
        <time>2009-05-08T10:13:52Z</time>
      </trkpt>
      <trkpt lat="46.02278" lon="2.96333">
        <ele>681.2314453</ele>
        <time>2009-05-08T10:13:56Z</time>
      </trkpt>
      <trkpt lat="46.02279" lon="2.96333">
        <ele>681.2314453</ele>
        <time>2009-05-08T10:13:57Z</time>
      </trkpt>
      <trkpt lat="46.02282" lon="2.96328">
        <ele>681.2314453</ele>
        <time>2009-05-08T10:14:04Z</time>
      </trkpt>
      <trkpt lat="46.02283" lon="2.96325">
        <ele>681.2314453</ele>
        <time>2009-05-08T10:14:12Z</time>
      </trkpt>
      <trkpt lat="46.02284" lon="2.96324">
        <ele>681.2314453</ele>
        <time>2009-05-08T10:14:19Z</time>
      </trkpt>
      <trkpt lat="46.02285" lon="2.96323">
        <ele>681.7119141</ele>
        <time>2009-05-08T10:14:26Z</time>
      </trkpt>
      <trkpt lat="46.02287" lon="2.96318">
        <ele>680.7507324</ele>
        <time>2009-05-08T10:17:23Z</time>
      </trkpt>
      <trkpt lat="46.02287" lon="2.96318">
        <ele>680.7507324</ele>
        <time>2009-05-08T10:17:24Z</time>
      </trkpt>
      <trkpt lat="46.02286" lon="2.96316">
        <ele>680.7507324</ele>
        <time>2009-05-08T10:17:37Z</time>
      </trkpt>
      <trkpt lat="46.02289" lon="2.96322">
        <ele>680.7507324</ele>
        <time>2009-05-08T10:18:02Z</time>
      </trkpt>
      <trkpt lat="46.02289" lon="2.96322">
        <ele>680.7507324</ele>
        <time>2009-05-08T10:18:03Z</time>
      </trkpt>
      <trkpt lat="46.02289" lon="2.96322">
        <ele>681.2314453</ele>
        <time>2009-05-08T10:18:06Z</time>
      </trkpt>
      <trkpt lat="46.02288" lon="2.96321">
        <ele>681.2314453</ele>
        <time>2009-05-08T10:18:14Z</time>
      </trkpt>
      <trkpt lat="46.02287" lon="2.96317">
        <ele>681.2314453</ele>
        <time>2009-05-08T10:18:27Z</time>
      </trkpt>
      <trkpt lat="46.02286" lon="2.96316">
        <ele>681.2314453</ele>
        <time>2009-05-08T10:18:28Z</time>
      </trkpt>
      <trkpt lat="46.02285" lon="2.96294">
        <ele>680.7507324</ele>
        <time>2009-05-08T10:18:34Z</time>
      </trkpt>
      <trkpt lat="46.0228" lon="2.96276">
        <ele>681.2314453</ele>
        <time>2009-05-08T10:18:39Z</time>
      </trkpt>
      <trkpt lat="46.02271" lon="2.96277">
        <ele>681.2314453</ele>
        <time>2009-05-08T10:18:44Z</time>
      </trkpt>
      <trkpt lat="46.0226" lon="2.96291">
        <ele>681.2314453</ele>
        <time>2009-05-08T10:18:49Z</time>
      </trkpt>
      <trkpt lat="46.02245" lon="2.96304">
        <ele>681.7119141</ele>
        <time>2009-05-08T10:18:54Z</time>
      </trkpt>
      <trkpt lat="46.02232" lon="2.96315">
        <ele>681.7119141</ele>
        <time>2009-05-08T10:18:58Z</time>
      </trkpt>
      <trkpt lat="46.02225" lon="2.9632">
        <ele>682.192627</ele>
        <time>2009-05-08T10:19:00Z</time>
      </trkpt>
      <trkpt lat="46.02195" lon="2.96344">
        <ele>684.1154785</ele>
        <time>2009-05-08T10:19:09Z</time>
      </trkpt>
      <trkpt lat="46.02188" lon="2.96349">
        <ele>684.5961914</ele>
        <time>2009-05-08T10:19:11Z</time>
      </trkpt>
      <trkpt lat="46.02181" lon="2.96353">
        <ele>685.0769043</ele>
        <time>2009-05-08T10:19:13Z</time>
      </trkpt>
      <trkpt lat="46.0217" lon="2.9636">
        <ele>685.557373</ele>
        <time>2009-05-08T10:19:16Z</time>
      </trkpt>
      <trkpt lat="46.02133" lon="2.96378">
        <ele>687.4799805</ele>
        <time>2009-05-08T10:19:26Z</time>
      </trkpt>
      <trkpt lat="46.02094" lon="2.96399">
        <ele>689.4025879</ele>
        <time>2009-05-08T10:19:36Z</time>
      </trkpt>
      <trkpt lat="46.02069" lon="2.96416">
        <ele>689.4025879</ele>
        <time>2009-05-08T10:19:42Z</time>
      </trkpt>
      <trkpt lat="46.0204" lon="2.96447">
        <ele>687.9606934</ele>
        <time>2009-05-08T10:19:48Z</time>
      </trkpt>
      <trkpt lat="46.02006" lon="2.96481">
        <ele>686.5187988</ele>
        <time>2009-05-08T10:19:54Z</time>
      </trkpt>
      <trkpt lat="46.01964" lon="2.96518">
        <ele>683.1538086</ele>
        <time>2009-05-08T10:20:00Z</time>
      </trkpt>
      <trkpt lat="46.01936" lon="2.96548">
        <ele>681.7119141</ele>
        <time>2009-05-08T10:20:04Z</time>
      </trkpt>
      <trkpt lat="46.01911" lon="2.96585">
        <ele>680.7507324</ele>
        <time>2009-05-08T10:20:08Z</time>
      </trkpt>
      <trkpt lat="46.01902" lon="2.96603">
        <ele>680.7507324</ele>
        <time>2009-05-08T10:20:10Z</time>
      </trkpt>
      <trkpt lat="46.01885" lon="2.96619">
        <ele>679.3085938</ele>
        <time>2009-05-08T10:20:14Z</time>
      </trkpt>
      <trkpt lat="46.01876" lon="2.96613">
        <ele>679.3085938</ele>
        <time>2009-05-08T10:20:16Z</time>
      </trkpt>
      <trkpt lat="46.01868" lon="2.96601">
        <ele>679.3085938</ele>
        <time>2009-05-08T10:20:18Z</time>
      </trkpt>
      <trkpt lat="46.01863" lon="2.96595">
        <ele>678.828125</ele>
        <time>2009-05-08T10:20:19Z</time>
      </trkpt>
      <trkpt lat="46.01841" lon="2.96579">
        <ele>677.3862305</ele>
        <time>2009-05-08T10:20:23Z</time>
      </trkpt>
      <trkpt lat="46.01834" lon="2.96581">
        <ele>677.8666992</ele>
        <time>2009-05-08T10:20:24Z</time>
      </trkpt>
      <trkpt lat="46.01809" lon="2.9658">
        <ele>676.9055176</ele>
        <time>2009-05-08T10:20:28Z</time>
      </trkpt>
      <trkpt lat="46.01803" lon="2.96575">
        <ele>676.4248047</ele>
        <time>2009-05-08T10:20:29Z</time>
      </trkpt>
      <trkpt lat="46.01772" lon="2.96569">
        <ele>673.5410156</ele>
        <time>2009-05-08T10:20:33Z</time>
      </trkpt>
      <trkpt lat="46.01764" lon="2.96569">
        <ele>673.5410156</ele>
        <time>2009-05-08T10:20:34Z</time>
      </trkpt>
      <trkpt lat="46.01706" lon="2.96569">
        <ele>670.6569824</ele>
        <time>2009-05-08T10:20:41Z</time>
      </trkpt>
      <trkpt lat="46.01643" lon="2.96561">
        <ele>668.734375</ele>
        <time>2009-05-08T10:20:48Z</time>
      </trkpt>
      <trkpt lat="46.01614" lon="2.9655">
        <ele>665.8503418</ele>
        <time>2009-05-08T10:20:51Z</time>
      </trkpt>
      <trkpt lat="46.01605" lon="2.96546">
        <ele>665.3696289</ele>
        <time>2009-05-08T10:20:52Z</time>
      </trkpt>
      <trkpt lat="46.01575" lon="2.96532">
        <ele>663.4470215</ele>
        <time>2009-05-08T10:20:55Z</time>
      </trkpt>
      <trkpt lat="46.01544" lon="2.96524">
        <ele>661.0437012</ele>
        <time>2009-05-08T10:20:58Z</time>
      </trkpt>
      <trkpt lat="46.01505" lon="2.96505">
        <ele>657.6791992</ele>
        <time>2009-05-08T10:21:02Z</time>
      </trkpt>
      <trkpt lat="46.01495" lon="2.96496">
        <ele>657.1984863</ele>
        <time>2009-05-08T10:21:03Z</time>
      </trkpt>
      <trkpt lat="46.01468" lon="2.96469">
        <ele>652.8725586</ele>
        <time>2009-05-08T10:21:06Z</time>
      </trkpt>
      <trkpt lat="46.01458" lon="2.96461">
        <ele>652.8725586</ele>
        <time>2009-05-08T10:21:07Z</time>
      </trkpt>
      <trkpt lat="46.01416" lon="2.96434">
        <ele>649.9885254</ele>
        <time>2009-05-08T10:21:11Z</time>
      </trkpt>
      <trkpt lat="46.01385" lon="2.96416">
        <ele>648.5463867</ele>
        <time>2009-05-08T10:21:14Z</time>
      </trkpt>
      <trkpt lat="46.01355" lon="2.96406">
        <ele>645.1818848</ele>
        <time>2009-05-08T10:21:17Z</time>
      </trkpt>
      <trkpt lat="46.01302" lon="2.96376">
        <ele>640.3754883</ele>
        <time>2009-05-08T10:21:22Z</time>
      </trkpt>
      <trkpt lat="46.01272" lon="2.96355">
        <ele>637.0107422</ele>
        <time>2009-05-08T10:21:25Z</time>
      </trkpt>
      <trkpt lat="46.01263" lon="2.9635">
        <ele>636.5302734</ele>
        <time>2009-05-08T10:21:26Z</time>
      </trkpt>
      <trkpt lat="46.01255" lon="2.96345">
        <ele>636.5302734</ele>
        <time>2009-05-08T10:21:27Z</time>
      </trkpt>
      <trkpt lat="46.01227" lon="2.96315">
        <ele>632.2041016</ele>
        <time>2009-05-08T10:21:31Z</time>
      </trkpt>
      <trkpt lat="46.01214" lon="2.96299">
        <ele>628.8395996</ele>
        <time>2009-05-08T10:21:33Z</time>
      </trkpt>
      <trkpt lat="46.01202" lon="2.96279">
        <ele>627.3977051</ele>
        <time>2009-05-08T10:21:35Z</time>
      </trkpt>
      <trkpt lat="46.01187" lon="2.96241">
        <ele>623.5524902</ele>
        <time>2009-05-08T10:21:38Z</time>
      </trkpt>
      <trkpt lat="46.01169" lon="2.96203">
        <ele>620.1877441</ele>
        <time>2009-05-08T10:21:41Z</time>
      </trkpt>
      <trkpt lat="46.01155" lon="2.96181">
        <ele>616.822998</ele>
        <time>2009-05-08T10:21:43Z</time>
      </trkpt>
      <trkpt lat="46.01149" lon="2.96173">
        <ele>616.822998</ele>
        <time>2009-05-08T10:21:44Z</time>
      </trkpt>
      <trkpt lat="46.01123" lon="2.96152">
        <ele>614.9003906</ele>
        <time>2009-05-08T10:21:47Z</time>
      </trkpt>
      <trkpt lat="46.01102" lon="2.96125">
        <ele>613.4584961</ele>
        <time>2009-05-08T10:21:50Z</time>
      </trkpt>
      <trkpt lat="46.01089" lon="2.96112">
        <ele>613.4584961</ele>
        <time>2009-05-08T10:21:52Z</time>
      </trkpt>
      <trkpt lat="46.01046" lon="2.96075">
        <ele>614.4196777</ele>
        <time>2009-05-08T10:21:59Z</time>
      </trkpt>
      <trkpt lat="46.01038" lon="2.96064">
        <ele>615.3811035</ele>
        <time>2009-05-08T10:22:01Z</time>
      </trkpt>
      <trkpt lat="46.01021" lon="2.96037">
        <ele>615.8618164</ele>
        <time>2009-05-08T10:22:06Z</time>
      </trkpt>
      <trkpt lat="46.01006" lon="2.96019">
        <ele>616.822998</ele>
        <time>2009-05-08T10:22:10Z</time>
      </trkpt>
      <trkpt lat="46.00985" lon="2.95997">
        <ele>617.7841797</ele>
        <time>2009-05-08T10:22:16Z</time>
      </trkpt>
      <trkpt lat="46.00982" lon="2.95994">
        <ele>618.2648926</ele>
        <time>2009-05-08T10:22:17Z</time>
      </trkpt>
      <trkpt lat="46.00976" lon="2.95987">
        <ele>618.2648926</ele>
        <time>2009-05-08T10:22:19Z</time>
      </trkpt>
      <trkpt lat="46.00951" lon="2.95961">
        <ele>620.668457</ele>
        <time>2009-05-08T10:22:27Z</time>
      </trkpt>
      <trkpt lat="46.00948" lon="2.95957">
        <ele>621.6296387</ele>
        <time>2009-05-08T10:22:28Z</time>
      </trkpt>
      <trkpt lat="46.00926" lon="2.95931">
        <ele>622.5910645</ele>
        <time>2009-05-08T10:22:35Z</time>
      </trkpt>
      <trkpt lat="46.00904" lon="2.95884">
        <ele>624.032959</ele>
        <time>2009-05-08T10:22:45Z</time>
      </trkpt>
      <trkpt lat="46.00886" lon="2.95844">
        <ele>625.4748535</ele>
        <time>2009-05-08T10:22:53Z</time>
      </trkpt>
      <trkpt lat="46.00876" lon="2.9582">
        <ele>627.8781738</ele>
        <time>2009-05-08T10:22:58Z</time>
      </trkpt>
      <trkpt lat="46.00865" lon="2.95796">
        <ele>629.3200684</ele>
        <time>2009-05-08T10:23:04Z</time>
      </trkpt>
      <trkpt lat="46.00857" lon="2.95783">
        <ele>629.3200684</ele>
        <time>2009-05-08T10:23:07Z</time>
      </trkpt>
      <trkpt lat="46.00821" lon="2.95744">
        <ele>627.8781738</ele>
        <time>2009-05-08T10:23:17Z</time>
      </trkpt>
      <trkpt lat="46.00794" lon="2.95711">
        <ele>626.9169922</ele>
        <time>2009-05-08T10:23:24Z</time>
      </trkpt>
      <trkpt lat="46.00765" lon="2.95703">
        <ele>624.5136719</ele>
        <time>2009-05-08T10:23:29Z</time>
      </trkpt>
      <trkpt lat="46.0073" lon="2.95714">
        <ele>620.668457</ele>
        <time>2009-05-08T10:23:33Z</time>
      </trkpt>
      <trkpt lat="46.00721" lon="2.95719">
        <ele>620.1877441</ele>
        <time>2009-05-08T10:23:34Z</time>
      </trkpt>
      <trkpt lat="46.00702" lon="2.95725">
        <ele>618.7456055</ele>
        <time>2009-05-08T10:23:36Z</time>
      </trkpt>
      <trkpt lat="46.00683" lon="2.9572">
        <ele>618.7456055</ele>
        <time>2009-05-08T10:23:38Z</time>
      </trkpt>
      <trkpt lat="46.00642" lon="2.957">
        <ele>616.822998</ele>
        <time>2009-05-08T10:23:43Z</time>
      </trkpt>
      <trkpt lat="46.00634" lon="2.95698">
        <ele>617.3037109</ele>
        <time>2009-05-08T10:23:44Z</time>
      </trkpt>
      <trkpt lat="46.00617" lon="2.95694">
        <ele>615.3811035</ele>
        <time>2009-05-08T10:23:46Z</time>
      </trkpt>
      <trkpt lat="46.006" lon="2.95694">
        <ele>615.3811035</ele>
        <time>2009-05-08T10:23:48Z</time>
      </trkpt>
      <trkpt lat="46.00591" lon="2.95695">
        <ele>614.9003906</ele>
        <time>2009-05-08T10:23:49Z</time>
      </trkpt>
      <trkpt lat="46.00557" lon="2.957">
        <ele>613.9389648</ele>
        <time>2009-05-08T10:23:53Z</time>
      </trkpt>
      <trkpt lat="46.00534" lon="2.95703">
        <ele>612.9777832</ele>
        <time>2009-05-08T10:23:56Z</time>
      </trkpt>
      <trkpt lat="46.00501" lon="2.957">
        <ele>610.09375</ele>
        <time>2009-05-08T10:24:00Z</time>
      </trkpt>
      <trkpt lat="46.00476" lon="2.95713">
        <ele>604.8066406</ele>
        <time>2009-05-08T10:24:03Z</time>
      </trkpt>
      <trkpt lat="46.00468" lon="2.95719">
        <ele>603.364502</ele>
        <time>2009-05-08T10:24:04Z</time>
      </trkpt>
      <trkpt lat="46.00453" lon="2.95729">
        <ele>600</ele>
        <time>2009-05-08T10:24:06Z</time>
      </trkpt>
      <trkpt lat="46.00437" lon="2.95737">
        <ele>598.0773926</ele>
        <time>2009-05-08T10:24:09Z</time>
      </trkpt>
      <trkpt lat="46.00429" lon="2.95741">
        <ele>597.5966797</ele>
        <time>2009-05-08T10:24:11Z</time>
      </trkpt>
      <trkpt lat="46.00404" lon="2.95742">
        <ele>593.7514648</ele>
        <time>2009-05-08T10:24:15Z</time>
      </trkpt>
      <trkpt lat="46.0037" lon="2.95738">
        <ele>590.3869629</ele>
        <time>2009-05-08T10:24:19Z</time>
      </trkpt>
      <trkpt lat="46.00337" lon="2.95747">
        <ele>587.0219727</ele>
        <time>2009-05-08T10:24:23Z</time>
      </trkpt>
      <trkpt lat="46.00316" lon="2.95774">
        <ele>584.6188965</ele>
        <time>2009-05-08T10:24:26Z</time>
      </trkpt>
      <trkpt lat="46.00294" lon="2.95815">
        <ele>584.1381836</ele>
        <time>2009-05-08T10:24:30Z</time>
      </trkpt>
      <trkpt lat="46.00277" lon="2.95853">
        <ele>584.6188965</ele>
        <time>2009-05-08T10:24:34Z</time>
      </trkpt>
      <trkpt lat="46.00257" lon="2.9588">
        <ele>584.6188965</ele>
        <time>2009-05-08T10:24:38Z</time>
      </trkpt>
      <trkpt lat="46.00252" lon="2.95884">
        <ele>585.0996094</ele>
        <time>2009-05-08T10:24:39Z</time>
      </trkpt>
      <trkpt lat="46.00237" lon="2.95894">
        <ele>587.0219727</ele>
        <time>2009-05-08T10:24:42Z</time>
      </trkpt>
      <trkpt lat="46.00228" lon="2.95899">
        <ele>587.5026855</ele>
        <time>2009-05-08T10:24:44Z</time>
      </trkpt>
      <trkpt lat="46.00212" lon="2.95904">
        <ele>588.4643555</ele>
        <time>2009-05-08T10:24:48Z</time>
      </trkpt>
      <trkpt lat="46.00203" lon="2.95906">
        <ele>587.9833984</ele>
        <time>2009-05-08T10:24:51Z</time>
      </trkpt>
      <trkpt lat="46.00201" lon="2.95907">
        <ele>588.4643555</ele>
        <time>2009-05-08T10:24:52Z</time>
      </trkpt>
      <trkpt lat="46.00195" lon="2.95913">
        <ele>587.9833984</ele>
        <time>2009-05-08T10:24:54Z</time>
      </trkpt>
      <trkpt lat="46.0019" lon="2.9594">
        <ele>587.0219727</ele>
        <time>2009-05-08T10:24:58Z</time>
      </trkpt>
      <trkpt lat="46.00179" lon="2.95958">
        <ele>585.0996094</ele>
        <time>2009-05-08T10:25:01Z</time>
      </trkpt>
      <trkpt lat="46.00172" lon="2.9596">
        <ele>584.6188965</ele>
        <time>2009-05-08T10:25:02Z</time>
      </trkpt>
      <trkpt lat="46.0014" lon="2.95981">
        <ele>584.6188965</ele>
        <time>2009-05-08T10:25:07Z</time>
      </trkpt>
      <trkpt lat="46.00136" lon="2.95987">
        <ele>584.6188965</ele>
        <time>2009-05-08T10:25:08Z</time>
      </trkpt>
      <trkpt lat="46.00118" lon="2.96018">
        <ele>587.0219727</ele>
        <time>2009-05-08T10:25:14Z</time>
      </trkpt>
      <trkpt lat="46.00109" lon="2.96032">
        <ele>588.4643555</ele>
        <time>2009-05-08T10:25:17Z</time>
      </trkpt>
      <trkpt lat="46.001" lon="2.96046">
        <ele>588.4643555</ele>
        <time>2009-05-08T10:25:20Z</time>
      </trkpt>
      <trkpt lat="46.0009" lon="2.96062">
        <ele>588.9450684</ele>
        <time>2009-05-08T10:25:23Z</time>
      </trkpt>
      <trkpt lat="46.00067" lon="2.96093">
        <ele>589.4255371</ele>
        <time>2009-05-08T10:25:29Z</time>
      </trkpt>
      <trkpt lat="46.00036" lon="2.96134">
        <ele>589.4255371</ele>
        <time>2009-05-08T10:25:36Z</time>
      </trkpt>
      <trkpt lat="46.00019" lon="2.96154">
        <ele>587.9833984</ele>
        <time>2009-05-08T10:25:39Z</time>
      </trkpt>
      <trkpt lat="46.00004" lon="2.96167">
        <ele>586.5415039</ele>
        <time>2009-05-08T10:25:41Z</time>
      </trkpt>
      <trkpt lat="45.99986" lon="2.96176">
        <ele>585.0996094</ele>
        <time>2009-05-08T10:25:43Z</time>
      </trkpt>
      <trkpt lat="45.99947" lon="2.96192">
        <ele>577.4091797</ele>
        <time>2009-05-08T10:25:47Z</time>
      </trkpt>
      <trkpt lat="45.99928" lon="2.962">
        <ele>575.967041</ele>
        <time>2009-05-08T10:25:49Z</time>
      </trkpt>
      <trkpt lat="45.99902" lon="2.96219">
        <ele>573.083252</ele>
        <time>2009-05-08T10:25:52Z</time>
      </trkpt>
      <trkpt lat="45.99883" lon="2.96242">
        <ele>572.6025391</ele>
        <time>2009-05-08T10:25:55Z</time>
      </trkpt>
      <trkpt lat="45.99842" lon="2.96269">
        <ele>572.1218262</ele>
        <time>2009-05-08T10:26:01Z</time>
      </trkpt>
      <trkpt lat="45.99821" lon="2.96285">
        <ele>570.6796875</ele>
        <time>2009-05-08T10:26:04Z</time>
      </trkpt>
      <trkpt lat="45.99808" lon="2.96316">
        <ele>568.7570801</ele>
        <time>2009-05-08T10:26:07Z</time>
      </trkpt>
      <trkpt lat="45.99793" lon="2.96341">
        <ele>567.3151855</ele>
        <time>2009-05-08T10:26:10Z</time>
      </trkpt>
      <trkpt lat="45.99778" lon="2.96353">
        <ele>565.873291</ele>
        <time>2009-05-08T10:26:12Z</time>
      </trkpt>
      <trkpt lat="45.99738" lon="2.96399">
        <ele>563.4699707</ele>
        <time>2009-05-08T10:26:18Z</time>
      </trkpt>
      <trkpt lat="45.99728" lon="2.96415">
        <ele>562.9892578</ele>
        <time>2009-05-08T10:26:20Z</time>
      </trkpt>
      <trkpt lat="45.99711" lon="2.9643">
        <ele>565.873291</ele>
        <time>2009-05-08T10:26:24Z</time>
      </trkpt>
      <trkpt lat="45.99707" lon="2.96431">
        <ele>566.3537598</ele>
        <time>2009-05-08T10:26:25Z</time>
      </trkpt>
      <trkpt lat="45.99692" lon="2.96432">
        <ele>568.2763672</ele>
        <time>2009-05-08T10:26:30Z</time>
      </trkpt>
      <trkpt lat="45.99683" lon="2.96434">
        <ele>569.237793</ele>
        <time>2009-05-08T10:26:33Z</time>
      </trkpt>
      <trkpt lat="45.99675" lon="2.96439">
        <ele>569.7185059</ele>
        <time>2009-05-08T10:26:36Z</time>
      </trkpt>
      <trkpt lat="45.99652" lon="2.96455">
        <ele>571.6408691</ele>
        <time>2009-05-08T10:26:44Z</time>
      </trkpt>
      <trkpt lat="45.99623" lon="2.9647">
        <ele>572.6025391</ele>
        <time>2009-05-08T10:26:53Z</time>
      </trkpt>
      <trkpt lat="45.99615" lon="2.96473">
        <ele>571.6408691</ele>
        <time>2009-05-08T10:26:55Z</time>
      </trkpt>
      <trkpt lat="45.99597" lon="2.96472">
        <ele>570.6796875</ele>
        <time>2009-05-08T10:26:59Z</time>
      </trkpt>
      <trkpt lat="45.99584" lon="2.96469">
        <ele>569.7185059</ele>
        <time>2009-05-08T10:27:01Z</time>
      </trkpt>
      <trkpt lat="45.99549" lon="2.96448">
        <ele>568.2763672</ele>
        <time>2009-05-08T10:27:06Z</time>
      </trkpt>
      <trkpt lat="45.99522" lon="2.96445">
        <ele>567.7956543</ele>
        <time>2009-05-08T10:27:10Z</time>
      </trkpt>
      <trkpt lat="45.99511" lon="2.96464">
        <ele>568.2763672</ele>
        <time>2009-05-08T10:27:13Z</time>
      </trkpt>
      <trkpt lat="45.9951" lon="2.9649">
        <ele>568.7570801</ele>
        <time>2009-05-08T10:27:17Z</time>
      </trkpt>
      <trkpt lat="45.9951" lon="2.96495">
        <ele>568.7570801</ele>
        <time>2009-05-08T10:27:18Z</time>
      </trkpt>
      <trkpt lat="45.99501" lon="2.96512">
        <ele>570.6796875</ele>
        <time>2009-05-08T10:27:25Z</time>
      </trkpt>
      <trkpt lat="45.99493" lon="2.96513">
        <ele>573.083252</ele>
        <time>2009-05-08T10:27:29Z</time>
      </trkpt>
      <trkpt lat="45.99489" lon="2.96511">
        <ele>573.5639648</ele>
        <time>2009-05-08T10:27:31Z</time>
      </trkpt>
      <trkpt lat="45.99469" lon="2.96506">
        <ele>575.4863281</ele>
        <time>2009-05-08T10:27:39Z</time>
      </trkpt>
      <trkpt lat="45.99453" lon="2.9651">
        <ele>575.4863281</ele>
        <time>2009-05-08T10:27:45Z</time>
      </trkpt>
      <trkpt lat="45.99439" lon="2.96525">
        <ele>576.9284668</ele>
        <time>2009-05-08T10:27:51Z</time>
      </trkpt>
      <trkpt lat="45.99428" lon="2.96549">
        <ele>577.4091797</ele>
        <time>2009-05-08T10:27:57Z</time>
      </trkpt>
      <trkpt lat="45.99414" lon="2.96565">
        <ele>578.8510742</ele>
        <time>2009-05-08T10:28:02Z</time>
      </trkpt>
      <trkpt lat="45.99393" lon="2.96592">
        <ele>579.8122559</ele>
        <time>2009-05-08T10:28:10Z</time>
      </trkpt>
      <trkpt lat="45.99383" lon="2.96601">
        <ele>579.331543</ele>
        <time>2009-05-08T10:28:13Z</time>
      </trkpt>
      <trkpt lat="45.99371" lon="2.96608">
        <ele>578.3703613</ele>
        <time>2009-05-08T10:28:16Z</time>
      </trkpt>
      <trkpt lat="45.99357" lon="2.96638">
        <ele>577.4091797</ele>
        <time>2009-05-08T10:28:21Z</time>
      </trkpt>
      <trkpt lat="45.99357" lon="2.96662">
        <ele>577.4091797</ele>
        <time>2009-05-08T10:28:24Z</time>
      </trkpt>
      <trkpt lat="45.99367" lon="2.96709">
        <ele>578.3703613</ele>
        <time>2009-05-08T10:28:31Z</time>
      </trkpt>
      <trkpt lat="45.99373" lon="2.96728">
        <ele>578.8510742</ele>
        <time>2009-05-08T10:28:34Z</time>
      </trkpt>
      <trkpt lat="45.99378" lon="2.96747">
        <ele>578.8510742</ele>
        <time>2009-05-08T10:28:37Z</time>
      </trkpt>
      <trkpt lat="45.9938" lon="2.96753">
        <ele>579.331543</ele>
        <time>2009-05-08T10:28:38Z</time>
      </trkpt>
      <trkpt lat="45.99383" lon="2.96765">
        <ele>579.331543</ele>
        <time>2009-05-08T10:28:40Z</time>
      </trkpt>
      <trkpt lat="45.99408" lon="2.96809">
        <ele>579.331543</ele>
        <time>2009-05-08T10:28:48Z</time>
      </trkpt>
      <trkpt lat="45.99415" lon="2.96823">
        <ele>579.331543</ele>
        <time>2009-05-08T10:28:50Z</time>
      </trkpt>
      <trkpt lat="45.99428" lon="2.96844">
        <ele>576.9284668</ele>
        <time>2009-05-08T10:28:53Z</time>
      </trkpt>
      <trkpt lat="45.99438" lon="2.9686">
        <ele>575.967041</ele>
        <time>2009-05-08T10:28:55Z</time>
      </trkpt>
      <trkpt lat="45.99443" lon="2.96869">
        <ele>575.967041</ele>
        <time>2009-05-08T10:28:56Z</time>
      </trkpt>
      <trkpt lat="45.99455" lon="2.96887">
        <ele>574.5251465</ele>
        <time>2009-05-08T10:28:58Z</time>
      </trkpt>
      <trkpt lat="45.99477" lon="2.9691">
        <ele>570.6796875</ele>
        <time>2009-05-08T10:29:01Z</time>
      </trkpt>
      <trkpt lat="45.99495" lon="2.96925">
        <ele>567.7956543</ele>
        <time>2009-05-08T10:29:03Z</time>
      </trkpt>
      <trkpt lat="45.99513" lon="2.96939">
        <ele>564.4311523</ele>
        <time>2009-05-08T10:29:05Z</time>
      </trkpt>
      <trkpt lat="45.99529" lon="2.96954">
        <ele>560.1052246</ele>
        <time>2009-05-08T10:29:07Z</time>
      </trkpt>
      <trkpt lat="45.99548" lon="2.96994">
        <ele>556.7407227</ele>
        <time>2009-05-08T10:29:10Z</time>
      </trkpt>
      <trkpt lat="45.99566" lon="2.97033">
        <ele>553.8566895</ele>
        <time>2009-05-08T10:29:13Z</time>
      </trkpt>
      <trkpt lat="45.99572" lon="2.97042">
        <ele>552.8952637</ele>
        <time>2009-05-08T10:29:14Z</time>
      </trkpt>
      <trkpt lat="45.99594" lon="2.97054">
        <ele>549.5307617</ele>
        <time>2009-05-08T10:29:18Z</time>
      </trkpt>
      <trkpt lat="45.99606" lon="2.97059">
        <ele>547.6081543</ele>
        <time>2009-05-08T10:29:20Z</time>
      </trkpt>
      <trkpt lat="45.99622" lon="2.97086">
        <ele>542.3209229</ele>
        <time>2009-05-08T10:29:25Z</time>
      </trkpt>
      <trkpt lat="45.99625" lon="2.97115">
        <ele>539.9176025</ele>
        <time>2009-05-08T10:29:28Z</time>
      </trkpt>
      <trkpt lat="45.99614" lon="2.97137">
        <ele>537.0336914</ele>
        <time>2009-05-08T10:29:31Z</time>
      </trkpt>
      <trkpt lat="45.99604" lon="2.97149">
        <ele>535.5915527</ele>
        <time>2009-05-08T10:29:33Z</time>
      </trkpt>
      <trkpt lat="45.99593" lon="2.97165">
        <ele>532.7077637</ele>
        <time>2009-05-08T10:29:36Z</time>
      </trkpt>
      <trkpt lat="45.99593" lon="2.97171">
        <ele>531.7463379</ele>
        <time>2009-05-08T10:29:37Z</time>
      </trkpt>
      <trkpt lat="45.99595" lon="2.97186">
        <ele>530.7851563</ele>
        <time>2009-05-08T10:29:39Z</time>
      </trkpt>
      <trkpt lat="45.99585" lon="2.97213">
        <ele>525.9783936</ele>
        <time>2009-05-08T10:29:43Z</time>
      </trkpt>
      <trkpt lat="45.99569" lon="2.97217">
        <ele>525.0172119</ele>
        <time>2009-05-08T10:29:46Z</time>
      </trkpt>
      <trkpt lat="45.99561" lon="2.97207">
        <ele>524.536499</ele>
        <time>2009-05-08T10:29:48Z</time>
      </trkpt>
      <trkpt lat="45.99536" lon="2.97156">
        <ele>524.0557861</ele>
        <time>2009-05-08T10:29:55Z</time>
      </trkpt>
      <trkpt lat="45.99524" lon="2.97128">
        <ele>524.0557861</ele>
        <time>2009-05-08T10:29:59Z</time>
      </trkpt>
      <trkpt lat="45.99506" lon="2.97103">
        <ele>524.0557861</ele>
        <time>2009-05-08T10:30:03Z</time>
      </trkpt>
      <trkpt lat="45.99454" lon="2.97073">
        <ele>524.536499</ele>
        <time>2009-05-08T10:30:12Z</time>
      </trkpt>
      <trkpt lat="45.99404" lon="2.97051">
        <ele>525.0172119</ele>
        <time>2009-05-08T10:30:21Z</time>
      </trkpt>
      <trkpt lat="45.9938" lon="2.9705">
        <ele>525.0172119</ele>
        <time>2009-05-08T10:30:25Z</time>
      </trkpt>
      <trkpt lat="45.99342" lon="2.97068">
        <ele>525.0172119</ele>
        <time>2009-05-08T10:30:32Z</time>
      </trkpt>
      <trkpt lat="45.99327" lon="2.97077">
        <ele>525.0172119</ele>
        <time>2009-05-08T10:30:35Z</time>
      </trkpt>
      <trkpt lat="45.99308" lon="2.97097">
        <ele>525.0172119</ele>
        <time>2009-05-08T10:30:40Z</time>
      </trkpt>
      <trkpt lat="45.99295" lon="2.97102">
        <ele>525.4978027</ele>
        <time>2009-05-08T10:30:43Z</time>
      </trkpt>
      <trkpt lat="45.99284" lon="2.97088">
        <ele>525.0172119</ele>
        <time>2009-05-08T10:30:46Z</time>
      </trkpt>
      <trkpt lat="45.99279" lon="2.97078">
        <ele>525.9783936</ele>
        <time>2009-05-08T10:30:48Z</time>
      </trkpt>
      <trkpt lat="45.99262" lon="2.97065">
        <ele>526.9398193</ele>
        <time>2009-05-08T10:30:53Z</time>
      </trkpt>
      <trkpt lat="45.99257" lon="2.97065">
        <ele>527.4204102</ele>
        <time>2009-05-08T10:30:55Z</time>
      </trkpt>
      <trkpt lat="45.9924" lon="2.97068">
        <ele>529.8237305</ele>
        <time>2009-05-08T10:31:03Z</time>
      </trkpt>
      <trkpt lat="45.99236" lon="2.97068">
        <ele>530.7851563</ele>
        <time>2009-05-08T10:31:05Z</time>
      </trkpt>
      <trkpt lat="45.9923" lon="2.9707">
        <ele>531.7463379</ele>
        <time>2009-05-08T10:31:08Z</time>
      </trkpt>
      <trkpt lat="45.99224" lon="2.97071">
        <ele>531.7463379</ele>
        <time>2009-05-08T10:31:11Z</time>
      </trkpt>
      <trkpt lat="45.99222" lon="2.97071">
        <ele>532.2270508</ele>
        <time>2009-05-08T10:31:12Z</time>
      </trkpt>
      <trkpt lat="45.99209" lon="2.97075">
        <ele>533.1883545</ele>
        <time>2009-05-08T10:31:19Z</time>
      </trkpt>
      <trkpt lat="45.99199" lon="2.97077">
        <ele>535.5915527</ele>
        <time>2009-05-08T10:31:24Z</time>
      </trkpt>
      <trkpt lat="45.99198" lon="2.97078">
        <ele>535.5915527</ele>
        <time>2009-05-08T10:31:25Z</time>
      </trkpt>
      <trkpt lat="45.99187" lon="2.97082">
        <ele>537.0336914</ele>
        <time>2009-05-08T10:31:31Z</time>
      </trkpt>
      <trkpt lat="45.99176" lon="2.97083">
        <ele>538.475708</ele>
        <time>2009-05-08T10:31:37Z</time>
      </trkpt>
      <trkpt lat="45.99173" lon="2.97083">
        <ele>539.4368896</ele>
        <time>2009-05-08T10:31:39Z</time>
      </trkpt>
      <trkpt lat="45.99171" lon="2.97084">
        <ele>539.9176025</ele>
        <time>2009-05-08T10:31:40Z</time>
      </trkpt>
      <trkpt lat="45.9916" lon="2.97086">
        <ele>541.84021</ele>
        <time>2009-05-08T10:31:48Z</time>
      </trkpt>
      <trkpt lat="45.99147" lon="2.97091">
        <ele>543.2821045</ele>
        <time>2009-05-08T10:31:57Z</time>
      </trkpt>
      <trkpt lat="45.99145" lon="2.97093">
        <ele>544.2436523</ele>
        <time>2009-05-08T10:31:59Z</time>
      </trkpt>
      <trkpt lat="45.99133" lon="2.97096">
        <ele>547.1274414</ele>
        <time>2009-05-08T10:32:07Z</time>
      </trkpt>
      <trkpt lat="45.99123" lon="2.97098">
        <ele>548.5693359</ele>
        <time>2009-05-08T10:32:14Z</time>
      </trkpt>
      <trkpt lat="45.9911" lon="2.971">
        <ele>550.4921875</ele>
        <time>2009-05-08T10:32:22Z</time>
      </trkpt>
      <trkpt lat="45.991" lon="2.97102">
        <ele>551.4533691</ele>
        <time>2009-05-08T10:32:29Z</time>
      </trkpt>
      <trkpt lat="45.99087" lon="2.971">
        <ele>552.8952637</ele>
        <time>2009-05-08T10:32:37Z</time>
      </trkpt>
      <trkpt lat="45.99075" lon="2.97096">
        <ele>553.8566895</ele>
        <time>2009-05-08T10:32:45Z</time>
      </trkpt>
      <trkpt lat="45.99068" lon="2.97094">
        <ele>555.298584</ele>
        <time>2009-05-08T10:32:50Z</time>
      </trkpt>
      <trkpt lat="45.99065" lon="2.97092">
        <ele>556.7407227</ele>
        <time>2009-05-08T10:32:52Z</time>
      </trkpt>
      <trkpt lat="45.99058" lon="2.97092">
        <ele>557.2214355</ele>
        <time>2009-05-08T10:32:57Z</time>
      </trkpt>
      <trkpt lat="45.99046" lon="2.97089">
        <ele>559.144043</ele>
        <time>2009-05-08T10:33:05Z</time>
      </trkpt>
      <trkpt lat="45.99042" lon="2.97086">
        <ele>560.5859375</ele>
        <time>2009-05-08T10:33:08Z</time>
      </trkpt>
      <trkpt lat="45.99029" lon="2.97082">
        <ele>561.5473633</ele>
        <time>2009-05-08T10:33:17Z</time>
      </trkpt>
      <trkpt lat="45.9902" lon="2.97081">
        <ele>562.9892578</ele>
        <time>2009-05-08T10:33:23Z</time>
      </trkpt>
      <trkpt lat="45.99011" lon="2.97081">
        <ele>564.4311523</ele>
        <time>2009-05-08T10:33:29Z</time>
      </trkpt>
      <trkpt lat="45.99001" lon="2.97083">
        <ele>566.3537598</ele>
        <time>2009-05-08T10:33:36Z</time>
      </trkpt>
      <trkpt lat="45.98996" lon="2.97086">
        <ele>567.3151855</ele>
        <time>2009-05-08T10:33:39Z</time>
      </trkpt>
      <trkpt lat="45.98988" lon="2.97088">
        <ele>568.7570801</ele>
        <time>2009-05-08T10:33:45Z</time>
      </trkpt>
      <trkpt lat="45.98973" lon="2.97096">
        <ele>570.6796875</ele>
        <time>2009-05-08T10:33:55Z</time>
      </trkpt>
      <trkpt lat="45.98964" lon="2.97101">
        <ele>572.1218262</ele>
        <time>2009-05-08T10:34:02Z</time>
      </trkpt>
      <trkpt lat="45.9896" lon="2.97104">
        <ele>573.083252</ele>
        <time>2009-05-08T10:34:05Z</time>
      </trkpt>
      <trkpt lat="45.98956" lon="2.97107">
        <ele>573.5639648</ele>
        <time>2009-05-08T10:34:08Z</time>
      </trkpt>
      <trkpt lat="45.98941" lon="2.97113">
        <ele>574.5251465</ele>
        <time>2009-05-08T10:34:16Z</time>
      </trkpt>
      <trkpt lat="45.98922" lon="2.97114">
        <ele>575.4863281</ele>
        <time>2009-05-08T10:34:25Z</time>
      </trkpt>
      <trkpt lat="45.98905" lon="2.97109">
        <ele>577.4091797</ele>
        <time>2009-05-08T10:34:34Z</time>
      </trkpt>
      <trkpt lat="45.98893" lon="2.97102">
        <ele>578.8510742</ele>
        <time>2009-05-08T10:34:41Z</time>
      </trkpt>
      <trkpt lat="45.98881" lon="2.97094">
        <ele>580.2929688</ele>
        <time>2009-05-08T10:34:48Z</time>
      </trkpt>
      <trkpt lat="45.98869" lon="2.97086">
        <ele>582.2155762</ele>
        <time>2009-05-08T10:34:55Z</time>
      </trkpt>
      <trkpt lat="45.98853" lon="2.97079">
        <ele>584.1381836</ele>
        <time>2009-05-08T10:35:04Z</time>
      </trkpt>
      <trkpt lat="45.98844" lon="2.97076">
        <ele>585.5800781</ele>
        <time>2009-05-08T10:35:09Z</time>
      </trkpt>
      <trkpt lat="45.98829" lon="2.97071">
        <ele>587.5026855</ele>
        <time>2009-05-08T10:35:17Z</time>
      </trkpt>
      <trkpt lat="45.98812" lon="2.97062">
        <ele>589.4255371</ele>
        <time>2009-05-08T10:35:26Z</time>
      </trkpt>
      <trkpt lat="45.98794" lon="2.97049">
        <ele>589.90625</ele>
        <time>2009-05-08T10:35:36Z</time>
      </trkpt>
      <trkpt lat="45.98773" lon="2.97032">
        <ele>591.3481445</ele>
        <time>2009-05-08T10:35:44Z</time>
      </trkpt>
      <trkpt lat="45.98747" lon="2.97016">
        <ele>593.270752</ele>
        <time>2009-05-08T10:35:53Z</time>
      </trkpt>
      <trkpt lat="45.98722" lon="2.97003">
        <ele>594.7126465</ele>
        <time>2009-05-08T10:36:02Z</time>
      </trkpt>
      <trkpt lat="45.98694" lon="2.96993">
        <ele>595.6740723</ele>
        <time>2009-05-08T10:36:11Z</time>
      </trkpt>
      <trkpt lat="45.98673" lon="2.9699">
        <ele>597.1159668</ele>
        <time>2009-05-08T10:36:18Z</time>
      </trkpt>
      <trkpt lat="45.98664" lon="2.96997">
        <ele>596.635498</ele>
        <time>2009-05-08T10:36:22Z</time>
      </trkpt>
      <trkpt lat="45.9866" lon="2.97015">
        <ele>596.1547852</ele>
        <time>2009-05-08T10:36:27Z</time>
      </trkpt>
      <trkpt lat="45.98656" lon="2.97032">
        <ele>594.7126465</ele>
        <time>2009-05-08T10:36:30Z</time>
      </trkpt>
      <trkpt lat="45.98648" lon="2.97074">
        <ele>592.3095703</ele>
        <time>2009-05-08T10:36:35Z</time>
      </trkpt>
      <trkpt lat="45.98646" lon="2.97082">
        <ele>591.8288574</ele>
        <time>2009-05-08T10:36:36Z</time>
      </trkpt>
      <trkpt lat="45.98631" lon="2.97091">
        <ele>589.90625</ele>
        <time>2009-05-08T10:36:40Z</time>
      </trkpt>
      <trkpt lat="45.98613" lon="2.97083">
        <ele>587.9833984</ele>
        <time>2009-05-08T10:36:43Z</time>
      </trkpt>
      <trkpt lat="45.98606" lon="2.97081">
        <ele>587.9833984</ele>
        <time>2009-05-08T10:36:44Z</time>
      </trkpt>
      <trkpt lat="45.98593" lon="2.97079">
        <ele>587.5026855</ele>
        <time>2009-05-08T10:36:46Z</time>
      </trkpt>
      <trkpt lat="45.98579" lon="2.9708">
        <ele>586.5415039</ele>
        <time>2009-05-08T10:36:48Z</time>
      </trkpt>
      <trkpt lat="45.98545" lon="2.97088">
        <ele>584.6188965</ele>
        <time>2009-05-08T10:36:52Z</time>
      </trkpt>
      <trkpt lat="45.98516" lon="2.97089">
        <ele>579.8122559</ele>
        <time>2009-05-08T10:36:55Z</time>
      </trkpt>
      <trkpt lat="45.98488" lon="2.97102">
        <ele>574.0444336</ele>
        <time>2009-05-08T10:36:58Z</time>
      </trkpt>
      <trkpt lat="45.98447" lon="2.97114">
        <ele>570.6796875</ele>
        <time>2009-05-08T10:37:02Z</time>
      </trkpt>
      <trkpt lat="45.98409" lon="2.97116">
        <ele>570.6796875</ele>
        <time>2009-05-08T10:37:06Z</time>
      </trkpt>
      <trkpt lat="45.98387" lon="2.97124">
        <ele>570.1989746</ele>
        <time>2009-05-08T10:37:09Z</time>
      </trkpt>
      <trkpt lat="45.98363" lon="2.97124">
        <ele>570.1989746</ele>
        <time>2009-05-08T10:37:13Z</time>
      </trkpt>
      <trkpt lat="45.98343" lon="2.97118">
        <ele>571.6408691</ele>
        <time>2009-05-08T10:37:18Z</time>
      </trkpt>
      <trkpt lat="45.98339" lon="2.97115">
        <ele>571.6408691</ele>
        <time>2009-05-08T10:37:19Z</time>
      </trkpt>
      <trkpt lat="45.98332" lon="2.97111">
        <ele>572.6025391</ele>
        <time>2009-05-08T10:37:21Z</time>
      </trkpt>
      <trkpt lat="45.98321" lon="2.97097">
        <ele>574.0444336</ele>
        <time>2009-05-08T10:37:26Z</time>
      </trkpt>
      <trkpt lat="45.98315" lon="2.97089">
        <ele>575.4863281</ele>
        <time>2009-05-08T10:37:30Z</time>
      </trkpt>
      <trkpt lat="45.98308" lon="2.97081">
        <ele>577.4091797</ele>
        <time>2009-05-08T10:37:34Z</time>
      </trkpt>
      <trkpt lat="45.98294" lon="2.97072">
        <ele>577.8896484</ele>
        <time>2009-05-08T10:37:40Z</time>
      </trkpt>
      <trkpt lat="45.98277" lon="2.97061">
        <ele>579.8122559</ele>
        <time>2009-05-08T10:37:47Z</time>
      </trkpt>
      <trkpt lat="45.98265" lon="2.97051">
        <ele>580.2929688</ele>
        <time>2009-05-08T10:37:52Z</time>
      </trkpt>
      <trkpt lat="45.98257" lon="2.97046">
        <ele>580.2929688</ele>
        <time>2009-05-08T10:37:55Z</time>
      </trkpt>
      <trkpt lat="45.98249" lon="2.97045">
        <ele>579.8122559</ele>
        <time>2009-05-08T10:37:57Z</time>
      </trkpt>
      <trkpt lat="45.98226" lon="2.97045">
        <ele>578.8510742</ele>
        <time>2009-05-08T10:38:02Z</time>
      </trkpt>
      <trkpt lat="45.98217" lon="2.97045">
        <ele>578.8510742</ele>
        <time>2009-05-08T10:38:04Z</time>
      </trkpt>
      <trkpt lat="45.98198" lon="2.9705">
        <ele>578.8510742</ele>
        <time>2009-05-08T10:38:09Z</time>
      </trkpt>
      <trkpt lat="45.98191" lon="2.97068">
        <ele>578.8510742</ele>
        <time>2009-05-08T10:38:13Z</time>
      </trkpt>
      <trkpt lat="45.98183" lon="2.97093">
        <ele>579.8122559</ele>
        <time>2009-05-08T10:38:20Z</time>
      </trkpt>
      <trkpt lat="45.98182" lon="2.97096">
        <ele>579.8122559</ele>
        <time>2009-05-08T10:38:21Z</time>
      </trkpt>
      <trkpt lat="45.98181" lon="2.97113">
        <ele>581.7348633</ele>
        <time>2009-05-08T10:38:29Z</time>
      </trkpt>
      <trkpt lat="45.98183" lon="2.97126">
        <ele>583.6574707</ele>
        <time>2009-05-08T10:38:35Z</time>
      </trkpt>
      <trkpt lat="45.98188" lon="2.97137">
        <ele>584.1381836</ele>
        <time>2009-05-08T10:38:40Z</time>
      </trkpt>
      <trkpt lat="45.98197" lon="2.97158">
        <ele>586.5415039</ele>
        <time>2009-05-08T10:38:50Z</time>
      </trkpt>
      <trkpt lat="45.98202" lon="2.97172">
        <ele>587.9833984</ele>
        <time>2009-05-08T10:38:57Z</time>
      </trkpt>
      <trkpt lat="45.98204" lon="2.97178">
        <ele>589.4255371</ele>
        <time>2009-05-08T10:39:00Z</time>
      </trkpt>
      <trkpt lat="45.98208" lon="2.97189">
        <ele>590.3869629</ele>
        <time>2009-05-08T10:39:07Z</time>
      </trkpt>
      <trkpt lat="45.98212" lon="2.97198">
        <ele>591.8288574</ele>
        <time>2009-05-08T10:39:14Z</time>
      </trkpt>
      <trkpt lat="45.98214" lon="2.97208">
        <ele>593.7514648</ele>
        <time>2009-05-08T10:39:21Z</time>
      </trkpt>
      <trkpt lat="45.98216" lon="2.9722">
        <ele>594.7126465</ele>
        <time>2009-05-08T10:39:29Z</time>
      </trkpt>
      <trkpt lat="45.98217" lon="2.97229">
        <ele>595.6740723</ele>
        <time>2009-05-08T10:39:37Z</time>
      </trkpt>
      <trkpt lat="45.98219" lon="2.97237">
        <ele>596.635498</ele>
        <time>2009-05-08T10:39:44Z</time>
      </trkpt>
      <trkpt lat="45.98219" lon="2.97243">
        <ele>598.5578613</ele>
        <time>2009-05-08T10:39:49Z</time>
      </trkpt>
      <trkpt lat="45.98219" lon="2.97251">
        <ele>600</ele>
        <time>2009-05-08T10:39:55Z</time>
      </trkpt>
      <trkpt lat="45.98221" lon="2.97266">
        <ele>602.4030762</ele>
        <time>2009-05-08T10:40:04Z</time>
      </trkpt>
      <trkpt lat="45.98223" lon="2.97273">
        <ele>603.8452148</ele>
        <time>2009-05-08T10:40:10Z</time>
      </trkpt>
      <trkpt lat="45.98226" lon="2.97282">
        <ele>605.2873535</ele>
        <time>2009-05-08T10:40:17Z</time>
      </trkpt>
      <trkpt lat="45.98232" lon="2.97295">
        <ele>606.2485352</ele>
        <time>2009-05-08T10:40:26Z</time>
      </trkpt>
      <trkpt lat="45.98236" lon="2.97306">
        <ele>608.1713867</ele>
        <time>2009-05-08T10:40:34Z</time>
      </trkpt>
      <trkpt lat="45.98236" lon="2.97309">
        <ele>609.1325684</ele>
        <time>2009-05-08T10:40:36Z</time>
      </trkpt>
      <trkpt lat="45.98237" lon="2.97318">
        <ele>611.0551758</ele>
        <time>2009-05-08T10:40:43Z</time>
      </trkpt>
      <trkpt lat="45.98238" lon="2.97328">
        <ele>612.9777832</ele>
        <time>2009-05-08T10:40:50Z</time>
      </trkpt>
      <trkpt lat="45.98236" lon="2.97335">
        <ele>614.4196777</ele>
        <time>2009-05-08T10:40:57Z</time>
      </trkpt>
      <trkpt lat="45.9824" lon="2.97347">
        <ele>614.9003906</ele>
        <time>2009-05-08T10:41:05Z</time>
      </trkpt>
      <trkpt lat="45.98243" lon="2.97357">
        <ele>617.3037109</ele>
        <time>2009-05-08T10:41:12Z</time>
      </trkpt>
      <trkpt lat="45.98243" lon="2.97362">
        <ele>618.2648926</ele>
        <time>2009-05-08T10:41:16Z</time>
      </trkpt>
      <trkpt lat="45.98244" lon="2.97373">
        <ele>619.7070313</ele>
        <time>2009-05-08T10:41:23Z</time>
      </trkpt>
      <trkpt lat="45.98245" lon="2.97383">
        <ele>622.5910645</ele>
        <time>2009-05-08T10:41:30Z</time>
      </trkpt>
      <trkpt lat="45.98246" lon="2.97384">
        <ele>623.0717773</ele>
        <time>2009-05-08T10:41:31Z</time>
      </trkpt>
      <trkpt lat="45.9825" lon="2.97399">
        <ele>625.4748535</ele>
        <time>2009-05-08T10:41:41Z</time>
      </trkpt>
      <trkpt lat="45.98255" lon="2.9741">
        <ele>626.9169922</ele>
        <time>2009-05-08T10:41:48Z</time>
      </trkpt>
      <trkpt lat="45.98258" lon="2.97417">
        <ele>627.8781738</ele>
        <time>2009-05-08T10:41:53Z</time>
      </trkpt>
      <trkpt lat="45.98265" lon="2.97431">
        <ele>629.3200684</ele>
        <time>2009-05-08T10:42:02Z</time>
      </trkpt>
      <trkpt lat="45.98268" lon="2.97439">
        <ele>630.762207</ele>
        <time>2009-05-08T10:42:09Z</time>
      </trkpt>
      <trkpt lat="45.98273" lon="2.97448">
        <ele>632.6848145</ele>
        <time>2009-05-08T10:42:15Z</time>
      </trkpt>
      <trkpt lat="45.98279" lon="2.97457">
        <ele>633.6459961</ele>
        <time>2009-05-08T10:42:22Z</time>
      </trkpt>
      <trkpt lat="45.98282" lon="2.97465">
        <ele>634.6074219</ele>
        <time>2009-05-08T10:42:29Z</time>
      </trkpt>
      <trkpt lat="45.98285" lon="2.9747">
        <ele>636.0495605</ele>
        <time>2009-05-08T10:42:34Z</time>
      </trkpt>
      <trkpt lat="45.98288" lon="2.97477">
        <ele>637.0107422</ele>
        <time>2009-05-08T10:42:40Z</time>
      </trkpt>
      <trkpt lat="45.98292" lon="2.97487">
        <ele>638.4528809</ele>
        <time>2009-05-08T10:42:47Z</time>
      </trkpt>
      <trkpt lat="45.98295" lon="2.97496">
        <ele>639.8947754</ele>
        <time>2009-05-08T10:42:54Z</time>
      </trkpt>
      <trkpt lat="45.98296" lon="2.97499">
        <ele>640.855957</ele>
        <time>2009-05-08T10:42:56Z</time>
      </trkpt>
      <trkpt lat="45.98299" lon="2.97505">
        <ele>641.3366699</ele>
        <time>2009-05-08T10:42:59Z</time>
      </trkpt>
      <trkpt lat="45.98305" lon="2.97517">
        <ele>643.2592773</ele>
        <time>2009-05-08T10:43:07Z</time>
      </trkpt>
      <trkpt lat="45.98311" lon="2.97527">
        <ele>644.2207031</ele>
        <time>2009-05-08T10:43:14Z</time>
      </trkpt>
      <trkpt lat="45.9832" lon="2.97539">
        <ele>644.2207031</ele>
        <time>2009-05-08T10:43:23Z</time>
      </trkpt>
      <trkpt lat="45.98326" lon="2.97549">
        <ele>644.2207031</ele>
        <time>2009-05-08T10:43:27Z</time>
      </trkpt>
      <trkpt lat="45.98335" lon="2.97568">
        <ele>644.7011719</ele>
        <time>2009-05-08T10:43:33Z</time>
      </trkpt>
      <trkpt lat="45.98343" lon="2.9759">
        <ele>644.7011719</ele>
        <time>2009-05-08T10:43:39Z</time>
      </trkpt>
      <trkpt lat="45.98344" lon="2.97598">
        <ele>646.1433105</ele>
        <time>2009-05-08T10:43:42Z</time>
      </trkpt>
      <trkpt lat="45.98344" lon="2.97615">
        <ele>647.1044922</ele>
        <time>2009-05-08T10:43:48Z</time>
      </trkpt>
      <trkpt lat="45.98347" lon="2.97638">
        <ele>647.5852051</ele>
        <time>2009-05-08T10:43:54Z</time>
      </trkpt>
      <trkpt lat="45.98356" lon="2.97658">
        <ele>647.1044922</ele>
        <time>2009-05-08T10:43:59Z</time>
      </trkpt>
      <trkpt lat="45.98363" lon="2.9768">
        <ele>647.5852051</ele>
        <time>2009-05-08T10:44:05Z</time>
      </trkpt>
      <trkpt lat="45.98381" lon="2.97711">
        <ele>648.5463867</ele>
        <time>2009-05-08T10:44:15Z</time>
      </trkpt>
      <trkpt lat="45.98393" lon="2.97731">
        <ele>648.5463867</ele>
        <time>2009-05-08T10:44:21Z</time>
      </trkpt>
      <trkpt lat="45.98405" lon="2.97753">
        <ele>649.0270996</ele>
        <time>2009-05-08T10:44:27Z</time>
      </trkpt>
      <trkpt lat="45.98418" lon="2.97785">
        <ele>649.5078125</ele>
        <time>2009-05-08T10:44:34Z</time>
      </trkpt>
      <trkpt lat="45.98433" lon="2.97828">
        <ele>649.0270996</ele>
        <time>2009-05-08T10:44:42Z</time>
      </trkpt>
      <trkpt lat="45.98441" lon="2.97846">
        <ele>648.5463867</ele>
        <time>2009-05-08T10:44:46Z</time>
      </trkpt>
      <trkpt lat="45.98445" lon="2.97855">
        <ele>648.5463867</ele>
        <time>2009-05-08T10:44:48Z</time>
      </trkpt>
      <trkpt lat="45.98461" lon="2.97889">
        <ele>648.065918</ele>
        <time>2009-05-08T10:44:55Z</time>
      </trkpt>
      <trkpt lat="45.98466" lon="2.979">
        <ele>647.1044922</ele>
        <time>2009-05-08T10:44:57Z</time>
      </trkpt>
      <trkpt lat="45.98484" lon="2.97934">
        <ele>646.6240234</ele>
        <time>2009-05-08T10:45:03Z</time>
      </trkpt>
      <trkpt lat="45.98513" lon="2.97996">
        <ele>645.1818848</ele>
        <time>2009-05-08T10:45:12Z</time>
      </trkpt>
      <trkpt lat="45.98543" lon="2.98059">
        <ele>645.6625977</ele>
        <time>2009-05-08T10:45:21Z</time>
      </trkpt>
      <trkpt lat="45.9857" lon="2.98109">
        <ele>645.6625977</ele>
        <time>2009-05-08T10:45:29Z</time>
      </trkpt>
      <trkpt lat="45.98583" lon="2.98151">
        <ele>647.1044922</ele>
        <time>2009-05-08T10:45:35Z</time>
      </trkpt>
      <trkpt lat="45.98594" lon="2.98177">
        <ele>646.6240234</ele>
        <time>2009-05-08T10:45:39Z</time>
      </trkpt>
      <trkpt lat="45.98614" lon="2.98217">
        <ele>648.065918</ele>
        <time>2009-05-08T10:45:46Z</time>
      </trkpt>
      <trkpt lat="45.9863" lon="2.98239">
        <ele>649.0270996</ele>
        <time>2009-05-08T10:45:51Z</time>
      </trkpt>
      <trkpt lat="45.98645" lon="2.98254">
        <ele>649.0270996</ele>
        <time>2009-05-08T10:45:55Z</time>
      </trkpt>
      <trkpt lat="45.98669" lon="2.98278">
        <ele>649.0270996</ele>
        <time>2009-05-08T10:46:01Z</time>
      </trkpt>
      <trkpt lat="45.98693" lon="2.98323">
        <ele>649.0270996</ele>
        <time>2009-05-08T10:46:09Z</time>
      </trkpt>
      <trkpt lat="45.98701" lon="2.98342">
        <ele>649.5078125</ele>
        <time>2009-05-08T10:46:12Z</time>
      </trkpt>
      <trkpt lat="45.98704" lon="2.98365">
        <ele>649.9885254</ele>
        <time>2009-05-08T10:46:16Z</time>
      </trkpt>
      <trkpt lat="45.98694" lon="2.98375">
        <ele>650.4692383</ele>
        <time>2009-05-08T10:46:19Z</time>
      </trkpt>
      <trkpt lat="45.98662" lon="2.98408">
        <ele>650.4692383</ele>
        <time>2009-05-08T10:46:28Z</time>
      </trkpt>
      <trkpt lat="45.98658" lon="2.98412">
        <ele>650.949707</ele>
        <time>2009-05-08T10:46:29Z</time>
      </trkpt>
      <trkpt lat="45.98632" lon="2.98448">
        <ele>651.9111328</ele>
        <time>2009-05-08T10:46:37Z</time>
      </trkpt>
      <trkpt lat="45.98608" lon="2.98495">
        <ele>653.8339844</ele>
        <time>2009-05-08T10:46:46Z</time>
      </trkpt>
      <trkpt lat="45.98594" lon="2.98527">
        <ele>656.2370605</ele>
        <time>2009-05-08T10:46:54Z</time>
      </trkpt>
      <trkpt lat="45.98587" lon="2.98546">
        <ele>657.6791992</ele>
        <time>2009-05-08T10:46:59Z</time>
      </trkpt>
      <trkpt lat="45.98577" lon="2.98576">
        <ele>659.6018066</ele>
        <time>2009-05-08T10:47:07Z</time>
      </trkpt>
      <trkpt lat="45.98565" lon="2.98605">
        <ele>660.5629883</ele>
        <time>2009-05-08T10:47:15Z</time>
      </trkpt>
      <trkpt lat="45.9856" lon="2.98613">
        <ele>659.6018066</ele>
        <time>2009-05-08T10:47:17Z</time>
      </trkpt>
      <trkpt lat="45.98538" lon="2.98656">
        <ele>659.1210938</ele>
        <time>2009-05-08T10:47:25Z</time>
      </trkpt>
      <trkpt lat="45.98535" lon="2.98661">
        <ele>659.1210938</ele>
        <time>2009-05-08T10:47:26Z</time>
      </trkpt>
      <trkpt lat="45.98516" lon="2.98709">
        <ele>658.6403809</ele>
        <time>2009-05-08T10:47:34Z</time>
      </trkpt>
      <trkpt lat="45.98514" lon="2.98714">
        <ele>659.1210938</ele>
        <time>2009-05-08T10:47:35Z</time>
      </trkpt>
      <trkpt lat="45.98503" lon="2.98743">
        <ele>659.1210938</ele>
        <time>2009-05-08T10:47:41Z</time>
      </trkpt>
      <trkpt lat="45.985" lon="2.98753">
        <ele>658.6403809</ele>
        <time>2009-05-08T10:47:44Z</time>
      </trkpt>
      <trkpt lat="45.98491" lon="2.98767">
        <ele>658.1599121</ele>
        <time>2009-05-08T10:47:48Z</time>
      </trkpt>
      <trkpt lat="45.98478" lon="2.98783">
        <ele>659.1210938</ele>
        <time>2009-05-08T10:47:54Z</time>
      </trkpt>
      <trkpt lat="45.98468" lon="2.98797">
        <ele>660.0822754</ele>
        <time>2009-05-08T10:47:59Z</time>
      </trkpt>
      <trkpt lat="45.98451" lon="2.98825">
        <ele>662.005127</ele>
        <time>2009-05-08T10:48:09Z</time>
      </trkpt>
      <trkpt lat="45.98447" lon="2.98834">
        <ele>662.4855957</ele>
        <time>2009-05-08T10:48:12Z</time>
      </trkpt>
      <trkpt lat="45.98442" lon="2.98844">
        <ele>662.9663086</ele>
        <time>2009-05-08T10:48:18Z</time>
      </trkpt>
      <trkpt lat="45.98442" lon="2.98844">
        <ele>663.4470215</ele>
        <time>2009-05-08T10:48:22Z</time>
      </trkpt>
      <trkpt lat="45.98442" lon="2.98844">
        <ele>663.4470215</ele>
        <time>2009-05-08T10:48:31Z</time>
      </trkpt>
      <trkpt lat="45.9844" lon="2.98858">
        <ele>664.4082031</ele>
        <time>2009-05-08T10:48:37Z</time>
      </trkpt>
      <trkpt lat="45.9844" lon="2.9887">
        <ele>666.3308105</ele>
        <time>2009-05-08T10:48:42Z</time>
      </trkpt>
      <trkpt lat="45.98446" lon="2.98885">
        <ele>668.734375</ele>
        <time>2009-05-08T10:48:48Z</time>
      </trkpt>
      <trkpt lat="45.98453" lon="2.98901">
        <ele>670.1762695</ele>
        <time>2009-05-08T10:48:55Z</time>
      </trkpt>
      <trkpt lat="45.98461" lon="2.98917">
        <ele>670.6569824</ele>
        <time>2009-05-08T10:49:02Z</time>
      </trkpt>
      <trkpt lat="45.98471" lon="2.98934">
        <ele>672.098877</ele>
        <time>2009-05-08T10:49:10Z</time>
      </trkpt>
      <trkpt lat="45.98476" lon="2.98945">
        <ele>673.5410156</ele>
        <time>2009-05-08T10:49:15Z</time>
      </trkpt>
      <trkpt lat="45.98478" lon="2.9896">
        <ele>675.4633789</ele>
        <time>2009-05-08T10:49:21Z</time>
      </trkpt>
      <trkpt lat="45.98479" lon="2.98966">
        <ele>675.9440918</ele>
        <time>2009-05-08T10:49:24Z</time>
      </trkpt>
      <trkpt lat="45.98476" lon="2.98976">
        <ele>677.3862305</ele>
        <time>2009-05-08T10:49:29Z</time>
      </trkpt>
      <trkpt lat="45.9847" lon="2.98996">
        <ele>679.7893066</ele>
        <time>2009-05-08T10:49:39Z</time>
      </trkpt>
      <trkpt lat="45.98465" lon="2.99012">
        <ele>681.7119141</ele>
        <time>2009-05-08T10:49:47Z</time>
      </trkpt>
      <trkpt lat="45.98462" lon="2.99023">
        <ele>682.6733398</ele>
        <time>2009-05-08T10:49:53Z</time>
      </trkpt>
      <trkpt lat="45.98466" lon="2.99038">
        <ele>684.1154785</ele>
        <time>2009-05-08T10:50:01Z</time>
      </trkpt>
      <trkpt lat="45.98466" lon="2.9905">
        <ele>685.557373</ele>
        <time>2009-05-08T10:50:07Z</time>
      </trkpt>
      <trkpt lat="45.98472" lon="2.99065">
        <ele>688.9221191</ele>
        <time>2009-05-08T10:50:16Z</time>
      </trkpt>
      <trkpt lat="45.98473" lon="2.99068">
        <ele>689.8833008</ele>
        <time>2009-05-08T10:50:18Z</time>
      </trkpt>
      <trkpt lat="45.98476" lon="2.99075">
        <ele>689.8833008</ele>
        <time>2009-05-08T10:50:22Z</time>
      </trkpt>
      <trkpt lat="45.98476" lon="2.99082">
        <ele>691.3251953</ele>
        <time>2009-05-08T10:50:26Z</time>
      </trkpt>
      <trkpt lat="45.9848" lon="2.99093">
        <ele>693.2478027</ele>
        <time>2009-05-08T10:50:33Z</time>
      </trkpt>
      <trkpt lat="45.9848" lon="2.99103">
        <ele>694.2092285</ele>
        <time>2009-05-08T10:50:38Z</time>
      </trkpt>
      <trkpt lat="45.98481" lon="2.99122">
        <ele>695.651123</ele>
        <time>2009-05-08T10:50:48Z</time>
      </trkpt>
      <trkpt lat="45.98481" lon="2.99128">
        <ele>696.6125488</ele>
        <time>2009-05-08T10:50:51Z</time>
      </trkpt>
      <trkpt lat="45.98481" lon="2.99142">
        <ele>699.015625</ele>
        <time>2009-05-08T10:50:59Z</time>
      </trkpt>
      <trkpt lat="45.98481" lon="2.99154">
        <ele>700.4580078</ele>
        <time>2009-05-08T10:51:05Z</time>
      </trkpt>
      <trkpt lat="45.9848" lon="2.99156">
        <ele>700.4580078</ele>
        <time>2009-05-08T10:51:06Z</time>
      </trkpt>
      <trkpt lat="45.98479" lon="2.99161">
        <ele>700.9384766</ele>
        <time>2009-05-08T10:51:09Z</time>
      </trkpt>
      <trkpt lat="45.98478" lon="2.9917">
        <ele>701.4191895</ele>
        <time>2009-05-08T10:51:13Z</time>
      </trkpt>
      <trkpt lat="45.98475" lon="2.99189">
        <ele>702.861084</ele>
        <time>2009-05-08T10:51:22Z</time>
      </trkpt>
      <trkpt lat="45.98472" lon="2.99205">
        <ele>703.8225098</ele>
        <time>2009-05-08T10:51:29Z</time>
      </trkpt>
      <trkpt lat="45.98471" lon="2.99226">
        <ele>705.7451172</ele>
        <time>2009-05-08T10:51:38Z</time>
      </trkpt>
      <trkpt lat="45.98473" lon="2.99245">
        <ele>707.1870117</ele>
        <time>2009-05-08T10:51:46Z</time>
      </trkpt>
      <trkpt lat="45.98474" lon="2.99263">
        <ele>709.1096191</ele>
        <time>2009-05-08T10:51:53Z</time>
      </trkpt>
      <trkpt lat="45.98472" lon="2.9928">
        <ele>710.0708008</ele>
        <time>2009-05-08T10:51:59Z</time>
      </trkpt>
      <trkpt lat="45.98471" lon="2.9931">
        <ele>711.5129395</ele>
        <time>2009-05-08T10:52:07Z</time>
      </trkpt>
      <trkpt lat="45.98472" lon="2.99346">
        <ele>713.4355469</ele>
        <time>2009-05-08T10:52:17Z</time>
      </trkpt>
      <trkpt lat="45.98472" lon="2.99375">
        <ele>712.954834</ele>
        <time>2009-05-08T10:52:24Z</time>
      </trkpt>
      <trkpt lat="45.98461" lon="2.9941">
        <ele>712.954834</ele>
        <time>2009-05-08T10:52:32Z</time>
      </trkpt>
      <trkpt lat="45.98447" lon="2.99448">
        <ele>713.9160156</ele>
        <time>2009-05-08T10:52:41Z</time>
      </trkpt>
      <trkpt lat="45.98431" lon="2.99482">
        <ele>714.3967285</ele>
        <time>2009-05-08T10:52:50Z</time>
      </trkpt>
      <trkpt lat="45.98414" lon="2.99524">
        <ele>715.8388672</ele>
        <time>2009-05-08T10:53:01Z</time>
      </trkpt>
      <trkpt lat="45.98403" lon="2.99542">
        <ele>715.8388672</ele>
        <time>2009-05-08T10:53:08Z</time>
      </trkpt>
      <trkpt lat="45.98399" lon="2.99547">
        <ele>715.8388672</ele>
        <time>2009-05-08T10:53:11Z</time>
      </trkpt>
      <trkpt lat="45.98396" lon="2.99551">
        <ele>714.8774414</ele>
        <time>2009-05-08T10:53:16Z</time>
      </trkpt>
      <trkpt lat="45.98395" lon="2.9955">
        <ele>715.8388672</ele>
        <time>2009-05-08T10:53:24Z</time>
      </trkpt>
      <trkpt lat="45.98394" lon="2.99551">
        <ele>713.9160156</ele>
        <time>2009-05-08T10:53:42Z</time>
      </trkpt>
      <trkpt lat="45.98393" lon="2.9955">
        <ele>716.800293</ele>
        <time>2009-05-08T10:55:13Z</time>
      </trkpt>
      <trkpt lat="45.98391" lon="2.9955">
        <ele>715.3581543</ele>
        <time>2009-05-08T10:57:44Z</time>
      </trkpt>
      <trkpt lat="45.98391" lon="2.9955">
        <ele>715.3581543</ele>
        <time>2009-05-08T10:57:45Z</time>
      </trkpt>
      <trkpt lat="45.98391" lon="2.99549">
        <ele>715.3581543</ele>
        <time>2009-05-08T10:57:51Z</time>
      </trkpt>
      <trkpt lat="45.98393" lon="2.99549">
        <ele>716.800293</ele>
        <time>2009-05-08T10:57:53Z</time>
      </trkpt>
      <trkpt lat="45.98393" lon="2.99551">
        <ele>716.800293</ele>
        <time>2009-05-08T10:57:54Z</time>
      </trkpt>
      <trkpt lat="45.98394" lon="2.99556">
        <ele>716.800293</ele>
        <time>2009-05-08T10:57:58Z</time>
      </trkpt>
      <trkpt lat="45.98395" lon="2.99558">
        <ele>716.800293</ele>
        <time>2009-05-08T10:58:00Z</time>
      </trkpt>
      <trkpt lat="45.98395" lon="2.99559">
        <ele>716.800293</ele>
        <time>2009-05-08T10:58:01Z</time>
      </trkpt>
      <trkpt lat="45.98396" lon="2.99563">
        <ele>716.800293</ele>
        <time>2009-05-08T10:58:04Z</time>
      </trkpt>
      <trkpt lat="45.98397" lon="2.99572">
        <ele>716.800293</ele>
        <time>2009-05-08T10:58:11Z</time>
      </trkpt>
      <trkpt lat="45.98399" lon="2.99572">
        <ele>716.800293</ele>
        <time>2009-05-08T10:58:35Z</time>
      </trkpt>
      <trkpt lat="45.984" lon="2.99571">
        <ele>716.800293</ele>
        <time>2009-05-08T10:58:46Z</time>
      </trkpt>
      <trkpt lat="45.984" lon="2.99572">
        <ele>716.800293</ele>
        <time>2009-05-08T10:58:55Z</time>
      </trkpt>
      <trkpt lat="45.98401" lon="2.99572">
        <ele>716.3195801</ele>
        <time>2009-05-08T10:59:03Z</time>
      </trkpt>
      <trkpt lat="45.98401" lon="2.99572">
        <ele>716.800293</ele>
        <time>2009-05-08T10:59:10Z</time>
      </trkpt>
      <trkpt lat="45.98402" lon="2.99572">
        <ele>716.800293</ele>
        <time>2009-05-08T10:59:19Z</time>
      </trkpt>
      <trkpt lat="45.98402" lon="2.99572">
        <ele>716.800293</ele>
        <time>2009-05-08T10:59:23Z</time>
      </trkpt>
      <trkpt lat="45.98402" lon="2.99572">
        <ele>716.800293</ele>
        <time>2009-05-08T10:59:27Z</time>
      </trkpt>
      <trkpt lat="45.98402" lon="2.99573">
        <ele>716.800293</ele>
        <time>2009-05-08T10:59:31Z</time>
      </trkpt>
      <trkpt lat="45.98404" lon="2.99579">
        <ele>715.8388672</ele>
        <time>2009-05-08T10:59:38Z</time>
      </trkpt>
      <trkpt lat="45.98404" lon="2.99594">
        <ele>715.8388672</ele>
        <time>2009-05-08T10:59:41Z</time>
      </trkpt>
      <trkpt lat="45.98399" lon="2.99613">
        <ele>716.3195801</ele>
        <time>2009-05-08T10:59:45Z</time>
      </trkpt>
      <trkpt lat="45.98393" lon="2.99633">
        <ele>715.3581543</ele>
        <time>2009-05-08T10:59:49Z</time>
      </trkpt>
      <trkpt lat="45.98385" lon="2.99672">
        <ele>714.8774414</ele>
        <time>2009-05-08T10:59:55Z</time>
      </trkpt>
      <trkpt lat="45.98376" lon="2.9971">
        <ele>714.8774414</ele>
        <time>2009-05-08T11:00:00Z</time>
      </trkpt>
      <trkpt lat="45.98364" lon="2.99749">
        <ele>712.954834</ele>
        <time>2009-05-08T11:00:05Z</time>
      </trkpt>
      <trkpt lat="45.9834" lon="2.99805">
        <ele>714.3967285</ele>
        <time>2009-05-08T11:00:13Z</time>
      </trkpt>
      <trkpt lat="45.98337" lon="2.99812">
        <ele>713.9160156</ele>
        <time>2009-05-08T11:00:14Z</time>
      </trkpt>
      <trkpt lat="45.98313" lon="2.99843">
        <ele>713.4355469</ele>
        <time>2009-05-08T11:00:20Z</time>
      </trkpt>
      <trkpt lat="45.98296" lon="2.99865">
        <ele>713.4355469</ele>
        <time>2009-05-08T11:00:24Z</time>
      </trkpt>
      <trkpt lat="45.9826" lon="2.99912">
        <ele>711.5129395</ele>
        <time>2009-05-08T11:00:32Z</time>
      </trkpt>
      <trkpt lat="45.98237" lon="2.9994">
        <ele>709.590332</ele>
        <time>2009-05-08T11:00:37Z</time>
      </trkpt>
      <trkpt lat="45.98219" lon="2.99947">
        <ele>709.1096191</ele>
        <time>2009-05-08T11:00:41Z</time>
      </trkpt>
      <trkpt lat="45.98215" lon="2.99945">
        <ele>708.6289063</ele>
        <time>2009-05-08T11:00:42Z</time>
      </trkpt>
      <trkpt lat="45.98197" lon="2.99937">
        <ele>710.0708008</ele>
        <time>2009-05-08T11:00:46Z</time>
      </trkpt>
      <trkpt lat="45.98175" lon="2.99926">
        <ele>711.0322266</ele>
        <time>2009-05-08T11:00:51Z</time>
      </trkpt>
      <trkpt lat="45.98138" lon="2.99915">
        <ele>712.954834</ele>
        <time>2009-05-08T11:00:59Z</time>
      </trkpt>
      <trkpt lat="45.98114" lon="2.99908">
        <ele>713.4355469</ele>
        <time>2009-05-08T11:01:04Z</time>
      </trkpt>
      <trkpt lat="45.98077" lon="2.99894">
        <ele>715.3581543</ele>
        <time>2009-05-08T11:01:12Z</time>
      </trkpt>
      <trkpt lat="45.98047" lon="2.99881">
        <ele>715.8388672</ele>
        <time>2009-05-08T11:01:19Z</time>
      </trkpt>
      <trkpt lat="45.98017" lon="2.99862">
        <ele>717.7614746</ele>
        <time>2009-05-08T11:01:27Z</time>
      </trkpt>
      <trkpt lat="45.97984" lon="2.99841">
        <ele>718.2421875</ele>
        <time>2009-05-08T11:01:35Z</time>
      </trkpt>
      <trkpt lat="45.97943" lon="2.99821">
        <ele>718.2421875</ele>
        <time>2009-05-08T11:01:44Z</time>
      </trkpt>
      <trkpt lat="45.97932" lon="2.99817">
        <ele>719.2036133</ele>
        <time>2009-05-08T11:01:47Z</time>
      </trkpt>
      <trkpt lat="45.97927" lon="2.998">
        <ele>718.7229004</ele>
        <time>2009-05-08T11:01:51Z</time>
      </trkpt>
      <trkpt lat="45.97921" lon="2.99766">
        <ele>717.2810059</ele>
        <time>2009-05-08T11:01:56Z</time>
      </trkpt>
      <trkpt lat="45.97913" lon="2.99756">
        <ele>717.7614746</ele>
        <time>2009-05-08T11:01:58Z</time>
      </trkpt>
      <trkpt lat="45.97906" lon="2.99749">
        <ele>718.7229004</ele>
        <time>2009-05-08T11:02:00Z</time>
      </trkpt>
      <trkpt lat="45.97894" lon="2.9973">
        <ele>718.7229004</ele>
        <time>2009-05-08T11:02:04Z</time>
      </trkpt>
      <trkpt lat="45.97871" lon="2.99692">
        <ele>719.2036133</ele>
        <time>2009-05-08T11:02:11Z</time>
      </trkpt>
      <trkpt lat="45.97853" lon="2.99668">
        <ele>717.7614746</ele>
        <time>2009-05-08T11:02:15Z</time>
      </trkpt>
      <trkpt lat="45.97849" lon="2.99662">
        <ele>717.7614746</ele>
        <time>2009-05-08T11:02:16Z</time>
      </trkpt>
      <trkpt lat="45.97825" lon="2.99639">
        <ele>715.3581543</ele>
        <time>2009-05-08T11:02:20Z</time>
      </trkpt>
      <trkpt lat="45.97803" lon="2.99623">
        <ele>713.4355469</ele>
        <time>2009-05-08T11:02:23Z</time>
      </trkpt>
      <trkpt lat="45.97775" lon="2.99592">
        <ele>711.0322266</ele>
        <time>2009-05-08T11:02:27Z</time>
      </trkpt>
      <trkpt lat="45.97758" lon="2.99572">
        <ele>707.1870117</ele>
        <time>2009-05-08T11:02:29Z</time>
      </trkpt>
      <trkpt lat="45.97749" lon="2.99561">
        <ele>707.6677246</ele>
        <time>2009-05-08T11:02:30Z</time>
      </trkpt>
      <trkpt lat="45.97725" lon="2.99521">
        <ele>704.7836914</ele>
        <time>2009-05-08T11:02:33Z</time>
      </trkpt>
      <trkpt lat="45.97717" lon="2.99508">
        <ele>703.3417969</ele>
        <time>2009-05-08T11:02:34Z</time>
      </trkpt>
      <trkpt lat="45.97696" lon="2.99453">
        <ele>702.3803711</ele>
        <time>2009-05-08T11:02:38Z</time>
      </trkpt>
      <trkpt lat="45.97687" lon="2.99431">
        <ele>701.8999023</ele>
        <time>2009-05-08T11:02:40Z</time>
      </trkpt>
      <trkpt lat="45.97667" lon="2.99401">
        <ele>702.3803711</ele>
        <time>2009-05-08T11:02:44Z</time>
      </trkpt>
      <trkpt lat="45.9765" lon="2.99379">
        <ele>700.9384766</ele>
        <time>2009-05-08T11:02:47Z</time>
      </trkpt>
      <trkpt lat="45.97625" lon="2.99358">
        <ele>699.9770508</ele>
        <time>2009-05-08T11:02:51Z</time>
      </trkpt>
      <trkpt lat="45.97593" lon="2.99326">
        <ele>699.4963379</ele>
        <time>2009-05-08T11:02:56Z</time>
      </trkpt>
      <trkpt lat="45.97582" lon="2.99311">
        <ele>699.4963379</ele>
        <time>2009-05-08T11:02:58Z</time>
      </trkpt>
      <trkpt lat="45.97542" lon="2.99256">
        <ele>697.0930176</ele>
        <time>2009-05-08T11:03:05Z</time>
      </trkpt>
      <trkpt lat="45.97528" lon="2.99242">
        <ele>696.6125488</ele>
        <time>2009-05-08T11:03:07Z</time>
      </trkpt>
      <trkpt lat="45.97485" lon="2.99203">
        <ele>696.1318359</ele>
        <time>2009-05-08T11:03:13Z</time>
      </trkpt>
      <trkpt lat="45.97461" lon="2.99168">
        <ele>695.1704102</ele>
        <time>2009-05-08T11:03:17Z</time>
      </trkpt>
      <trkpt lat="45.97446" lon="2.99143">
        <ele>695.651123</ele>
        <time>2009-05-08T11:03:20Z</time>
      </trkpt>
      <trkpt lat="45.97436" lon="2.99126">
        <ele>695.1704102</ele>
        <time>2009-05-08T11:03:22Z</time>
      </trkpt>
      <trkpt lat="45.97415" lon="2.99086">
        <ele>694.6896973</ele>
        <time>2009-05-08T11:03:27Z</time>
      </trkpt>
      <trkpt lat="45.97406" lon="2.9907">
        <ele>695.1704102</ele>
        <time>2009-05-08T11:03:29Z</time>
      </trkpt>
      <trkpt lat="45.97397" lon="2.99056">
        <ele>694.6896973</ele>
        <time>2009-05-08T11:03:31Z</time>
      </trkpt>
      <trkpt lat="45.97388" lon="2.99045">
        <ele>696.1318359</ele>
        <time>2009-05-08T11:03:33Z</time>
      </trkpt>
      <trkpt lat="45.97363" lon="2.99018">
        <ele>696.6125488</ele>
        <time>2009-05-08T11:03:38Z</time>
      </trkpt>
      <trkpt lat="45.97345" lon="2.98995">
        <ele>696.1318359</ele>
        <time>2009-05-08T11:03:42Z</time>
      </trkpt>
      <trkpt lat="45.97318" lon="2.98951">
        <ele>697.5737305</ele>
        <time>2009-05-08T11:03:49Z</time>
      </trkpt>
      <trkpt lat="45.97306" lon="2.98938">
        <ele>698.0544434</ele>
        <time>2009-05-08T11:03:52Z</time>
      </trkpt>
      <trkpt lat="45.97277" lon="2.98908">
        <ele>699.9770508</ele>
        <time>2009-05-08T11:04:00Z</time>
      </trkpt>
      <trkpt lat="45.97256" lon="2.98892">
        <ele>701.4191895</ele>
        <time>2009-05-08T11:04:06Z</time>
      </trkpt>
      <trkpt lat="45.97238" lon="2.98877">
        <ele>702.861084</ele>
        <time>2009-05-08T11:04:12Z</time>
      </trkpt>
      <trkpt lat="45.97228" lon="2.98862">
        <ele>702.861084</ele>
        <time>2009-05-08T11:04:17Z</time>
      </trkpt>
      <trkpt lat="45.97214" lon="2.98823">
        <ele>701.4191895</ele>
        <time>2009-05-08T11:04:23Z</time>
      </trkpt>
      <trkpt lat="45.97196" lon="2.98784">
        <ele>701.4191895</ele>
        <time>2009-05-08T11:04:28Z</time>
      </trkpt>
      <trkpt lat="45.97175" lon="2.98747">
        <ele>702.3803711</ele>
        <time>2009-05-08T11:04:34Z</time>
      </trkpt>
      <trkpt lat="45.97146" lon="2.9871">
        <ele>702.3803711</ele>
        <time>2009-05-08T11:04:41Z</time>
      </trkpt>
      <trkpt lat="45.97118" lon="2.98669">
        <ele>700.4580078</ele>
        <time>2009-05-08T11:04:47Z</time>
      </trkpt>
      <trkpt lat="45.97112" lon="2.98663">
        <ele>699.9770508</ele>
        <time>2009-05-08T11:04:48Z</time>
      </trkpt>
      <trkpt lat="45.97077" lon="2.98646">
        <ele>699.4963379</ele>
        <time>2009-05-08T11:04:53Z</time>
      </trkpt>
      <trkpt lat="45.97049" lon="2.98621">
        <ele>698.5349121</ele>
        <time>2009-05-08T11:04:58Z</time>
      </trkpt>
      <trkpt lat="45.97039" lon="2.98609">
        <ele>696.6125488</ele>
        <time>2009-05-08T11:05:00Z</time>
      </trkpt>
      <trkpt lat="45.97027" lon="2.98595">
        <ele>696.1318359</ele>
        <time>2009-05-08T11:05:02Z</time>
      </trkpt>
      <trkpt lat="45.9702" lon="2.98588">
        <ele>695.651123</ele>
        <time>2009-05-08T11:05:03Z</time>
      </trkpt>
      <trkpt lat="45.96998" lon="2.98569">
        <ele>694.6896973</ele>
        <time>2009-05-08T11:05:06Z</time>
      </trkpt>
      <trkpt lat="45.96979" lon="2.98543">
        <ele>692.2866211</ele>
        <time>2009-05-08T11:05:09Z</time>
      </trkpt>
      <trkpt lat="45.96972" lon="2.98533">
        <ele>691.3251953</ele>
        <time>2009-05-08T11:05:10Z</time>
      </trkpt>
      <trkpt lat="45.96965" lon="2.98522">
        <ele>691.3251953</ele>
        <time>2009-05-08T11:05:11Z</time>
      </trkpt>
      <trkpt lat="45.96959" lon="2.98512">
        <ele>689.8833008</ele>
        <time>2009-05-08T11:05:12Z</time>
      </trkpt>
      <trkpt lat="45.96949" lon="2.98488">
        <ele>688.4414063</ele>
        <time>2009-05-08T11:05:14Z</time>
      </trkpt>
      <trkpt lat="45.96947" lon="2.98474">
        <ele>687.9606934</ele>
        <time>2009-05-08T11:05:15Z</time>
      </trkpt>
      <trkpt lat="45.96947" lon="2.9846">
        <ele>687.4799805</ele>
        <time>2009-05-08T11:05:16Z</time>
      </trkpt>
      <trkpt lat="45.96943" lon="2.98403">
        <ele>686.0380859</ele>
        <time>2009-05-08T11:05:20Z</time>
      </trkpt>
      <trkpt lat="45.96932" lon="2.98353">
        <ele>683.6345215</ele>
        <time>2009-05-08T11:05:24Z</time>
      </trkpt>
      <trkpt lat="45.96929" lon="2.98342">
        <ele>684.1154785</ele>
        <time>2009-05-08T11:05:25Z</time>
      </trkpt>
      <trkpt lat="45.96907" lon="2.98322">
        <ele>684.1154785</ele>
        <time>2009-05-08T11:05:29Z</time>
      </trkpt>
      <trkpt lat="45.969" lon="2.98324">
        <ele>685.0769043</ele>
        <time>2009-05-08T11:05:30Z</time>
      </trkpt>
      <trkpt lat="45.96866" lon="2.98336">
        <ele>685.0769043</ele>
        <time>2009-05-08T11:05:35Z</time>
      </trkpt>
      <trkpt lat="45.96848" lon="2.98346">
        <ele>686.0380859</ele>
        <time>2009-05-08T11:05:38Z</time>
      </trkpt>
      <trkpt lat="45.96815" lon="2.98377">
        <ele>686.5187988</ele>
        <time>2009-05-08T11:05:44Z</time>
      </trkpt>
      <trkpt lat="45.9681" lon="2.98383">
        <ele>686.5187988</ele>
        <time>2009-05-08T11:05:45Z</time>
      </trkpt>
      <trkpt lat="45.96788" lon="2.98428">
        <ele>686.9992676</ele>
        <time>2009-05-08T11:05:51Z</time>
      </trkpt>
      <trkpt lat="45.96774" lon="2.9846">
        <ele>686.0380859</ele>
        <time>2009-05-08T11:05:55Z</time>
      </trkpt>
      <trkpt lat="45.96757" lon="2.98498">
        <ele>687.4799805</ele>
        <time>2009-05-08T11:06:00Z</time>
      </trkpt>
      <trkpt lat="45.96729" lon="2.98561">
        <ele>688.4414063</ele>
        <time>2009-05-08T11:06:09Z</time>
      </trkpt>
      <trkpt lat="45.96708" lon="2.98611">
        <ele>689.4025879</ele>
        <time>2009-05-08T11:06:17Z</time>
      </trkpt>
      <trkpt lat="45.96684" lon="2.98668">
        <ele>690.8444824</ele>
        <time>2009-05-08T11:06:26Z</time>
      </trkpt>
      <trkpt lat="45.96678" lon="2.9868">
        <ele>689.8833008</ele>
        <time>2009-05-08T11:06:28Z</time>
      </trkpt>
      <trkpt lat="45.96662" lon="2.98698">
        <ele>690.3640137</ele>
        <time>2009-05-08T11:06:32Z</time>
      </trkpt>
      <trkpt lat="45.96623" lon="2.98723">
        <ele>691.3251953</ele>
        <time>2009-05-08T11:06:41Z</time>
      </trkpt>
      <trkpt lat="45.96594" lon="2.98743">
        <ele>692.2866211</ele>
        <time>2009-05-08T11:06:49Z</time>
      </trkpt>
      <trkpt lat="45.96566" lon="2.98764">
        <ele>693.7285156</ele>
        <time>2009-05-08T11:06:57Z</time>
      </trkpt>
      <trkpt lat="45.96541" lon="2.98778">
        <ele>694.6896973</ele>
        <time>2009-05-08T11:07:05Z</time>
      </trkpt>
      <trkpt lat="45.9652" lon="2.988">
        <ele>695.651123</ele>
        <time>2009-05-08T11:07:12Z</time>
      </trkpt>
      <trkpt lat="45.96514" lon="2.9882">
        <ele>697.0930176</ele>
        <time>2009-05-08T11:07:17Z</time>
      </trkpt>
      <trkpt lat="45.96518" lon="2.98842">
        <ele>698.5349121</ele>
        <time>2009-05-08T11:07:24Z</time>
      </trkpt>
      <trkpt lat="45.96526" lon="2.98864">
        <ele>699.4963379</ele>
        <time>2009-05-08T11:07:31Z</time>
      </trkpt>
      <trkpt lat="45.96535" lon="2.98888">
        <ele>700.9384766</ele>
        <time>2009-05-08T11:07:39Z</time>
      </trkpt>
      <trkpt lat="45.9654" lon="2.9891">
        <ele>702.3803711</ele>
        <time>2009-05-08T11:07:46Z</time>
      </trkpt>
      <trkpt lat="45.96544" lon="2.98938">
        <ele>703.8225098</ele>
        <time>2009-05-08T11:07:54Z</time>
      </trkpt>
      <trkpt lat="45.96543" lon="2.98957">
        <ele>706.2255859</ele>
        <time>2009-05-08T11:08:00Z</time>
      </trkpt>
      <trkpt lat="45.96541" lon="2.98977">
        <ele>706.7062988</ele>
        <time>2009-05-08T11:08:07Z</time>
      </trkpt>
      <trkpt lat="45.96539" lon="2.98995">
        <ele>708.1484375</ele>
        <time>2009-05-08T11:08:13Z</time>
      </trkpt>
      <trkpt lat="45.96538" lon="2.99018">
        <ele>709.590332</ele>
        <time>2009-05-08T11:08:21Z</time>
      </trkpt>
      <trkpt lat="45.96536" lon="2.99036">
        <ele>711.0322266</ele>
        <time>2009-05-08T11:08:27Z</time>
      </trkpt>
      <trkpt lat="45.9653" lon="2.99064">
        <ele>712.954834</ele>
        <time>2009-05-08T11:08:36Z</time>
      </trkpt>
      <trkpt lat="45.96529" lon="2.9907">
        <ele>713.4355469</ele>
        <time>2009-05-08T11:08:38Z</time>
      </trkpt>
      <trkpt lat="45.96527" lon="2.99082">
        <ele>714.3967285</ele>
        <time>2009-05-08T11:08:42Z</time>
      </trkpt>
      <trkpt lat="45.96524" lon="2.99107">
        <ele>716.800293</ele>
        <time>2009-05-08T11:08:51Z</time>
      </trkpt>
      <trkpt lat="45.9652" lon="2.99129">
        <ele>719.6843262</ele>
        <time>2009-05-08T11:08:59Z</time>
      </trkpt>
      <trkpt lat="45.96518" lon="2.99147">
        <ele>721.1262207</ele>
        <time>2009-05-08T11:09:06Z</time>
      </trkpt>
      <trkpt lat="45.96514" lon="2.9917">
        <ele>723.0488281</ele>
        <time>2009-05-08T11:09:15Z</time>
      </trkpt>
      <trkpt lat="45.96507" lon="2.99192">
        <ele>725.4519043</ele>
        <time>2009-05-08T11:09:24Z</time>
      </trkpt>
      <trkpt lat="45.96501" lon="2.99213">
        <ele>727.3747559</ele>
        <time>2009-05-08T11:09:33Z</time>
      </trkpt>
      <trkpt lat="45.96499" lon="2.99231">
        <ele>728.8166504</ele>
        <time>2009-05-08T11:09:40Z</time>
      </trkpt>
      <trkpt lat="45.96491" lon="2.99254">
        <ele>731.7004395</ele>
        <time>2009-05-08T11:09:50Z</time>
      </trkpt>
      <trkpt lat="45.96485" lon="2.99271">
        <ele>733.623291</ele>
        <time>2009-05-08T11:09:58Z</time>
      </trkpt>
      <trkpt lat="45.96479" lon="2.99282">
        <ele>736.5073242</ele>
        <time>2009-05-08T11:10:04Z</time>
      </trkpt>
      <trkpt lat="45.96471" lon="2.99293">
        <ele>737.9492188</ele>
        <time>2009-05-08T11:10:11Z</time>
      </trkpt>
      <trkpt lat="45.96459" lon="2.99306">
        <ele>739.8718262</ele>
        <time>2009-05-08T11:10:19Z</time>
      </trkpt>
      <trkpt lat="45.96448" lon="2.99319">
        <ele>741.3137207</ele>
        <time>2009-05-08T11:10:26Z</time>
      </trkpt>
      <trkpt lat="45.96432" lon="2.99335">
        <ele>741.7944336</ele>
        <time>2009-05-08T11:10:33Z</time>
      </trkpt>
      <trkpt lat="45.96412" lon="2.99349">
        <ele>741.3137207</ele>
        <time>2009-05-08T11:10:40Z</time>
      </trkpt>
      <trkpt lat="45.96388" lon="2.99346">
        <ele>741.7944336</ele>
        <time>2009-05-08T11:10:47Z</time>
      </trkpt>
      <trkpt lat="45.96381" lon="2.99348">
        <ele>741.3137207</ele>
        <time>2009-05-08T11:10:49Z</time>
      </trkpt>
      <trkpt lat="45.96375" lon="2.99366">
        <ele>741.7944336</ele>
        <time>2009-05-08T11:10:54Z</time>
      </trkpt>
      <trkpt lat="45.96375" lon="2.99369">
        <ele>741.7944336</ele>
        <time>2009-05-08T11:10:56Z</time>
      </trkpt>
      <trkpt lat="45.96375" lon="2.99369">
        <ele>741.3137207</ele>
        <time>2009-05-08T11:10:59Z</time>
      </trkpt>
      <trkpt lat="45.96375" lon="2.99369">
        <ele>740.8330078</ele>
        <time>2009-05-08T11:11:04Z</time>
      </trkpt>
      <trkpt lat="45.96375" lon="2.99369">
        <ele>740.8330078</ele>
        <time>2009-05-08T11:11:12Z</time>
      </trkpt>
      <trkpt lat="45.96375" lon="2.99369">
        <ele>740.3525391</ele>
        <time>2009-05-08T11:11:22Z</time>
      </trkpt>
      <trkpt lat="45.96375" lon="2.99369">
        <ele>740.8330078</ele>
        <time>2009-05-08T11:11:33Z</time>
      </trkpt>
      <trkpt lat="45.96375" lon="2.99369">
        <ele>740.8330078</ele>
        <time>2009-05-08T11:11:36Z</time>
      </trkpt>
      <trkpt lat="45.96376" lon="2.99369">
        <ele>741.3137207</ele>
        <time>2009-05-08T11:11:46Z</time>
      </trkpt>
      <trkpt lat="45.96376" lon="2.99369">
        <ele>740.8330078</ele>
        <time>2009-05-08T11:11:55Z</time>
      </trkpt>
      <trkpt lat="45.96376" lon="2.99369">
        <ele>741.3137207</ele>
        <time>2009-05-08T11:12:06Z</time>
      </trkpt>
      <trkpt lat="45.96377" lon="2.99378">
        <ele>740.8330078</ele>
        <time>2009-05-08T11:12:16Z</time>
      </trkpt>
      <trkpt lat="45.96377" lon="2.99396">
        <ele>741.7944336</ele>
        <time>2009-05-08T11:12:21Z</time>
      </trkpt>
      <trkpt lat="45.96377" lon="2.99411">
        <ele>741.7944336</ele>
        <time>2009-05-08T11:12:24Z</time>
      </trkpt>
      <trkpt lat="45.96377" lon="2.99416">
        <ele>742.2751465</ele>
        <time>2009-05-08T11:12:25Z</time>
      </trkpt>
      <trkpt lat="45.96379" lon="2.99445">
        <ele>741.7944336</ele>
        <time>2009-05-08T11:12:30Z</time>
      </trkpt>
      <trkpt lat="45.9638" lon="2.99476">
        <ele>742.2751465</ele>
        <time>2009-05-08T11:12:35Z</time>
      </trkpt>
      <trkpt lat="45.96379" lon="2.99482">
        <ele>742.2751465</ele>
        <time>2009-05-08T11:12:36Z</time>
      </trkpt>
      <trkpt lat="45.9638" lon="2.99496">
        <ele>741.7944336</ele>
        <time>2009-05-08T11:12:38Z</time>
      </trkpt>
      <trkpt lat="45.96378" lon="2.99548">
        <ele>741.7944336</ele>
        <time>2009-05-08T11:12:45Z</time>
      </trkpt>
      <trkpt lat="45.96377" lon="2.99556">
        <ele>741.3137207</ele>
        <time>2009-05-08T11:12:46Z</time>
      </trkpt>
      <trkpt lat="45.96363" lon="2.996">
        <ele>740.8330078</ele>
        <time>2009-05-08T11:12:52Z</time>
      </trkpt>
      <trkpt lat="45.96359" lon="2.99614">
        <ele>740.8330078</ele>
        <time>2009-05-08T11:12:54Z</time>
      </trkpt>
      <trkpt lat="45.96347" lon="2.99664">
        <ele>740.3525391</ele>
        <time>2009-05-08T11:13:01Z</time>
      </trkpt>
      <trkpt lat="45.96342" lon="2.99716">
        <ele>742.7558594</ele>
        <time>2009-05-08T11:13:08Z</time>
      </trkpt>
      <trkpt lat="45.96342" lon="2.9973">
        <ele>743.717041</ele>
        <time>2009-05-08T11:13:10Z</time>
      </trkpt>
      <trkpt lat="45.96343" lon="2.9976">
        <ele>743.717041</ele>
        <time>2009-05-08T11:13:15Z</time>
      </trkpt>
      <trkpt lat="45.96342" lon="2.99786">
        <ele>743.2363281</ele>
        <time>2009-05-08T11:13:19Z</time>
      </trkpt>
      <trkpt lat="45.9634" lon="2.99813">
        <ele>743.2363281</ele>
        <time>2009-05-08T11:13:23Z</time>
      </trkpt>
      <trkpt lat="45.96335" lon="2.99854">
        <ele>743.2363281</ele>
        <time>2009-05-08T11:13:30Z</time>
      </trkpt>
      <trkpt lat="45.96322" lon="2.99889">
        <ele>741.7944336</ele>
        <time>2009-05-08T11:13:35Z</time>
      </trkpt>
      <trkpt lat="45.96315" lon="2.99904">
        <ele>741.3137207</ele>
        <time>2009-05-08T11:13:37Z</time>
      </trkpt>
      <trkpt lat="45.96308" lon="2.99938">
        <ele>740.3525391</ele>
        <time>2009-05-08T11:13:41Z</time>
      </trkpt>
      <trkpt lat="45.96299" lon="2.99964">
        <ele>740.3525391</ele>
        <time>2009-05-08T11:13:45Z</time>
      </trkpt>
      <trkpt lat="45.96278" lon="2.99993">
        <ele>739.3911133</ele>
        <time>2009-05-08T11:13:50Z</time>
      </trkpt>
      <trkpt lat="45.96239" lon="3.00042">
        <ele>738.9106445</ele>
        <time>2009-05-08T11:13:58Z</time>
      </trkpt>
      <trkpt lat="45.96216" lon="3.00076">
        <ele>737.4685059</ele>
        <time>2009-05-08T11:14:03Z</time>
      </trkpt>
      <trkpt lat="45.96182" lon="3.00123">
        <ele>735.5458984</ele>
        <time>2009-05-08T11:14:10Z</time>
      </trkpt>
      <trkpt lat="45.96156" lon="3.00158">
        <ele>734.5847168</ele>
        <time>2009-05-08T11:14:15Z</time>
      </trkpt>
      <trkpt lat="45.96145" lon="3.00171">
        <ele>734.5847168</ele>
        <time>2009-05-08T11:14:17Z</time>
      </trkpt>
      <trkpt lat="45.96139" lon="3.00178">
        <ele>734.1040039</ele>
        <time>2009-05-08T11:14:18Z</time>
      </trkpt>
      <trkpt lat="45.96101" lon="3.00229">
        <ele>733.1425781</ele>
        <time>2009-05-08T11:14:25Z</time>
      </trkpt>
      <trkpt lat="45.96088" lon="3.00267">
        <ele>731.7004395</ele>
        <time>2009-05-08T11:14:29Z</time>
      </trkpt>
      <trkpt lat="45.96084" lon="3.00317">
        <ele>731.2199707</ele>
        <time>2009-05-08T11:14:34Z</time>
      </trkpt>
      <trkpt lat="45.9609" lon="3.00353">
        <ele>729.777832</ele>
        <time>2009-05-08T11:14:38Z</time>
      </trkpt>
      <trkpt lat="45.96102" lon="3.00376">
        <ele>729.2971191</ele>
        <time>2009-05-08T11:14:41Z</time>
      </trkpt>
      <trkpt lat="45.96132" lon="3.00413">
        <ele>729.777832</ele>
        <time>2009-05-08T11:14:48Z</time>
      </trkpt>
      <trkpt lat="45.96136" lon="3.00417">
        <ele>729.777832</ele>
        <time>2009-05-08T11:14:49Z</time>
      </trkpt>
      <trkpt lat="45.96156" lon="3.00427">
        <ele>731.7004395</ele>
        <time>2009-05-08T11:14:55Z</time>
      </trkpt>
      <trkpt lat="45.96165" lon="3.00432">
        <ele>732.6621094</ele>
        <time>2009-05-08T11:14:59Z</time>
      </trkpt>
      <trkpt lat="45.96169" lon="3.00435">
        <ele>734.1040039</ele>
        <time>2009-05-08T11:15:01Z</time>
      </trkpt>
      <trkpt lat="45.96171" lon="3.00436">
        <ele>734.1040039</ele>
        <time>2009-05-08T11:15:02Z</time>
      </trkpt>
      <trkpt lat="45.96179" lon="3.00443">
        <ele>736.0266113</ele>
        <time>2009-05-08T11:15:06Z</time>
      </trkpt>
      <trkpt lat="45.96184" lon="3.00452">
        <ele>736.987793</ele>
        <time>2009-05-08T11:15:10Z</time>
      </trkpt>
      <trkpt lat="45.96189" lon="3.0046">
        <ele>736.5073242</ele>
        <time>2009-05-08T11:15:13Z</time>
      </trkpt>
      <trkpt lat="45.96203" lon="3.00483">
        <ele>737.9492188</ele>
        <time>2009-05-08T11:15:21Z</time>
      </trkpt>
      <trkpt lat="45.9621" lon="3.00493">
        <ele>738.9106445</ele>
        <time>2009-05-08T11:15:25Z</time>
      </trkpt>
      <trkpt lat="45.96218" lon="3.00513">
        <ele>740.3525391</ele>
        <time>2009-05-08T11:15:32Z</time>
      </trkpt>
      <trkpt lat="45.96216" lon="3.00541">
        <ele>741.7944336</ele>
        <time>2009-05-08T11:15:41Z</time>
      </trkpt>
      <trkpt lat="45.96217" lon="3.00569">
        <ele>743.717041</ele>
        <time>2009-05-08T11:15:50Z</time>
      </trkpt>
      <trkpt lat="45.96219" lon="3.00595">
        <ele>746.1203613</ele>
        <time>2009-05-08T11:15:58Z</time>
      </trkpt>
      <trkpt lat="45.96228" lon="3.00626">
        <ele>747.081543</ele>
        <time>2009-05-08T11:16:07Z</time>
      </trkpt>
      <trkpt lat="45.96239" lon="3.00648">
        <ele>748.0432129</ele>
        <time>2009-05-08T11:16:14Z</time>
      </trkpt>
      <trkpt lat="45.96249" lon="3.00669">
        <ele>748.5236816</ele>
        <time>2009-05-08T11:16:20Z</time>
      </trkpt>
      <trkpt lat="45.9626" lon="3.00696">
        <ele>748.5236816</ele>
        <time>2009-05-08T11:16:26Z</time>
      </trkpt>
      <trkpt lat="45.96279" lon="3.00738">
        <ele>749.0043945</ele>
        <time>2009-05-08T11:16:35Z</time>
      </trkpt>
      <trkpt lat="45.96289" lon="3.00757">
        <ele>749.4851074</ele>
        <time>2009-05-08T11:16:39Z</time>
      </trkpt>
      <trkpt lat="45.9631" lon="3.00793">
        <ele>749.9658203</ele>
        <time>2009-05-08T11:16:46Z</time>
      </trkpt>
      <trkpt lat="45.96317" lon="3.00803">
        <ele>749.0043945</ele>
        <time>2009-05-08T11:16:48Z</time>
      </trkpt>
      <trkpt lat="45.96337" lon="3.00812">
        <ele>750.4465332</ele>
        <time>2009-05-08T11:16:53Z</time>
      </trkpt>
      <trkpt lat="45.96366" lon="3.00807">
        <ele>750.927002</ele>
        <time>2009-05-08T11:17:02Z</time>
      </trkpt>
      <trkpt lat="45.96376" lon="3.00803">
        <ele>750.927002</ele>
        <time>2009-05-08T11:17:05Z</time>
      </trkpt>
      <trkpt lat="45.96386" lon="3.00809">
        <ele>749.9658203</ele>
        <time>2009-05-08T11:17:09Z</time>
      </trkpt>
      <trkpt lat="45.96398" lon="3.00823">
        <ele>746.6010742</ele>
        <time>2009-05-08T11:17:13Z</time>
      </trkpt>
      <trkpt lat="45.96404" lon="3.00831">
        <ele>743.717041</ele>
        <time>2009-05-08T11:17:15Z</time>
      </trkpt>
      <trkpt lat="45.9641" lon="3.00838">
        <ele>740.3525391</ele>
        <time>2009-05-08T11:17:17Z</time>
      </trkpt>
      <trkpt lat="45.96415" lon="3.00848">
        <ele>736.987793</ele>
        <time>2009-05-08T11:17:19Z</time>
      </trkpt>
      <trkpt lat="45.96418" lon="3.00852">
        <ele>734.1040039</ele>
        <time>2009-05-08T11:17:20Z</time>
      </trkpt>
      <trkpt lat="45.96427" lon="3.00856">
        <ele>731.7004395</ele>
        <time>2009-05-08T11:17:23Z</time>
      </trkpt>
      <trkpt lat="45.96435" lon="3.00855">
        <ele>727.8552246</ele>
        <time>2009-05-08T11:17:27Z</time>
      </trkpt>
      <trkpt lat="45.96437" lon="3.00858">
        <ele>727.8552246</ele>
        <time>2009-05-08T11:17:28Z</time>
      </trkpt>
      <trkpt lat="45.96438" lon="3.00864">
        <ele>727.8552246</ele>
        <time>2009-05-08T11:17:29Z</time>
      </trkpt>
      <trkpt lat="45.96445" lon="3.00896">
        <ele>724.9714355</ele>
        <time>2009-05-08T11:17:34Z</time>
      </trkpt>
      <trkpt lat="45.96455" lon="3.00909">
        <ele>724.0100098</ele>
        <time>2009-05-08T11:17:37Z</time>
      </trkpt>
      <trkpt lat="45.96464" lon="3.00925">
        <ele>724.4907227</ele>
        <time>2009-05-08T11:17:41Z</time>
      </trkpt>
      <trkpt lat="45.96471" lon="3.00925">
        <ele>724.0100098</ele>
        <time>2009-05-08T11:17:43Z</time>
      </trkpt>
      <trkpt lat="45.96483" lon="3.00923">
        <ele>722.0874023</ele>
        <time>2009-05-08T11:17:46Z</time>
      </trkpt>
      <trkpt lat="45.96493" lon="3.00919">
        <ele>718.7229004</ele>
        <time>2009-05-08T11:17:49Z</time>
      </trkpt>
      <trkpt lat="45.96505" lon="3.00907">
        <ele>716.800293</ele>
        <time>2009-05-08T11:17:53Z</time>
      </trkpt>
      <trkpt lat="45.9651" lon="3.00902">
        <ele>715.8388672</ele>
        <time>2009-05-08T11:17:54Z</time>
      </trkpt>
      <trkpt lat="45.96525" lon="3.00889">
        <ele>711.9936523</ele>
        <time>2009-05-08T11:17:57Z</time>
      </trkpt>
      <trkpt lat="45.96533" lon="3.00879">
        <ele>710.0708008</ele>
        <time>2009-05-08T11:17:59Z</time>
      </trkpt>
      <trkpt lat="45.9655" lon="3.00858">
        <ele>706.7062988</ele>
        <time>2009-05-08T11:18:03Z</time>
      </trkpt>
      <trkpt lat="45.96555" lon="3.00848">
        <ele>705.7451172</ele>
        <time>2009-05-08T11:18:05Z</time>
      </trkpt>
      <trkpt lat="45.96557" lon="3.00844">
        <ele>704.7836914</ele>
        <time>2009-05-08T11:18:06Z</time>
      </trkpt>
      <trkpt lat="45.96559" lon="3.00836">
        <ele>703.8225098</ele>
        <time>2009-05-08T11:18:11Z</time>
      </trkpt>
      <trkpt lat="45.96561" lon="3.00832">
        <ele>703.8225098</ele>
        <time>2009-05-08T11:18:13Z</time>
      </trkpt>
      <trkpt lat="45.96571" lon="3.00822">
        <ele>702.3803711</ele>
        <time>2009-05-08T11:18:17Z</time>
      </trkpt>
      <trkpt lat="45.96579" lon="3.00809">
        <ele>700.9384766</ele>
        <time>2009-05-08T11:18:20Z</time>
      </trkpt>
      <trkpt lat="45.9659" lon="3.00788">
        <ele>698.5349121</ele>
        <time>2009-05-08T11:18:24Z</time>
      </trkpt>
      <trkpt lat="45.96601" lon="3.00773">
        <ele>696.1318359</ele>
        <time>2009-05-08T11:18:28Z</time>
      </trkpt>
      <trkpt lat="45.96612" lon="3.00762">
        <ele>695.651123</ele>
        <time>2009-05-08T11:18:32Z</time>
      </trkpt>
      <trkpt lat="45.96619" lon="3.00761">
        <ele>693.2478027</ele>
        <time>2009-05-08T11:18:35Z</time>
      </trkpt>
      <trkpt lat="45.96623" lon="3.00759">
        <ele>692.2866211</ele>
        <time>2009-05-08T11:18:36Z</time>
      </trkpt>
      <trkpt lat="45.96632" lon="3.00751">
        <ele>691.3251953</ele>
        <time>2009-05-08T11:18:38Z</time>
      </trkpt>
      <trkpt lat="45.9665" lon="3.00741">
        <ele>690.3640137</ele>
        <time>2009-05-08T11:18:41Z</time>
      </trkpt>
      <trkpt lat="45.96656" lon="3.00738">
        <ele>689.4025879</ele>
        <time>2009-05-08T11:18:42Z</time>
      </trkpt>
      <trkpt lat="45.96675" lon="3.00726">
        <ele>686.9992676</ele>
        <time>2009-05-08T11:18:45Z</time>
      </trkpt>
      <trkpt lat="45.96691" lon="3.00715">
        <ele>684.5961914</ele>
        <time>2009-05-08T11:18:48Z</time>
      </trkpt>
      <trkpt lat="45.96707" lon="3.00701">
        <ele>682.6733398</ele>
        <time>2009-05-08T11:18:52Z</time>
      </trkpt>
      <trkpt lat="45.96725" lon="3.00685">
        <ele>681.2314453</ele>
        <time>2009-05-08T11:18:57Z</time>
      </trkpt>
      <trkpt lat="45.96746" lon="3.00668">
        <ele>678.3474121</ele>
        <time>2009-05-08T11:19:02Z</time>
      </trkpt>
      <trkpt lat="45.96764" lon="3.00651">
        <ele>675.4633789</ele>
        <time>2009-05-08T11:19:06Z</time>
      </trkpt>
      <trkpt lat="45.96773" lon="3.00644">
        <ele>674.5021973</ele>
        <time>2009-05-08T11:19:08Z</time>
      </trkpt>
      <trkpt lat="45.96785" lon="3.00648">
        <ele>673.0603027</ele>
        <time>2009-05-08T11:19:11Z</time>
      </trkpt>
      <trkpt lat="45.96794" lon="3.00664">
        <ele>672.098877</ele>
        <time>2009-05-08T11:19:15Z</time>
      </trkpt>
      <trkpt lat="45.96796" lon="3.00667">
        <ele>672.098877</ele>
        <time>2009-05-08T11:19:16Z</time>
      </trkpt>
      <trkpt lat="45.96808" lon="3.00681">
        <ele>671.6181641</ele>
        <time>2009-05-08T11:19:23Z</time>
      </trkpt>
      <trkpt lat="45.96816" lon="3.00692">
        <ele>671.6181641</ele>
        <time>2009-05-08T11:19:27Z</time>
      </trkpt>
      <trkpt lat="45.96834" lon="3.00713">
        <ele>671.6181641</ele>
        <time>2009-05-08T11:19:33Z</time>
      </trkpt>
      <trkpt lat="45.9686" lon="3.00748">
        <ele>671.1376953</ele>
        <time>2009-05-08T11:19:40Z</time>
      </trkpt>
      <trkpt lat="45.9687" lon="3.00767">
        <ele>671.1376953</ele>
        <time>2009-05-08T11:19:43Z</time>
      </trkpt>
      <trkpt lat="45.96885" lon="3.0079">
        <ele>670.6569824</ele>
        <time>2009-05-08T11:19:49Z</time>
      </trkpt>
      <trkpt lat="45.96899" lon="3.00802">
        <ele>670.6569824</ele>
        <time>2009-05-08T11:19:55Z</time>
      </trkpt>
      <trkpt lat="45.96911" lon="3.00813">
        <ele>670.6569824</ele>
        <time>2009-05-08T11:20:00Z</time>
      </trkpt>
      <trkpt lat="45.96921" lon="3.00819">
        <ele>670.1762695</ele>
        <time>2009-05-08T11:20:04Z</time>
      </trkpt>
      <trkpt lat="45.96936" lon="3.00832">
        <ele>668.734375</ele>
        <time>2009-05-08T11:20:11Z</time>
      </trkpt>
      <trkpt lat="45.96952" lon="3.00845">
        <ele>668.2536621</ele>
        <time>2009-05-08T11:20:18Z</time>
      </trkpt>
      <trkpt lat="45.96965" lon="3.00857">
        <ele>667.7727051</ele>
        <time>2009-05-08T11:20:24Z</time>
      </trkpt>
      <trkpt lat="45.96979" lon="3.0087">
        <ele>666.8115234</ele>
        <time>2009-05-08T11:20:31Z</time>
      </trkpt>
      <trkpt lat="45.96995" lon="3.00883">
        <ele>667.2922363</ele>
        <time>2009-05-08T11:20:38Z</time>
      </trkpt>
      <trkpt lat="45.97009" lon="3.009">
        <ele>666.8115234</ele>
        <time>2009-05-08T11:20:43Z</time>
      </trkpt>
      <trkpt lat="45.97018" lon="3.00919">
        <ele>667.2922363</ele>
        <time>2009-05-08T11:20:47Z</time>
      </trkpt>
      <trkpt lat="45.97027" lon="3.00934">
        <ele>666.3308105</ele>
        <time>2009-05-08T11:20:50Z</time>
      </trkpt>
      <trkpt lat="45.97047" lon="3.00954">
        <ele>665.8503418</ele>
        <time>2009-05-08T11:20:56Z</time>
      </trkpt>
      <trkpt lat="45.9705" lon="3.00955">
        <ele>665.8503418</ele>
        <time>2009-05-08T11:20:59Z</time>
      </trkpt>
      <trkpt lat="45.97055" lon="3.00955">
        <ele>665.3696289</ele>
        <time>2009-05-08T11:21:04Z</time>
      </trkpt>
      <trkpt lat="45.97068" lon="3.00958">
        <ele>664.888916</ele>
        <time>2009-05-08T11:21:10Z</time>
      </trkpt>
      <trkpt lat="45.97082" lon="3.00963">
        <ele>663.9274902</ele>
        <time>2009-05-08T11:21:14Z</time>
      </trkpt>
      <trkpt lat="45.97096" lon="3.00975">
        <ele>663.4470215</ele>
        <time>2009-05-08T11:21:19Z</time>
      </trkpt>
      <trkpt lat="45.97109" lon="3.0099">
        <ele>663.4470215</ele>
        <time>2009-05-08T11:21:24Z</time>
      </trkpt>
      <trkpt lat="45.97123" lon="3.01014">
        <ele>662.9663086</ele>
        <time>2009-05-08T11:21:30Z</time>
      </trkpt>
      <trkpt lat="45.97143" lon="3.01036">
        <ele>662.9663086</ele>
        <time>2009-05-08T11:21:37Z</time>
      </trkpt>
      <trkpt lat="45.97152" lon="3.01045">
        <ele>662.9663086</ele>
        <time>2009-05-08T11:21:40Z</time>
      </trkpt>
      <trkpt lat="45.97158" lon="3.01054">
        <ele>662.9663086</ele>
        <time>2009-05-08T11:21:42Z</time>
      </trkpt>
      <trkpt lat="45.97177" lon="3.01092">
        <ele>662.9663086</ele>
        <time>2009-05-08T11:21:49Z</time>
      </trkpt>
      <trkpt lat="45.97182" lon="3.01104">
        <ele>663.4470215</ele>
        <time>2009-05-08T11:21:51Z</time>
      </trkpt>
      <trkpt lat="45.97191" lon="3.01125">
        <ele>663.9274902</ele>
        <time>2009-05-08T11:21:55Z</time>
      </trkpt>
      <trkpt lat="45.97202" lon="3.01156">
        <ele>665.3696289</ele>
        <time>2009-05-08T11:22:01Z</time>
      </trkpt>
      <trkpt lat="45.97213" lon="3.01181">
        <ele>666.8115234</ele>
        <time>2009-05-08T11:22:06Z</time>
      </trkpt>
      <trkpt lat="45.97222" lon="3.01211">
        <ele>666.8115234</ele>
        <time>2009-05-08T11:22:12Z</time>
      </trkpt>
      <trkpt lat="45.97225" lon="3.01237">
        <ele>667.2922363</ele>
        <time>2009-05-08T11:22:17Z</time>
      </trkpt>
      <trkpt lat="45.97228" lon="3.01275">
        <ele>668.734375</ele>
        <time>2009-05-08T11:22:23Z</time>
      </trkpt>
      <trkpt lat="45.9723" lon="3.01311">
        <ele>669.2150879</ele>
        <time>2009-05-08T11:22:29Z</time>
      </trkpt>
      <trkpt lat="45.97235" lon="3.01343">
        <ele>670.1762695</ele>
        <time>2009-05-08T11:22:35Z</time>
      </trkpt>
      <trkpt lat="45.9724" lon="3.01374">
        <ele>670.6569824</ele>
        <time>2009-05-08T11:22:41Z</time>
      </trkpt>
      <trkpt lat="45.97244" lon="3.01395">
        <ele>671.1376953</ele>
        <time>2009-05-08T11:22:45Z</time>
      </trkpt>
      <trkpt lat="45.97252" lon="3.01434">
        <ele>672.5795898</ele>
        <time>2009-05-08T11:22:53Z</time>
      </trkpt>
      <trkpt lat="45.97259" lon="3.01471">
        <ele>673.0603027</ele>
        <time>2009-05-08T11:23:00Z</time>
      </trkpt>
      <trkpt lat="45.97264" lon="3.01496">
        <ele>674.0214844</ele>
        <time>2009-05-08T11:23:05Z</time>
      </trkpt>
      <trkpt lat="45.97272" lon="3.01525">
        <ele>674.5021973</ele>
        <time>2009-05-08T11:23:11Z</time>
      </trkpt>
      <trkpt lat="45.97281" lon="3.01557">
        <ele>675.9440918</ele>
        <time>2009-05-08T11:23:18Z</time>
      </trkpt>
      <trkpt lat="45.97293" lon="3.01586">
        <ele>676.4248047</ele>
        <time>2009-05-08T11:23:24Z</time>
      </trkpt>
      <trkpt lat="45.97305" lon="3.01618">
        <ele>676.4248047</ele>
        <time>2009-05-08T11:23:31Z</time>
      </trkpt>
      <trkpt lat="45.97317" lon="3.01663">
        <ele>677.8666992</ele>
        <time>2009-05-08T11:23:40Z</time>
      </trkpt>
      <trkpt lat="45.97319" lon="3.01693">
        <ele>679.3085938</ele>
        <time>2009-05-08T11:23:46Z</time>
      </trkpt>
      <trkpt lat="45.97319" lon="3.01718">
        <ele>679.7893066</ele>
        <time>2009-05-08T11:23:51Z</time>
      </trkpt>
      <trkpt lat="45.97319" lon="3.01741">
        <ele>681.2314453</ele>
        <time>2009-05-08T11:23:56Z</time>
      </trkpt>
      <trkpt lat="45.97318" lon="3.0178">
        <ele>682.192627</ele>
        <time>2009-05-08T11:24:03Z</time>
      </trkpt>
      <trkpt lat="45.9732" lon="3.01815">
        <ele>682.6733398</ele>
        <time>2009-05-08T11:24:09Z</time>
      </trkpt>
      <trkpt lat="45.9732" lon="3.01827">
        <ele>682.6733398</ele>
        <time>2009-05-08T11:24:11Z</time>
      </trkpt>
      <trkpt lat="45.97321" lon="3.01862">
        <ele>682.6733398</ele>
        <time>2009-05-08T11:24:16Z</time>
      </trkpt>
      <trkpt lat="45.97323" lon="3.01907">
        <ele>682.192627</ele>
        <time>2009-05-08T11:24:22Z</time>
      </trkpt>
      <trkpt lat="45.97321" lon="3.01931">
        <ele>681.2314453</ele>
        <time>2009-05-08T11:24:25Z</time>
      </trkpt>
      <trkpt lat="45.97324" lon="3.0197">
        <ele>679.3085938</ele>
        <time>2009-05-08T11:24:29Z</time>
      </trkpt>
      <trkpt lat="45.97323" lon="3.0198">
        <ele>678.3474121</ele>
        <time>2009-05-08T11:24:30Z</time>
      </trkpt>
      <trkpt lat="45.97321" lon="3.02014">
        <ele>675.9440918</ele>
        <time>2009-05-08T11:24:33Z</time>
      </trkpt>
      <trkpt lat="45.97319" lon="3.02026">
        <ele>675.9440918</ele>
        <time>2009-05-08T11:24:34Z</time>
      </trkpt>
      <trkpt lat="45.97313" lon="3.02051">
        <ele>674.5021973</ele>
        <time>2009-05-08T11:24:36Z</time>
      </trkpt>
      <trkpt lat="45.97311" lon="3.02064">
        <ele>674.0214844</ele>
        <time>2009-05-08T11:24:37Z</time>
      </trkpt>
      <trkpt lat="45.97302" lon="3.02101">
        <ele>672.5795898</ele>
        <time>2009-05-08T11:24:40Z</time>
      </trkpt>
      <trkpt lat="45.97299" lon="3.02112">
        <ele>673.0603027</ele>
        <time>2009-05-08T11:24:41Z</time>
      </trkpt>
      <trkpt lat="45.97288" lon="3.02165">
        <ele>672.5795898</ele>
        <time>2009-05-08T11:24:46Z</time>
      </trkpt>
      <trkpt lat="45.97284" lon="3.02204">
        <ele>672.098877</ele>
        <time>2009-05-08T11:24:50Z</time>
      </trkpt>
      <trkpt lat="45.97281" lon="3.02236">
        <ele>671.1376953</ele>
        <time>2009-05-08T11:24:54Z</time>
      </trkpt>
      <trkpt lat="45.9728" lon="3.02257">
        <ele>670.6569824</ele>
        <time>2009-05-08T11:24:57Z</time>
      </trkpt>
      <trkpt lat="45.97278" lon="3.02292">
        <ele>669.6958008</ele>
        <time>2009-05-08T11:25:01Z</time>
      </trkpt>
      <trkpt lat="45.97265" lon="3.02338">
        <ele>667.7727051</ele>
        <time>2009-05-08T11:25:06Z</time>
      </trkpt>
      <trkpt lat="45.97238" lon="3.02404">
        <ele>666.3308105</ele>
        <time>2009-05-08T11:25:13Z</time>
      </trkpt>
      <trkpt lat="45.97232" lon="3.02421">
        <ele>665.3696289</ele>
        <time>2009-05-08T11:25:15Z</time>
      </trkpt>
      <trkpt lat="45.97224" lon="3.02435">
        <ele>663.9274902</ele>
        <time>2009-05-08T11:25:18Z</time>
      </trkpt>
      <trkpt lat="45.97215" lon="3.02451">
        <ele>662.9663086</ele>
        <time>2009-05-08T11:25:23Z</time>
      </trkpt>
      <trkpt lat="45.97214" lon="3.02458">
        <ele>663.4470215</ele>
        <time>2009-05-08T11:25:24Z</time>
      </trkpt>
      <trkpt lat="45.97209" lon="3.02511">
        <ele>661.0437012</ele>
        <time>2009-05-08T11:25:30Z</time>
      </trkpt>
      <trkpt lat="45.972" lon="3.02577">
        <ele>658.6403809</ele>
        <time>2009-05-08T11:25:36Z</time>
      </trkpt>
      <trkpt lat="45.97195" lon="3.02602">
        <ele>657.6791992</ele>
        <time>2009-05-08T11:25:38Z</time>
      </trkpt>
      <trkpt lat="45.97192" lon="3.02614">
        <ele>656.2370605</ele>
        <time>2009-05-08T11:25:39Z</time>
      </trkpt>
      <trkpt lat="45.97183" lon="3.02636">
        <ele>654.795166</ele>
        <time>2009-05-08T11:25:41Z</time>
      </trkpt>
      <trkpt lat="45.97163" lon="3.02664">
        <ele>652.8725586</ele>
        <time>2009-05-08T11:25:44Z</time>
      </trkpt>
      <trkpt lat="45.97141" lon="3.02684">
        <ele>651.4304199</ele>
        <time>2009-05-08T11:25:47Z</time>
      </trkpt>
      <trkpt lat="45.97133" lon="3.0269">
        <ele>650.4692383</ele>
        <time>2009-05-08T11:25:48Z</time>
      </trkpt>
      <trkpt lat="45.97117" lon="3.02715">
        <ele>646.6240234</ele>
        <time>2009-05-08T11:25:51Z</time>
      </trkpt>
      <trkpt lat="45.97112" lon="3.02739">
        <ele>645.1818848</ele>
        <time>2009-05-08T11:25:53Z</time>
      </trkpt>
      <trkpt lat="45.9711" lon="3.02793">
        <ele>641.8173828</ele>
        <time>2009-05-08T11:25:57Z</time>
      </trkpt>
      <trkpt lat="45.97109" lon="3.02807">
        <ele>641.8173828</ele>
        <time>2009-05-08T11:25:58Z</time>
      </trkpt>
      <trkpt lat="45.97105" lon="3.02835">
        <ele>640.855957</ele>
        <time>2009-05-08T11:26:00Z</time>
      </trkpt>
      <trkpt lat="45.97096" lon="3.02859">
        <ele>638.4528809</ele>
        <time>2009-05-08T11:26:02Z</time>
      </trkpt>
      <trkpt lat="45.97085" lon="3.02881">
        <ele>637.0107422</ele>
        <time>2009-05-08T11:26:04Z</time>
      </trkpt>
      <trkpt lat="45.97065" lon="3.02927">
        <ele>633.6459961</ele>
        <time>2009-05-08T11:26:08Z</time>
      </trkpt>
      <trkpt lat="45.97062" lon="3.02935">
        <ele>632.6848145</ele>
        <time>2009-05-08T11:26:09Z</time>
      </trkpt>
      <trkpt lat="45.97038" lon="3.02948">
        <ele>629.3200684</ele>
        <time>2009-05-08T11:26:13Z</time>
      </trkpt>
      <trkpt lat="45.97022" lon="3.02948">
        <ele>628.8395996</ele>
        <time>2009-05-08T11:26:15Z</time>
      </trkpt>
      <trkpt lat="45.96994" lon="3.02965">
        <ele>624.9943848</ele>
        <time>2009-05-08T11:26:19Z</time>
      </trkpt>
      <trkpt lat="45.96986" lon="3.02984">
        <ele>624.5136719</ele>
        <time>2009-05-08T11:26:21Z</time>
      </trkpt>
      <trkpt lat="45.96971" lon="3.03022">
        <ele>624.5136719</ele>
        <time>2009-05-08T11:26:25Z</time>
      </trkpt>
      <trkpt lat="45.96962" lon="3.03036">
        <ele>625.4748535</ele>
        <time>2009-05-08T11:26:27Z</time>
      </trkpt>
      <trkpt lat="45.96949" lon="3.03059">
        <ele>627.3977051</ele>
        <time>2009-05-08T11:26:31Z</time>
      </trkpt>
      <trkpt lat="45.96946" lon="3.03065">
        <ele>628.3588867</ele>
        <time>2009-05-08T11:26:32Z</time>
      </trkpt>
      <trkpt lat="45.96944" lon="3.0307">
        <ele>628.3588867</ele>
        <time>2009-05-08T11:26:33Z</time>
      </trkpt>
      <trkpt lat="45.96942" lon="3.03076">
        <ele>628.3588867</ele>
        <time>2009-05-08T11:26:34Z</time>
      </trkpt>
      <trkpt lat="45.9694" lon="3.03082">
        <ele>628.3588867</ele>
        <time>2009-05-08T11:26:35Z</time>
      </trkpt>
      <trkpt lat="45.96937" lon="3.03095">
        <ele>629.3200684</ele>
        <time>2009-05-08T11:26:37Z</time>
      </trkpt>
      <trkpt lat="45.96932" lon="3.03121">
        <ele>630.762207</ele>
        <time>2009-05-08T11:26:41Z</time>
      </trkpt>
      <trkpt lat="45.96931" lon="3.03127">
        <ele>630.2814941</ele>
        <time>2009-05-08T11:26:42Z</time>
      </trkpt>
      <trkpt lat="45.96924" lon="3.03159">
        <ele>631.2429199</ele>
        <time>2009-05-08T11:26:47Z</time>
      </trkpt>
      <trkpt lat="45.96919" lon="3.03185">
        <ele>630.2814941</ele>
        <time>2009-05-08T11:26:51Z</time>
      </trkpt>
      <trkpt lat="45.96911" lon="3.03226">
        <ele>631.7233887</ele>
        <time>2009-05-08T11:26:57Z</time>
      </trkpt>
      <trkpt lat="45.96894" lon="3.03277">
        <ele>631.7233887</ele>
        <time>2009-05-08T11:27:05Z</time>
      </trkpt>
      <trkpt lat="45.96877" lon="3.03339">
        <ele>631.7233887</ele>
        <time>2009-05-08T11:27:14Z</time>
      </trkpt>
      <trkpt lat="45.96859" lon="3.03406">
        <ele>629.8007813</ele>
        <time>2009-05-08T11:27:22Z</time>
      </trkpt>
      <trkpt lat="45.96845" lon="3.03469">
        <ele>628.3588867</ele>
        <time>2009-05-08T11:27:29Z</time>
      </trkpt>
      <trkpt lat="45.9684" lon="3.03487">
        <ele>628.3588867</ele>
        <time>2009-05-08T11:27:31Z</time>
      </trkpt>
      <trkpt lat="45.96828" lon="3.03505">
        <ele>626.4362793</ele>
        <time>2009-05-08T11:27:34Z</time>
      </trkpt>
      <trkpt lat="45.96815" lon="3.03505">
        <ele>625.4748535</ele>
        <time>2009-05-08T11:27:36Z</time>
      </trkpt>
      <trkpt lat="45.96809" lon="3.03502">
        <ele>624.032959</ele>
        <time>2009-05-08T11:27:37Z</time>
      </trkpt>
      <trkpt lat="45.96795" lon="3.03497">
        <ele>622.5910645</ele>
        <time>2009-05-08T11:27:39Z</time>
      </trkpt>
      <trkpt lat="45.96789" lon="3.03498">
        <ele>622.5910645</ele>
        <time>2009-05-08T11:27:40Z</time>
      </trkpt>
      <trkpt lat="45.96778" lon="3.03509">
        <ele>621.6296387</ele>
        <time>2009-05-08T11:27:42Z</time>
      </trkpt>
      <trkpt lat="45.96775" lon="3.03539">
        <ele>620.1877441</ele>
        <time>2009-05-08T11:27:45Z</time>
      </trkpt>
      <trkpt lat="45.96776" lon="3.03549">
        <ele>619.7070313</ele>
        <time>2009-05-08T11:27:46Z</time>
      </trkpt>
      <trkpt lat="45.96779" lon="3.03574">
        <ele>616.822998</ele>
        <time>2009-05-08T11:27:49Z</time>
      </trkpt>
      <trkpt lat="45.96791" lon="3.03594">
        <ele>613.9389648</ele>
        <time>2009-05-08T11:27:53Z</time>
      </trkpt>
      <trkpt lat="45.96796" lon="3.03597">
        <ele>613.9389648</ele>
        <time>2009-05-08T11:27:54Z</time>
      </trkpt>
      <trkpt lat="45.96833" lon="3.03626">
        <ele>613.4584961</ele>
        <time>2009-05-08T11:28:02Z</time>
      </trkpt>
      <trkpt lat="45.96839" lon="3.0363">
        <ele>612.4970703</ele>
        <time>2009-05-08T11:28:03Z</time>
      </trkpt>
      <trkpt lat="45.96857" lon="3.03637">
        <ele>612.0166016</ele>
        <time>2009-05-08T11:28:06Z</time>
      </trkpt>
      <trkpt lat="45.96883" lon="3.03661">
        <ele>611.5358887</ele>
        <time>2009-05-08T11:28:11Z</time>
      </trkpt>
      <trkpt lat="45.96903" lon="3.03695">
        <ele>612.4970703</ele>
        <time>2009-05-08T11:28:16Z</time>
      </trkpt>
      <trkpt lat="45.96918" lon="3.03722">
        <ele>612.0166016</ele>
        <time>2009-05-08T11:28:20Z</time>
      </trkpt>
      <trkpt lat="45.96928" lon="3.03757">
        <ele>609.6132813</ele>
        <time>2009-05-08T11:28:24Z</time>
      </trkpt>
      <trkpt lat="45.96933" lon="3.03789">
        <ele>607.6906738</ele>
        <time>2009-05-08T11:28:27Z</time>
      </trkpt>
      <trkpt lat="45.96943" lon="3.03856">
        <ele>604.8066406</ele>
        <time>2009-05-08T11:28:33Z</time>
      </trkpt>
      <trkpt lat="45.96951" lon="3.039">
        <ele>601.9226074</ele>
        <time>2009-05-08T11:28:37Z</time>
      </trkpt>
      <trkpt lat="45.96961" lon="3.03961">
        <ele>600.4807129</ele>
        <time>2009-05-08T11:28:43Z</time>
      </trkpt>
      <trkpt lat="45.9697" lon="3.04014">
        <ele>598.0773926</ele>
        <time>2009-05-08T11:28:49Z</time>
      </trkpt>
      <trkpt lat="45.96971" lon="3.04024">
        <ele>596.635498</ele>
        <time>2009-05-08T11:28:50Z</time>
      </trkpt>
      <trkpt lat="45.96976" lon="3.04042">
        <ele>595.6740723</ele>
        <time>2009-05-08T11:28:52Z</time>
      </trkpt>
      <trkpt lat="45.96995" lon="3.04079">
        <ele>594.7126465</ele>
        <time>2009-05-08T11:28:56Z</time>
      </trkpt>
      <trkpt lat="45.97012" lon="3.04103">
        <ele>591.3481445</ele>
        <time>2009-05-08T11:28:59Z</time>
      </trkpt>
      <trkpt lat="45.97022" lon="3.0413">
        <ele>587.0219727</ele>
        <time>2009-05-08T11:29:03Z</time>
      </trkpt>
      <trkpt lat="45.97023" lon="3.04135">
        <ele>587.0219727</ele>
        <time>2009-05-08T11:29:04Z</time>
      </trkpt>
      <trkpt lat="45.97033" lon="3.04139">
        <ele>586.5415039</ele>
        <time>2009-05-08T11:29:08Z</time>
      </trkpt>
      <trkpt lat="45.97053" lon="3.04126">
        <ele>587.0219727</ele>
        <time>2009-05-08T11:29:13Z</time>
      </trkpt>
      <trkpt lat="45.97071" lon="3.0413">
        <ele>587.9833984</ele>
        <time>2009-05-08T11:29:17Z</time>
      </trkpt>
      <trkpt lat="45.97072" lon="3.04149">
        <ele>588.4643555</ele>
        <time>2009-05-08T11:29:20Z</time>
      </trkpt>
      <trkpt lat="45.9707" lon="3.04156">
        <ele>588.4643555</ele>
        <time>2009-05-08T11:29:21Z</time>
      </trkpt>
      <trkpt lat="45.97064" lon="3.04177">
        <ele>588.4643555</ele>
        <time>2009-05-08T11:29:24Z</time>
      </trkpt>
      <trkpt lat="45.97047" lon="3.04216">
        <ele>589.90625</ele>
        <time>2009-05-08T11:29:30Z</time>
      </trkpt>
      <trkpt lat="45.97026" lon="3.04252">
        <ele>589.90625</ele>
        <time>2009-05-08T11:29:36Z</time>
      </trkpt>
      <trkpt lat="45.97005" lon="3.04288">
        <ele>590.8674316</ele>
        <time>2009-05-08T11:29:42Z</time>
      </trkpt>
      <trkpt lat="45.96984" lon="3.04329">
        <ele>591.8288574</ele>
        <time>2009-05-08T11:29:49Z</time>
      </trkpt>
      <trkpt lat="45.96976" lon="3.04348">
        <ele>592.7902832</ele>
        <time>2009-05-08T11:29:52Z</time>
      </trkpt>
      <trkpt lat="45.96966" lon="3.04381">
        <ele>593.7514648</ele>
        <time>2009-05-08T11:29:57Z</time>
      </trkpt>
      <trkpt lat="45.96958" lon="3.04415">
        <ele>595.1933594</ele>
        <time>2009-05-08T11:30:02Z</time>
      </trkpt>
      <trkpt lat="45.96957" lon="3.04428">
        <ele>596.635498</ele>
        <time>2009-05-08T11:30:04Z</time>
      </trkpt>
      <trkpt lat="45.96956" lon="3.04449">
        <ele>598.0773926</ele>
        <time>2009-05-08T11:30:07Z</time>
      </trkpt>
      <trkpt lat="45.96955" lon="3.04463">
        <ele>598.5578613</ele>
        <time>2009-05-08T11:30:09Z</time>
      </trkpt>
      <trkpt lat="45.96956" lon="3.04526">
        <ele>600.9611816</ele>
        <time>2009-05-08T11:30:18Z</time>
      </trkpt>
      <trkpt lat="45.96956" lon="3.04545">
        <ele>602.4030762</ele>
        <time>2009-05-08T11:30:21Z</time>
      </trkpt>
      <trkpt lat="45.96956" lon="3.04586">
        <ele>602.8837891</ele>
        <time>2009-05-08T11:30:28Z</time>
      </trkpt>
      <trkpt lat="45.96956" lon="3.04599">
        <ele>602.4030762</ele>
        <time>2009-05-08T11:30:30Z</time>
      </trkpt>
      <trkpt lat="45.96966" lon="3.04621">
        <ele>602.4030762</ele>
        <time>2009-05-08T11:30:34Z</time>
      </trkpt>
      <trkpt lat="45.96971" lon="3.04622">
        <ele>601.9226074</ele>
        <time>2009-05-08T11:30:35Z</time>
      </trkpt>
      <trkpt lat="45.96999" lon="3.04615">
        <ele>600.4807129</ele>
        <time>2009-05-08T11:30:40Z</time>
      </trkpt>
      <trkpt lat="45.97019" lon="3.04617">
        <ele>601.4418945</ele>
        <time>2009-05-08T11:30:44Z</time>
      </trkpt>
      <trkpt lat="45.97024" lon="3.0462">
        <ele>601.4418945</ele>
        <time>2009-05-08T11:30:45Z</time>
      </trkpt>
      <trkpt lat="45.97052" lon="3.04647">
        <ele>603.8452148</ele>
        <time>2009-05-08T11:30:53Z</time>
      </trkpt>
      <trkpt lat="45.97067" lon="3.04664">
        <ele>606.729248</ele>
        <time>2009-05-08T11:30:58Z</time>
      </trkpt>
      <trkpt lat="45.97079" lon="3.04678">
        <ele>608.6518555</ele>
        <time>2009-05-08T11:31:02Z</time>
      </trkpt>
      <trkpt lat="45.97099" lon="3.047">
        <ele>610.5744629</ele>
        <time>2009-05-08T11:31:09Z</time>
      </trkpt>
      <trkpt lat="45.97109" lon="3.04711">
        <ele>612.4970703</ele>
        <time>2009-05-08T11:31:13Z</time>
      </trkpt>
      <trkpt lat="45.97126" lon="3.0473">
        <ele>613.9389648</ele>
        <time>2009-05-08T11:31:20Z</time>
      </trkpt>
      <trkpt lat="45.97141" lon="3.04737">
        <ele>614.9003906</ele>
        <time>2009-05-08T11:31:25Z</time>
      </trkpt>
      <trkpt lat="45.97163" lon="3.04742">
        <ele>616.822998</ele>
        <time>2009-05-08T11:31:33Z</time>
      </trkpt>
      <trkpt lat="45.97189" lon="3.04747">
        <ele>616.822998</ele>
        <time>2009-05-08T11:31:41Z</time>
      </trkpt>
      <trkpt lat="45.97195" lon="3.04753">
        <ele>616.822998</ele>
        <time>2009-05-08T11:31:43Z</time>
      </trkpt>
      <trkpt lat="45.972" lon="3.04789">
        <ele>616.3422852</ele>
        <time>2009-05-08T11:31:49Z</time>
      </trkpt>
      <trkpt lat="45.972" lon="3.04802">
        <ele>616.3422852</ele>
        <time>2009-05-08T11:31:51Z</time>
      </trkpt>
      <trkpt lat="45.97203" lon="3.04849">
        <ele>616.3422852</ele>
        <time>2009-05-08T11:31:57Z</time>
      </trkpt>
      <trkpt lat="45.97204" lon="3.04865">
        <ele>615.8618164</ele>
        <time>2009-05-08T11:31:59Z</time>
      </trkpt>
      <trkpt lat="45.97212" lon="3.04893">
        <ele>615.3811035</ele>
        <time>2009-05-08T11:32:03Z</time>
      </trkpt>
      <trkpt lat="45.97216" lon="3.04898">
        <ele>615.8618164</ele>
        <time>2009-05-08T11:32:04Z</time>
      </trkpt>
      <trkpt lat="45.97255" lon="3.04933">
        <ele>615.3811035</ele>
        <time>2009-05-08T11:32:12Z</time>
      </trkpt>
      <trkpt lat="45.97279" lon="3.04947">
        <ele>614.9003906</ele>
        <time>2009-05-08T11:32:16Z</time>
      </trkpt>
      <trkpt lat="45.97304" lon="3.04977">
        <ele>613.9389648</ele>
        <time>2009-05-08T11:32:21Z</time>
      </trkpt>
      <trkpt lat="45.97329" lon="3.04999">
        <ele>614.4196777</ele>
        <time>2009-05-08T11:32:26Z</time>
      </trkpt>
      <trkpt lat="45.97382" lon="3.05002">
        <ele>614.9003906</ele>
        <time>2009-05-08T11:32:35Z</time>
      </trkpt>
      <trkpt lat="45.97444" lon="3.05006">
        <ele>612.9777832</ele>
        <time>2009-05-08T11:32:45Z</time>
      </trkpt>
      <trkpt lat="45.97457" lon="3.05008">
        <ele>611.5358887</ele>
        <time>2009-05-08T11:32:47Z</time>
      </trkpt>
      <trkpt lat="45.97497" lon="3.05031">
        <ele>610.09375</ele>
        <time>2009-05-08T11:32:53Z</time>
      </trkpt>
      <trkpt lat="45.97512" lon="3.05038">
        <ele>609.1325684</ele>
        <time>2009-05-08T11:32:55Z</time>
      </trkpt>
      <trkpt lat="45.97526" lon="3.05042">
        <ele>607.6906738</ele>
        <time>2009-05-08T11:32:57Z</time>
      </trkpt>
      <trkpt lat="45.97533" lon="3.05041">
        <ele>607.2099609</ele>
        <time>2009-05-08T11:32:58Z</time>
      </trkpt>
      <trkpt lat="45.97541" lon="3.0504">
        <ele>606.2485352</ele>
        <time>2009-05-08T11:32:59Z</time>
      </trkpt>
      <trkpt lat="45.97572" lon="3.05049">
        <ele>604.3261719</ele>
        <time>2009-05-08T11:33:03Z</time>
      </trkpt>
      <trkpt lat="45.97604" lon="3.05067">
        <ele>600.9611816</ele>
        <time>2009-05-08T11:33:07Z</time>
      </trkpt>
      <trkpt lat="45.9763" lon="3.05088">
        <ele>598.0773926</ele>
        <time>2009-05-08T11:33:11Z</time>
      </trkpt>
      <trkpt lat="45.97646" lon="3.05087">
        <ele>595.6740723</ele>
        <time>2009-05-08T11:33:15Z</time>
      </trkpt>
      <trkpt lat="45.97665" lon="3.05073">
        <ele>596.635498</ele>
        <time>2009-05-08T11:33:21Z</time>
      </trkpt>
      <trkpt lat="45.97676" lon="3.05077">
        <ele>598.0773926</ele>
        <time>2009-05-08T11:33:24Z</time>
      </trkpt>
      <trkpt lat="45.97687" lon="3.05083">
        <ele>599.0385742</ele>
        <time>2009-05-08T11:33:27Z</time>
      </trkpt>
      <trkpt lat="45.97693" lon="3.05087">
        <ele>600.9611816</ele>
        <time>2009-05-08T11:33:29Z</time>
      </trkpt>
      <trkpt lat="45.97696" lon="3.05088">
        <ele>601.4418945</ele>
        <time>2009-05-08T11:33:30Z</time>
      </trkpt>
      <trkpt lat="45.97699" lon="3.0509">
        <ele>601.4418945</ele>
        <time>2009-05-08T11:33:31Z</time>
      </trkpt>
      <trkpt lat="45.97705" lon="3.05094">
        <ele>602.8837891</ele>
        <time>2009-05-08T11:33:33Z</time>
      </trkpt>
      <trkpt lat="45.97708" lon="3.05097">
        <ele>603.364502</ele>
        <time>2009-05-08T11:33:34Z</time>
      </trkpt>
      <trkpt lat="45.97717" lon="3.05102">
        <ele>604.8066406</ele>
        <time>2009-05-08T11:33:37Z</time>
      </trkpt>
      <trkpt lat="45.97727" lon="3.0511">
        <ele>605.2873535</ele>
        <time>2009-05-08T11:33:40Z</time>
      </trkpt>
      <trkpt lat="45.97735" lon="3.05117">
        <ele>606.2485352</ele>
        <time>2009-05-08T11:33:43Z</time>
      </trkpt>
      <trkpt lat="45.97738" lon="3.0512">
        <ele>606.2485352</ele>
        <time>2009-05-08T11:33:44Z</time>
      </trkpt>
      <trkpt lat="45.97755" lon="3.05144">
        <ele>606.2485352</ele>
        <time>2009-05-08T11:33:51Z</time>
      </trkpt>
      <trkpt lat="45.97772" lon="3.05165">
        <ele>608.1713867</ele>
        <time>2009-05-08T11:33:58Z</time>
      </trkpt>
      <trkpt lat="45.97786" lon="3.0517">
        <ele>609.6132813</ele>
        <time>2009-05-08T11:34:04Z</time>
      </trkpt>
      <trkpt lat="45.97795" lon="3.05173">
        <ele>611.0551758</ele>
        <time>2009-05-08T11:34:09Z</time>
      </trkpt>
      <trkpt lat="45.97801" lon="3.05171">
        <ele>611.5358887</ele>
        <time>2009-05-08T11:34:13Z</time>
      </trkpt>
      <trkpt lat="45.97812" lon="3.05171">
        <ele>612.9777832</ele>
        <time>2009-05-08T11:34:20Z</time>
      </trkpt>
      <trkpt lat="45.97825" lon="3.05172">
        <ele>614.9003906</ele>
        <time>2009-05-08T11:34:27Z</time>
      </trkpt>
      <trkpt lat="45.97838" lon="3.05175">
        <ele>616.822998</ele>
        <time>2009-05-08T11:34:34Z</time>
      </trkpt>
      <trkpt lat="45.97855" lon="3.05177">
        <ele>618.2648926</ele>
        <time>2009-05-08T11:34:42Z</time>
      </trkpt>
      <trkpt lat="45.97869" lon="3.05175">
        <ele>619.7070313</ele>
        <time>2009-05-08T11:34:49Z</time>
      </trkpt>
      <trkpt lat="45.97882" lon="3.05179">
        <ele>621.1491699</ele>
        <time>2009-05-08T11:34:56Z</time>
      </trkpt>
      <trkpt lat="45.97894" lon="3.05185">
        <ele>621.6296387</ele>
        <time>2009-05-08T11:35:02Z</time>
      </trkpt>
      <trkpt lat="45.97911" lon="3.0519">
        <ele>622.1103516</ele>
        <time>2009-05-08T11:35:09Z</time>
      </trkpt>
      <trkpt lat="45.97929" lon="3.05191">
        <ele>623.5524902</ele>
        <time>2009-05-08T11:35:16Z</time>
      </trkpt>
      <trkpt lat="45.97946" lon="3.05196">
        <ele>624.032959</ele>
        <time>2009-05-08T11:35:22Z</time>
      </trkpt>
      <trkpt lat="45.97974" lon="3.05209">
        <ele>624.5136719</ele>
        <time>2009-05-08T11:35:30Z</time>
      </trkpt>
      <trkpt lat="45.97984" lon="3.0521">
        <ele>624.5136719</ele>
        <time>2009-05-08T11:35:33Z</time>
      </trkpt>
      <trkpt lat="45.97995" lon="3.05195">
        <ele>624.5136719</ele>
        <time>2009-05-08T11:35:37Z</time>
      </trkpt>
      <trkpt lat="45.98006" lon="3.0515">
        <ele>623.5524902</ele>
        <time>2009-05-08T11:35:44Z</time>
      </trkpt>
      <trkpt lat="45.9801" lon="3.05135">
        <ele>623.5524902</ele>
        <time>2009-05-08T11:35:46Z</time>
      </trkpt>
      <trkpt lat="45.98016" lon="3.05119">
        <ele>622.5910645</ele>
        <time>2009-05-08T11:35:48Z</time>
      </trkpt>
      <trkpt lat="45.98038" lon="3.05093">
        <ele>619.7070313</ele>
        <time>2009-05-08T11:35:52Z</time>
      </trkpt>
      <trkpt lat="45.9806" lon="3.05098">
        <ele>619.2263184</ele>
        <time>2009-05-08T11:35:55Z</time>
      </trkpt>
      <trkpt lat="45.98067" lon="3.05103">
        <ele>619.2263184</ele>
        <time>2009-05-08T11:35:56Z</time>
      </trkpt>
      <trkpt lat="45.98112" lon="3.05129">
        <ele>618.7456055</ele>
        <time>2009-05-08T11:36:03Z</time>
      </trkpt>
      <trkpt lat="45.98158" lon="3.05137">
        <ele>617.3037109</ele>
        <time>2009-05-08T11:36:09Z</time>
      </trkpt>
      <trkpt lat="45.98171" lon="3.05141">
        <ele>617.3037109</ele>
        <time>2009-05-08T11:36:11Z</time>
      </trkpt>
      <trkpt lat="45.98186" lon="3.05164">
        <ele>616.822998</ele>
        <time>2009-05-08T11:36:15Z</time>
      </trkpt>
      <trkpt lat="45.98202" lon="3.0521">
        <ele>620.1877441</ele>
        <time>2009-05-08T11:36:23Z</time>
      </trkpt>
      <trkpt lat="45.98207" lon="3.05225">
        <ele>620.668457</ele>
        <time>2009-05-08T11:36:26Z</time>
      </trkpt>
      <trkpt lat="45.98213" lon="3.05241">
        <ele>622.1103516</ele>
        <time>2009-05-08T11:36:29Z</time>
      </trkpt>
      <trkpt lat="45.98217" lon="3.05251">
        <ele>622.1103516</ele>
        <time>2009-05-08T11:36:31Z</time>
      </trkpt>
      <trkpt lat="45.98218" lon="3.05257">
        <ele>622.5910645</ele>
        <time>2009-05-08T11:36:32Z</time>
      </trkpt>
      <trkpt lat="45.98223" lon="3.05297">
        <ele>624.032959</ele>
        <time>2009-05-08T11:36:39Z</time>
      </trkpt>
      <trkpt lat="45.98225" lon="3.0532">
        <ele>624.9943848</ele>
        <time>2009-05-08T11:36:43Z</time>
      </trkpt>
      <trkpt lat="45.98225" lon="3.05326">
        <ele>625.4748535</ele>
        <time>2009-05-08T11:36:44Z</time>
      </trkpt>
      <trkpt lat="45.98232" lon="3.05354">
        <ele>626.9169922</ele>
        <time>2009-05-08T11:36:49Z</time>
      </trkpt>
      <trkpt lat="45.98243" lon="3.05384">
        <ele>628.8395996</ele>
        <time>2009-05-08T11:36:55Z</time>
      </trkpt>
      <trkpt lat="45.9826" lon="3.05411">
        <ele>630.2814941</ele>
        <time>2009-05-08T11:37:02Z</time>
      </trkpt>
      <trkpt lat="45.9828" lon="3.05423">
        <ele>632.2041016</ele>
        <time>2009-05-08T11:37:08Z</time>
      </trkpt>
      <trkpt lat="45.98297" lon="3.05425">
        <ele>633.1652832</ele>
        <time>2009-05-08T11:37:13Z</time>
      </trkpt>
      <trkpt lat="45.98302" lon="3.05432">
        <ele>632.6848145</ele>
        <time>2009-05-08T11:37:15Z</time>
      </trkpt>
      <trkpt lat="45.98314" lon="3.05477">
        <ele>632.2041016</ele>
        <time>2009-05-08T11:37:22Z</time>
      </trkpt>
      <trkpt lat="45.98332" lon="3.05532">
        <ele>631.2429199</ele>
        <time>2009-05-08T11:37:30Z</time>
      </trkpt>
      <trkpt lat="45.98343" lon="3.0557">
        <ele>631.7233887</ele>
        <time>2009-05-08T11:37:35Z</time>
      </trkpt>
      <trkpt lat="45.98352" lon="3.056">
        <ele>630.2814941</ele>
        <time>2009-05-08T11:37:39Z</time>
      </trkpt>
      <trkpt lat="45.98356" lon="3.05656">
        <ele>628.3588867</ele>
        <time>2009-05-08T11:37:45Z</time>
      </trkpt>
      <trkpt lat="45.9835" lon="3.05674">
        <ele>626.4362793</ele>
        <time>2009-05-08T11:37:47Z</time>
      </trkpt>
      <trkpt lat="45.9834" lon="3.05692">
        <ele>624.5136719</ele>
        <time>2009-05-08T11:37:50Z</time>
      </trkpt>
      <trkpt lat="45.98321" lon="3.05696">
        <ele>621.1491699</ele>
        <time>2009-05-08T11:37:54Z</time>
      </trkpt>
      <trkpt lat="45.98308" lon="3.05696">
        <ele>619.2263184</ele>
        <time>2009-05-08T11:37:56Z</time>
      </trkpt>
      <trkpt lat="45.98293" lon="3.05701">
        <ele>616.3422852</ele>
        <time>2009-05-08T11:37:59Z</time>
      </trkpt>
      <trkpt lat="45.98289" lon="3.057">
        <ele>614.4196777</ele>
        <time>2009-05-08T11:38:01Z</time>
      </trkpt>
      <trkpt lat="45.98278" lon="3.05696">
        <ele>612.9777832</ele>
        <time>2009-05-08T11:38:05Z</time>
      </trkpt>
      <trkpt lat="45.98267" lon="3.05694">
        <ele>610.09375</ele>
        <time>2009-05-08T11:38:07Z</time>
      </trkpt>
      <trkpt lat="45.98246" lon="3.05694">
        <ele>605.7680664</ele>
        <time>2009-05-08T11:38:10Z</time>
      </trkpt>
      <trkpt lat="45.98227" lon="3.05696">
        <ele>602.4030762</ele>
        <time>2009-05-08T11:38:12Z</time>
      </trkpt>
      <trkpt lat="45.98205" lon="3.057">
        <ele>598.5578613</ele>
        <time>2009-05-08T11:38:15Z</time>
      </trkpt>
      <trkpt lat="45.98198" lon="3.05701">
        <ele>598.5578613</ele>
        <time>2009-05-08T11:38:16Z</time>
      </trkpt>
      <trkpt lat="45.98165" lon="3.05715">
        <ele>592.7902832</ele>
        <time>2009-05-08T11:38:21Z</time>
      </trkpt>
      <trkpt lat="45.98155" lon="3.0572">
        <ele>590.3869629</ele>
        <time>2009-05-08T11:38:23Z</time>
      </trkpt>
      <trkpt lat="45.98139" lon="3.05723">
        <ele>590.3869629</ele>
        <time>2009-05-08T11:38:28Z</time>
      </trkpt>
      <trkpt lat="45.98135" lon="3.05722">
        <ele>589.90625</ele>
        <time>2009-05-08T11:38:30Z</time>
      </trkpt>
      <trkpt lat="45.98134" lon="3.05721">
        <ele>589.90625</ele>
        <time>2009-05-08T11:38:31Z</time>
      </trkpt>
      <trkpt lat="45.98132" lon="3.05721">
        <ele>589.90625</ele>
        <time>2009-05-08T11:38:32Z</time>
      </trkpt>
      <trkpt lat="45.98124" lon="3.05714">
        <ele>590.8674316</ele>
        <time>2009-05-08T11:38:38Z</time>
      </trkpt>
      <trkpt lat="45.98111" lon="3.0571">
        <ele>589.4255371</ele>
        <time>2009-05-08T11:38:42Z</time>
      </trkpt>
      <trkpt lat="45.98094" lon="3.05701">
        <ele>587.5026855</ele>
        <time>2009-05-08T11:38:47Z</time>
      </trkpt>
      <trkpt lat="45.98086" lon="3.05698">
        <ele>586.5415039</ele>
        <time>2009-05-08T11:38:49Z</time>
      </trkpt>
      <trkpt lat="45.98074" lon="3.05689">
        <ele>587.9833984</ele>
        <time>2009-05-08T11:38:54Z</time>
      </trkpt>
      <trkpt lat="45.98068" lon="3.05684">
        <ele>587.9833984</ele>
        <time>2009-05-08T11:38:59Z</time>
      </trkpt>
      <trkpt lat="45.98064" lon="3.05682">
        <ele>588.9450684</ele>
        <time>2009-05-08T11:39:06Z</time>
      </trkpt>
      <trkpt lat="45.9806" lon="3.0568">
        <ele>589.90625</ele>
        <time>2009-05-08T11:39:08Z</time>
      </trkpt>
      <trkpt lat="45.98047" lon="3.05675">
        <ele>588.4643555</ele>
        <time>2009-05-08T11:39:13Z</time>
      </trkpt>
      <trkpt lat="45.98034" lon="3.0568">
        <ele>586.060791</ele>
        <time>2009-05-08T11:39:16Z</time>
      </trkpt>
      <trkpt lat="45.98021" lon="3.05685">
        <ele>581.7348633</ele>
        <time>2009-05-08T11:39:20Z</time>
      </trkpt>
      <trkpt lat="45.98017" lon="3.05685">
        <ele>581.2543945</ele>
        <time>2009-05-08T11:39:22Z</time>
      </trkpt>
      <trkpt lat="45.98009" lon="3.05685">
        <ele>579.331543</ele>
        <time>2009-05-08T11:39:26Z</time>
      </trkpt>
      <trkpt lat="45.98002" lon="3.05687">
        <ele>576.4477539</ele>
        <time>2009-05-08T11:39:31Z</time>
      </trkpt>
      <trkpt lat="45.97997" lon="3.05688">
        <ele>575.4863281</ele>
        <time>2009-05-08T11:39:33Z</time>
      </trkpt>
      <trkpt lat="45.97995" lon="3.05688">
        <ele>575.0058594</ele>
        <time>2009-05-08T11:39:34Z</time>
      </trkpt>
      <trkpt lat="45.97988" lon="3.05685">
        <ele>572.6025391</ele>
        <time>2009-05-08T11:39:37Z</time>
      </trkpt>
      <trkpt lat="45.97983" lon="3.05684">
        <ele>569.7185059</ele>
        <time>2009-05-08T11:39:39Z</time>
      </trkpt>
      <trkpt lat="45.97977" lon="3.05683">
        <ele>567.3151855</ele>
        <time>2009-05-08T11:39:42Z</time>
      </trkpt>
      <trkpt lat="45.97968" lon="3.05684">
        <ele>567.7956543</ele>
        <time>2009-05-08T11:39:48Z</time>
      </trkpt>
      <trkpt lat="45.97965" lon="3.0569">
        <ele>567.7956543</ele>
        <time>2009-05-08T11:39:51Z</time>
      </trkpt>
      <trkpt lat="45.97958" lon="3.05708">
        <ele>567.7956543</ele>
        <time>2009-05-08T11:39:55Z</time>
      </trkpt>
      <trkpt lat="45.9795" lon="3.05722">
        <ele>565.873291</ele>
        <time>2009-05-08T11:39:58Z</time>
      </trkpt>
      <trkpt lat="45.9794" lon="3.05733">
        <ele>565.3925781</ele>
        <time>2009-05-08T11:40:00Z</time>
      </trkpt>
      <trkpt lat="45.97927" lon="3.05747">
        <ele>564.4311523</ele>
        <time>2009-05-08T11:40:03Z</time>
      </trkpt>
      <trkpt lat="45.97908" lon="3.05757">
        <ele>563.9504395</ele>
        <time>2009-05-08T11:40:07Z</time>
      </trkpt>
      <trkpt lat="45.97881" lon="3.0577">
        <ele>562.9892578</ele>
        <time>2009-05-08T11:40:13Z</time>
      </trkpt>
      <trkpt lat="45.97876" lon="3.05772">
        <ele>562.0280762</ele>
        <time>2009-05-08T11:40:14Z</time>
      </trkpt>
      <trkpt lat="45.97859" lon="3.05782">
        <ele>558.6633301</ele>
        <time>2009-05-08T11:40:18Z</time>
      </trkpt>
      <trkpt lat="45.97847" lon="3.05789">
        <ele>556.7407227</ele>
        <time>2009-05-08T11:40:21Z</time>
      </trkpt>
      <trkpt lat="45.97833" lon="3.05788">
        <ele>556.2600098</ele>
        <time>2009-05-08T11:40:25Z</time>
      </trkpt>
      <trkpt lat="45.97816" lon="3.05791">
        <ele>556.7407227</ele>
        <time>2009-05-08T11:40:29Z</time>
      </trkpt>
      <trkpt lat="45.97794" lon="3.05805">
        <ele>556.2600098</ele>
        <time>2009-05-08T11:40:34Z</time>
      </trkpt>
      <trkpt lat="45.97771" lon="3.05822">
        <ele>555.7792969</ele>
        <time>2009-05-08T11:40:39Z</time>
      </trkpt>
      <trkpt lat="45.9775" lon="3.05856">
        <ele>553.8566895</ele>
        <time>2009-05-08T11:40:45Z</time>
      </trkpt>
      <trkpt lat="45.97747" lon="3.05861">
        <ele>552.8952637</ele>
        <time>2009-05-08T11:40:46Z</time>
      </trkpt>
      <trkpt lat="45.97735" lon="3.05874">
        <ele>550.9726563</ele>
        <time>2009-05-08T11:40:49Z</time>
      </trkpt>
      <trkpt lat="45.97732" lon="3.05875">
        <ele>550.0114746</ele>
        <time>2009-05-08T11:40:50Z</time>
      </trkpt>
      <trkpt lat="45.97722" lon="3.05877">
        <ele>547.6081543</ele>
        <time>2009-05-08T11:40:54Z</time>
      </trkpt>
      <trkpt lat="45.97711" lon="3.05882">
        <ele>544.2436523</ele>
        <time>2009-05-08T11:40:58Z</time>
      </trkpt>
      <trkpt lat="45.97707" lon="3.05884">
        <ele>543.2821045</ele>
        <time>2009-05-08T11:41:03Z</time>
      </trkpt>
      <trkpt lat="45.97704" lon="3.05892">
        <ele>543.2821045</ele>
        <time>2009-05-08T11:41:10Z</time>
      </trkpt>
      <trkpt lat="45.97702" lon="3.05901">
        <ele>543.2821045</ele>
        <time>2009-05-08T11:41:18Z</time>
      </trkpt>
      <trkpt lat="45.97701" lon="3.05907">
        <ele>542.8015137</ele>
        <time>2009-05-08T11:41:26Z</time>
      </trkpt>
      <trkpt lat="45.97702" lon="3.05913">
        <ele>541.84021</ele>
        <time>2009-05-08T11:41:30Z</time>
      </trkpt>
      <trkpt lat="45.97703" lon="3.05914">
        <ele>542.8015137</ele>
        <time>2009-05-08T11:41:32Z</time>
      </trkpt>
      <trkpt lat="45.97699" lon="3.05917">
        <ele>542.8015137</ele>
        <time>2009-05-08T11:41:38Z</time>
      </trkpt>
      <trkpt lat="45.97693" lon="3.05928">
        <ele>542.8015137</ele>
        <time>2009-05-08T11:41:44Z</time>
      </trkpt>
      <trkpt lat="45.97685" lon="3.05944">
        <ele>542.3209229</ele>
        <time>2009-05-08T11:41:50Z</time>
      </trkpt>
      <trkpt lat="45.97675" lon="3.05954">
        <ele>540.3983154</ele>
        <time>2009-05-08T11:41:55Z</time>
      </trkpt>
      <trkpt lat="45.97665" lon="3.05964">
        <ele>539.9176025</ele>
        <time>2009-05-08T11:42:02Z</time>
      </trkpt>
      <trkpt lat="45.97657" lon="3.0598">
        <ele>538.475708</ele>
        <time>2009-05-08T11:42:08Z</time>
      </trkpt>
      <trkpt lat="45.97652" lon="3.05995">
        <ele>538.475708</ele>
        <time>2009-05-08T11:42:13Z</time>
      </trkpt>
      <trkpt lat="45.97646" lon="3.06012">
        <ele>536.5531006</ele>
        <time>2009-05-08T11:42:18Z</time>
      </trkpt>
      <trkpt lat="45.9764" lon="3.0603">
        <ele>536.0723877</ele>
        <time>2009-05-08T11:42:23Z</time>
      </trkpt>
      <trkpt lat="45.97638" lon="3.0604">
        <ele>536.0723877</ele>
        <time>2009-05-08T11:42:26Z</time>
      </trkpt>
      <trkpt lat="45.97638" lon="3.06043">
        <ele>536.0723877</ele>
        <time>2009-05-08T11:42:27Z</time>
      </trkpt>
      <trkpt lat="45.97634" lon="3.06065">
        <ele>535.5915527</ele>
        <time>2009-05-08T11:42:33Z</time>
      </trkpt>
      <trkpt lat="45.97628" lon="3.06086">
        <ele>533.1883545</ele>
        <time>2009-05-08T11:42:37Z</time>
      </trkpt>
      <trkpt lat="45.97625" lon="3.06099">
        <ele>531.7463379</ele>
        <time>2009-05-08T11:42:39Z</time>
      </trkpt>
      <trkpt lat="45.97623" lon="3.06119">
        <ele>530.3044434</ele>
        <time>2009-05-08T11:42:42Z</time>
      </trkpt>
      <trkpt lat="45.97622" lon="3.06127">
        <ele>529.8237305</ele>
        <time>2009-05-08T11:42:43Z</time>
      </trkpt>
      <trkpt lat="45.97623" lon="3.06173">
        <ele>525.4978027</ele>
        <time>2009-05-08T11:42:49Z</time>
      </trkpt>
      <trkpt lat="45.97623" lon="3.06181">
        <ele>525.9783936</ele>
        <time>2009-05-08T11:42:50Z</time>
      </trkpt>
      <trkpt lat="45.97622" lon="3.06217">
        <ele>522.1331787</ele>
        <time>2009-05-08T11:42:55Z</time>
      </trkpt>
      <trkpt lat="45.97622" lon="3.06221">
        <ele>522.1331787</ele>
        <time>2009-05-08T11:42:56Z</time>
      </trkpt>
      <trkpt lat="45.9762" lon="3.06236">
        <ele>520.6912842</ele>
        <time>2009-05-08T11:43:01Z</time>
      </trkpt>
      <trkpt lat="45.97623" lon="3.06235">
        <ele>520.2105713</ele>
        <time>2009-05-08T11:43:07Z</time>
      </trkpt>
      <trkpt lat="45.97623" lon="3.06234">
        <ele>520.2105713</ele>
        <time>2009-05-08T11:43:12Z</time>
      </trkpt>
      <trkpt lat="45.97625" lon="3.06224">
        <ele>520.2105713</ele>
        <time>2009-05-08T11:43:28Z</time>
      </trkpt>
      <trkpt lat="45.97624" lon="3.06226">
        <ele>520.2105713</ele>
        <time>2009-05-08T11:43:37Z</time>
      </trkpt>
      <trkpt lat="45.97622" lon="3.06238">
        <ele>518.7685547</ele>
        <time>2009-05-08T11:43:44Z</time>
      </trkpt>
      <trkpt lat="45.97617" lon="3.06253">
        <ele>516.8459473</ele>
        <time>2009-05-08T11:43:48Z</time>
      </trkpt>
      <trkpt lat="45.97616" lon="3.06262">
        <ele>517.3266602</ele>
        <time>2009-05-08T11:43:50Z</time>
      </trkpt>
      <trkpt lat="45.97615" lon="3.06273">
        <ele>516.8459473</ele>
        <time>2009-05-08T11:43:52Z</time>
      </trkpt>
      <trkpt lat="45.97614" lon="3.06279">
        <ele>516.3652344</ele>
        <time>2009-05-08T11:43:53Z</time>
      </trkpt>
      <trkpt lat="45.97613" lon="3.06294">
        <ele>515.4040527</ele>
        <time>2009-05-08T11:43:56Z</time>
      </trkpt>
      <trkpt lat="45.97611" lon="3.063">
        <ele>514.9233398</ele>
        <time>2009-05-08T11:43:57Z</time>
      </trkpt>
      <trkpt lat="45.97603" lon="3.06316">
        <ele>514.442627</ele>
        <time>2009-05-08T11:44:01Z</time>
      </trkpt>
      <trkpt lat="45.97592" lon="3.06332">
        <ele>514.9233398</ele>
        <time>2009-05-08T11:44:06Z</time>
      </trkpt>
      <trkpt lat="45.97588" lon="3.06336">
        <ele>514.442627</ele>
        <time>2009-05-08T11:44:08Z</time>
      </trkpt>
      <trkpt lat="45.97573" lon="3.06352">
        <ele>515.4040527</ele>
        <time>2009-05-08T11:44:14Z</time>
      </trkpt>
      <trkpt lat="45.97566" lon="3.06366">
        <ele>516.3652344</ele>
        <time>2009-05-08T11:44:20Z</time>
      </trkpt>
      <trkpt lat="45.9756" lon="3.06378">
        <ele>517.807251</ele>
        <time>2009-05-08T11:44:26Z</time>
      </trkpt>
      <trkpt lat="45.97556" lon="3.06389">
        <ele>518.2878418</ele>
        <time>2009-05-08T11:44:30Z</time>
      </trkpt>
      <trkpt lat="45.97553" lon="3.06405">
        <ele>518.7685547</ele>
        <time>2009-05-08T11:44:36Z</time>
      </trkpt>
      <trkpt lat="45.97549" lon="3.06418">
        <ele>520.2105713</ele>
        <time>2009-05-08T11:44:41Z</time>
      </trkpt>
      <trkpt lat="45.97542" lon="3.0644">
        <ele>520.6912842</ele>
        <time>2009-05-08T11:44:48Z</time>
      </trkpt>
      <trkpt lat="45.97533" lon="3.06463">
        <ele>520.2105713</ele>
        <time>2009-05-08T11:44:54Z</time>
      </trkpt>
      <trkpt lat="45.97522" lon="3.06481">
        <ele>518.7685547</ele>
        <time>2009-05-08T11:44:59Z</time>
      </trkpt>
      <trkpt lat="45.97519" lon="3.06486">
        <ele>518.7685547</ele>
        <time>2009-05-08T11:45:00Z</time>
      </trkpt>
      <trkpt lat="45.97502" lon="3.065">
        <ele>517.3266602</ele>
        <time>2009-05-08T11:45:05Z</time>
      </trkpt>
      <trkpt lat="45.97494" lon="3.06509">
        <ele>518.2878418</ele>
        <time>2009-05-08T11:45:09Z</time>
      </trkpt>
      <trkpt lat="45.97495" lon="3.06521">
        <ele>518.7685547</ele>
        <time>2009-05-08T11:45:13Z</time>
      </trkpt>
      <trkpt lat="45.97497" lon="3.06531">
        <ele>517.807251</ele>
        <time>2009-05-08T11:45:16Z</time>
      </trkpt>
      <trkpt lat="45.97494" lon="3.06552">
        <ele>517.3266602</ele>
        <time>2009-05-08T11:45:21Z</time>
      </trkpt>
      <trkpt lat="45.97494" lon="3.06579">
        <ele>516.8459473</ele>
        <time>2009-05-08T11:45:26Z</time>
      </trkpt>
      <trkpt lat="45.97492" lon="3.06606">
        <ele>518.7685547</ele>
        <time>2009-05-08T11:45:31Z</time>
      </trkpt>
      <trkpt lat="45.97487" lon="3.06629">
        <ele>518.2878418</ele>
        <time>2009-05-08T11:45:36Z</time>
      </trkpt>
      <trkpt lat="45.97479" lon="3.0664">
        <ele>517.807251</ele>
        <time>2009-05-08T11:45:40Z</time>
      </trkpt>
      <trkpt lat="45.97478" lon="3.06642">
        <ele>518.2878418</ele>
        <time>2009-05-08T11:45:41Z</time>
      </trkpt>
      <trkpt lat="45.97486" lon="3.06655">
        <ele>520.2105713</ele>
        <time>2009-05-08T11:45:47Z</time>
      </trkpt>
      <trkpt lat="45.97488" lon="3.06657">
        <ele>520.2105713</ele>
        <time>2009-05-08T11:45:48Z</time>
      </trkpt>
      <trkpt lat="45.97497" lon="3.06663">
        <ele>519.2492676</ele>
        <time>2009-05-08T11:45:51Z</time>
      </trkpt>
      <trkpt lat="45.97505" lon="3.06684">
        <ele>519.2492676</ele>
        <time>2009-05-08T11:45:55Z</time>
      </trkpt>
      <trkpt lat="45.97508" lon="3.06706">
        <ele>519.2492676</ele>
        <time>2009-05-08T11:45:59Z</time>
      </trkpt>
      <trkpt lat="45.97513" lon="3.06736">
        <ele>521.1719971</ele>
        <time>2009-05-08T11:46:04Z</time>
      </trkpt>
      <trkpt lat="45.9752" lon="3.06772">
        <ele>521.6525879</ele>
        <time>2009-05-08T11:46:10Z</time>
      </trkpt>
      <trkpt lat="45.97525" lon="3.06808">
        <ele>521.6525879</ele>
        <time>2009-05-08T11:46:16Z</time>
      </trkpt>
      <trkpt lat="45.97527" lon="3.06843">
        <ele>521.6525879</ele>
        <time>2009-05-08T11:46:22Z</time>
      </trkpt>
      <trkpt lat="45.9753" lon="3.06876">
        <ele>522.6138916</ele>
        <time>2009-05-08T11:46:28Z</time>
      </trkpt>
      <trkpt lat="45.9753" lon="3.0691">
        <ele>523.5751953</ele>
        <time>2009-05-08T11:46:35Z</time>
      </trkpt>
      <trkpt lat="45.9753" lon="3.06937">
        <ele>524.536499</ele>
        <time>2009-05-08T11:46:41Z</time>
      </trkpt>
      <trkpt lat="45.97527" lon="3.06964">
        <ele>524.0557861</ele>
        <time>2009-05-08T11:46:47Z</time>
      </trkpt>
      <trkpt lat="45.97525" lon="3.0699">
        <ele>523.5751953</ele>
        <time>2009-05-08T11:46:52Z</time>
      </trkpt>
      <trkpt lat="45.97526" lon="3.07012">
        <ele>521.6525879</ele>
        <time>2009-05-08T11:46:56Z</time>
      </trkpt>
      <trkpt lat="45.97525" lon="3.07047">
        <ele>520.2105713</ele>
        <time>2009-05-08T11:47:01Z</time>
      </trkpt>
      <trkpt lat="45.97525" lon="3.07053">
        <ele>519.2492676</ele>
        <time>2009-05-08T11:47:02Z</time>
      </trkpt>
      <trkpt lat="45.97529" lon="3.07065">
        <ele>517.807251</ele>
        <time>2009-05-08T11:47:04Z</time>
      </trkpt>
      <trkpt lat="45.97535" lon="3.07089">
        <ele>514.442627</ele>
        <time>2009-05-08T11:47:08Z</time>
      </trkpt>
      <trkpt lat="45.97534" lon="3.07094">
        <ele>513.9620361</ele>
        <time>2009-05-08T11:47:09Z</time>
      </trkpt>
      <trkpt lat="45.97532" lon="3.07105">
        <ele>512.5200195</ele>
        <time>2009-05-08T11:47:11Z</time>
      </trkpt>
      <trkpt lat="45.97527" lon="3.07115">
        <ele>511.0780029</ele>
        <time>2009-05-08T11:47:13Z</time>
      </trkpt>
      <trkpt lat="45.97509" lon="3.07125">
        <ele>508.6746826</ele>
        <time>2009-05-08T11:47:17Z</time>
      </trkpt>
      <trkpt lat="45.97504" lon="3.07126">
        <ele>507.713501</ele>
        <time>2009-05-08T11:47:18Z</time>
      </trkpt>
      <trkpt lat="45.97479" lon="3.07116">
        <ele>505.3101807</ele>
        <time>2009-05-08T11:47:23Z</time>
      </trkpt>
      <trkpt lat="45.97475" lon="3.07114">
        <ele>504.348877</ele>
        <time>2009-05-08T11:47:24Z</time>
      </trkpt>
      <trkpt lat="45.97466" lon="3.0711">
        <ele>503.8681641</ele>
        <time>2009-05-08T11:47:26Z</time>
      </trkpt>
      <trkpt lat="45.97446" lon="3.07097">
        <ele>502.4261475</ele>
        <time>2009-05-08T11:47:30Z</time>
      </trkpt>
      <trkpt lat="45.9743" lon="3.07085">
        <ele>500.0229492</ele>
        <time>2009-05-08T11:47:34Z</time>
      </trkpt>
      <trkpt lat="45.97426" lon="3.07087">
        <ele>499.0615234</ele>
        <time>2009-05-08T11:47:35Z</time>
      </trkpt>
      <trkpt lat="45.97404" lon="3.07086">
        <ele>496.6583252</ele>
        <time>2009-05-08T11:47:41Z</time>
      </trkpt>
      <trkpt lat="45.97399" lon="3.07085">
        <ele>496.1777344</ele>
        <time>2009-05-08T11:47:42Z</time>
      </trkpt>
      <trkpt lat="45.97387" lon="3.07084">
        <ele>495.2161865</ele>
        <time>2009-05-08T11:47:45Z</time>
      </trkpt>
      <trkpt lat="45.97353" lon="3.0708">
        <ele>493.2935791</ele>
        <time>2009-05-08T11:47:51Z</time>
      </trkpt>
      <trkpt lat="45.97333" lon="3.07079">
        <ele>492.3323975</ele>
        <time>2009-05-08T11:47:55Z</time>
      </trkpt>
      <trkpt lat="45.97317" lon="3.07068">
        <ele>491.3709717</ele>
        <time>2009-05-08T11:47:59Z</time>
      </trkpt>
      <trkpt lat="45.97297" lon="3.07056">
        <ele>490.40979</ele>
        <time>2009-05-08T11:48:03Z</time>
      </trkpt>
      <trkpt lat="45.97261" lon="3.07045">
        <ele>486.5644531</ele>
        <time>2009-05-08T11:48:08Z</time>
      </trkpt>
      <trkpt lat="45.97233" lon="3.07039">
        <ele>483.1998291</ele>
        <time>2009-05-08T11:48:11Z</time>
      </trkpt>
      <trkpt lat="45.97217" lon="3.07035">
        <ele>480.7966309</ele>
        <time>2009-05-08T11:48:13Z</time>
      </trkpt>
      <trkpt lat="45.97187" lon="3.07032">
        <ele>479.3544922</ele>
        <time>2009-05-08T11:48:17Z</time>
      </trkpt>
      <trkpt lat="45.9717" lon="3.07023">
        <ele>476.9512939</ele>
        <time>2009-05-08T11:48:21Z</time>
      </trkpt>
      <trkpt lat="45.97165" lon="3.07026">
        <ele>476.4705811</ele>
        <time>2009-05-08T11:48:24Z</time>
      </trkpt>
      <trkpt lat="45.97171" lon="3.07033">
        <ele>476.4705811</ele>
        <time>2009-05-08T11:48:27Z</time>
      </trkpt>
      <trkpt lat="45.9719" lon="3.07056">
        <ele>475.0286865</ele>
        <time>2009-05-08T11:48:34Z</time>
      </trkpt>
      <trkpt lat="45.97192" lon="3.07061">
        <ele>475.0286865</ele>
        <time>2009-05-08T11:48:35Z</time>
      </trkpt>
      <trkpt lat="45.97209" lon="3.071">
        <ele>472.6253662</ele>
        <time>2009-05-08T11:48:41Z</time>
      </trkpt>
      <trkpt lat="45.97219" lon="3.07126">
        <ele>469.741333</ele>
        <time>2009-05-08T11:48:44Z</time>
      </trkpt>
      <trkpt lat="45.97226" lon="3.07144">
        <ele>467.8187256</ele>
        <time>2009-05-08T11:48:46Z</time>
      </trkpt>
      <trkpt lat="45.9723" lon="3.07175">
        <ele>465.4155273</ele>
        <time>2009-05-08T11:48:50Z</time>
      </trkpt>
      <trkpt lat="45.97235" lon="3.07178">
        <ele>464.9348145</ele>
        <time>2009-05-08T11:48:53Z</time>
      </trkpt>
      <trkpt lat="45.97244" lon="3.07174">
        <ele>463.9733887</ele>
        <time>2009-05-08T11:48:57Z</time>
      </trkpt>
      <trkpt lat="45.97254" lon="3.07177">
        <ele>464.9348145</ele>
        <time>2009-05-08T11:49:02Z</time>
      </trkpt>
      <trkpt lat="45.97264" lon="3.07182">
        <ele>464.4541016</ele>
        <time>2009-05-08T11:49:06Z</time>
      </trkpt>
      <trkpt lat="45.97272" lon="3.07183">
        <ele>465.8961182</ele>
        <time>2009-05-08T11:49:10Z</time>
      </trkpt>
      <trkpt lat="45.97287" lon="3.07186">
        <ele>465.4155273</ele>
        <time>2009-05-08T11:49:15Z</time>
      </trkpt>
      <trkpt lat="45.97303" lon="3.07186">
        <ele>463.9733887</ele>
        <time>2009-05-08T11:49:19Z</time>
      </trkpt>
      <trkpt lat="45.9732" lon="3.07186">
        <ele>463.9733887</ele>
        <time>2009-05-08T11:49:24Z</time>
      </trkpt>
      <trkpt lat="45.97343" lon="3.07197">
        <ele>463.9733887</ele>
        <time>2009-05-08T11:49:31Z</time>
      </trkpt>
      <trkpt lat="45.97347" lon="3.07199">
        <ele>463.4927979</ele>
        <time>2009-05-08T11:49:32Z</time>
      </trkpt>
      <trkpt lat="45.97366" lon="3.07213">
        <ele>463.012085</ele>
        <time>2009-05-08T11:49:37Z</time>
      </trkpt>
      <trkpt lat="45.97386" lon="3.07231">
        <ele>460.1281738</ele>
        <time>2009-05-08T11:49:42Z</time>
      </trkpt>
      <trkpt lat="45.97395" lon="3.07241">
        <ele>459.1668701</ele>
        <time>2009-05-08T11:49:46Z</time>
      </trkpt>
      <trkpt lat="45.97403" lon="3.07251">
        <ele>458.2055664</ele>
        <time>2009-05-08T11:49:52Z</time>
      </trkpt>
      <trkpt lat="45.97411" lon="3.0725">
        <ele>458.2055664</ele>
        <time>2009-05-08T11:49:57Z</time>
      </trkpt>
      <trkpt lat="45.97426" lon="3.07252">
        <ele>458.2055664</ele>
        <time>2009-05-08T11:50:02Z</time>
      </trkpt>
      <trkpt lat="45.97437" lon="3.07266">
        <ele>457.7249756</ele>
        <time>2009-05-08T11:50:07Z</time>
      </trkpt>
      <trkpt lat="45.97454" lon="3.07285">
        <ele>457.2442627</ele>
        <time>2009-05-08T11:50:13Z</time>
      </trkpt>
      <trkpt lat="45.97465" lon="3.07304">
        <ele>457.7249756</ele>
        <time>2009-05-08T11:50:18Z</time>
      </trkpt>
      <trkpt lat="45.97483" lon="3.07313">
        <ele>457.2442627</ele>
        <time>2009-05-08T11:50:23Z</time>
      </trkpt>
      <trkpt lat="45.97508" lon="3.07307">
        <ele>455.8022461</ele>
        <time>2009-05-08T11:50:29Z</time>
      </trkpt>
      <trkpt lat="45.97511" lon="3.07296">
        <ele>454.8408203</ele>
        <time>2009-05-08T11:50:34Z</time>
      </trkpt>
      <trkpt lat="45.9751" lon="3.07295">
        <ele>455.3215332</ele>
        <time>2009-05-08T11:50:39Z</time>
      </trkpt>
      <trkpt lat="45.97511" lon="3.07294">
        <ele>454.8408203</ele>
        <time>2009-05-08T11:50:44Z</time>
      </trkpt>
      <trkpt lat="45.97515" lon="3.07292">
        <ele>454.3602295</ele>
        <time>2009-05-08T11:50:51Z</time>
      </trkpt>
      <trkpt lat="45.97516" lon="3.07292">
        <ele>454.3602295</ele>
        <time>2009-05-08T11:50:52Z</time>
      </trkpt>
      <trkpt lat="45.97522" lon="3.07285">
        <ele>456.282959</ele>
        <time>2009-05-08T11:51:00Z</time>
      </trkpt>
      <trkpt lat="45.97524" lon="3.07285">
        <ele>456.7635498</ele>
        <time>2009-05-08T11:51:03Z</time>
      </trkpt>
      <trkpt lat="45.97536" lon="3.07283">
        <ele>456.7635498</ele>
        <time>2009-05-08T11:51:09Z</time>
      </trkpt>
      <trkpt lat="45.97557" lon="3.07281">
        <ele>456.7635498</ele>
        <time>2009-05-08T11:51:14Z</time>
      </trkpt>
      <trkpt lat="45.97574" lon="3.07286">
        <ele>457.2442627</ele>
        <time>2009-05-08T11:51:19Z</time>
      </trkpt>
      <trkpt lat="45.97584" lon="3.07289">
        <ele>456.7635498</ele>
        <time>2009-05-08T11:51:23Z</time>
      </trkpt>
      <trkpt lat="45.97611" lon="3.07303">
        <ele>456.282959</ele>
        <time>2009-05-08T11:51:29Z</time>
      </trkpt>
      <trkpt lat="45.97619" lon="3.07304">
        <ele>454.8408203</ele>
        <time>2009-05-08T11:51:31Z</time>
      </trkpt>
      <trkpt lat="45.9763" lon="3.07306">
        <ele>454.8408203</ele>
        <time>2009-05-08T11:51:35Z</time>
      </trkpt>
      <trkpt lat="45.97636" lon="3.07307">
        <ele>454.8408203</ele>
        <time>2009-05-08T11:51:39Z</time>
      </trkpt>
      <trkpt lat="45.97642" lon="3.07306">
        <ele>456.7635498</ele>
        <time>2009-05-08T11:51:46Z</time>
      </trkpt>
      <trkpt lat="45.97646" lon="3.07311">
        <ele>457.7249756</ele>
        <time>2009-05-08T11:51:52Z</time>
      </trkpt>
      <trkpt lat="45.97647" lon="3.07315">
        <ele>458.2055664</ele>
        <time>2009-05-08T11:51:56Z</time>
      </trkpt>
      <trkpt lat="45.97653" lon="3.07327">
        <ele>457.2442627</ele>
        <time>2009-05-08T11:52:02Z</time>
      </trkpt>
      <trkpt lat="45.97657" lon="3.07334">
        <ele>456.7635498</ele>
        <time>2009-05-08T11:52:08Z</time>
      </trkpt>
      <trkpt lat="45.9766" lon="3.0734">
        <ele>456.282959</ele>
        <time>2009-05-08T11:52:14Z</time>
      </trkpt>
      <trkpt lat="45.97662" lon="3.07344">
        <ele>455.8022461</ele>
        <time>2009-05-08T11:52:19Z</time>
      </trkpt>
      <trkpt lat="45.97667" lon="3.07348">
        <ele>456.282959</ele>
        <time>2009-05-08T11:52:25Z</time>
      </trkpt>
      <trkpt lat="45.97673" lon="3.07356">
        <ele>456.282959</ele>
        <time>2009-05-08T11:52:29Z</time>
      </trkpt>
      <trkpt lat="45.97679" lon="3.07367">
        <ele>455.8022461</ele>
        <time>2009-05-08T11:52:34Z</time>
      </trkpt>
      <trkpt lat="45.97687" lon="3.07381">
        <ele>455.3215332</ele>
        <time>2009-05-08T11:52:40Z</time>
      </trkpt>
      <trkpt lat="45.97691" lon="3.07387">
        <ele>454.8408203</ele>
        <time>2009-05-08T11:52:43Z</time>
      </trkpt>
      <trkpt lat="45.97691" lon="3.07388">
        <ele>454.3602295</ele>
        <time>2009-05-08T11:52:44Z</time>
      </trkpt>
      <trkpt lat="45.9769" lon="3.07399">
        <ele>450.5150146</ele>
        <time>2009-05-08T11:52:47Z</time>
      </trkpt>
      <trkpt lat="45.97691" lon="3.07412">
        <ele>450.0344238</ele>
        <time>2009-05-08T11:52:49Z</time>
      </trkpt>
      <trkpt lat="45.97698" lon="3.07419">
        <ele>449.5537109</ele>
        <time>2009-05-08T11:52:53Z</time>
      </trkpt>
      <trkpt lat="45.97705" lon="3.07417">
        <ele>450.0344238</ele>
        <time>2009-05-08T11:52:55Z</time>
      </trkpt>
      <trkpt lat="45.97717" lon="3.07417">
        <ele>450.0344238</ele>
        <time>2009-05-08T11:52:58Z</time>
      </trkpt>
      <trkpt lat="45.97735" lon="3.07425">
        <ele>449.5537109</ele>
        <time>2009-05-08T11:53:02Z</time>
      </trkpt>
      <trkpt lat="45.97749" lon="3.07428">
        <ele>449.072998</ele>
        <time>2009-05-08T11:53:05Z</time>
      </trkpt>
      <trkpt lat="45.97775" lon="3.07433">
        <ele>448.1118164</ele>
        <time>2009-05-08T11:53:10Z</time>
      </trkpt>
      <trkpt lat="45.97796" lon="3.07429">
        <ele>448.1118164</ele>
        <time>2009-05-08T11:53:14Z</time>
      </trkpt>
      <trkpt lat="45.97828" lon="3.07424">
        <ele>446.6696777</ele>
        <time>2009-05-08T11:53:20Z</time>
      </trkpt>
      <trkpt lat="45.97843" lon="3.07426">
        <ele>445.2276611</ele>
        <time>2009-05-08T11:53:23Z</time>
      </trkpt>
      <trkpt lat="45.97855" lon="3.07432">
        <ele>442.8244629</ele>
        <time>2009-05-08T11:53:26Z</time>
      </trkpt>
      <trkpt lat="45.97865" lon="3.07448">
        <ele>442.8244629</ele>
        <time>2009-05-08T11:53:32Z</time>
      </trkpt>
      <trkpt lat="45.97883" lon="3.07465">
        <ele>443.3050537</ele>
        <time>2009-05-08T11:53:37Z</time>
      </trkpt>
      <trkpt lat="45.97901" lon="3.07485">
        <ele>441.8631592</ele>
        <time>2009-05-08T11:53:41Z</time>
      </trkpt>
      <trkpt lat="45.97929" lon="3.07502">
        <ele>440.9018555</ele>
        <time>2009-05-08T11:53:46Z</time>
      </trkpt>
      <trkpt lat="45.97954" lon="3.0751">
        <ele>439.9404297</ele>
        <time>2009-05-08T11:53:51Z</time>
      </trkpt>
      <trkpt lat="45.97983" lon="3.07519">
        <ele>439.9404297</ele>
        <time>2009-05-08T11:53:56Z</time>
      </trkpt>
      <trkpt lat="45.98005" lon="3.07545">
        <ele>438.4985352</ele>
        <time>2009-05-08T11:54:01Z</time>
      </trkpt>
      <trkpt lat="45.98017" lon="3.07572">
        <ele>437.5371094</ele>
        <time>2009-05-08T11:54:05Z</time>
      </trkpt>
      <trkpt lat="45.98026" lon="3.07593">
        <ele>437.0565186</ele>
        <time>2009-05-08T11:54:08Z</time>
      </trkpt>
      <trkpt lat="45.98042" lon="3.07609">
        <ele>436.5759277</ele>
        <time>2009-05-08T11:54:12Z</time>
      </trkpt>
      <trkpt lat="45.9806" lon="3.07613">
        <ele>435.614502</ele>
        <time>2009-05-08T11:54:16Z</time>
      </trkpt>
      <trkpt lat="45.98074" lon="3.07625">
        <ele>434.1726074</ele>
        <time>2009-05-08T11:54:19Z</time>
      </trkpt>
      <trkpt lat="45.98077" lon="3.07641">
        <ele>433.2113037</ele>
        <time>2009-05-08T11:54:21Z</time>
      </trkpt>
      <trkpt lat="45.98081" lon="3.07673">
        <ele>432.7307129</ele>
        <time>2009-05-08T11:54:25Z</time>
      </trkpt>
      <trkpt lat="45.98083" lon="3.07711">
        <ele>430.8079834</ele>
        <time>2009-05-08T11:54:29Z</time>
      </trkpt>
      <trkpt lat="45.98081" lon="3.07742">
        <ele>431.2885742</ele>
        <time>2009-05-08T11:54:32Z</time>
      </trkpt>
      <trkpt lat="45.98091" lon="3.07772">
        <ele>432.25</ele>
        <time>2009-05-08T11:54:36Z</time>
      </trkpt>
      <trkpt lat="45.98095" lon="3.0778">
        <ele>431.2885742</ele>
        <time>2009-05-08T11:54:37Z</time>
      </trkpt>
      <trkpt lat="45.98105" lon="3.07793">
        <ele>430.8079834</ele>
        <time>2009-05-08T11:54:39Z</time>
      </trkpt>
      <trkpt lat="45.98131" lon="3.07827">
        <ele>429.3659668</ele>
        <time>2009-05-08T11:54:44Z</time>
      </trkpt>
      <trkpt lat="45.98136" lon="3.07834">
        <ele>429.8465576</ele>
        <time>2009-05-08T11:54:45Z</time>
      </trkpt>
      <trkpt lat="45.9815" lon="3.07878">
        <ele>427.4433594</ele>
        <time>2009-05-08T11:54:50Z</time>
      </trkpt>
      <trkpt lat="45.9815" lon="3.07897">
        <ele>427.9239502</ele>
        <time>2009-05-08T11:54:52Z</time>
      </trkpt>
      <trkpt lat="45.98153" lon="3.07937">
        <ele>428.885376</ele>
        <time>2009-05-08T11:54:56Z</time>
      </trkpt>
      <trkpt lat="45.98166" lon="3.07977">
        <ele>429.3659668</ele>
        <time>2009-05-08T11:55:01Z</time>
      </trkpt>
      <trkpt lat="45.98186" lon="3.08013">
        <ele>429.3659668</ele>
        <time>2009-05-08T11:55:06Z</time>
      </trkpt>
      <trkpt lat="45.98214" lon="3.08017">
        <ele>430.3272705</ele>
        <time>2009-05-08T11:55:12Z</time>
      </trkpt>
      <trkpt lat="45.98218" lon="3.08016">
        <ele>430.8079834</ele>
        <time>2009-05-08T11:55:13Z</time>
      </trkpt>
      <trkpt lat="45.98237" lon="3.0802">
        <ele>431.769165</ele>
        <time>2009-05-08T11:55:18Z</time>
      </trkpt>
      <trkpt lat="45.98265" lon="3.08039">
        <ele>432.25</ele>
        <time>2009-05-08T11:55:26Z</time>
      </trkpt>
      <trkpt lat="45.98268" lon="3.08042">
        <ele>431.769165</ele>
        <time>2009-05-08T11:55:27Z</time>
      </trkpt>
      <trkpt lat="45.98274" lon="3.08065">
        <ele>430.3272705</ele>
        <time>2009-05-08T11:55:31Z</time>
      </trkpt>
      <trkpt lat="45.98278" lon="3.08099">
        <ele>429.3659668</ele>
        <time>2009-05-08T11:55:35Z</time>
      </trkpt>
      <trkpt lat="45.98284" lon="3.08126">
        <ele>428.4046631</ele>
        <time>2009-05-08T11:55:38Z</time>
      </trkpt>
      <trkpt lat="45.98287" lon="3.08164">
        <ele>427.9239502</ele>
        <time>2009-05-08T11:55:42Z</time>
      </trkpt>
      <trkpt lat="45.98285" lon="3.08215">
        <ele>426.0013428</ele>
        <time>2009-05-08T11:55:47Z</time>
      </trkpt>
      <trkpt lat="45.98285" lon="3.08245">
        <ele>425.0401611</ele>
        <time>2009-05-08T11:55:50Z</time>
      </trkpt>
      <trkpt lat="45.98285" lon="3.08255">
        <ele>424.0787354</ele>
        <time>2009-05-08T11:55:51Z</time>
      </trkpt>
      <trkpt lat="45.98284" lon="3.08272">
        <ele>423.5980225</ele>
        <time>2009-05-08T11:55:53Z</time>
      </trkpt>
      <trkpt lat="45.98275" lon="3.08292">
        <ele>423.1174316</ele>
        <time>2009-05-08T11:55:56Z</time>
      </trkpt>
      <trkpt lat="45.98263" lon="3.08319">
        <ele>423.1174316</ele>
        <time>2009-05-08T11:56:00Z</time>
      </trkpt>
      <trkpt lat="45.98258" lon="3.0834">
        <ele>421.675415</ele>
        <time>2009-05-08T11:56:03Z</time>
      </trkpt>
      <trkpt lat="45.98255" lon="3.08382">
        <ele>422.1560059</ele>
        <time>2009-05-08T11:56:08Z</time>
      </trkpt>
      <trkpt lat="45.98256" lon="3.08391">
        <ele>422.1560059</ele>
        <time>2009-05-08T11:56:09Z</time>
      </trkpt>
      <trkpt lat="45.98266" lon="3.08438">
        <ele>420.7141113</ele>
        <time>2009-05-08T11:56:14Z</time>
      </trkpt>
      <trkpt lat="45.98272" lon="3.08512">
        <ele>419.7528076</ele>
        <time>2009-05-08T11:56:21Z</time>
      </trkpt>
      <trkpt lat="45.98273" lon="3.08544">
        <ele>418.7915039</ele>
        <time>2009-05-08T11:56:24Z</time>
      </trkpt>
      <trkpt lat="45.9828" lon="3.08609">
        <ele>418.310791</ele>
        <time>2009-05-08T11:56:30Z</time>
      </trkpt>
      <trkpt lat="45.9828" lon="3.08663">
        <ele>416.8688965</ele>
        <time>2009-05-08T11:56:35Z</time>
      </trkpt>
      <trkpt lat="45.98279" lon="3.08728">
        <ele>414.946167</ele>
        <time>2009-05-08T11:56:41Z</time>
      </trkpt>
      <trkpt lat="45.98279" lon="3.08738">
        <ele>414.946167</ele>
        <time>2009-05-08T11:56:42Z</time>
      </trkpt>
      <trkpt lat="45.9828" lon="3.08782">
        <ele>413.9848633</ele>
        <time>2009-05-08T11:56:47Z</time>
      </trkpt>
      <trkpt lat="45.98281" lon="3.088">
        <ele>413.0235596</ele>
        <time>2009-05-08T11:56:51Z</time>
      </trkpt>
      <trkpt lat="45.9828" lon="3.08805">
        <ele>412.5428467</ele>
        <time>2009-05-08T11:56:55Z</time>
      </trkpt>
      <trkpt lat="45.9828" lon="3.08806">
        <ele>412.5428467</ele>
        <time>2009-05-08T11:56:56Z</time>
      </trkpt>
      <trkpt lat="45.98281" lon="3.08809">
        <ele>412.5428467</ele>
        <time>2009-05-08T11:57:01Z</time>
      </trkpt>
      <trkpt lat="45.98282" lon="3.08822">
        <ele>412.5428467</ele>
        <time>2009-05-08T11:57:05Z</time>
      </trkpt>
      <trkpt lat="45.98285" lon="3.08849">
        <ele>412.5428467</ele>
        <time>2009-05-08T11:57:09Z</time>
      </trkpt>
      <trkpt lat="45.98287" lon="3.08881">
        <ele>412.0622559</ele>
        <time>2009-05-08T11:57:13Z</time>
      </trkpt>
      <trkpt lat="45.98288" lon="3.08899">
        <ele>411.581665</ele>
        <time>2009-05-08T11:57:15Z</time>
      </trkpt>
      <trkpt lat="45.98294" lon="3.08969">
        <ele>411.581665</ele>
        <time>2009-05-08T11:57:22Z</time>
      </trkpt>
      <trkpt lat="45.98301" lon="3.09063">
        <ele>410.1396484</ele>
        <time>2009-05-08T11:57:31Z</time>
      </trkpt>
      <trkpt lat="45.98309" lon="3.09167">
        <ele>408.6976318</ele>
        <time>2009-05-08T11:57:41Z</time>
      </trkpt>
      <trkpt lat="45.98317" lon="3.09256">
        <ele>407.7363281</ele>
        <time>2009-05-08T11:57:49Z</time>
      </trkpt>
      <trkpt lat="45.98323" lon="3.09355">
        <ele>406.2943115</ele>
        <time>2009-05-08T11:57:58Z</time>
      </trkpt>
      <trkpt lat="45.98323" lon="3.09403">
        <ele>404.3717041</ele>
        <time>2009-05-08T11:58:03Z</time>
      </trkpt>
      <trkpt lat="45.9833" lon="3.09422">
        <ele>404.8522949</ele>
        <time>2009-05-08T11:58:06Z</time>
      </trkpt>
      <trkpt lat="45.98341" lon="3.09421">
        <ele>404.8522949</ele>
        <time>2009-05-08T11:58:08Z</time>
      </trkpt>
      <trkpt lat="45.98397" lon="3.09413">
        <ele>404.8522949</ele>
        <time>2009-05-08T11:58:18Z</time>
      </trkpt>
      <trkpt lat="45.98424" lon="3.09416">
        <ele>403.8911133</ele>
        <time>2009-05-08T11:58:23Z</time>
      </trkpt>
      <trkpt lat="45.98429" lon="3.09417">
        <ele>403.8911133</ele>
        <time>2009-05-08T11:58:24Z</time>
      </trkpt>
    </trkseg>
  </trk>
</gpx>